<?xml version="1.0" encoding="UTF-8" standalone="no" ?>
<gpx xmlns="http://www.topografix.com/GPX/1/1" xmlns:xsi="http://www.w3.org/2001/XMLSchema-instance" xsi:schemaLocation="http://www.topografix.com/GPX/1/1 http://www.topografix.com/GPX/1/1/gpx.xsd" version="1.1" creator="VisuGPX - https://www.visugpx.com">
  <metadata>
    <name>Pornichet 06/12/2020</name>
    <desc><![CDATA[Sortie VTT du dimanche 06 décembre 2020]]></desc>
  </metadata>
  <trk>
    <name><![CDATA[Pornichet Cyclisme]]></name>
    <trkseg>
      <trkpt lat="47.26408" lon="-2.31571">
        <ele>37.599998474121</ele>
        <time>2020-12-06T08:05:51.000Z</time>
      </trkpt>
      <trkpt lat="47.26407" lon="-2.3159">
        <ele>37.599998474121</ele>
        <time>2020-12-06T08:05:55.000Z</time>
      </trkpt>
      <trkpt lat="47.26407" lon="-2.31595">
        <ele>37.599998474121</ele>
        <time>2020-12-06T08:05:56.000Z</time>
      </trkpt>
      <trkpt lat="47.26407" lon="-2.316">
        <ele>35.599998474121</ele>
        <time>2020-12-06T08:05:57.000Z</time>
      </trkpt>
      <trkpt lat="47.26407" lon="-2.31613">
        <ele>35.599998474121</ele>
        <time>2020-12-06T08:05:59.000Z</time>
      </trkpt>
      <trkpt lat="47.26408" lon="-2.31647">
        <ele>35.599998474121</ele>
        <time>2020-12-06T08:06:05.000Z</time>
      </trkpt>
      <trkpt lat="47.26416" lon="-2.31662">
        <ele>35.599998474121</ele>
        <time>2020-12-06T08:06:09.000Z</time>
      </trkpt>
      <trkpt lat="47.26429" lon="-2.31657">
        <ele>35.599998474121</ele>
        <time>2020-12-06T08:06:12.000Z</time>
      </trkpt>
      <trkpt lat="47.26452" lon="-2.31651">
        <ele>35.599998474121</ele>
        <time>2020-12-06T08:06:19.000Z</time>
      </trkpt>
      <trkpt lat="47.26479" lon="-2.31647">
        <ele>35.599998474121</ele>
        <time>2020-12-06T08:06:26.000Z</time>
      </trkpt>
      <trkpt lat="47.26505" lon="-2.31642">
        <ele>36.599998474121</ele>
        <time>2020-12-06T08:06:33.000Z</time>
      </trkpt>
      <trkpt lat="47.26508" lon="-2.3164">
        <ele>37.799999237061</ele>
        <time>2020-12-06T08:06:34.000Z</time>
      </trkpt>
      <trkpt lat="47.26511" lon="-2.31639">
        <ele>38.799999237061</ele>
        <time>2020-12-06T08:06:35.000Z</time>
      </trkpt>
      <trkpt lat="47.26514" lon="-2.31638">
        <ele>39.799999237061</ele>
        <time>2020-12-06T08:06:36.000Z</time>
      </trkpt>
      <trkpt lat="47.26518" lon="-2.31637">
        <ele>40.799999237061</ele>
        <time>2020-12-06T08:06:37.000Z</time>
      </trkpt>
      <trkpt lat="47.26538" lon="-2.31624">
        <ele>41.200000762939</ele>
        <time>2020-12-06T08:06:44.000Z</time>
      </trkpt>
      <trkpt lat="47.26541" lon="-2.31623">
        <ele>41.599998474121</ele>
        <time>2020-12-06T08:06:45.000Z</time>
      </trkpt>
      <trkpt lat="47.26544" lon="-2.3162">
        <ele>42.599998474121</ele>
        <time>2020-12-06T08:06:46.000Z</time>
      </trkpt>
      <trkpt lat="47.26547" lon="-2.31619">
        <ele>43</ele>
        <time>2020-12-06T08:06:47.000Z</time>
      </trkpt>
      <trkpt lat="47.26556" lon="-2.31614">
        <ele>43</ele>
        <time>2020-12-06T08:06:50.000Z</time>
      </trkpt>
      <trkpt lat="47.26568" lon="-2.31606">
        <ele>43.400001525879</ele>
        <time>2020-12-06T08:06:54.000Z</time>
      </trkpt>
      <trkpt lat="47.26571" lon="-2.31604">
        <ele>43.799999237061</ele>
        <time>2020-12-06T08:06:55.000Z</time>
      </trkpt>
      <trkpt lat="47.26574" lon="-2.31602">
        <ele>44.200000762939</ele>
        <time>2020-12-06T08:06:56.000Z</time>
      </trkpt>
      <trkpt lat="47.26576" lon="-2.316">
        <ele>44.599998474121</ele>
        <time>2020-12-06T08:06:57.000Z</time>
      </trkpt>
      <trkpt lat="47.2658" lon="-2.31598">
        <ele>45</ele>
        <time>2020-12-06T08:06:58.000Z</time>
      </trkpt>
      <trkpt lat="47.26586" lon="-2.31594">
        <ele>45</ele>
        <time>2020-12-06T08:07:00.000Z</time>
      </trkpt>
      <trkpt lat="47.26596" lon="-2.31586">
        <ele>45.400001525879</ele>
        <time>2020-12-06T08:07:04.000Z</time>
      </trkpt>
      <trkpt lat="47.26598" lon="-2.31584">
        <ele>45.799999237061</ele>
        <time>2020-12-06T08:07:05.000Z</time>
      </trkpt>
      <trkpt lat="47.266" lon="-2.31582">
        <ele>46.200000762939</ele>
        <time>2020-12-06T08:07:06.000Z</time>
      </trkpt>
      <trkpt lat="47.26602" lon="-2.31581">
        <ele>46.599998474121</ele>
        <time>2020-12-06T08:07:07.000Z</time>
      </trkpt>
      <trkpt lat="47.26604" lon="-2.31579">
        <ele>47</ele>
        <time>2020-12-06T08:07:08.000Z</time>
      </trkpt>
      <trkpt lat="47.26614" lon="-2.31571">
        <ele>47.400001525879</ele>
        <time>2020-12-06T08:07:12.000Z</time>
      </trkpt>
      <trkpt lat="47.26616" lon="-2.3157">
        <ele>47.799999237061</ele>
        <time>2020-12-06T08:07:13.000Z</time>
      </trkpt>
      <trkpt lat="47.26619" lon="-2.31568">
        <ele>48.200000762939</ele>
        <time>2020-12-06T08:07:14.000Z</time>
      </trkpt>
      <trkpt lat="47.26621" lon="-2.31567">
        <ele>48.799999237061</ele>
        <time>2020-12-06T08:07:15.000Z</time>
      </trkpt>
      <trkpt lat="47.26624" lon="-2.31566">
        <ele>49.200000762939</ele>
        <time>2020-12-06T08:07:16.000Z</time>
      </trkpt>
      <trkpt lat="47.26628" lon="-2.31563">
        <ele>49.200000762939</ele>
        <time>2020-12-06T08:07:18.000Z</time>
      </trkpt>
      <trkpt lat="47.26635" lon="-2.31558">
        <ele>49.599998474121</ele>
        <time>2020-12-06T08:07:22.000Z</time>
      </trkpt>
      <trkpt lat="47.26637" lon="-2.31559">
        <ele>50</ele>
        <time>2020-12-06T08:07:23.000Z</time>
      </trkpt>
      <trkpt lat="47.26638" lon="-2.31561">
        <ele>50.400001525879</ele>
        <time>2020-12-06T08:07:24.000Z</time>
      </trkpt>
      <trkpt lat="47.26639" lon="-2.31564">
        <ele>50.799999237061</ele>
        <time>2020-12-06T08:07:25.000Z</time>
      </trkpt>
      <trkpt lat="47.2664" lon="-2.31568">
        <ele>51.200000762939</ele>
        <time>2020-12-06T08:07:26.000Z</time>
      </trkpt>
      <trkpt lat="47.26642" lon="-2.31571">
        <ele>51.200000762939</ele>
        <time>2020-12-06T08:07:27.000Z</time>
      </trkpt>
      <trkpt lat="47.26651" lon="-2.31591">
        <ele>51.200000762939</ele>
        <time>2020-12-06T08:07:32.000Z</time>
      </trkpt>
      <trkpt lat="47.26663" lon="-2.31625">
        <ele>51.200000762939</ele>
        <time>2020-12-06T08:07:39.000Z</time>
      </trkpt>
      <trkpt lat="47.2668" lon="-2.31663">
        <ele>51.200000762939</ele>
        <time>2020-12-06T08:07:47.000Z</time>
      </trkpt>
      <trkpt lat="47.2669" lon="-2.31692">
        <ele>51.200000762939</ele>
        <time>2020-12-06T08:07:53.000Z</time>
      </trkpt>
      <trkpt lat="47.26693" lon="-2.31702">
        <ele>51.599998474121</ele>
        <time>2020-12-06T08:07:55.000Z</time>
      </trkpt>
      <trkpt lat="47.26695" lon="-2.31707">
        <ele>52</ele>
        <time>2020-12-06T08:07:56.000Z</time>
      </trkpt>
      <trkpt lat="47.26696" lon="-2.31712">
        <ele>52.400001525879</ele>
        <time>2020-12-06T08:07:57.000Z</time>
      </trkpt>
      <trkpt lat="47.26697" lon="-2.31718">
        <ele>52.799999237061</ele>
        <time>2020-12-06T08:07:58.000Z</time>
      </trkpt>
      <trkpt lat="47.26699" lon="-2.31723">
        <ele>53.200000762939</ele>
        <time>2020-12-06T08:07:59.000Z</time>
      </trkpt>
      <trkpt lat="47.26702" lon="-2.31737">
        <ele>53.200000762939</ele>
        <time>2020-12-06T08:08:02.000Z</time>
      </trkpt>
      <trkpt lat="47.26711" lon="-2.31771">
        <ele>53.200000762939</ele>
        <time>2020-12-06T08:08:08.000Z</time>
      </trkpt>
      <trkpt lat="47.26713" lon="-2.31777">
        <ele>53.200000762939</ele>
        <time>2020-12-06T08:08:09.000Z</time>
      </trkpt>
      <trkpt lat="47.2673" lon="-2.31836">
        <ele>53.200000762939</ele>
        <time>2020-12-06T08:08:19.000Z</time>
      </trkpt>
      <trkpt lat="47.26741" lon="-2.31855">
        <ele>53.200000762939</ele>
        <time>2020-12-06T08:08:23.000Z</time>
      </trkpt>
      <trkpt lat="47.26745" lon="-2.31853">
        <ele>53.200000762939</ele>
        <time>2020-12-06T08:08:24.000Z</time>
      </trkpt>
      <trkpt lat="47.26757" lon="-2.31843">
        <ele>53.200000762939</ele>
        <time>2020-12-06T08:08:27.000Z</time>
      </trkpt>
      <trkpt lat="47.26761" lon="-2.31839">
        <ele>53.200000762939</ele>
        <time>2020-12-06T08:08:28.000Z</time>
      </trkpt>
      <trkpt lat="47.26796" lon="-2.31814">
        <ele>53.200000762939</ele>
        <time>2020-12-06T08:08:36.000Z</time>
      </trkpt>
      <trkpt lat="47.2683" lon="-2.31797">
        <ele>53.200000762939</ele>
        <time>2020-12-06T08:08:43.000Z</time>
      </trkpt>
      <trkpt lat="47.26863" lon="-2.3178">
        <ele>53.200000762939</ele>
        <time>2020-12-06T08:08:50.000Z</time>
      </trkpt>
      <trkpt lat="47.26876" lon="-2.31769">
        <ele>52.799999237061</ele>
        <time>2020-12-06T08:08:53.000Z</time>
      </trkpt>
      <trkpt lat="47.2688" lon="-2.31763">
        <ele>52.400001525879</ele>
        <time>2020-12-06T08:08:54.000Z</time>
      </trkpt>
      <trkpt lat="47.26883" lon="-2.31757">
        <ele>52</ele>
        <time>2020-12-06T08:08:55.000Z</time>
      </trkpt>
      <trkpt lat="47.26886" lon="-2.3175">
        <ele>51.400001525879</ele>
        <time>2020-12-06T08:08:56.000Z</time>
      </trkpt>
      <trkpt lat="47.26889" lon="-2.31743">
        <ele>51</ele>
        <time>2020-12-06T08:08:57.000Z</time>
      </trkpt>
      <trkpt lat="47.26892" lon="-2.31728">
        <ele>51</ele>
        <time>2020-12-06T08:08:59.000Z</time>
      </trkpt>
      <trkpt lat="47.26891" lon="-2.31692">
        <ele>51</ele>
        <time>2020-12-06T08:09:04.000Z</time>
      </trkpt>
      <trkpt lat="47.26883" lon="-2.31644">
        <ele>51</ele>
        <time>2020-12-06T08:09:12.000Z</time>
      </trkpt>
      <trkpt lat="47.26885" lon="-2.31629">
        <ele>51</ele>
        <time>2020-12-06T08:09:15.000Z</time>
      </trkpt>
      <trkpt lat="47.26889" lon="-2.31627">
        <ele>51</ele>
        <time>2020-12-06T08:09:16.000Z</time>
      </trkpt>
      <trkpt lat="47.26898" lon="-2.31628">
        <ele>51.400001525879</ele>
        <time>2020-12-06T08:09:18.000Z</time>
      </trkpt>
      <trkpt lat="47.26902" lon="-2.31628">
        <ele>51.799999237061</ele>
        <time>2020-12-06T08:09:19.000Z</time>
      </trkpt>
      <trkpt lat="47.26907" lon="-2.31629">
        <ele>52.200000762939</ele>
        <time>2020-12-06T08:09:20.000Z</time>
      </trkpt>
      <trkpt lat="47.26913" lon="-2.31631">
        <ele>52.799999237061</ele>
        <time>2020-12-06T08:09:21.000Z</time>
      </trkpt>
      <trkpt lat="47.26918" lon="-2.31634">
        <ele>53.200000762939</ele>
        <time>2020-12-06T08:09:22.000Z</time>
      </trkpt>
      <trkpt lat="47.26929" lon="-2.31639">
        <ele>53.200000762939</ele>
        <time>2020-12-06T08:09:24.000Z</time>
      </trkpt>
      <trkpt lat="47.26961" lon="-2.31659">
        <ele>52.599998474121</ele>
        <time>2020-12-06T08:09:29.000Z</time>
      </trkpt>
      <trkpt lat="47.26968" lon="-2.31664">
        <ele>52.200000762939</ele>
        <time>2020-12-06T08:09:30.000Z</time>
      </trkpt>
      <trkpt lat="47.26975" lon="-2.31668">
        <ele>51.799999237061</ele>
        <time>2020-12-06T08:09:31.000Z</time>
      </trkpt>
      <trkpt lat="47.26983" lon="-2.31673">
        <ele>51.200000762939</ele>
        <time>2020-12-06T08:09:32.000Z</time>
      </trkpt>
      <trkpt lat="47.2699" lon="-2.31677">
        <ele>50.799999237061</ele>
        <time>2020-12-06T08:09:33.000Z</time>
      </trkpt>
      <trkpt lat="47.27018" lon="-2.31699">
        <ele>50.400001525879</ele>
        <time>2020-12-06T08:09:37.000Z</time>
      </trkpt>
      <trkpt lat="47.27025" lon="-2.31705">
        <ele>50</ele>
        <time>2020-12-06T08:09:38.000Z</time>
      </trkpt>
      <trkpt lat="47.27031" lon="-2.31709">
        <ele>49.599998474121</ele>
        <time>2020-12-06T08:09:39.000Z</time>
      </trkpt>
      <trkpt lat="47.27038" lon="-2.31715">
        <ele>48.799999237061</ele>
        <time>2020-12-06T08:09:40.000Z</time>
      </trkpt>
      <trkpt lat="47.27056" lon="-2.31729">
        <ele>48.200000762939</ele>
        <time>2020-12-06T08:09:43.000Z</time>
      </trkpt>
      <trkpt lat="47.27063" lon="-2.31734">
        <ele>47.799999237061</ele>
        <time>2020-12-06T08:09:44.000Z</time>
      </trkpt>
      <trkpt lat="47.2707" lon="-2.31739">
        <ele>47.200000762939</ele>
        <time>2020-12-06T08:09:45.000Z</time>
      </trkpt>
      <trkpt lat="47.27077" lon="-2.31745">
        <ele>46.799999237061</ele>
        <time>2020-12-06T08:09:46.000Z</time>
      </trkpt>
      <trkpt lat="47.27083" lon="-2.3175">
        <ele>46.400001525879</ele>
        <time>2020-12-06T08:09:47.000Z</time>
      </trkpt>
      <trkpt lat="47.27097" lon="-2.31762">
        <ele>46</ele>
        <time>2020-12-06T08:09:49.000Z</time>
      </trkpt>
      <trkpt lat="47.27104" lon="-2.31768">
        <ele>45.400001525879</ele>
        <time>2020-12-06T08:09:50.000Z</time>
      </trkpt>
      <trkpt lat="47.27111" lon="-2.31775">
        <ele>45</ele>
        <time>2020-12-06T08:09:51.000Z</time>
      </trkpt>
      <trkpt lat="47.27117" lon="-2.31781">
        <ele>44.599998474121</ele>
        <time>2020-12-06T08:09:52.000Z</time>
      </trkpt>
      <trkpt lat="47.27124" lon="-2.31788">
        <ele>44.200000762939</ele>
        <time>2020-12-06T08:09:53.000Z</time>
      </trkpt>
      <trkpt lat="47.27146" lon="-2.31821">
        <ele>44.200000762939</ele>
        <time>2020-12-06T08:09:57.000Z</time>
      </trkpt>
      <trkpt lat="47.27163" lon="-2.31846">
        <ele>43.799999237061</ele>
        <time>2020-12-06T08:10:00.000Z</time>
      </trkpt>
      <trkpt lat="47.27168" lon="-2.31854">
        <ele>43.400001525879</ele>
        <time>2020-12-06T08:10:01.000Z</time>
      </trkpt>
      <trkpt lat="47.27174" lon="-2.31862">
        <ele>43</ele>
        <time>2020-12-06T08:10:02.000Z</time>
      </trkpt>
      <trkpt lat="47.2718" lon="-2.31869">
        <ele>42.599998474121</ele>
        <time>2020-12-06T08:10:03.000Z</time>
      </trkpt>
      <trkpt lat="47.27187" lon="-2.31876">
        <ele>41.799999237061</ele>
        <time>2020-12-06T08:10:04.000Z</time>
      </trkpt>
      <trkpt lat="47.27193" lon="-2.31883">
        <ele>41.400001525879</ele>
        <time>2020-12-06T08:10:05.000Z</time>
      </trkpt>
      <trkpt lat="47.27199" lon="-2.31889">
        <ele>40.799999237061</ele>
        <time>2020-12-06T08:10:06.000Z</time>
      </trkpt>
      <trkpt lat="47.27206" lon="-2.31896">
        <ele>40.400001525879</ele>
        <time>2020-12-06T08:10:07.000Z</time>
      </trkpt>
      <trkpt lat="47.27212" lon="-2.31902">
        <ele>40</ele>
        <time>2020-12-06T08:10:08.000Z</time>
      </trkpt>
      <trkpt lat="47.27223" lon="-2.31912">
        <ele>40</ele>
        <time>2020-12-06T08:10:10.000Z</time>
      </trkpt>
      <trkpt lat="47.2723" lon="-2.31916">
        <ele>40</ele>
        <time>2020-12-06T08:10:11.000Z</time>
      </trkpt>
      <trkpt lat="47.27248" lon="-2.31923">
        <ele>40</ele>
        <time>2020-12-06T08:10:14.000Z</time>
      </trkpt>
      <trkpt lat="47.27293" lon="-2.31936">
        <ele>40</ele>
        <time>2020-12-06T08:10:21.000Z</time>
      </trkpt>
      <trkpt lat="47.27306" lon="-2.3194">
        <ele>39.599998474121</ele>
        <time>2020-12-06T08:10:23.000Z</time>
      </trkpt>
      <trkpt lat="47.27312" lon="-2.31943">
        <ele>39.200000762939</ele>
        <time>2020-12-06T08:10:24.000Z</time>
      </trkpt>
      <trkpt lat="47.27319" lon="-2.31946">
        <ele>38.599998474121</ele>
        <time>2020-12-06T08:10:25.000Z</time>
      </trkpt>
      <trkpt lat="47.27325" lon="-2.31951">
        <ele>38.200000762939</ele>
        <time>2020-12-06T08:10:26.000Z</time>
      </trkpt>
      <trkpt lat="47.27331" lon="-2.31956">
        <ele>37.799999237061</ele>
        <time>2020-12-06T08:10:27.000Z</time>
      </trkpt>
      <trkpt lat="47.27336" lon="-2.31965">
        <ele>37.799999237061</ele>
        <time>2020-12-06T08:10:28.000Z</time>
      </trkpt>
      <trkpt lat="47.27371" lon="-2.32011">
        <ele>37.799999237061</ele>
        <time>2020-12-06T08:10:35.000Z</time>
      </trkpt>
      <trkpt lat="47.27395" lon="-2.32039">
        <ele>37.799999237061</ele>
        <time>2020-12-06T08:10:41.000Z</time>
      </trkpt>
      <trkpt lat="47.27398" lon="-2.32042">
        <ele>37.799999237061</ele>
        <time>2020-12-06T08:10:42.000Z</time>
      </trkpt>
      <trkpt lat="47.27415" lon="-2.32061">
        <ele>37.799999237061</ele>
        <time>2020-12-06T08:10:47.000Z</time>
      </trkpt>
      <trkpt lat="47.27427" lon="-2.32075">
        <ele>37.799999237061</ele>
        <time>2020-12-06T08:10:51.000Z</time>
      </trkpt>
      <trkpt lat="47.27433" lon="-2.32082">
        <ele>38.200000762939</ele>
        <time>2020-12-06T08:10:53.000Z</time>
      </trkpt>
      <trkpt lat="47.27436" lon="-2.32086">
        <ele>38.799999237061</ele>
        <time>2020-12-06T08:10:54.000Z</time>
      </trkpt>
      <trkpt lat="47.27438" lon="-2.3209">
        <ele>39.200000762939</ele>
        <time>2020-12-06T08:10:55.000Z</time>
      </trkpt>
      <trkpt lat="47.27441" lon="-2.32093">
        <ele>39.599998474121</ele>
        <time>2020-12-06T08:10:56.000Z</time>
      </trkpt>
      <trkpt lat="47.27445" lon="-2.32097">
        <ele>40</ele>
        <time>2020-12-06T08:10:57.000Z</time>
      </trkpt>
      <trkpt lat="47.27464" lon="-2.32123">
        <ele>40</ele>
        <time>2020-12-06T08:11:03.000Z</time>
      </trkpt>
      <trkpt lat="47.27471" lon="-2.32132">
        <ele>40.599998474121</ele>
        <time>2020-12-06T08:11:05.000Z</time>
      </trkpt>
      <trkpt lat="47.27474" lon="-2.32137">
        <ele>41</ele>
        <time>2020-12-06T08:11:06.000Z</time>
      </trkpt>
      <trkpt lat="47.27477" lon="-2.32142">
        <ele>41.400001525879</ele>
        <time>2020-12-06T08:11:07.000Z</time>
      </trkpt>
      <trkpt lat="47.2748" lon="-2.32146">
        <ele>41.799999237061</ele>
        <time>2020-12-06T08:11:08.000Z</time>
      </trkpt>
      <trkpt lat="47.27483" lon="-2.3215">
        <ele>42.200000762939</ele>
        <time>2020-12-06T08:11:09.000Z</time>
      </trkpt>
      <trkpt lat="47.27487" lon="-2.32154">
        <ele>42.200000762939</ele>
        <time>2020-12-06T08:11:10.000Z</time>
      </trkpt>
      <trkpt lat="47.27509" lon="-2.32184">
        <ele>42.200000762939</ele>
        <time>2020-12-06T08:11:17.000Z</time>
      </trkpt>
      <trkpt lat="47.27532" lon="-2.32213">
        <ele>42.200000762939</ele>
        <time>2020-12-06T08:11:25.000Z</time>
      </trkpt>
      <trkpt lat="47.27541" lon="-2.32222">
        <ele>42.599998474121</ele>
        <time>2020-12-06T08:11:28.000Z</time>
      </trkpt>
      <trkpt lat="47.27545" lon="-2.32225">
        <ele>43</ele>
        <time>2020-12-06T08:11:29.000Z</time>
      </trkpt>
      <trkpt lat="47.27548" lon="-2.32228">
        <ele>43.400001525879</ele>
        <time>2020-12-06T08:11:30.000Z</time>
      </trkpt>
      <trkpt lat="47.27551" lon="-2.3223">
        <ele>44</ele>
        <time>2020-12-06T08:11:31.000Z</time>
      </trkpt>
      <trkpt lat="47.27554" lon="-2.32233">
        <ele>44.400001525879</ele>
        <time>2020-12-06T08:11:32.000Z</time>
      </trkpt>
      <trkpt lat="47.27574" lon="-2.32249">
        <ele>44.799999237061</ele>
        <time>2020-12-06T08:11:38.000Z</time>
      </trkpt>
      <trkpt lat="47.27577" lon="-2.32252">
        <ele>45.200000762939</ele>
        <time>2020-12-06T08:11:39.000Z</time>
      </trkpt>
      <trkpt lat="47.2758" lon="-2.32255">
        <ele>45.599998474121</ele>
        <time>2020-12-06T08:11:40.000Z</time>
      </trkpt>
      <trkpt lat="47.27583" lon="-2.32257">
        <ele>46</ele>
        <time>2020-12-06T08:11:41.000Z</time>
      </trkpt>
      <trkpt lat="47.27586" lon="-2.3226">
        <ele>46.400001525879</ele>
        <time>2020-12-06T08:11:42.000Z</time>
      </trkpt>
      <trkpt lat="47.27594" lon="-2.32268">
        <ele>46.799999237061</ele>
        <time>2020-12-06T08:11:45.000Z</time>
      </trkpt>
      <trkpt lat="47.27597" lon="-2.32272">
        <ele>47.200000762939</ele>
        <time>2020-12-06T08:11:46.000Z</time>
      </trkpt>
      <trkpt lat="47.276" lon="-2.32274">
        <ele>47.599998474121</ele>
        <time>2020-12-06T08:11:47.000Z</time>
      </trkpt>
      <trkpt lat="47.27603" lon="-2.32277">
        <ele>48</ele>
        <time>2020-12-06T08:11:48.000Z</time>
      </trkpt>
      <trkpt lat="47.27606" lon="-2.32279">
        <ele>48.400001525879</ele>
        <time>2020-12-06T08:11:49.000Z</time>
      </trkpt>
      <trkpt lat="47.27612" lon="-2.32285">
        <ele>48.400001525879</ele>
        <time>2020-12-06T08:11:51.000Z</time>
      </trkpt>
      <trkpt lat="47.27612" lon="-2.3229">
        <ele>48.400001525879</ele>
        <time>2020-12-06T08:11:52.000Z</time>
      </trkpt>
      <trkpt lat="47.27612" lon="-2.32295">
        <ele>48.400001525879</ele>
        <time>2020-12-06T08:11:53.000Z</time>
      </trkpt>
      <trkpt lat="47.27604" lon="-2.32323">
        <ele>48.400001525879</ele>
        <time>2020-12-06T08:11:58.000Z</time>
      </trkpt>
      <trkpt lat="47.27588" lon="-2.32365">
        <ele>48.400001525879</ele>
        <time>2020-12-06T08:12:05.000Z</time>
      </trkpt>
      <trkpt lat="47.27582" lon="-2.32384">
        <ele>48.400001525879</ele>
        <time>2020-12-06T08:12:08.000Z</time>
      </trkpt>
      <trkpt lat="47.27579" lon="-2.32397">
        <ele>48.400001525879</ele>
        <time>2020-12-06T08:12:10.000Z</time>
      </trkpt>
      <trkpt lat="47.27579" lon="-2.32403">
        <ele>48.400001525879</ele>
        <time>2020-12-06T08:12:11.000Z</time>
      </trkpt>
      <trkpt lat="47.27587" lon="-2.32427">
        <ele>48.400001525879</ele>
        <time>2020-12-06T08:12:15.000Z</time>
      </trkpt>
      <trkpt lat="47.27593" lon="-2.32435">
        <ele>48.400001525879</ele>
        <time>2020-12-06T08:12:17.000Z</time>
      </trkpt>
      <trkpt lat="47.27597" lon="-2.32438">
        <ele>48.400001525879</ele>
        <time>2020-12-06T08:12:18.000Z</time>
      </trkpt>
      <trkpt lat="47.27607" lon="-2.32451">
        <ele>48.400001525879</ele>
        <time>2020-12-06T08:12:21.000Z</time>
      </trkpt>
      <trkpt lat="47.27623" lon="-2.32478">
        <ele>48.400001525879</ele>
        <time>2020-12-06T08:12:27.000Z</time>
      </trkpt>
      <trkpt lat="47.27634" lon="-2.32518">
        <ele>48.400001525879</ele>
        <time>2020-12-06T08:12:33.000Z</time>
      </trkpt>
      <trkpt lat="47.27647" lon="-2.32569">
        <ele>48.400001525879</ele>
        <time>2020-12-06T08:12:39.000Z</time>
      </trkpt>
      <trkpt lat="47.27669" lon="-2.32635">
        <ele>48.400001525879</ele>
        <time>2020-12-06T08:12:45.000Z</time>
      </trkpt>
      <trkpt lat="47.27674" lon="-2.32646">
        <ele>47.799999237061</ele>
        <time>2020-12-06T08:12:46.000Z</time>
      </trkpt>
      <trkpt lat="47.27679" lon="-2.32658">
        <ele>47.400001525879</ele>
        <time>2020-12-06T08:12:47.000Z</time>
      </trkpt>
      <trkpt lat="47.27685" lon="-2.32669">
        <ele>46.799999237061</ele>
        <time>2020-12-06T08:12:48.000Z</time>
      </trkpt>
      <trkpt lat="47.2769" lon="-2.32681">
        <ele>46.200000762939</ele>
        <time>2020-12-06T08:12:49.000Z</time>
      </trkpt>
      <trkpt lat="47.27696" lon="-2.32692">
        <ele>45.799999237061</ele>
        <time>2020-12-06T08:12:50.000Z</time>
      </trkpt>
      <trkpt lat="47.27708" lon="-2.32713">
        <ele>45.200000762939</ele>
        <time>2020-12-06T08:12:52.000Z</time>
      </trkpt>
      <trkpt lat="47.27714" lon="-2.32723">
        <ele>44.799999237061</ele>
        <time>2020-12-06T08:12:53.000Z</time>
      </trkpt>
      <trkpt lat="47.27719" lon="-2.32732">
        <ele>44.400001525879</ele>
        <time>2020-12-06T08:12:54.000Z</time>
      </trkpt>
      <trkpt lat="47.27725" lon="-2.32741">
        <ele>44</ele>
        <time>2020-12-06T08:12:55.000Z</time>
      </trkpt>
      <trkpt lat="47.2773" lon="-2.3275">
        <ele>42.799999237061</ele>
        <time>2020-12-06T08:12:56.000Z</time>
      </trkpt>
      <trkpt lat="47.27736" lon="-2.32758">
        <ele>42.200000762939</ele>
        <time>2020-12-06T08:12:57.000Z</time>
      </trkpt>
      <trkpt lat="47.27741" lon="-2.32766">
        <ele>41.599998474121</ele>
        <time>2020-12-06T08:12:58.000Z</time>
      </trkpt>
      <trkpt lat="47.27745" lon="-2.32775">
        <ele>41.200000762939</ele>
        <time>2020-12-06T08:12:59.000Z</time>
      </trkpt>
      <trkpt lat="47.2775" lon="-2.32784">
        <ele>41.200000762939</ele>
        <time>2020-12-06T08:13:00.000Z</time>
      </trkpt>
      <trkpt lat="47.27753" lon="-2.32793">
        <ele>41.200000762939</ele>
        <time>2020-12-06T08:13:01.000Z</time>
      </trkpt>
      <trkpt lat="47.27763" lon="-2.32837">
        <ele>41.200000762939</ele>
        <time>2020-12-06T08:13:06.000Z</time>
      </trkpt>
      <trkpt lat="47.27759" lon="-2.32882">
        <ele>41.200000762939</ele>
        <time>2020-12-06T08:13:12.000Z</time>
      </trkpt>
      <trkpt lat="47.27757" lon="-2.32921">
        <ele>41.599998474121</ele>
        <time>2020-12-06T08:13:18.000Z</time>
      </trkpt>
      <trkpt lat="47.27756" lon="-2.32928">
        <ele>42</ele>
        <time>2020-12-06T08:13:19.000Z</time>
      </trkpt>
      <trkpt lat="47.27756" lon="-2.32934">
        <ele>42.599998474121</ele>
        <time>2020-12-06T08:13:20.000Z</time>
      </trkpt>
      <trkpt lat="47.27756" lon="-2.32941">
        <ele>43.400001525879</ele>
        <time>2020-12-06T08:13:21.000Z</time>
      </trkpt>
      <trkpt lat="47.27756" lon="-2.32954">
        <ele>43.400001525879</ele>
        <time>2020-12-06T08:13:23.000Z</time>
      </trkpt>
      <trkpt lat="47.27757" lon="-2.32972">
        <ele>43.400001525879</ele>
        <time>2020-12-06T08:13:26.000Z</time>
      </trkpt>
      <trkpt lat="47.27756" lon="-2.33001">
        <ele>44</ele>
        <time>2020-12-06T08:13:31.000Z</time>
      </trkpt>
      <trkpt lat="47.27756" lon="-2.33007">
        <ele>44.400001525879</ele>
        <time>2020-12-06T08:13:32.000Z</time>
      </trkpt>
      <trkpt lat="47.27756" lon="-2.33012">
        <ele>44.799999237061</ele>
        <time>2020-12-06T08:13:33.000Z</time>
      </trkpt>
      <trkpt lat="47.27756" lon="-2.33018">
        <ele>45.200000762939</ele>
        <time>2020-12-06T08:13:34.000Z</time>
      </trkpt>
      <trkpt lat="47.27756" lon="-2.33024">
        <ele>45.599998474121</ele>
        <time>2020-12-06T08:13:35.000Z</time>
      </trkpt>
      <trkpt lat="47.27755" lon="-2.33046">
        <ele>45.599998474121</ele>
        <time>2020-12-06T08:13:39.000Z</time>
      </trkpt>
      <trkpt lat="47.27756" lon="-2.33073">
        <ele>46</ele>
        <time>2020-12-06T08:13:44.000Z</time>
      </trkpt>
      <trkpt lat="47.27756" lon="-2.33078">
        <ele>46.400001525879</ele>
        <time>2020-12-06T08:13:45.000Z</time>
      </trkpt>
      <trkpt lat="47.27756" lon="-2.33084">
        <ele>46.799999237061</ele>
        <time>2020-12-06T08:13:46.000Z</time>
      </trkpt>
      <trkpt lat="47.27757" lon="-2.33089">
        <ele>47.599998474121</ele>
        <time>2020-12-06T08:13:47.000Z</time>
      </trkpt>
      <trkpt lat="47.2776" lon="-2.33131">
        <ele>47.599998474121</ele>
        <time>2020-12-06T08:13:55.000Z</time>
      </trkpt>
      <trkpt lat="47.27767" lon="-2.33157">
        <ele>47.599998474121</ele>
        <time>2020-12-06T08:14:00.000Z</time>
      </trkpt>
      <trkpt lat="47.27767" lon="-2.33163">
        <ele>47.599998474121</ele>
        <time>2020-12-06T08:14:01.000Z</time>
      </trkpt>
      <trkpt lat="47.27765" lon="-2.33182">
        <ele>48.200000762939</ele>
        <time>2020-12-06T08:14:04.000Z</time>
      </trkpt>
      <trkpt lat="47.27765" lon="-2.33188">
        <ele>48.599998474121</ele>
        <time>2020-12-06T08:14:05.000Z</time>
      </trkpt>
      <trkpt lat="47.27765" lon="-2.33195">
        <ele>49</ele>
        <time>2020-12-06T08:14:06.000Z</time>
      </trkpt>
      <trkpt lat="47.27766" lon="-2.33201">
        <ele>49.400001525879</ele>
        <time>2020-12-06T08:14:07.000Z</time>
      </trkpt>
      <trkpt lat="47.27766" lon="-2.33209">
        <ele>49.799999237061</ele>
        <time>2020-12-06T08:14:08.000Z</time>
      </trkpt>
      <trkpt lat="47.27771" lon="-2.33241">
        <ele>49.799999237061</ele>
        <time>2020-12-06T08:14:13.000Z</time>
      </trkpt>
      <trkpt lat="47.27776" lon="-2.33301">
        <ele>49.799999237061</ele>
        <time>2020-12-06T08:14:22.000Z</time>
      </trkpt>
      <trkpt lat="47.27779" lon="-2.33347">
        <ele>49.799999237061</ele>
        <time>2020-12-06T08:14:29.000Z</time>
      </trkpt>
      <trkpt lat="47.27781" lon="-2.33375">
        <ele>50.200000762939</ele>
        <time>2020-12-06T08:14:33.000Z</time>
      </trkpt>
      <trkpt lat="47.2778" lon="-2.33382">
        <ele>50.599998474121</ele>
        <time>2020-12-06T08:14:34.000Z</time>
      </trkpt>
      <trkpt lat="47.2778" lon="-2.33389">
        <ele>51</ele>
        <time>2020-12-06T08:14:35.000Z</time>
      </trkpt>
      <trkpt lat="47.2778" lon="-2.33395">
        <ele>51.799999237061</ele>
        <time>2020-12-06T08:14:36.000Z</time>
      </trkpt>
      <trkpt lat="47.27776" lon="-2.3345">
        <ele>51.799999237061</ele>
        <time>2020-12-06T08:14:44.000Z</time>
      </trkpt>
      <trkpt lat="47.27771" lon="-2.33494">
        <ele>51.799999237061</ele>
        <time>2020-12-06T08:14:51.000Z</time>
      </trkpt>
      <trkpt lat="47.27769" lon="-2.3355">
        <ele>51.799999237061</ele>
        <time>2020-12-06T08:15:00.000Z</time>
      </trkpt>
      <trkpt lat="47.27769" lon="-2.33577">
        <ele>52.200000762939</ele>
        <time>2020-12-06T08:15:04.000Z</time>
      </trkpt>
      <trkpt lat="47.27769" lon="-2.33583">
        <ele>52.599998474121</ele>
        <time>2020-12-06T08:15:05.000Z</time>
      </trkpt>
      <trkpt lat="47.2777" lon="-2.33589">
        <ele>53.200000762939</ele>
        <time>2020-12-06T08:15:06.000Z</time>
      </trkpt>
      <trkpt lat="47.2777" lon="-2.33596">
        <ele>53.599998474121</ele>
        <time>2020-12-06T08:15:07.000Z</time>
      </trkpt>
      <trkpt lat="47.2777" lon="-2.33603">
        <ele>54</ele>
        <time>2020-12-06T08:15:08.000Z</time>
      </trkpt>
      <trkpt lat="47.27773" lon="-2.33647">
        <ele>54</ele>
        <time>2020-12-06T08:15:15.000Z</time>
      </trkpt>
      <trkpt lat="47.27773" lon="-2.33653">
        <ele>54</ele>
        <time>2020-12-06T08:15:16.000Z</time>
      </trkpt>
      <trkpt lat="47.27767" lon="-2.33669">
        <ele>54</ele>
        <time>2020-12-06T08:15:19.000Z</time>
      </trkpt>
      <trkpt lat="47.27749" lon="-2.33687">
        <ele>54</ele>
        <time>2020-12-06T08:15:24.000Z</time>
      </trkpt>
      <trkpt lat="47.27729" lon="-2.33709">
        <ele>54</ele>
        <time>2020-12-06T08:15:30.000Z</time>
      </trkpt>
      <trkpt lat="47.27727" lon="-2.33714">
        <ele>54</ele>
        <time>2020-12-06T08:15:31.000Z</time>
      </trkpt>
      <trkpt lat="47.27722" lon="-2.33735">
        <ele>54</ele>
        <time>2020-12-06T08:15:35.000Z</time>
      </trkpt>
      <trkpt lat="47.27722" lon="-2.33741">
        <ele>54</ele>
        <time>2020-12-06T08:15:36.000Z</time>
      </trkpt>
      <trkpt lat="47.27721" lon="-2.33767">
        <ele>54</ele>
        <time>2020-12-06T08:15:40.000Z</time>
      </trkpt>
      <trkpt lat="47.27721" lon="-2.33773">
        <ele>54.400001525879</ele>
        <time>2020-12-06T08:15:41.000Z</time>
      </trkpt>
      <trkpt lat="47.27722" lon="-2.33779">
        <ele>55</ele>
        <time>2020-12-06T08:15:42.000Z</time>
      </trkpt>
      <trkpt lat="47.27723" lon="-2.33785">
        <ele>55.400001525879</ele>
        <time>2020-12-06T08:15:43.000Z</time>
      </trkpt>
      <trkpt lat="47.27724" lon="-2.33792">
        <ele>55.799999237061</ele>
        <time>2020-12-06T08:15:44.000Z</time>
      </trkpt>
      <trkpt lat="47.27726" lon="-2.33798">
        <ele>56.200000762939</ele>
        <time>2020-12-06T08:15:45.000Z</time>
      </trkpt>
      <trkpt lat="47.27731" lon="-2.3381">
        <ele>56.200000762939</ele>
        <time>2020-12-06T08:15:47.000Z</time>
      </trkpt>
      <trkpt lat="47.27742" lon="-2.33846">
        <ele>56.200000762939</ele>
        <time>2020-12-06T08:15:53.000Z</time>
      </trkpt>
      <trkpt lat="47.27747" lon="-2.33858">
        <ele>56.200000762939</ele>
        <time>2020-12-06T08:15:55.000Z</time>
      </trkpt>
      <trkpt lat="47.27758" lon="-2.33888">
        <ele>56.200000762939</ele>
        <time>2020-12-06T08:16:00.000Z</time>
      </trkpt>
      <trkpt lat="47.27773" lon="-2.3394">
        <ele>56.200000762939</ele>
        <time>2020-12-06T08:16:08.000Z</time>
      </trkpt>
      <trkpt lat="47.27785" lon="-2.33992">
        <ele>56.200000762939</ele>
        <time>2020-12-06T08:16:16.000Z</time>
      </trkpt>
      <trkpt lat="47.2779" lon="-2.34009">
        <ele>56.200000762939</ele>
        <time>2020-12-06T08:16:19.000Z</time>
      </trkpt>
      <trkpt lat="47.2779" lon="-2.34021">
        <ele>56.200000762939</ele>
        <time>2020-12-06T08:16:21.000Z</time>
      </trkpt>
      <trkpt lat="47.27779" lon="-2.34042">
        <ele>56.200000762939</ele>
        <time>2020-12-06T08:16:25.000Z</time>
      </trkpt>
      <trkpt lat="47.27775" lon="-2.34066">
        <ele>56.200000762939</ele>
        <time>2020-12-06T08:16:29.000Z</time>
      </trkpt>
      <trkpt lat="47.27782" lon="-2.34083">
        <ele>56.200000762939</ele>
        <time>2020-12-06T08:16:32.000Z</time>
      </trkpt>
      <trkpt lat="47.27789" lon="-2.34093">
        <ele>56.200000762939</ele>
        <time>2020-12-06T08:16:34.000Z</time>
      </trkpt>
      <trkpt lat="47.27803" lon="-2.34112">
        <ele>56.200000762939</ele>
        <time>2020-12-06T08:16:38.000Z</time>
      </trkpt>
      <trkpt lat="47.27834" lon="-2.34146">
        <ele>56.200000762939</ele>
        <time>2020-12-06T08:16:46.000Z</time>
      </trkpt>
      <trkpt lat="47.27841" lon="-2.34155">
        <ele>56.200000762939</ele>
        <time>2020-12-06T08:16:48.000Z</time>
      </trkpt>
      <trkpt lat="47.27849" lon="-2.34172">
        <ele>56.200000762939</ele>
        <time>2020-12-06T08:16:51.000Z</time>
      </trkpt>
      <trkpt lat="47.27873" lon="-2.34223">
        <ele>56.200000762939</ele>
        <time>2020-12-06T08:17:00.000Z</time>
      </trkpt>
      <trkpt lat="47.27895" lon="-2.34267">
        <ele>56.200000762939</ele>
        <time>2020-12-06T08:17:08.000Z</time>
      </trkpt>
      <trkpt lat="47.27901" lon="-2.34277">
        <ele>56.200000762939</ele>
        <time>2020-12-06T08:17:10.000Z</time>
      </trkpt>
      <trkpt lat="47.27912" lon="-2.343">
        <ele>56.200000762939</ele>
        <time>2020-12-06T08:17:14.000Z</time>
      </trkpt>
      <trkpt lat="47.27934" lon="-2.34345">
        <ele>56.200000762939</ele>
        <time>2020-12-06T08:17:22.000Z</time>
      </trkpt>
      <trkpt lat="47.27961" lon="-2.34385">
        <ele>56.200000762939</ele>
        <time>2020-12-06T08:17:30.000Z</time>
      </trkpt>
      <trkpt lat="47.2799" lon="-2.34424">
        <ele>56.200000762939</ele>
        <time>2020-12-06T08:17:38.000Z</time>
      </trkpt>
      <trkpt lat="47.28" lon="-2.3444">
        <ele>56.200000762939</ele>
        <time>2020-12-06T08:17:41.000Z</time>
      </trkpt>
      <trkpt lat="47.28004" lon="-2.34454">
        <ele>56.200000762939</ele>
        <time>2020-12-06T08:17:43.000Z</time>
      </trkpt>
      <trkpt lat="47.28001" lon="-2.34484">
        <ele>56.200000762939</ele>
        <time>2020-12-06T08:17:47.000Z</time>
      </trkpt>
      <trkpt lat="47.27993" lon="-2.34504">
        <ele>56.200000762939</ele>
        <time>2020-12-06T08:17:50.000Z</time>
      </trkpt>
      <trkpt lat="47.27987" lon="-2.34516">
        <ele>55.799999237061</ele>
        <time>2020-12-06T08:17:52.000Z</time>
      </trkpt>
      <trkpt lat="47.27984" lon="-2.34522">
        <ele>55.400001525879</ele>
        <time>2020-12-06T08:17:53.000Z</time>
      </trkpt>
      <trkpt lat="47.27981" lon="-2.34527">
        <ele>54.599998474121</ele>
        <time>2020-12-06T08:17:54.000Z</time>
      </trkpt>
      <trkpt lat="47.27979" lon="-2.34533">
        <ele>54</ele>
        <time>2020-12-06T08:17:55.000Z</time>
      </trkpt>
      <trkpt lat="47.27973" lon="-2.34544">
        <ele>54</ele>
        <time>2020-12-06T08:17:57.000Z</time>
      </trkpt>
      <trkpt lat="47.27966" lon="-2.34553">
        <ele>54</ele>
        <time>2020-12-06T08:17:59.000Z</time>
      </trkpt>
      <trkpt lat="47.27962" lon="-2.34557">
        <ele>54</ele>
        <time>2020-12-06T08:18:00.000Z</time>
      </trkpt>
      <trkpt lat="47.27945" lon="-2.34572">
        <ele>54</ele>
        <time>2020-12-06T08:18:04.000Z</time>
      </trkpt>
      <trkpt lat="47.27919" lon="-2.34603">
        <ele>54</ele>
        <time>2020-12-06T08:18:10.000Z</time>
      </trkpt>
      <trkpt lat="47.27916" lon="-2.3461">
        <ele>54</ele>
        <time>2020-12-06T08:18:11.000Z</time>
      </trkpt>
      <trkpt lat="47.27908" lon="-2.34641">
        <ele>54</ele>
        <time>2020-12-06T08:18:15.000Z</time>
      </trkpt>
      <trkpt lat="47.27906" lon="-2.34648">
        <ele>54</ele>
        <time>2020-12-06T08:18:16.000Z</time>
      </trkpt>
      <trkpt lat="47.27896" lon="-2.34679">
        <ele>53.599998474121</ele>
        <time>2020-12-06T08:18:20.000Z</time>
      </trkpt>
      <trkpt lat="47.27894" lon="-2.34687">
        <ele>53.200000762939</ele>
        <time>2020-12-06T08:18:21.000Z</time>
      </trkpt>
      <trkpt lat="47.27891" lon="-2.34694">
        <ele>52.599998474121</ele>
        <time>2020-12-06T08:18:22.000Z</time>
      </trkpt>
      <trkpt lat="47.27888" lon="-2.34701">
        <ele>52.200000762939</ele>
        <time>2020-12-06T08:18:23.000Z</time>
      </trkpt>
      <trkpt lat="47.27885" lon="-2.34708">
        <ele>51.799999237061</ele>
        <time>2020-12-06T08:18:24.000Z</time>
      </trkpt>
      <trkpt lat="47.27874" lon="-2.34735">
        <ele>51.799999237061</ele>
        <time>2020-12-06T08:18:28.000Z</time>
      </trkpt>
      <trkpt lat="47.27849" lon="-2.34782">
        <ele>51.799999237061</ele>
        <time>2020-12-06T08:18:35.000Z</time>
      </trkpt>
      <trkpt lat="47.27826" lon="-2.34821">
        <ele>51.799999237061</ele>
        <time>2020-12-06T08:18:41.000Z</time>
      </trkpt>
      <trkpt lat="47.27822" lon="-2.34827">
        <ele>51.400001525879</ele>
        <time>2020-12-06T08:18:42.000Z</time>
      </trkpt>
      <trkpt lat="47.27817" lon="-2.34833">
        <ele>51</ele>
        <time>2020-12-06T08:18:43.000Z</time>
      </trkpt>
      <trkpt lat="47.27813" lon="-2.34839">
        <ele>50</ele>
        <time>2020-12-06T08:18:44.000Z</time>
      </trkpt>
      <trkpt lat="47.27808" lon="-2.34845">
        <ele>49.599998474121</ele>
        <time>2020-12-06T08:18:45.000Z</time>
      </trkpt>
      <trkpt lat="47.27805" lon="-2.34851">
        <ele>49.599998474121</ele>
        <time>2020-12-06T08:18:46.000Z</time>
      </trkpt>
      <trkpt lat="47.27801" lon="-2.34859">
        <ele>49.599998474121</ele>
        <time>2020-12-06T08:18:47.000Z</time>
      </trkpt>
      <trkpt lat="47.27794" lon="-2.34884">
        <ele>49.599998474121</ele>
        <time>2020-12-06T08:18:50.000Z</time>
      </trkpt>
      <trkpt lat="47.27791" lon="-2.34902">
        <ele>49.599998474121</ele>
        <time>2020-12-06T08:18:52.000Z</time>
      </trkpt>
      <trkpt lat="47.27776" lon="-2.34972">
        <ele>49.200000762939</ele>
        <time>2020-12-06T08:19:00.000Z</time>
      </trkpt>
      <trkpt lat="47.27774" lon="-2.3498">
        <ele>48.799999237061</ele>
        <time>2020-12-06T08:19:01.000Z</time>
      </trkpt>
      <trkpt lat="47.27772" lon="-2.34989">
        <ele>48.400001525879</ele>
        <time>2020-12-06T08:19:02.000Z</time>
      </trkpt>
      <trkpt lat="47.27771" lon="-2.34997">
        <ele>48</ele>
        <time>2020-12-06T08:19:03.000Z</time>
      </trkpt>
      <trkpt lat="47.27769" lon="-2.35006">
        <ele>47.599998474121</ele>
        <time>2020-12-06T08:19:04.000Z</time>
      </trkpt>
      <trkpt lat="47.27766" lon="-2.35024">
        <ele>47.599998474121</ele>
        <time>2020-12-06T08:19:06.000Z</time>
      </trkpt>
      <trkpt lat="47.27765" lon="-2.35034">
        <ele>47.599998474121</ele>
        <time>2020-12-06T08:19:07.000Z</time>
      </trkpt>
      <trkpt lat="47.27767" lon="-2.35093">
        <ele>46.799999237061</ele>
        <time>2020-12-06T08:19:11.000Z</time>
      </trkpt>
      <trkpt lat="47.27768" lon="-2.35103">
        <ele>46.400001525879</ele>
        <time>2020-12-06T08:19:14.000Z</time>
      </trkpt>
      <trkpt lat="47.27768" lon="-2.35113">
        <ele>46</ele>
        <time>2020-12-06T08:19:15.000Z</time>
      </trkpt>
      <trkpt lat="47.27769" lon="-2.35122">
        <ele>45.400001525879</ele>
        <time>2020-12-06T08:19:16.000Z</time>
      </trkpt>
      <trkpt lat="47.27773" lon="-2.35159">
        <ele>45.400001525879</ele>
        <time>2020-12-06T08:19:20.000Z</time>
      </trkpt>
      <trkpt lat="47.27777" lon="-2.35208">
        <ele>45</ele>
        <time>2020-12-06T08:19:26.000Z</time>
      </trkpt>
      <trkpt lat="47.27777" lon="-2.35216">
        <ele>44.599998474121</ele>
        <time>2020-12-06T08:19:27.000Z</time>
      </trkpt>
      <trkpt lat="47.27778" lon="-2.35225">
        <ele>44.200000762939</ele>
        <time>2020-12-06T08:19:28.000Z</time>
      </trkpt>
      <trkpt lat="47.27779" lon="-2.35233">
        <ele>43.799999237061</ele>
        <time>2020-12-06T08:19:29.000Z</time>
      </trkpt>
      <trkpt lat="47.2778" lon="-2.35242">
        <ele>43.400001525879</ele>
        <time>2020-12-06T08:19:30.000Z</time>
      </trkpt>
      <trkpt lat="47.27786" lon="-2.35275">
        <ele>43.400001525879</ele>
        <time>2020-12-06T08:19:34.000Z</time>
      </trkpt>
      <trkpt lat="47.27799" lon="-2.35338">
        <ele>43.400001525879</ele>
        <time>2020-12-06T08:19:42.000Z</time>
      </trkpt>
      <trkpt lat="47.27805" lon="-2.35352">
        <ele>43.400001525879</ele>
        <time>2020-12-06T08:19:44.000Z</time>
      </trkpt>
      <trkpt lat="47.27813" lon="-2.35361">
        <ele>43.400001525879</ele>
        <time>2020-12-06T08:19:46.000Z</time>
      </trkpt>
      <trkpt lat="47.27827" lon="-2.35363">
        <ele>43.400001525879</ele>
        <time>2020-12-06T08:19:49.000Z</time>
      </trkpt>
      <trkpt lat="47.27861" lon="-2.35361">
        <ele>43.400001525879</ele>
        <time>2020-12-06T08:19:56.000Z</time>
      </trkpt>
      <trkpt lat="47.27869" lon="-2.35361">
        <ele>43.400001525879</ele>
        <time>2020-12-06T08:19:58.000Z</time>
      </trkpt>
      <trkpt lat="47.27886" lon="-2.35369">
        <ele>43.400001525879</ele>
        <time>2020-12-06T08:20:02.000Z</time>
      </trkpt>
      <trkpt lat="47.27889" lon="-2.35372">
        <ele>43.400001525879</ele>
        <time>2020-12-06T08:20:03.000Z</time>
      </trkpt>
      <trkpt lat="47.27899" lon="-2.35385">
        <ele>43.400001525879</ele>
        <time>2020-12-06T08:20:06.000Z</time>
      </trkpt>
      <trkpt lat="47.27912" lon="-2.35404">
        <ele>43.799999237061</ele>
        <time>2020-12-06T08:20:10.000Z</time>
      </trkpt>
      <trkpt lat="47.27915" lon="-2.35409">
        <ele>44.200000762939</ele>
        <time>2020-12-06T08:20:11.000Z</time>
      </trkpt>
      <trkpt lat="47.27918" lon="-2.35415">
        <ele>44.599998474121</ele>
        <time>2020-12-06T08:20:12.000Z</time>
      </trkpt>
      <trkpt lat="47.27921" lon="-2.3542">
        <ele>45</ele>
        <time>2020-12-06T08:20:13.000Z</time>
      </trkpt>
      <trkpt lat="47.27925" lon="-2.35425">
        <ele>45.400001525879</ele>
        <time>2020-12-06T08:20:14.000Z</time>
      </trkpt>
      <trkpt lat="47.27928" lon="-2.35429">
        <ele>45.400001525879</ele>
        <time>2020-12-06T08:20:15.000Z</time>
      </trkpt>
      <trkpt lat="47.27956" lon="-2.35457">
        <ele>45.400001525879</ele>
        <time>2020-12-06T08:20:22.000Z</time>
      </trkpt>
      <trkpt lat="47.27974" lon="-2.35468">
        <ele>45.400001525879</ele>
        <time>2020-12-06T08:20:26.000Z</time>
      </trkpt>
      <trkpt lat="47.27982" lon="-2.35478">
        <ele>45.400001525879</ele>
        <time>2020-12-06T08:20:28.000Z</time>
      </trkpt>
      <trkpt lat="47.27985" lon="-2.35483">
        <ele>45.400001525879</ele>
        <time>2020-12-06T08:20:29.000Z</time>
      </trkpt>
      <trkpt lat="47.27993" lon="-2.355">
        <ele>45.400001525879</ele>
        <time>2020-12-06T08:20:32.000Z</time>
      </trkpt>
      <trkpt lat="47.28005" lon="-2.3553">
        <ele>45.400001525879</ele>
        <time>2020-12-06T08:20:38.000Z</time>
      </trkpt>
      <trkpt lat="47.28009" lon="-2.3555">
        <ele>45.400001525879</ele>
        <time>2020-12-06T08:20:43.000Z</time>
      </trkpt>
      <trkpt lat="47.28013" lon="-2.35564">
        <ele>45.400001525879</ele>
        <time>2020-12-06T08:20:47.000Z</time>
      </trkpt>
      <trkpt lat="47.28021" lon="-2.35564">
        <ele>45.400001525879</ele>
        <time>2020-12-06T08:20:50.000Z</time>
      </trkpt>
      <trkpt lat="47.28025" lon="-2.35565">
        <ele>45.400001525879</ele>
        <time>2020-12-06T08:20:51.000Z</time>
      </trkpt>
      <trkpt lat="47.2804" lon="-2.35572">
        <ele>45.400001525879</ele>
        <time>2020-12-06T08:20:56.000Z</time>
      </trkpt>
      <trkpt lat="47.28048" lon="-2.35577">
        <ele>45.799999237061</ele>
        <time>2020-12-06T08:20:59.000Z</time>
      </trkpt>
      <trkpt lat="47.28051" lon="-2.35578">
        <ele>46.200000762939</ele>
        <time>2020-12-06T08:21:00.000Z</time>
      </trkpt>
      <trkpt lat="47.28054" lon="-2.35579">
        <ele>46.599998474121</ele>
        <time>2020-12-06T08:21:01.000Z</time>
      </trkpt>
      <trkpt lat="47.28057" lon="-2.3558">
        <ele>47</ele>
        <time>2020-12-06T08:21:02.000Z</time>
      </trkpt>
      <trkpt lat="47.2806" lon="-2.35581">
        <ele>47.400001525879</ele>
        <time>2020-12-06T08:21:03.000Z</time>
      </trkpt>
      <trkpt lat="47.28075" lon="-2.35593">
        <ele>47.400001525879</ele>
        <time>2020-12-06T08:21:09.000Z</time>
      </trkpt>
      <trkpt lat="47.28086" lon="-2.35609">
        <ele>47.400001525879</ele>
        <time>2020-12-06T08:21:16.000Z</time>
      </trkpt>
      <trkpt lat="47.2809" lon="-2.35611">
        <ele>47.400001525879</ele>
        <time>2020-12-06T08:21:18.000Z</time>
      </trkpt>
      <trkpt lat="47.28094" lon="-2.35614">
        <ele>47.400001525879</ele>
        <time>2020-12-06T08:21:20.000Z</time>
      </trkpt>
      <trkpt lat="47.28106" lon="-2.35625">
        <ele>47.400001525879</ele>
        <time>2020-12-06T08:21:26.000Z</time>
      </trkpt>
      <trkpt lat="47.28106" lon="-2.35628">
        <ele>47.400001525879</ele>
        <time>2020-12-06T08:21:27.000Z</time>
      </trkpt>
      <trkpt lat="47.28104" lon="-2.35636">
        <ele>47.799999237061</ele>
        <time>2020-12-06T08:21:30.000Z</time>
      </trkpt>
      <trkpt lat="47.28102" lon="-2.35638">
        <ele>48.200000762939</ele>
        <time>2020-12-06T08:21:31.000Z</time>
      </trkpt>
      <trkpt lat="47.28101" lon="-2.35638">
        <ele>48.599998474121</ele>
        <time>2020-12-06T08:21:32.000Z</time>
      </trkpt>
      <trkpt lat="47.281" lon="-2.35637">
        <ele>49</ele>
        <time>2020-12-06T08:21:33.000Z</time>
      </trkpt>
      <trkpt lat="47.28098" lon="-2.35636">
        <ele>49.400001525879</ele>
        <time>2020-12-06T08:21:34.000Z</time>
      </trkpt>
      <trkpt lat="47.28096" lon="-2.35625">
        <ele>49.400001525879</ele>
        <time>2020-12-06T08:21:38.000Z</time>
      </trkpt>
      <trkpt lat="47.28097" lon="-2.35618">
        <ele>49.400001525879</ele>
        <time>2020-12-06T08:21:40.000Z</time>
      </trkpt>
      <trkpt lat="47.28101" lon="-2.35606">
        <ele>49.400001525879</ele>
        <time>2020-12-06T08:21:44.000Z</time>
      </trkpt>
      <trkpt lat="47.28102" lon="-2.35601">
        <ele>49.400001525879</ele>
        <time>2020-12-06T08:21:46.000Z</time>
      </trkpt>
      <trkpt lat="47.28103" lon="-2.3559">
        <ele>49.400001525879</ele>
        <time>2020-12-06T08:21:52.000Z</time>
      </trkpt>
      <trkpt lat="47.28098" lon="-2.35586">
        <ele>49.400001525879</ele>
        <time>2020-12-06T08:21:56.000Z</time>
      </trkpt>
      <trkpt lat="47.28094" lon="-2.35585">
        <ele>49.400001525879</ele>
        <time>2020-12-06T08:21:58.000Z</time>
      </trkpt>
      <trkpt lat="47.28089" lon="-2.35582">
        <ele>49.400001525879</ele>
        <time>2020-12-06T08:22:04.000Z</time>
      </trkpt>
      <trkpt lat="47.28083" lon="-2.35586">
        <ele>47.400001525879</ele>
        <time>2020-12-06T08:26:19.000Z</time>
      </trkpt>
      <trkpt lat="47.28075" lon="-2.35591">
        <ele>47.400001525879</ele>
        <time>2020-12-06T08:26:26.000Z</time>
      </trkpt>
      <trkpt lat="47.28074" lon="-2.3559">
        <ele>47.400001525879</ele>
        <time>2020-12-06T08:26:27.000Z</time>
      </trkpt>
      <trkpt lat="47.28068" lon="-2.35585">
        <ele>47.400001525879</ele>
        <time>2020-12-06T08:26:31.000Z</time>
      </trkpt>
      <trkpt lat="47.28059" lon="-2.35587">
        <ele>47.400001525879</ele>
        <time>2020-12-06T08:26:37.000Z</time>
      </trkpt>
      <trkpt lat="47.28058" lon="-2.35586">
        <ele>47.400001525879</ele>
        <time>2020-12-06T08:26:39.000Z</time>
      </trkpt>
      <trkpt lat="47.28059" lon="-2.35585">
        <ele>47.400001525879</ele>
        <time>2020-12-06T08:26:51.000Z</time>
      </trkpt>
      <trkpt lat="47.2806" lon="-2.3558">
        <ele>47.400001525879</ele>
        <time>2020-12-06T08:26:53.000Z</time>
      </trkpt>
      <trkpt lat="47.28066" lon="-2.35579">
        <ele>47.400001525879</ele>
        <time>2020-12-06T08:26:57.000Z</time>
      </trkpt>
      <trkpt lat="47.28072" lon="-2.35584">
        <ele>47.400001525879</ele>
        <time>2020-12-06T08:27:01.000Z</time>
      </trkpt>
      <trkpt lat="47.28075" lon="-2.35587">
        <ele>47.400001525879</ele>
        <time>2020-12-06T08:27:03.000Z</time>
      </trkpt>
      <trkpt lat="47.28081" lon="-2.35607">
        <ele>47.400001525879</ele>
        <time>2020-12-06T08:27:10.000Z</time>
      </trkpt>
      <trkpt lat="47.28087" lon="-2.35619">
        <ele>47.400001525879</ele>
        <time>2020-12-06T08:27:16.000Z</time>
      </trkpt>
      <trkpt lat="47.2809" lon="-2.35624">
        <ele>47.400001525879</ele>
        <time>2020-12-06T08:27:22.000Z</time>
      </trkpt>
      <trkpt lat="47.28088" lon="-2.35617">
        <ele>49.400001525879</ele>
        <time>2020-12-06T08:39:14.000Z</time>
      </trkpt>
      <trkpt lat="47.28084" lon="-2.35615">
        <ele>49.400001525879</ele>
        <time>2020-12-06T08:39:16.000Z</time>
      </trkpt>
      <trkpt lat="47.28077" lon="-2.35623">
        <ele>49.400001525879</ele>
        <time>2020-12-06T08:39:20.000Z</time>
      </trkpt>
      <trkpt lat="47.28077" lon="-2.35635">
        <ele>49.400001525879</ele>
        <time>2020-12-06T08:39:24.000Z</time>
      </trkpt>
      <trkpt lat="47.28078" lon="-2.3564">
        <ele>49.400001525879</ele>
        <time>2020-12-06T08:39:26.000Z</time>
      </trkpt>
      <trkpt lat="47.28079" lon="-2.35642">
        <ele>49.799999237061</ele>
        <time>2020-12-06T08:39:27.000Z</time>
      </trkpt>
      <trkpt lat="47.2808" lon="-2.35645">
        <ele>50.200000762939</ele>
        <time>2020-12-06T08:39:28.000Z</time>
      </trkpt>
      <trkpt lat="47.28082" lon="-2.35647">
        <ele>50.599998474121</ele>
        <time>2020-12-06T08:39:29.000Z</time>
      </trkpt>
      <trkpt lat="47.28083" lon="-2.3565">
        <ele>51</ele>
        <time>2020-12-06T08:39:30.000Z</time>
      </trkpt>
      <trkpt lat="47.28084" lon="-2.35654">
        <ele>51.400001525879</ele>
        <time>2020-12-06T08:39:31.000Z</time>
      </trkpt>
      <trkpt lat="47.28085" lon="-2.35658">
        <ele>51.400001525879</ele>
        <time>2020-12-06T08:39:32.000Z</time>
      </trkpt>
      <trkpt lat="47.28086" lon="-2.3567">
        <ele>51.799999237061</ele>
        <time>2020-12-06T08:39:35.000Z</time>
      </trkpt>
      <trkpt lat="47.28087" lon="-2.35674">
        <ele>52.200000762939</ele>
        <time>2020-12-06T08:39:36.000Z</time>
      </trkpt>
      <trkpt lat="47.28088" lon="-2.35677">
        <ele>52.799999237061</ele>
        <time>2020-12-06T08:39:37.000Z</time>
      </trkpt>
      <trkpt lat="47.28088" lon="-2.3568">
        <ele>53.200000762939</ele>
        <time>2020-12-06T08:39:38.000Z</time>
      </trkpt>
      <trkpt lat="47.28089" lon="-2.35683">
        <ele>53.599998474121</ele>
        <time>2020-12-06T08:39:39.000Z</time>
      </trkpt>
      <trkpt lat="47.28091" lon="-2.35697">
        <ele>53.599998474121</ele>
        <time>2020-12-06T08:39:45.000Z</time>
      </trkpt>
      <trkpt lat="47.28093" lon="-2.35708">
        <ele>54</ele>
        <time>2020-12-06T08:39:49.000Z</time>
      </trkpt>
      <trkpt lat="47.28093" lon="-2.35711">
        <ele>54.400001525879</ele>
        <time>2020-12-06T08:39:50.000Z</time>
      </trkpt>
      <trkpt lat="47.28092" lon="-2.35715">
        <ele>54.799999237061</ele>
        <time>2020-12-06T08:39:51.000Z</time>
      </trkpt>
      <trkpt lat="47.28092" lon="-2.35717">
        <ele>55.200000762939</ele>
        <time>2020-12-06T08:39:52.000Z</time>
      </trkpt>
      <trkpt lat="47.28091" lon="-2.35722">
        <ele>55.599998474121</ele>
        <time>2020-12-06T08:39:53.000Z</time>
      </trkpt>
      <trkpt lat="47.28087" lon="-2.35738">
        <ele>55.599998474121</ele>
        <time>2020-12-06T08:39:56.000Z</time>
      </trkpt>
      <trkpt lat="47.2808" lon="-2.35764">
        <ele>55.200000762939</ele>
        <time>2020-12-06T08:40:00.000Z</time>
      </trkpt>
      <trkpt lat="47.28078" lon="-2.35769">
        <ele>54.799999237061</ele>
        <time>2020-12-06T08:40:01.000Z</time>
      </trkpt>
      <trkpt lat="47.28075" lon="-2.35774">
        <ele>54.400001525879</ele>
        <time>2020-12-06T08:40:02.000Z</time>
      </trkpt>
      <trkpt lat="47.28073" lon="-2.35779">
        <ele>54</ele>
        <time>2020-12-06T08:40:03.000Z</time>
      </trkpt>
      <trkpt lat="47.28072" lon="-2.35786">
        <ele>53.599998474121</ele>
        <time>2020-12-06T08:40:04.000Z</time>
      </trkpt>
      <trkpt lat="47.28073" lon="-2.35798">
        <ele>53.599998474121</ele>
        <time>2020-12-06T08:40:06.000Z</time>
      </trkpt>
      <trkpt lat="47.28077" lon="-2.35805">
        <ele>53.200000762939</ele>
        <time>2020-12-06T08:40:07.000Z</time>
      </trkpt>
      <trkpt lat="47.28081" lon="-2.35811">
        <ele>52.400001525879</ele>
        <time>2020-12-06T08:40:08.000Z</time>
      </trkpt>
      <trkpt lat="47.28085" lon="-2.35816">
        <ele>52</ele>
        <time>2020-12-06T08:40:09.000Z</time>
      </trkpt>
      <trkpt lat="47.28088" lon="-2.35822">
        <ele>51.599998474121</ele>
        <time>2020-12-06T08:40:10.000Z</time>
      </trkpt>
      <trkpt lat="47.281" lon="-2.35841">
        <ele>51.599998474121</ele>
        <time>2020-12-06T08:40:15.000Z</time>
      </trkpt>
      <trkpt lat="47.28112" lon="-2.35861">
        <ele>51.599998474121</ele>
        <time>2020-12-06T08:40:21.000Z</time>
      </trkpt>
      <trkpt lat="47.28122" lon="-2.35874">
        <ele>51.599998474121</ele>
        <time>2020-12-06T08:40:26.000Z</time>
      </trkpt>
      <trkpt lat="47.28135" lon="-2.35895">
        <ele>51.599998474121</ele>
        <time>2020-12-06T08:40:33.000Z</time>
      </trkpt>
      <trkpt lat="47.28151" lon="-2.35918">
        <ele>51.599998474121</ele>
        <time>2020-12-06T08:40:40.000Z</time>
      </trkpt>
      <trkpt lat="47.28163" lon="-2.35935">
        <ele>51.599998474121</ele>
        <time>2020-12-06T08:40:44.000Z</time>
      </trkpt>
      <trkpt lat="47.28167" lon="-2.35939">
        <ele>51.599998474121</ele>
        <time>2020-12-06T08:40:45.000Z</time>
      </trkpt>
      <trkpt lat="47.28171" lon="-2.35943">
        <ele>51.200000762939</ele>
        <time>2020-12-06T08:40:47.000Z</time>
      </trkpt>
      <trkpt lat="47.28172" lon="-2.35942">
        <ele>50.599998474121</ele>
        <time>2020-12-06T08:40:48.000Z</time>
      </trkpt>
      <trkpt lat="47.28173" lon="-2.35942">
        <ele>50.200000762939</ele>
        <time>2020-12-06T08:40:49.000Z</time>
      </trkpt>
      <trkpt lat="47.28174" lon="-2.35942">
        <ele>49.799999237061</ele>
        <time>2020-12-06T08:40:50.000Z</time>
      </trkpt>
      <trkpt lat="47.28175" lon="-2.35943">
        <ele>49.400001525879</ele>
        <time>2020-12-06T08:40:51.000Z</time>
      </trkpt>
      <trkpt lat="47.28177" lon="-2.35945">
        <ele>49.400001525879</ele>
        <time>2020-12-06T08:40:52.000Z</time>
      </trkpt>
      <trkpt lat="47.2818" lon="-2.35949">
        <ele>49.400001525879</ele>
        <time>2020-12-06T08:40:53.000Z</time>
      </trkpt>
      <trkpt lat="47.28188" lon="-2.35973">
        <ele>49.400001525879</ele>
        <time>2020-12-06T08:40:57.000Z</time>
      </trkpt>
      <trkpt lat="47.282" lon="-2.35994">
        <ele>49.400001525879</ele>
        <time>2020-12-06T08:41:01.000Z</time>
      </trkpt>
      <trkpt lat="47.28205" lon="-2.36003">
        <ele>49</ele>
        <time>2020-12-06T08:41:03.000Z</time>
      </trkpt>
      <trkpt lat="47.28208" lon="-2.36007">
        <ele>48.599998474121</ele>
        <time>2020-12-06T08:41:04.000Z</time>
      </trkpt>
      <trkpt lat="47.28209" lon="-2.36011">
        <ele>48.200000762939</ele>
        <time>2020-12-06T08:41:05.000Z</time>
      </trkpt>
      <trkpt lat="47.28212" lon="-2.36014">
        <ele>47.799999237061</ele>
        <time>2020-12-06T08:41:06.000Z</time>
      </trkpt>
      <trkpt lat="47.28214" lon="-2.36017">
        <ele>47.400001525879</ele>
        <time>2020-12-06T08:41:07.000Z</time>
      </trkpt>
      <trkpt lat="47.28226" lon="-2.36027">
        <ele>47.400001525879</ele>
        <time>2020-12-06T08:41:12.000Z</time>
      </trkpt>
      <trkpt lat="47.28227" lon="-2.36027">
        <ele>47.400001525879</ele>
        <time>2020-12-06T08:41:13.000Z</time>
      </trkpt>
      <trkpt lat="47.28236" lon="-2.3602">
        <ele>47.400001525879</ele>
        <time>2020-12-06T08:41:17.000Z</time>
      </trkpt>
      <trkpt lat="47.28254" lon="-2.36017">
        <ele>47.799999237061</ele>
        <time>2020-12-06T08:41:23.000Z</time>
      </trkpt>
      <trkpt lat="47.28254" lon="-2.36019">
        <ele>48.200000762939</ele>
        <time>2020-12-06T08:41:24.000Z</time>
      </trkpt>
      <trkpt lat="47.28254" lon="-2.36021">
        <ele>48.599998474121</ele>
        <time>2020-12-06T08:41:25.000Z</time>
      </trkpt>
      <trkpt lat="47.28253" lon="-2.36024">
        <ele>49</ele>
        <time>2020-12-06T08:41:26.000Z</time>
      </trkpt>
      <trkpt lat="47.28252" lon="-2.36028">
        <ele>49.400001525879</ele>
        <time>2020-12-06T08:41:27.000Z</time>
      </trkpt>
      <trkpt lat="47.2825" lon="-2.36049">
        <ele>49.799999237061</ele>
        <time>2020-12-06T08:41:32.000Z</time>
      </trkpt>
      <trkpt lat="47.28249" lon="-2.36053">
        <ele>50.200000762939</ele>
        <time>2020-12-06T08:41:33.000Z</time>
      </trkpt>
      <trkpt lat="47.28249" lon="-2.36056">
        <ele>50.599998474121</ele>
        <time>2020-12-06T08:41:34.000Z</time>
      </trkpt>
      <trkpt lat="47.28249" lon="-2.3606">
        <ele>51.200000762939</ele>
        <time>2020-12-06T08:41:35.000Z</time>
      </trkpt>
      <trkpt lat="47.28248" lon="-2.36064">
        <ele>51.599998474121</ele>
        <time>2020-12-06T08:41:36.000Z</time>
      </trkpt>
      <trkpt lat="47.28247" lon="-2.36072">
        <ele>51.599998474121</ele>
        <time>2020-12-06T08:41:38.000Z</time>
      </trkpt>
      <trkpt lat="47.28245" lon="-2.36076">
        <ele>51.599998474121</ele>
        <time>2020-12-06T08:41:39.000Z</time>
      </trkpt>
      <trkpt lat="47.28244" lon="-2.36101">
        <ele>51.599998474121</ele>
        <time>2020-12-06T08:41:45.000Z</time>
      </trkpt>
      <trkpt lat="47.28257" lon="-2.36125">
        <ele>51.599998474121</ele>
        <time>2020-12-06T08:41:49.000Z</time>
      </trkpt>
      <trkpt lat="47.28269" lon="-2.36153">
        <ele>51.599998474121</ele>
        <time>2020-12-06T08:41:55.000Z</time>
      </trkpt>
      <trkpt lat="47.28272" lon="-2.36182">
        <ele>51.599998474121</ele>
        <time>2020-12-06T08:42:00.000Z</time>
      </trkpt>
      <trkpt lat="47.28278" lon="-2.36217">
        <ele>51.599998474121</ele>
        <time>2020-12-06T08:42:06.000Z</time>
      </trkpt>
      <trkpt lat="47.2828" lon="-2.36223">
        <ele>51.599998474121</ele>
        <time>2020-12-06T08:42:07.000Z</time>
      </trkpt>
      <trkpt lat="47.28282" lon="-2.36229">
        <ele>51.200000762939</ele>
        <time>2020-12-06T08:42:08.000Z</time>
      </trkpt>
      <trkpt lat="47.28283" lon="-2.36236">
        <ele>50.799999237061</ele>
        <time>2020-12-06T08:42:09.000Z</time>
      </trkpt>
      <trkpt lat="47.28286" lon="-2.3624">
        <ele>50.200000762939</ele>
        <time>2020-12-06T08:42:10.000Z</time>
      </trkpt>
      <trkpt lat="47.28289" lon="-2.36242">
        <ele>49.400001525879</ele>
        <time>2020-12-06T08:42:11.000Z</time>
      </trkpt>
      <trkpt lat="47.28302" lon="-2.36244">
        <ele>49.400001525879</ele>
        <time>2020-12-06T08:42:14.000Z</time>
      </trkpt>
      <trkpt lat="47.28306" lon="-2.36245">
        <ele>49.400001525879</ele>
        <time>2020-12-06T08:42:15.000Z</time>
      </trkpt>
      <trkpt lat="47.28332" lon="-2.36253">
        <ele>49.400001525879</ele>
        <time>2020-12-06T08:42:21.000Z</time>
      </trkpt>
      <trkpt lat="47.28348" lon="-2.36258">
        <ele>49.400001525879</ele>
        <time>2020-12-06T08:42:26.000Z</time>
      </trkpt>
      <trkpt lat="47.28359" lon="-2.36266">
        <ele>49.400001525879</ele>
        <time>2020-12-06T08:42:31.000Z</time>
      </trkpt>
      <trkpt lat="47.2836" lon="-2.36278">
        <ele>49.400001525879</ele>
        <time>2020-12-06T08:42:35.000Z</time>
      </trkpt>
      <trkpt lat="47.2836" lon="-2.36284">
        <ele>49.799999237061</ele>
        <time>2020-12-06T08:42:37.000Z</time>
      </trkpt>
      <trkpt lat="47.28361" lon="-2.36286">
        <ele>50.200000762939</ele>
        <time>2020-12-06T08:42:38.000Z</time>
      </trkpt>
      <trkpt lat="47.28362" lon="-2.36289">
        <ele>50.599998474121</ele>
        <time>2020-12-06T08:42:39.000Z</time>
      </trkpt>
      <trkpt lat="47.28362" lon="-2.36292">
        <ele>51</ele>
        <time>2020-12-06T08:42:40.000Z</time>
      </trkpt>
      <trkpt lat="47.28364" lon="-2.36295">
        <ele>51.599998474121</ele>
        <time>2020-12-06T08:42:41.000Z</time>
      </trkpt>
      <trkpt lat="47.28366" lon="-2.36297">
        <ele>51.599998474121</ele>
        <time>2020-12-06T08:42:42.000Z</time>
      </trkpt>
      <trkpt lat="47.28371" lon="-2.36301">
        <ele>51.599998474121</ele>
        <time>2020-12-06T08:42:45.000Z</time>
      </trkpt>
      <trkpt lat="47.28383" lon="-2.36317">
        <ele>51.599998474121</ele>
        <time>2020-12-06T08:42:50.000Z</time>
      </trkpt>
      <trkpt lat="47.28391" lon="-2.36327">
        <ele>52</ele>
        <time>2020-12-06T08:42:53.000Z</time>
      </trkpt>
      <trkpt lat="47.28393" lon="-2.36329">
        <ele>52.400001525879</ele>
        <time>2020-12-06T08:42:54.000Z</time>
      </trkpt>
      <trkpt lat="47.28395" lon="-2.36331">
        <ele>52.799999237061</ele>
        <time>2020-12-06T08:42:55.000Z</time>
      </trkpt>
      <trkpt lat="47.28397" lon="-2.36333">
        <ele>53.200000762939</ele>
        <time>2020-12-06T08:42:56.000Z</time>
      </trkpt>
      <trkpt lat="47.28399" lon="-2.36335">
        <ele>53.599998474121</ele>
        <time>2020-12-06T08:42:57.000Z</time>
      </trkpt>
      <trkpt lat="47.28413" lon="-2.36354">
        <ele>53.599998474121</ele>
        <time>2020-12-06T08:43:03.000Z</time>
      </trkpt>
      <trkpt lat="47.2843" lon="-2.36366">
        <ele>53.599998474121</ele>
        <time>2020-12-06T08:43:08.000Z</time>
      </trkpt>
      <trkpt lat="47.28438" lon="-2.36372">
        <ele>54</ele>
        <time>2020-12-06T08:43:11.000Z</time>
      </trkpt>
      <trkpt lat="47.28441" lon="-2.36374">
        <ele>54.400001525879</ele>
        <time>2020-12-06T08:43:12.000Z</time>
      </trkpt>
      <trkpt lat="47.28443" lon="-2.36377">
        <ele>54.799999237061</ele>
        <time>2020-12-06T08:43:13.000Z</time>
      </trkpt>
      <trkpt lat="47.28446" lon="-2.3638">
        <ele>55.200000762939</ele>
        <time>2020-12-06T08:43:14.000Z</time>
      </trkpt>
      <trkpt lat="47.28449" lon="-2.36383">
        <ele>55.599998474121</ele>
        <time>2020-12-06T08:43:15.000Z</time>
      </trkpt>
      <trkpt lat="47.28451" lon="-2.36386">
        <ele>55.599998474121</ele>
        <time>2020-12-06T08:43:16.000Z</time>
      </trkpt>
      <trkpt lat="47.28461" lon="-2.36395">
        <ele>55.599998474121</ele>
        <time>2020-12-06T08:43:20.000Z</time>
      </trkpt>
      <trkpt lat="47.28463" lon="-2.36395">
        <ele>55.599998474121</ele>
        <time>2020-12-06T08:43:21.000Z</time>
      </trkpt>
      <trkpt lat="47.28464" lon="-2.36389">
        <ele>55.599998474121</ele>
        <time>2020-12-06T08:43:24.000Z</time>
      </trkpt>
      <trkpt lat="47.28464" lon="-2.36385">
        <ele>55.599998474121</ele>
        <time>2020-12-06T08:43:25.000Z</time>
      </trkpt>
      <trkpt lat="47.28465" lon="-2.36362">
        <ele>55.599998474121</ele>
        <time>2020-12-06T08:43:30.000Z</time>
      </trkpt>
      <trkpt lat="47.28464" lon="-2.36326">
        <ele>55.599998474121</ele>
        <time>2020-12-06T08:43:36.000Z</time>
      </trkpt>
      <trkpt lat="47.28459" lon="-2.36285">
        <ele>55.599998474121</ele>
        <time>2020-12-06T08:43:43.000Z</time>
      </trkpt>
      <trkpt lat="47.28457" lon="-2.36265">
        <ele>56</ele>
        <time>2020-12-06T08:43:46.000Z</time>
      </trkpt>
      <trkpt lat="47.28457" lon="-2.36259">
        <ele>56.400001525879</ele>
        <time>2020-12-06T08:43:47.000Z</time>
      </trkpt>
      <trkpt lat="47.28456" lon="-2.36253">
        <ele>56.799999237061</ele>
        <time>2020-12-06T08:43:48.000Z</time>
      </trkpt>
      <trkpt lat="47.28457" lon="-2.36247">
        <ele>57.200000762939</ele>
        <time>2020-12-06T08:43:49.000Z</time>
      </trkpt>
      <trkpt lat="47.28456" lon="-2.3624">
        <ele>57.599998474121</ele>
        <time>2020-12-06T08:43:50.000Z</time>
      </trkpt>
      <trkpt lat="47.28456" lon="-2.36214">
        <ele>57.599998474121</ele>
        <time>2020-12-06T08:43:55.000Z</time>
      </trkpt>
      <trkpt lat="47.28453" lon="-2.36191">
        <ele>57.599998474121</ele>
        <time>2020-12-06T08:44:01.000Z</time>
      </trkpt>
      <trkpt lat="47.28451" lon="-2.36188">
        <ele>57.599998474121</ele>
        <time>2020-12-06T08:44:02.000Z</time>
      </trkpt>
      <trkpt lat="47.2845" lon="-2.36173">
        <ele>58</ele>
        <time>2020-12-06T08:44:05.000Z</time>
      </trkpt>
      <trkpt lat="47.28451" lon="-2.36169">
        <ele>58.400001525879</ele>
        <time>2020-12-06T08:44:06.000Z</time>
      </trkpt>
      <trkpt lat="47.2845" lon="-2.36165">
        <ele>58.799999237061</ele>
        <time>2020-12-06T08:44:07.000Z</time>
      </trkpt>
      <trkpt lat="47.2845" lon="-2.36161">
        <ele>59.400001525879</ele>
        <time>2020-12-06T08:44:08.000Z</time>
      </trkpt>
      <trkpt lat="47.2845" lon="-2.36157">
        <ele>59.799999237061</ele>
        <time>2020-12-06T08:44:09.000Z</time>
      </trkpt>
      <trkpt lat="47.28449" lon="-2.36155">
        <ele>59.799999237061</ele>
        <time>2020-12-06T08:44:10.000Z</time>
      </trkpt>
      <trkpt lat="47.28446" lon="-2.3615">
        <ele>60.200000762939</ele>
        <time>2020-12-06T08:44:12.000Z</time>
      </trkpt>
      <trkpt lat="47.28445" lon="-2.36146">
        <ele>60.599998474121</ele>
        <time>2020-12-06T08:44:13.000Z</time>
      </trkpt>
      <trkpt lat="47.28445" lon="-2.36142">
        <ele>61.599998474121</ele>
        <time>2020-12-06T08:44:14.000Z</time>
      </trkpt>
      <trkpt lat="47.28444" lon="-2.36139">
        <ele>62</ele>
        <time>2020-12-06T08:44:15.000Z</time>
      </trkpt>
      <trkpt lat="47.2844" lon="-2.36122">
        <ele>62</ele>
        <time>2020-12-06T08:44:20.000Z</time>
      </trkpt>
      <trkpt lat="47.2844" lon="-2.36114">
        <ele>62.400001525879</ele>
        <time>2020-12-06T08:44:22.000Z</time>
      </trkpt>
      <trkpt lat="47.28439" lon="-2.3611">
        <ele>62.799999237061</ele>
        <time>2020-12-06T08:44:23.000Z</time>
      </trkpt>
      <trkpt lat="47.28438" lon="-2.36106">
        <ele>63.200000762939</ele>
        <time>2020-12-06T08:44:24.000Z</time>
      </trkpt>
      <trkpt lat="47.28438" lon="-2.36102">
        <ele>63.599998474121</ele>
        <time>2020-12-06T08:44:25.000Z</time>
      </trkpt>
      <trkpt lat="47.28438" lon="-2.36098">
        <ele>64</ele>
        <time>2020-12-06T08:44:26.000Z</time>
      </trkpt>
      <trkpt lat="47.28437" lon="-2.36083">
        <ele>64</ele>
        <time>2020-12-06T08:44:30.000Z</time>
      </trkpt>
      <trkpt lat="47.28436" lon="-2.36066">
        <ele>64.599998474121</ele>
        <time>2020-12-06T08:44:34.000Z</time>
      </trkpt>
      <trkpt lat="47.28437" lon="-2.36063">
        <ele>65</ele>
        <time>2020-12-06T08:44:35.000Z</time>
      </trkpt>
      <trkpt lat="47.28436" lon="-2.36059">
        <ele>65.400001525879</ele>
        <time>2020-12-06T08:44:36.000Z</time>
      </trkpt>
      <trkpt lat="47.28436" lon="-2.36056">
        <ele>65.800003051758</ele>
        <time>2020-12-06T08:44:37.000Z</time>
      </trkpt>
      <trkpt lat="47.28436" lon="-2.36053">
        <ele>66.199996948242</ele>
        <time>2020-12-06T08:44:38.000Z</time>
      </trkpt>
      <trkpt lat="47.28437" lon="-2.36034">
        <ele>66.599998474121</ele>
        <time>2020-12-06T08:44:43.000Z</time>
      </trkpt>
      <trkpt lat="47.28438" lon="-2.36031">
        <ele>67</ele>
        <time>2020-12-06T08:44:44.000Z</time>
      </trkpt>
      <trkpt lat="47.28437" lon="-2.36029">
        <ele>67.400001525879</ele>
        <time>2020-12-06T08:44:45.000Z</time>
      </trkpt>
      <trkpt lat="47.28437" lon="-2.36028">
        <ele>67.800003051758</ele>
        <time>2020-12-06T08:44:46.000Z</time>
      </trkpt>
      <trkpt lat="47.28437" lon="-2.36025">
        <ele>68.199996948242</ele>
        <time>2020-12-06T08:44:47.000Z</time>
      </trkpt>
      <trkpt lat="47.28438" lon="-2.36022">
        <ele>68.199996948242</ele>
        <time>2020-12-06T08:44:49.000Z</time>
      </trkpt>
      <trkpt lat="47.28441" lon="-2.3602">
        <ele>68.199996948242</ele>
        <time>2020-12-06T08:44:52.000Z</time>
      </trkpt>
      <trkpt lat="47.28442" lon="-2.36016">
        <ele>68.199996948242</ele>
        <time>2020-12-06T08:44:55.000Z</time>
      </trkpt>
      <trkpt lat="47.28444" lon="-2.36012">
        <ele>68.199996948242</ele>
        <time>2020-12-06T08:44:56.000Z</time>
      </trkpt>
      <trkpt lat="47.28449" lon="-2.35993">
        <ele>68.199996948242</ele>
        <time>2020-12-06T08:45:02.000Z</time>
      </trkpt>
      <trkpt lat="47.28453" lon="-2.35988">
        <ele>68.199996948242</ele>
        <time>2020-12-06T08:45:07.000Z</time>
      </trkpt>
      <trkpt lat="47.28449" lon="-2.35976">
        <ele>68.199996948242</ele>
        <time>2020-12-06T08:45:16.000Z</time>
      </trkpt>
      <trkpt lat="47.28449" lon="-2.35968">
        <ele>68.199996948242</ele>
        <time>2020-12-06T08:45:18.000Z</time>
      </trkpt>
      <trkpt lat="47.2845" lon="-2.35958">
        <ele>67.800003051758</ele>
        <time>2020-12-06T08:45:20.000Z</time>
      </trkpt>
      <trkpt lat="47.28451" lon="-2.35953">
        <ele>67.199996948242</ele>
        <time>2020-12-06T08:45:21.000Z</time>
      </trkpt>
      <trkpt lat="47.28452" lon="-2.35948">
        <ele>66.800003051758</ele>
        <time>2020-12-06T08:45:22.000Z</time>
      </trkpt>
      <trkpt lat="47.28452" lon="-2.35944">
        <ele>66</ele>
        <time>2020-12-06T08:45:23.000Z</time>
      </trkpt>
      <trkpt lat="47.28453" lon="-2.35941">
        <ele>65.400001525879</ele>
        <time>2020-12-06T08:45:24.000Z</time>
      </trkpt>
      <trkpt lat="47.28453" lon="-2.35937">
        <ele>64.800003051758</ele>
        <time>2020-12-06T08:45:25.000Z</time>
      </trkpt>
      <trkpt lat="47.28452" lon="-2.35935">
        <ele>64.199996948242</ele>
        <time>2020-12-06T08:45:26.000Z</time>
      </trkpt>
      <trkpt lat="47.28452" lon="-2.35933">
        <ele>63.799999237061</ele>
        <time>2020-12-06T08:45:27.000Z</time>
      </trkpt>
      <trkpt lat="47.28452" lon="-2.35931">
        <ele>62.599998474121</ele>
        <time>2020-12-06T08:45:28.000Z</time>
      </trkpt>
      <trkpt lat="47.28452" lon="-2.35927">
        <ele>62.200000762939</ele>
        <time>2020-12-06T08:45:29.000Z</time>
      </trkpt>
      <trkpt lat="47.28454" lon="-2.35921">
        <ele>61.599998474121</ele>
        <time>2020-12-06T08:45:30.000Z</time>
      </trkpt>
      <trkpt lat="47.28457" lon="-2.35917">
        <ele>61</ele>
        <time>2020-12-06T08:45:31.000Z</time>
      </trkpt>
      <trkpt lat="47.2846" lon="-2.35915">
        <ele>60.400001525879</ele>
        <time>2020-12-06T08:45:32.000Z</time>
      </trkpt>
      <trkpt lat="47.28462" lon="-2.3591">
        <ele>59.799999237061</ele>
        <time>2020-12-06T08:45:33.000Z</time>
      </trkpt>
      <trkpt lat="47.28464" lon="-2.35906">
        <ele>59.200000762939</ele>
        <time>2020-12-06T08:45:34.000Z</time>
      </trkpt>
      <trkpt lat="47.28463" lon="-2.35904">
        <ele>59.200000762939</ele>
        <time>2020-12-06T08:45:35.000Z</time>
      </trkpt>
      <trkpt lat="47.28459" lon="-2.35888">
        <ele>59.200000762939</ele>
        <time>2020-12-06T08:45:39.000Z</time>
      </trkpt>
      <trkpt lat="47.28461" lon="-2.35864">
        <ele>59.200000762939</ele>
        <time>2020-12-06T08:45:44.000Z</time>
      </trkpt>
      <trkpt lat="47.28467" lon="-2.3585">
        <ele>58.799999237061</ele>
        <time>2020-12-06T08:45:47.000Z</time>
      </trkpt>
      <trkpt lat="47.28469" lon="-2.35846">
        <ele>58.400001525879</ele>
        <time>2020-12-06T08:45:48.000Z</time>
      </trkpt>
      <trkpt lat="47.2847" lon="-2.35843">
        <ele>57.799999237061</ele>
        <time>2020-12-06T08:45:49.000Z</time>
      </trkpt>
      <trkpt lat="47.2847" lon="-2.35841">
        <ele>57.400001525879</ele>
        <time>2020-12-06T08:45:50.000Z</time>
      </trkpt>
      <trkpt lat="47.28471" lon="-2.35838">
        <ele>57</ele>
        <time>2020-12-06T08:45:51.000Z</time>
      </trkpt>
      <trkpt lat="47.28478" lon="-2.35824">
        <ele>57</ele>
        <time>2020-12-06T08:45:56.000Z</time>
      </trkpt>
      <trkpt lat="47.28481" lon="-2.35805">
        <ele>57</ele>
        <time>2020-12-06T08:46:02.000Z</time>
      </trkpt>
      <trkpt lat="47.28478" lon="-2.35784">
        <ele>57</ele>
        <time>2020-12-06T08:46:08.000Z</time>
      </trkpt>
      <trkpt lat="47.28479" lon="-2.35762">
        <ele>57</ele>
        <time>2020-12-06T08:46:13.000Z</time>
      </trkpt>
      <trkpt lat="47.2849" lon="-2.35735">
        <ele>57</ele>
        <time>2020-12-06T08:46:19.000Z</time>
      </trkpt>
      <trkpt lat="47.28502" lon="-2.35712">
        <ele>57</ele>
        <time>2020-12-06T08:46:25.000Z</time>
      </trkpt>
      <trkpt lat="47.28513" lon="-2.35704">
        <ele>57</ele>
        <time>2020-12-06T08:46:30.000Z</time>
      </trkpt>
      <trkpt lat="47.2852" lon="-2.35708">
        <ele>57</ele>
        <time>2020-12-06T08:46:34.000Z</time>
      </trkpt>
      <trkpt lat="47.28523" lon="-2.35711">
        <ele>57</ele>
        <time>2020-12-06T08:46:36.000Z</time>
      </trkpt>
      <trkpt lat="47.28529" lon="-2.35718">
        <ele>57</ele>
        <time>2020-12-06T08:46:41.000Z</time>
      </trkpt>
      <trkpt lat="47.28534" lon="-2.35709">
        <ele>57</ele>
        <time>2020-12-06T08:48:11.000Z</time>
      </trkpt>
      <trkpt lat="47.28536" lon="-2.35701">
        <ele>57</ele>
        <time>2020-12-06T08:48:13.000Z</time>
      </trkpt>
      <trkpt lat="47.2854" lon="-2.35678">
        <ele>57</ele>
        <time>2020-12-06T08:48:18.000Z</time>
      </trkpt>
      <trkpt lat="47.2854" lon="-2.35673">
        <ele>57</ele>
        <time>2020-12-06T08:48:19.000Z</time>
      </trkpt>
      <trkpt lat="47.28537" lon="-2.35654">
        <ele>57</ele>
        <time>2020-12-06T08:48:24.000Z</time>
      </trkpt>
      <trkpt lat="47.28538" lon="-2.3565">
        <ele>57.599998474121</ele>
        <time>2020-12-06T08:48:25.000Z</time>
      </trkpt>
      <trkpt lat="47.2854" lon="-2.35646">
        <ele>58</ele>
        <time>2020-12-06T08:48:26.000Z</time>
      </trkpt>
      <trkpt lat="47.2854" lon="-2.35642">
        <ele>58.400001525879</ele>
        <time>2020-12-06T08:48:27.000Z</time>
      </trkpt>
      <trkpt lat="47.28541" lon="-2.35639">
        <ele>58.799999237061</ele>
        <time>2020-12-06T08:48:28.000Z</time>
      </trkpt>
      <trkpt lat="47.28542" lon="-2.35637">
        <ele>59.200000762939</ele>
        <time>2020-12-06T08:48:29.000Z</time>
      </trkpt>
      <trkpt lat="47.28545" lon="-2.35632">
        <ele>59.599998474121</ele>
        <time>2020-12-06T08:48:31.000Z</time>
      </trkpt>
      <trkpt lat="47.28546" lon="-2.3563">
        <ele>60</ele>
        <time>2020-12-06T08:48:32.000Z</time>
      </trkpt>
      <trkpt lat="47.28546" lon="-2.35626">
        <ele>60.400001525879</ele>
        <time>2020-12-06T08:48:33.000Z</time>
      </trkpt>
      <trkpt lat="47.28547" lon="-2.35622">
        <ele>60.799999237061</ele>
        <time>2020-12-06T08:48:34.000Z</time>
      </trkpt>
      <trkpt lat="47.28547" lon="-2.35618">
        <ele>61.200000762939</ele>
        <time>2020-12-06T08:48:35.000Z</time>
      </trkpt>
      <trkpt lat="47.28545" lon="-2.35613">
        <ele>61.200000762939</ele>
        <time>2020-12-06T08:48:37.000Z</time>
      </trkpt>
      <trkpt lat="47.28544" lon="-2.35612">
        <ele>61.200000762939</ele>
        <time>2020-12-06T08:48:38.000Z</time>
      </trkpt>
      <trkpt lat="47.28543" lon="-2.35612">
        <ele>61.200000762939</ele>
        <time>2020-12-06T08:48:39.000Z</time>
      </trkpt>
      <trkpt lat="47.28538" lon="-2.35614">
        <ele>61.599998474121</ele>
        <time>2020-12-06T08:48:43.000Z</time>
      </trkpt>
      <trkpt lat="47.28537" lon="-2.35615">
        <ele>62</ele>
        <time>2020-12-06T08:48:44.000Z</time>
      </trkpt>
      <trkpt lat="47.28535" lon="-2.35615">
        <ele>62.799999237061</ele>
        <time>2020-12-06T08:48:45.000Z</time>
      </trkpt>
      <trkpt lat="47.28534" lon="-2.35615">
        <ele>63.200000762939</ele>
        <time>2020-12-06T08:48:46.000Z</time>
      </trkpt>
      <trkpt lat="47.28532" lon="-2.35614">
        <ele>63.200000762939</ele>
        <time>2020-12-06T08:48:47.000Z</time>
      </trkpt>
      <trkpt lat="47.28521" lon="-2.35612">
        <ele>63.200000762939</ele>
        <time>2020-12-06T08:48:51.000Z</time>
      </trkpt>
      <trkpt lat="47.2851" lon="-2.35609">
        <ele>63.200000762939</ele>
        <time>2020-12-06T08:48:55.000Z</time>
      </trkpt>
      <trkpt lat="47.28508" lon="-2.35607">
        <ele>63.200000762939</ele>
        <time>2020-12-06T08:48:56.000Z</time>
      </trkpt>
      <trkpt lat="47.28506" lon="-2.35604">
        <ele>63.799999237061</ele>
        <time>2020-12-06T08:48:57.000Z</time>
      </trkpt>
      <trkpt lat="47.28506" lon="-2.35601">
        <ele>64.199996948242</ele>
        <time>2020-12-06T08:48:58.000Z</time>
      </trkpt>
      <trkpt lat="47.28505" lon="-2.35597">
        <ele>64.599998474121</ele>
        <time>2020-12-06T08:48:59.000Z</time>
      </trkpt>
      <trkpt lat="47.28504" lon="-2.35594">
        <ele>65</ele>
        <time>2020-12-06T08:49:00.000Z</time>
      </trkpt>
      <trkpt lat="47.28503" lon="-2.3559">
        <ele>65.400001525879</ele>
        <time>2020-12-06T08:49:01.000Z</time>
      </trkpt>
      <trkpt lat="47.28495" lon="-2.35572">
        <ele>65.800003051758</ele>
        <time>2020-12-06T08:49:07.000Z</time>
      </trkpt>
      <trkpt lat="47.28494" lon="-2.35569">
        <ele>66.199996948242</ele>
        <time>2020-12-06T08:49:08.000Z</time>
      </trkpt>
      <trkpt lat="47.28492" lon="-2.35567">
        <ele>67</ele>
        <time>2020-12-06T08:49:09.000Z</time>
      </trkpt>
      <trkpt lat="47.2849" lon="-2.35564">
        <ele>67.400001525879</ele>
        <time>2020-12-06T08:49:10.000Z</time>
      </trkpt>
      <trkpt lat="47.28485" lon="-2.35547">
        <ele>67.400001525879</ele>
        <time>2020-12-06T08:49:14.000Z</time>
      </trkpt>
      <trkpt lat="47.28484" lon="-2.35529">
        <ele>67.400001525879</ele>
        <time>2020-12-06T08:49:19.000Z</time>
      </trkpt>
      <trkpt lat="47.28483" lon="-2.35522">
        <ele>67.800003051758</ele>
        <time>2020-12-06T08:49:21.000Z</time>
      </trkpt>
      <trkpt lat="47.28482" lon="-2.35518">
        <ele>68.199996948242</ele>
        <time>2020-12-06T08:49:22.000Z</time>
      </trkpt>
      <trkpt lat="47.2848" lon="-2.35514">
        <ele>68.599998474121</ele>
        <time>2020-12-06T08:49:23.000Z</time>
      </trkpt>
      <trkpt lat="47.28478" lon="-2.35509">
        <ele>69</ele>
        <time>2020-12-06T08:49:24.000Z</time>
      </trkpt>
      <trkpt lat="47.28477" lon="-2.35505">
        <ele>69.400001525879</ele>
        <time>2020-12-06T08:49:25.000Z</time>
      </trkpt>
      <trkpt lat="47.28469" lon="-2.35492">
        <ele>69.400001525879</ele>
        <time>2020-12-06T08:49:29.000Z</time>
      </trkpt>
      <trkpt lat="47.28467" lon="-2.35487">
        <ele>69</ele>
        <time>2020-12-06T08:49:30.000Z</time>
      </trkpt>
      <trkpt lat="47.28466" lon="-2.35481">
        <ele>68.599998474121</ele>
        <time>2020-12-06T08:49:31.000Z</time>
      </trkpt>
      <trkpt lat="47.28464" lon="-2.35475">
        <ele>68</ele>
        <time>2020-12-06T08:49:32.000Z</time>
      </trkpt>
      <trkpt lat="47.28462" lon="-2.35468">
        <ele>67.599998474121</ele>
        <time>2020-12-06T08:49:33.000Z</time>
      </trkpt>
      <trkpt lat="47.2846" lon="-2.35462">
        <ele>66.800003051758</ele>
        <time>2020-12-06T08:49:34.000Z</time>
      </trkpt>
      <trkpt lat="47.28458" lon="-2.35457">
        <ele>66.199996948242</ele>
        <time>2020-12-06T08:49:35.000Z</time>
      </trkpt>
      <trkpt lat="47.28456" lon="-2.35452">
        <ele>65.800003051758</ele>
        <time>2020-12-06T08:49:36.000Z</time>
      </trkpt>
      <trkpt lat="47.28454" lon="-2.35448">
        <ele>65.199996948242</ele>
        <time>2020-12-06T08:49:37.000Z</time>
      </trkpt>
      <trkpt lat="47.28451" lon="-2.35444">
        <ele>64.400001525879</ele>
        <time>2020-12-06T08:49:38.000Z</time>
      </trkpt>
      <trkpt lat="47.28447" lon="-2.35442">
        <ele>63.799999237061</ele>
        <time>2020-12-06T08:49:39.000Z</time>
      </trkpt>
      <trkpt lat="47.28443" lon="-2.35442">
        <ele>63.200000762939</ele>
        <time>2020-12-06T08:49:40.000Z</time>
      </trkpt>
      <trkpt lat="47.28438" lon="-2.35441">
        <ele>62.599998474121</ele>
        <time>2020-12-06T08:49:41.000Z</time>
      </trkpt>
      <trkpt lat="47.28435" lon="-2.35439">
        <ele>62</ele>
        <time>2020-12-06T08:49:42.000Z</time>
      </trkpt>
      <trkpt lat="47.28432" lon="-2.35438">
        <ele>61.599998474121</ele>
        <time>2020-12-06T08:49:43.000Z</time>
      </trkpt>
      <trkpt lat="47.28429" lon="-2.35437">
        <ele>61.200000762939</ele>
        <time>2020-12-06T08:49:44.000Z</time>
      </trkpt>
      <trkpt lat="47.28426" lon="-2.35437">
        <ele>60.799999237061</ele>
        <time>2020-12-06T08:49:45.000Z</time>
      </trkpt>
      <trkpt lat="47.28423" lon="-2.35437">
        <ele>60.200000762939</ele>
        <time>2020-12-06T08:49:46.000Z</time>
      </trkpt>
      <trkpt lat="47.28417" lon="-2.35436">
        <ele>60.200000762939</ele>
        <time>2020-12-06T08:49:48.000Z</time>
      </trkpt>
      <trkpt lat="47.28415" lon="-2.35433">
        <ele>60.200000762939</ele>
        <time>2020-12-06T08:49:49.000Z</time>
      </trkpt>
      <trkpt lat="47.28417" lon="-2.3542">
        <ele>60.200000762939</ele>
        <time>2020-12-06T08:49:54.000Z</time>
      </trkpt>
      <trkpt lat="47.28419" lon="-2.35417">
        <ele>60.200000762939</ele>
        <time>2020-12-06T08:49:55.000Z</time>
      </trkpt>
      <trkpt lat="47.28426" lon="-2.35414">
        <ele>60.200000762939</ele>
        <time>2020-12-06T08:49:58.000Z</time>
      </trkpt>
      <trkpt lat="47.28433" lon="-2.3541">
        <ele>60.200000762939</ele>
        <time>2020-12-06T08:50:01.000Z</time>
      </trkpt>
      <trkpt lat="47.28439" lon="-2.35408">
        <ele>60.200000762939</ele>
        <time>2020-12-06T08:50:04.000Z</time>
      </trkpt>
      <trkpt lat="47.28441" lon="-2.35406">
        <ele>60.200000762939</ele>
        <time>2020-12-06T08:50:05.000Z</time>
      </trkpt>
      <trkpt lat="47.28447" lon="-2.3539">
        <ele>60.200000762939</ele>
        <time>2020-12-06T08:50:09.000Z</time>
      </trkpt>
      <trkpt lat="47.28447" lon="-2.35373">
        <ele>59.799999237061</ele>
        <time>2020-12-06T08:50:12.000Z</time>
      </trkpt>
      <trkpt lat="47.28448" lon="-2.35368">
        <ele>59.400001525879</ele>
        <time>2020-12-06T08:50:13.000Z</time>
      </trkpt>
      <trkpt lat="47.28448" lon="-2.35364">
        <ele>59</ele>
        <time>2020-12-06T08:50:14.000Z</time>
      </trkpt>
      <trkpt lat="47.28449" lon="-2.3536">
        <ele>58.599998474121</ele>
        <time>2020-12-06T08:50:15.000Z</time>
      </trkpt>
      <trkpt lat="47.2845" lon="-2.35355">
        <ele>57.799999237061</ele>
        <time>2020-12-06T08:50:16.000Z</time>
      </trkpt>
      <trkpt lat="47.28452" lon="-2.35351">
        <ele>57.200000762939</ele>
        <time>2020-12-06T08:50:17.000Z</time>
      </trkpt>
      <trkpt lat="47.28453" lon="-2.35347">
        <ele>56.599998474121</ele>
        <time>2020-12-06T08:50:18.000Z</time>
      </trkpt>
      <trkpt lat="47.28456" lon="-2.35344">
        <ele>56</ele>
        <time>2020-12-06T08:50:19.000Z</time>
      </trkpt>
      <trkpt lat="47.28458" lon="-2.35343">
        <ele>55.400001525879</ele>
        <time>2020-12-06T08:50:20.000Z</time>
      </trkpt>
      <trkpt lat="47.2846" lon="-2.35344">
        <ele>55</ele>
        <time>2020-12-06T08:50:21.000Z</time>
      </trkpt>
      <trkpt lat="47.28462" lon="-2.35346">
        <ele>54.400001525879</ele>
        <time>2020-12-06T08:50:22.000Z</time>
      </trkpt>
      <trkpt lat="47.28466" lon="-2.35348">
        <ele>53.200000762939</ele>
        <time>2020-12-06T08:50:23.000Z</time>
      </trkpt>
      <trkpt lat="47.2848" lon="-2.35368">
        <ele>53.200000762939</ele>
        <time>2020-12-06T08:50:28.000Z</time>
      </trkpt>
      <trkpt lat="47.28491" lon="-2.35399">
        <ele>53.200000762939</ele>
        <time>2020-12-06T08:50:34.000Z</time>
      </trkpt>
      <trkpt lat="47.28494" lon="-2.35416">
        <ele>53.200000762939</ele>
        <time>2020-12-06T08:50:39.000Z</time>
      </trkpt>
      <trkpt lat="47.28497" lon="-2.35425">
        <ele>53.599998474121</ele>
        <time>2020-12-06T08:50:44.000Z</time>
      </trkpt>
      <trkpt lat="47.28499" lon="-2.35429">
        <ele>54</ele>
        <time>2020-12-06T08:50:45.000Z</time>
      </trkpt>
      <trkpt lat="47.285" lon="-2.35431">
        <ele>54.400001525879</ele>
        <time>2020-12-06T08:50:46.000Z</time>
      </trkpt>
      <trkpt lat="47.28501" lon="-2.35433">
        <ele>54.799999237061</ele>
        <time>2020-12-06T08:50:47.000Z</time>
      </trkpt>
      <trkpt lat="47.28502" lon="-2.35436">
        <ele>55.200000762939</ele>
        <time>2020-12-06T08:50:48.000Z</time>
      </trkpt>
      <trkpt lat="47.28504" lon="-2.35437">
        <ele>55.200000762939</ele>
        <time>2020-12-06T08:50:49.000Z</time>
      </trkpt>
      <trkpt lat="47.2851" lon="-2.35443">
        <ele>55.200000762939</ele>
        <time>2020-12-06T08:50:56.000Z</time>
      </trkpt>
      <trkpt lat="47.2852" lon="-2.35457">
        <ele>55.200000762939</ele>
        <time>2020-12-06T08:51:01.000Z</time>
      </trkpt>
      <trkpt lat="47.28524" lon="-2.35468">
        <ele>55.200000762939</ele>
        <time>2020-12-06T08:51:05.000Z</time>
      </trkpt>
      <trkpt lat="47.28528" lon="-2.35479">
        <ele>55.200000762939</ele>
        <time>2020-12-06T08:51:13.000Z</time>
      </trkpt>
      <trkpt lat="47.2853" lon="-2.35481">
        <ele>55.200000762939</ele>
        <time>2020-12-06T08:51:14.000Z</time>
      </trkpt>
      <trkpt lat="47.28538" lon="-2.35486">
        <ele>55.200000762939</ele>
        <time>2020-12-06T08:51:18.000Z</time>
      </trkpt>
      <trkpt lat="47.28553" lon="-2.35489">
        <ele>55.200000762939</ele>
        <time>2020-12-06T08:51:24.000Z</time>
      </trkpt>
      <trkpt lat="47.2857" lon="-2.35488">
        <ele>55.200000762939</ele>
        <time>2020-12-06T08:51:31.000Z</time>
      </trkpt>
      <trkpt lat="47.28577" lon="-2.35501">
        <ele>55.200000762939</ele>
        <time>2020-12-06T08:51:35.000Z</time>
      </trkpt>
      <trkpt lat="47.28578" lon="-2.35505">
        <ele>55.200000762939</ele>
        <time>2020-12-06T08:51:36.000Z</time>
      </trkpt>
      <trkpt lat="47.28582" lon="-2.3552">
        <ele>55.200000762939</ele>
        <time>2020-12-06T08:51:40.000Z</time>
      </trkpt>
      <trkpt lat="47.28587" lon="-2.35542">
        <ele>55.200000762939</ele>
        <time>2020-12-06T08:51:46.000Z</time>
      </trkpt>
      <trkpt lat="47.2859" lon="-2.3557">
        <ele>55.200000762939</ele>
        <time>2020-12-06T08:51:51.000Z</time>
      </trkpt>
      <trkpt lat="47.28595" lon="-2.35598">
        <ele>55.200000762939</ele>
        <time>2020-12-06T08:51:56.000Z</time>
      </trkpt>
      <trkpt lat="47.28602" lon="-2.35631">
        <ele>55.200000762939</ele>
        <time>2020-12-06T08:52:02.000Z</time>
      </trkpt>
      <trkpt lat="47.28609" lon="-2.35671">
        <ele>55.200000762939</ele>
        <time>2020-12-06T08:52:09.000Z</time>
      </trkpt>
      <trkpt lat="47.28609" lon="-2.35677">
        <ele>55.799999237061</ele>
        <time>2020-12-06T08:52:10.000Z</time>
      </trkpt>
      <trkpt lat="47.2861" lon="-2.35682">
        <ele>56.200000762939</ele>
        <time>2020-12-06T08:52:11.000Z</time>
      </trkpt>
      <trkpt lat="47.2861" lon="-2.35688">
        <ele>56.599998474121</ele>
        <time>2020-12-06T08:52:12.000Z</time>
      </trkpt>
      <trkpt lat="47.28611" lon="-2.35694">
        <ele>57</ele>
        <time>2020-12-06T08:52:13.000Z</time>
      </trkpt>
      <trkpt lat="47.28611" lon="-2.357">
        <ele>57.400001525879</ele>
        <time>2020-12-06T08:52:14.000Z</time>
      </trkpt>
      <trkpt lat="47.28612" lon="-2.35706">
        <ele>57.400001525879</ele>
        <time>2020-12-06T08:52:15.000Z</time>
      </trkpt>
      <trkpt lat="47.28618" lon="-2.35739">
        <ele>57.400001525879</ele>
        <time>2020-12-06T08:52:21.000Z</time>
      </trkpt>
      <trkpt lat="47.28626" lon="-2.3575">
        <ele>57.400001525879</ele>
        <time>2020-12-06T08:52:24.000Z</time>
      </trkpt>
      <trkpt lat="47.28629" lon="-2.35755">
        <ele>57.400001525879</ele>
        <time>2020-12-06T08:52:25.000Z</time>
      </trkpt>
      <trkpt lat="47.28637" lon="-2.35785">
        <ele>57.400001525879</ele>
        <time>2020-12-06T08:52:30.000Z</time>
      </trkpt>
      <trkpt lat="47.28645" lon="-2.35818">
        <ele>57.400001525879</ele>
        <time>2020-12-06T08:52:36.000Z</time>
      </trkpt>
      <trkpt lat="47.28648" lon="-2.35844">
        <ele>57.400001525879</ele>
        <time>2020-12-06T08:52:41.000Z</time>
      </trkpt>
      <trkpt lat="47.2866" lon="-2.35877">
        <ele>57.400001525879</ele>
        <time>2020-12-06T08:52:48.000Z</time>
      </trkpt>
      <trkpt lat="47.28664" lon="-2.35897">
        <ele>57.799999237061</ele>
        <time>2020-12-06T08:52:52.000Z</time>
      </trkpt>
      <trkpt lat="47.28666" lon="-2.35901">
        <ele>58.200000762939</ele>
        <time>2020-12-06T08:52:53.000Z</time>
      </trkpt>
      <trkpt lat="47.28667" lon="-2.35905">
        <ele>58.599998474121</ele>
        <time>2020-12-06T08:52:54.000Z</time>
      </trkpt>
      <trkpt lat="47.28669" lon="-2.35909">
        <ele>59</ele>
        <time>2020-12-06T08:52:55.000Z</time>
      </trkpt>
      <trkpt lat="47.2867" lon="-2.35913">
        <ele>59.400001525879</ele>
        <time>2020-12-06T08:52:56.000Z</time>
      </trkpt>
      <trkpt lat="47.28674" lon="-2.35917">
        <ele>59.400001525879</ele>
        <time>2020-12-06T08:52:58.000Z</time>
      </trkpt>
      <trkpt lat="47.28675" lon="-2.35916">
        <ele>59.400001525879</ele>
        <time>2020-12-06T08:52:59.000Z</time>
      </trkpt>
      <trkpt lat="47.28686" lon="-2.35904">
        <ele>59.400001525879</ele>
        <time>2020-12-06T08:53:04.000Z</time>
      </trkpt>
      <trkpt lat="47.28688" lon="-2.35901">
        <ele>59.400001525879</ele>
        <time>2020-12-06T08:53:05.000Z</time>
      </trkpt>
      <trkpt lat="47.28706" lon="-2.35876">
        <ele>59.400001525879</ele>
        <time>2020-12-06T08:53:12.000Z</time>
      </trkpt>
      <trkpt lat="47.28729" lon="-2.35839">
        <ele>59.400001525879</ele>
        <time>2020-12-06T08:53:21.000Z</time>
      </trkpt>
      <trkpt lat="47.28745" lon="-2.35809">
        <ele>59.400001525879</ele>
        <time>2020-12-06T08:53:28.000Z</time>
      </trkpt>
      <trkpt lat="47.28762" lon="-2.35775">
        <ele>59.799999237061</ele>
        <time>2020-12-06T08:53:35.000Z</time>
      </trkpt>
      <trkpt lat="47.28764" lon="-2.35771">
        <ele>60.200000762939</ele>
        <time>2020-12-06T08:53:36.000Z</time>
      </trkpt>
      <trkpt lat="47.28766" lon="-2.35767">
        <ele>60.599998474121</ele>
        <time>2020-12-06T08:53:37.000Z</time>
      </trkpt>
      <trkpt lat="47.28769" lon="-2.35763">
        <ele>61</ele>
        <time>2020-12-06T08:53:38.000Z</time>
      </trkpt>
      <trkpt lat="47.28771" lon="-2.35758">
        <ele>61.400001525879</ele>
        <time>2020-12-06T08:53:39.000Z</time>
      </trkpt>
      <trkpt lat="47.28781" lon="-2.35739">
        <ele>61.400001525879</ele>
        <time>2020-12-06T08:53:43.000Z</time>
      </trkpt>
      <trkpt lat="47.28805" lon="-2.35691">
        <ele>61.400001525879</ele>
        <time>2020-12-06T08:53:52.000Z</time>
      </trkpt>
      <trkpt lat="47.28821" lon="-2.35666">
        <ele>61.400001525879</ele>
        <time>2020-12-06T08:53:57.000Z</time>
      </trkpt>
      <trkpt lat="47.28825" lon="-2.35662">
        <ele>61.400001525879</ele>
        <time>2020-12-06T08:53:58.000Z</time>
      </trkpt>
      <trkpt lat="47.28855" lon="-2.35628">
        <ele>61.400001525879</ele>
        <time>2020-12-06T08:54:06.000Z</time>
      </trkpt>
      <trkpt lat="47.28885" lon="-2.35596">
        <ele>61.400001525879</ele>
        <time>2020-12-06T08:54:14.000Z</time>
      </trkpt>
      <trkpt lat="47.28907" lon="-2.35572">
        <ele>61.400001525879</ele>
        <time>2020-12-06T08:54:21.000Z</time>
      </trkpt>
      <trkpt lat="47.28924" lon="-2.35555">
        <ele>61.400001525879</ele>
        <time>2020-12-06T08:54:27.000Z</time>
      </trkpt>
      <trkpt lat="47.28931" lon="-2.35563">
        <ele>61.400001525879</ele>
        <time>2020-12-06T08:54:30.000Z</time>
      </trkpt>
      <trkpt lat="47.28935" lon="-2.35572">
        <ele>61.400001525879</ele>
        <time>2020-12-06T08:54:32.000Z</time>
      </trkpt>
      <trkpt lat="47.28944" lon="-2.35595">
        <ele>61.400001525879</ele>
        <time>2020-12-06T08:54:37.000Z</time>
      </trkpt>
      <trkpt lat="47.28946" lon="-2.356">
        <ele>62</ele>
        <time>2020-12-06T08:54:38.000Z</time>
      </trkpt>
      <trkpt lat="47.28948" lon="-2.35605">
        <ele>62.400001525879</ele>
        <time>2020-12-06T08:54:39.000Z</time>
      </trkpt>
      <trkpt lat="47.2895" lon="-2.35611">
        <ele>62.799999237061</ele>
        <time>2020-12-06T08:54:40.000Z</time>
      </trkpt>
      <trkpt lat="47.28953" lon="-2.35616">
        <ele>63.400001525879</ele>
        <time>2020-12-06T08:54:41.000Z</time>
      </trkpt>
      <trkpt lat="47.28955" lon="-2.35621">
        <ele>63.799999237061</ele>
        <time>2020-12-06T08:54:42.000Z</time>
      </trkpt>
      <trkpt lat="47.28959" lon="-2.35632">
        <ele>63.799999237061</ele>
        <time>2020-12-06T08:54:44.000Z</time>
      </trkpt>
      <trkpt lat="47.28983" lon="-2.35685">
        <ele>63.799999237061</ele>
        <time>2020-12-06T08:54:54.000Z</time>
      </trkpt>
      <trkpt lat="47.28986" lon="-2.35689">
        <ele>63.799999237061</ele>
        <time>2020-12-06T08:54:55.000Z</time>
      </trkpt>
      <trkpt lat="47.28993" lon="-2.35696">
        <ele>63.799999237061</ele>
        <time>2020-12-06T08:54:57.000Z</time>
      </trkpt>
      <trkpt lat="47.29001" lon="-2.357">
        <ele>63.799999237061</ele>
        <time>2020-12-06T08:54:59.000Z</time>
      </trkpt>
      <trkpt lat="47.29022" lon="-2.357">
        <ele>63.799999237061</ele>
        <time>2020-12-06T08:55:04.000Z</time>
      </trkpt>
      <trkpt lat="47.2903" lon="-2.35694">
        <ele>63.799999237061</ele>
        <time>2020-12-06T08:55:06.000Z</time>
      </trkpt>
      <trkpt lat="47.29045" lon="-2.35679">
        <ele>63.799999237061</ele>
        <time>2020-12-06T08:55:10.000Z</time>
      </trkpt>
      <trkpt lat="47.29068" lon="-2.35655">
        <ele>63.799999237061</ele>
        <time>2020-12-06T08:55:17.000Z</time>
      </trkpt>
      <trkpt lat="47.29083" lon="-2.35641">
        <ele>63.799999237061</ele>
        <time>2020-12-06T08:55:22.000Z</time>
      </trkpt>
      <trkpt lat="47.29086" lon="-2.35642">
        <ele>63.799999237061</ele>
        <time>2020-12-06T08:55:23.000Z</time>
      </trkpt>
      <trkpt lat="47.2909" lon="-2.35649">
        <ele>63.799999237061</ele>
        <time>2020-12-06T08:55:26.000Z</time>
      </trkpt>
      <trkpt lat="47.29094" lon="-2.3567">
        <ele>63.799999237061</ele>
        <time>2020-12-06T08:55:31.000Z</time>
      </trkpt>
      <trkpt lat="47.29094" lon="-2.35694">
        <ele>63.799999237061</ele>
        <time>2020-12-06T08:55:35.000Z</time>
      </trkpt>
      <trkpt lat="47.291" lon="-2.35711">
        <ele>63.799999237061</ele>
        <time>2020-12-06T08:55:38.000Z</time>
      </trkpt>
      <trkpt lat="47.29107" lon="-2.35727">
        <ele>63.799999237061</ele>
        <time>2020-12-06T08:55:41.000Z</time>
      </trkpt>
      <trkpt lat="47.29125" lon="-2.35774">
        <ele>63.799999237061</ele>
        <time>2020-12-06T08:55:49.000Z</time>
      </trkpt>
      <trkpt lat="47.29142" lon="-2.35816">
        <ele>63.799999237061</ele>
        <time>2020-12-06T08:55:57.000Z</time>
      </trkpt>
      <trkpt lat="47.29147" lon="-2.35828">
        <ele>63.799999237061</ele>
        <time>2020-12-06T08:56:00.000Z</time>
      </trkpt>
      <trkpt lat="47.2915" lon="-2.3583">
        <ele>63.799999237061</ele>
        <time>2020-12-06T08:56:01.000Z</time>
      </trkpt>
      <trkpt lat="47.2916" lon="-2.35823">
        <ele>63.799999237061</ele>
        <time>2020-12-06T08:56:04.000Z</time>
      </trkpt>
      <trkpt lat="47.29163" lon="-2.3582">
        <ele>63.799999237061</ele>
        <time>2020-12-06T08:56:05.000Z</time>
      </trkpt>
      <trkpt lat="47.29181" lon="-2.35808">
        <ele>63.799999237061</ele>
        <time>2020-12-06T08:56:09.000Z</time>
      </trkpt>
      <trkpt lat="47.29215" lon="-2.35782">
        <ele>63.799999237061</ele>
        <time>2020-12-06T08:56:17.000Z</time>
      </trkpt>
      <trkpt lat="47.29239" lon="-2.35756">
        <ele>63.799999237061</ele>
        <time>2020-12-06T08:56:24.000Z</time>
      </trkpt>
      <trkpt lat="47.2925" lon="-2.35737">
        <ele>63.799999237061</ele>
        <time>2020-12-06T08:56:29.000Z</time>
      </trkpt>
      <trkpt lat="47.29251" lon="-2.35729">
        <ele>63.400001525879</ele>
        <time>2020-12-06T08:56:32.000Z</time>
      </trkpt>
      <trkpt lat="47.29251" lon="-2.35727">
        <ele>63</ele>
        <time>2020-12-06T08:56:33.000Z</time>
      </trkpt>
      <trkpt lat="47.2925" lon="-2.35725">
        <ele>62.200000762939</ele>
        <time>2020-12-06T08:56:34.000Z</time>
      </trkpt>
      <trkpt lat="47.29249" lon="-2.35722">
        <ele>61.799999237061</ele>
        <time>2020-12-06T08:56:35.000Z</time>
      </trkpt>
      <trkpt lat="47.29245" lon="-2.35717">
        <ele>61.799999237061</ele>
        <time>2020-12-06T08:56:37.000Z</time>
      </trkpt>
      <trkpt lat="47.29225" lon="-2.35695">
        <ele>61.799999237061</ele>
        <time>2020-12-06T08:56:43.000Z</time>
      </trkpt>
      <trkpt lat="47.29223" lon="-2.35687">
        <ele>61.799999237061</ele>
        <time>2020-12-06T08:56:44.000Z</time>
      </trkpt>
      <trkpt lat="47.29223" lon="-2.35681">
        <ele>61.799999237061</ele>
        <time>2020-12-06T08:56:45.000Z</time>
      </trkpt>
      <trkpt lat="47.29232" lon="-2.3567">
        <ele>61.799999237061</ele>
        <time>2020-12-06T08:56:48.000Z</time>
      </trkpt>
      <trkpt lat="47.29236" lon="-2.35668">
        <ele>61.799999237061</ele>
        <time>2020-12-06T08:56:49.000Z</time>
      </trkpt>
      <trkpt lat="47.2926" lon="-2.35658">
        <ele>61.799999237061</ele>
        <time>2020-12-06T08:56:55.000Z</time>
      </trkpt>
      <trkpt lat="47.29294" lon="-2.35646">
        <ele>61.799999237061</ele>
        <time>2020-12-06T08:57:02.000Z</time>
      </trkpt>
      <trkpt lat="47.29335" lon="-2.35636">
        <ele>61.799999237061</ele>
        <time>2020-12-06T08:57:10.000Z</time>
      </trkpt>
      <trkpt lat="47.29375" lon="-2.35626">
        <ele>61.799999237061</ele>
        <time>2020-12-06T08:57:18.000Z</time>
      </trkpt>
      <trkpt lat="47.29417" lon="-2.35616">
        <ele>61.799999237061</ele>
        <time>2020-12-06T08:57:26.000Z</time>
      </trkpt>
      <trkpt lat="47.29439" lon="-2.3561">
        <ele>61.799999237061</ele>
        <time>2020-12-06T08:57:30.000Z</time>
      </trkpt>
      <trkpt lat="47.29455" lon="-2.35607">
        <ele>61.799999237061</ele>
        <time>2020-12-06T08:57:33.000Z</time>
      </trkpt>
      <trkpt lat="47.29461" lon="-2.35607">
        <ele>61.799999237061</ele>
        <time>2020-12-06T08:57:34.000Z</time>
      </trkpt>
      <trkpt lat="47.29483" lon="-2.3561">
        <ele>61.799999237061</ele>
        <time>2020-12-06T08:57:38.000Z</time>
      </trkpt>
      <trkpt lat="47.29523" lon="-2.35623">
        <ele>61.799999237061</ele>
        <time>2020-12-06T08:57:46.000Z</time>
      </trkpt>
      <trkpt lat="47.29527" lon="-2.35624">
        <ele>61.799999237061</ele>
        <time>2020-12-06T08:57:47.000Z</time>
      </trkpt>
      <trkpt lat="47.29542" lon="-2.35622">
        <ele>61.799999237061</ele>
        <time>2020-12-06T08:57:50.000Z</time>
      </trkpt>
      <trkpt lat="47.2956" lon="-2.35613">
        <ele>61.799999237061</ele>
        <time>2020-12-06T08:57:54.000Z</time>
      </trkpt>
      <trkpt lat="47.29565" lon="-2.35612">
        <ele>61.799999237061</ele>
        <time>2020-12-06T08:57:55.000Z</time>
      </trkpt>
      <trkpt lat="47.29577" lon="-2.35623">
        <ele>61.799999237061</ele>
        <time>2020-12-06T08:57:58.000Z</time>
      </trkpt>
      <trkpt lat="47.29583" lon="-2.35636">
        <ele>61.799999237061</ele>
        <time>2020-12-06T08:58:00.000Z</time>
      </trkpt>
      <trkpt lat="47.29591" lon="-2.35657">
        <ele>61.799999237061</ele>
        <time>2020-12-06T08:58:03.000Z</time>
      </trkpt>
      <trkpt lat="47.29609" lon="-2.35705">
        <ele>61.799999237061</ele>
        <time>2020-12-06T08:58:10.000Z</time>
      </trkpt>
      <trkpt lat="47.29623" lon="-2.35745">
        <ele>61.799999237061</ele>
        <time>2020-12-06T08:58:16.000Z</time>
      </trkpt>
      <trkpt lat="47.29637" lon="-2.35793">
        <ele>61.799999237061</ele>
        <time>2020-12-06T08:58:23.000Z</time>
      </trkpt>
      <trkpt lat="47.29653" lon="-2.35823">
        <ele>61.799999237061</ele>
        <time>2020-12-06T08:58:29.000Z</time>
      </trkpt>
      <trkpt lat="47.29666" lon="-2.35833">
        <ele>61.799999237061</ele>
        <time>2020-12-06T08:58:34.000Z</time>
      </trkpt>
      <trkpt lat="47.29678" lon="-2.35838">
        <ele>61.799999237061</ele>
        <time>2020-12-06T08:58:37.000Z</time>
      </trkpt>
      <trkpt lat="47.29683" lon="-2.35839">
        <ele>61.799999237061</ele>
        <time>2020-12-06T08:58:38.000Z</time>
      </trkpt>
      <trkpt lat="47.29699" lon="-2.35836">
        <ele>61.799999237061</ele>
        <time>2020-12-06T08:58:41.000Z</time>
      </trkpt>
      <trkpt lat="47.29705" lon="-2.35833">
        <ele>61.799999237061</ele>
        <time>2020-12-06T08:58:42.000Z</time>
      </trkpt>
      <trkpt lat="47.29725" lon="-2.35821">
        <ele>62.200000762939</ele>
        <time>2020-12-06T08:58:46.000Z</time>
      </trkpt>
      <trkpt lat="47.2973" lon="-2.35818">
        <ele>62.599998474121</ele>
        <time>2020-12-06T08:58:47.000Z</time>
      </trkpt>
      <trkpt lat="47.29734" lon="-2.35816">
        <ele>63</ele>
        <time>2020-12-06T08:58:48.000Z</time>
      </trkpt>
      <trkpt lat="47.29739" lon="-2.35813">
        <ele>63.400001525879</ele>
        <time>2020-12-06T08:58:49.000Z</time>
      </trkpt>
      <trkpt lat="47.29743" lon="-2.3581">
        <ele>63.799999237061</ele>
        <time>2020-12-06T08:58:50.000Z</time>
      </trkpt>
      <trkpt lat="47.29748" lon="-2.35808">
        <ele>64.199996948242</ele>
        <time>2020-12-06T08:58:51.000Z</time>
      </trkpt>
      <trkpt lat="47.29752" lon="-2.35806">
        <ele>64.599998474121</ele>
        <time>2020-12-06T08:58:52.000Z</time>
      </trkpt>
      <trkpt lat="47.29756" lon="-2.35804">
        <ele>65</ele>
        <time>2020-12-06T08:58:53.000Z</time>
      </trkpt>
      <trkpt lat="47.2976" lon="-2.35802">
        <ele>65.400001525879</ele>
        <time>2020-12-06T08:58:54.000Z</time>
      </trkpt>
      <trkpt lat="47.29764" lon="-2.35801">
        <ele>65.800003051758</ele>
        <time>2020-12-06T08:58:55.000Z</time>
      </trkpt>
      <trkpt lat="47.29769" lon="-2.35799">
        <ele>65.800003051758</ele>
        <time>2020-12-06T08:58:56.000Z</time>
      </trkpt>
      <trkpt lat="47.29808" lon="-2.35787">
        <ele>65.800003051758</ele>
        <time>2020-12-06T08:59:05.000Z</time>
      </trkpt>
      <trkpt lat="47.29843" lon="-2.35775">
        <ele>65.800003051758</ele>
        <time>2020-12-06T08:59:12.000Z</time>
      </trkpt>
      <trkpt lat="47.29872" lon="-2.35764">
        <ele>65.400001525879</ele>
        <time>2020-12-06T08:59:17.000Z</time>
      </trkpt>
      <trkpt lat="47.29877" lon="-2.35762">
        <ele>65</ele>
        <time>2020-12-06T08:59:18.000Z</time>
      </trkpt>
      <trkpt lat="47.29882" lon="-2.3576">
        <ele>64.400001525879</ele>
        <time>2020-12-06T08:59:19.000Z</time>
      </trkpt>
      <trkpt lat="47.29887" lon="-2.35757">
        <ele>64</ele>
        <time>2020-12-06T08:59:20.000Z</time>
      </trkpt>
      <trkpt lat="47.29892" lon="-2.35755">
        <ele>63.400001525879</ele>
        <time>2020-12-06T08:59:21.000Z</time>
      </trkpt>
      <trkpt lat="47.2992" lon="-2.35737">
        <ele>63.400001525879</ele>
        <time>2020-12-06T08:59:27.000Z</time>
      </trkpt>
      <trkpt lat="47.29957" lon="-2.35709">
        <ele>63.400001525879</ele>
        <time>2020-12-06T08:59:35.000Z</time>
      </trkpt>
      <trkpt lat="47.2999" lon="-2.35688">
        <ele>63.400001525879</ele>
        <time>2020-12-06T08:59:42.000Z</time>
      </trkpt>
      <trkpt lat="47.29999" lon="-2.35682">
        <ele>64</ele>
        <time>2020-12-06T08:59:44.000Z</time>
      </trkpt>
      <trkpt lat="47.30003" lon="-2.3568">
        <ele>64.400001525879</ele>
        <time>2020-12-06T08:59:45.000Z</time>
      </trkpt>
      <trkpt lat="47.30008" lon="-2.35677">
        <ele>64.800003051758</ele>
        <time>2020-12-06T08:59:46.000Z</time>
      </trkpt>
      <trkpt lat="47.30013" lon="-2.35675">
        <ele>65.199996948242</ele>
        <time>2020-12-06T08:59:47.000Z</time>
      </trkpt>
      <trkpt lat="47.30017" lon="-2.35672">
        <ele>65.599998474121</ele>
        <time>2020-12-06T08:59:48.000Z</time>
      </trkpt>
      <trkpt lat="47.3003" lon="-2.35664">
        <ele>65.599998474121</ele>
        <time>2020-12-06T08:59:51.000Z</time>
      </trkpt>
      <trkpt lat="47.30064" lon="-2.35643">
        <ele>65.599998474121</ele>
        <time>2020-12-06T08:59:59.000Z</time>
      </trkpt>
      <trkpt lat="47.30099" lon="-2.35622">
        <ele>65.599998474121</ele>
        <time>2020-12-06T09:00:07.000Z</time>
      </trkpt>
      <trkpt lat="47.30115" lon="-2.3561">
        <ele>65.599998474121</ele>
        <time>2020-12-06T09:00:11.000Z</time>
      </trkpt>
      <trkpt lat="47.30123" lon="-2.35602">
        <ele>65.599998474121</ele>
        <time>2020-12-06T09:00:13.000Z</time>
      </trkpt>
      <trkpt lat="47.30137" lon="-2.35594">
        <ele>65.599998474121</ele>
        <time>2020-12-06T09:00:16.000Z</time>
      </trkpt>
      <trkpt lat="47.30142" lon="-2.35593">
        <ele>65.599998474121</ele>
        <time>2020-12-06T09:00:17.000Z</time>
      </trkpt>
      <trkpt lat="47.30147" lon="-2.35591">
        <ele>65.599998474121</ele>
        <time>2020-12-06T09:00:18.000Z</time>
      </trkpt>
      <trkpt lat="47.30163" lon="-2.35583">
        <ele>65.599998474121</ele>
        <time>2020-12-06T09:00:21.000Z</time>
      </trkpt>
      <trkpt lat="47.30195" lon="-2.35571">
        <ele>65.599998474121</ele>
        <time>2020-12-06T09:00:27.000Z</time>
      </trkpt>
      <trkpt lat="47.30207" lon="-2.3557">
        <ele>65.599998474121</ele>
        <time>2020-12-06T09:00:29.000Z</time>
      </trkpt>
      <trkpt lat="47.30225" lon="-2.35571">
        <ele>65.599998474121</ele>
        <time>2020-12-06T09:00:32.000Z</time>
      </trkpt>
      <trkpt lat="47.30252" lon="-2.35575">
        <ele>65.599998474121</ele>
        <time>2020-12-06T09:00:37.000Z</time>
      </trkpt>
      <trkpt lat="47.30258" lon="-2.35575">
        <ele>65.599998474121</ele>
        <time>2020-12-06T09:00:38.000Z</time>
      </trkpt>
      <trkpt lat="47.30276" lon="-2.35578">
        <ele>65.599998474121</ele>
        <time>2020-12-06T09:00:41.000Z</time>
      </trkpt>
      <trkpt lat="47.30294" lon="-2.35581">
        <ele>65.599998474121</ele>
        <time>2020-12-06T09:00:44.000Z</time>
      </trkpt>
      <trkpt lat="47.30334" lon="-2.35589">
        <ele>65.599998474121</ele>
        <time>2020-12-06T09:00:51.000Z</time>
      </trkpt>
      <trkpt lat="47.3036" lon="-2.35593">
        <ele>65.599998474121</ele>
        <time>2020-12-06T09:00:56.000Z</time>
      </trkpt>
      <trkpt lat="47.30365" lon="-2.35592">
        <ele>65.599998474121</ele>
        <time>2020-12-06T09:00:57.000Z</time>
      </trkpt>
      <trkpt lat="47.30383" lon="-2.35589">
        <ele>65.599998474121</ele>
        <time>2020-12-06T09:01:01.000Z</time>
      </trkpt>
      <trkpt lat="47.3039" lon="-2.35587">
        <ele>65.599998474121</ele>
        <time>2020-12-06T09:01:03.000Z</time>
      </trkpt>
      <trkpt lat="47.30398" lon="-2.35594">
        <ele>65.599998474121</ele>
        <time>2020-12-06T09:01:07.000Z</time>
      </trkpt>
      <trkpt lat="47.30398" lon="-2.35599">
        <ele>65.599998474121</ele>
        <time>2020-12-06T09:01:09.000Z</time>
      </trkpt>
      <trkpt lat="47.30401" lon="-2.35609">
        <ele>65.599998474121</ele>
        <time>2020-12-06T09:01:14.000Z</time>
      </trkpt>
      <trkpt lat="47.30402" lon="-2.3561">
        <ele>65.599998474121</ele>
        <time>2020-12-06T09:01:15.000Z</time>
      </trkpt>
      <trkpt lat="47.30408" lon="-2.35616">
        <ele>65.599998474121</ele>
        <time>2020-12-06T09:01:20.000Z</time>
      </trkpt>
      <trkpt lat="47.30407" lon="-2.3562">
        <ele>65.599998474121</ele>
        <time>2020-12-06T09:01:24.000Z</time>
      </trkpt>
      <trkpt lat="47.30405" lon="-2.3562">
        <ele>65.599998474121</ele>
        <time>2020-12-06T09:01:25.000Z</time>
      </trkpt>
      <trkpt lat="47.30403" lon="-2.35615">
        <ele>65.599998474121</ele>
        <time>2020-12-06T09:01:28.000Z</time>
      </trkpt>
      <trkpt lat="47.30403" lon="-2.35611">
        <ele>65.199996948242</ele>
        <time>2020-12-06T09:01:30.000Z</time>
      </trkpt>
      <trkpt lat="47.30402" lon="-2.3561">
        <ele>64.400001525879</ele>
        <time>2020-12-06T09:01:31.000Z</time>
      </trkpt>
      <trkpt lat="47.30401" lon="-2.35607">
        <ele>64</ele>
        <time>2020-12-06T09:01:32.000Z</time>
      </trkpt>
      <trkpt lat="47.30401" lon="-2.35605">
        <ele>63.599998474121</ele>
        <time>2020-12-06T09:01:33.000Z</time>
      </trkpt>
      <trkpt lat="47.30401" lon="-2.35603">
        <ele>63.599998474121</ele>
        <time>2020-12-06T09:01:34.000Z</time>
      </trkpt>
      <trkpt lat="47.30407" lon="-2.35609">
        <ele>63.599998474121</ele>
        <time>2020-12-06T09:01:38.000Z</time>
      </trkpt>
      <trkpt lat="47.30409" lon="-2.35615">
        <ele>63.599998474121</ele>
        <time>2020-12-06T09:01:40.000Z</time>
      </trkpt>
      <trkpt lat="47.30416" lon="-2.35627">
        <ele>63.599998474121</ele>
        <time>2020-12-06T09:01:44.000Z</time>
      </trkpt>
      <trkpt lat="47.30432" lon="-2.35646">
        <ele>63.599998474121</ele>
        <time>2020-12-06T09:01:50.000Z</time>
      </trkpt>
      <trkpt lat="47.30435" lon="-2.35649">
        <ele>64</ele>
        <time>2020-12-06T09:01:51.000Z</time>
      </trkpt>
      <trkpt lat="47.30439" lon="-2.35653">
        <ele>64.400001525879</ele>
        <time>2020-12-06T09:01:52.000Z</time>
      </trkpt>
      <trkpt lat="47.30442" lon="-2.35656">
        <ele>64.800003051758</ele>
        <time>2020-12-06T09:01:53.000Z</time>
      </trkpt>
      <trkpt lat="47.30445" lon="-2.35659">
        <ele>65.199996948242</ele>
        <time>2020-12-06T09:01:54.000Z</time>
      </trkpt>
      <trkpt lat="47.30449" lon="-2.35662">
        <ele>65.599998474121</ele>
        <time>2020-12-06T09:01:55.000Z</time>
      </trkpt>
      <trkpt lat="47.30459" lon="-2.35671">
        <ele>65.599998474121</ele>
        <time>2020-12-06T09:01:58.000Z</time>
      </trkpt>
      <trkpt lat="47.3048" lon="-2.3569">
        <ele>65.599998474121</ele>
        <time>2020-12-06T09:02:04.000Z</time>
      </trkpt>
      <trkpt lat="47.30507" lon="-2.35723">
        <ele>65.599998474121</ele>
        <time>2020-12-06T09:02:12.000Z</time>
      </trkpt>
      <trkpt lat="47.30535" lon="-2.35762">
        <ele>65.599998474121</ele>
        <time>2020-12-06T09:02:20.000Z</time>
      </trkpt>
      <trkpt lat="47.3055" lon="-2.35778">
        <ele>65.599998474121</ele>
        <time>2020-12-06T09:02:24.000Z</time>
      </trkpt>
      <trkpt lat="47.30553" lon="-2.35783">
        <ele>65.599998474121</ele>
        <time>2020-12-06T09:02:25.000Z</time>
      </trkpt>
      <trkpt lat="47.30567" lon="-2.35801">
        <ele>65.599998474121</ele>
        <time>2020-12-06T09:02:29.000Z</time>
      </trkpt>
      <trkpt lat="47.30576" lon="-2.3581">
        <ele>65.599998474121</ele>
        <time>2020-12-06T09:02:31.000Z</time>
      </trkpt>
      <trkpt lat="47.30607" lon="-2.35851">
        <ele>65.599998474121</ele>
        <time>2020-12-06T09:02:39.000Z</time>
      </trkpt>
      <trkpt lat="47.30633" lon="-2.3588">
        <ele>65.599998474121</ele>
        <time>2020-12-06T09:02:46.000Z</time>
      </trkpt>
      <trkpt lat="47.30637" lon="-2.35883">
        <ele>65.599998474121</ele>
        <time>2020-12-06T09:02:47.000Z</time>
      </trkpt>
      <trkpt lat="47.30649" lon="-2.35892">
        <ele>66</ele>
        <time>2020-12-06T09:02:50.000Z</time>
      </trkpt>
      <trkpt lat="47.30652" lon="-2.35895">
        <ele>66.400001525879</ele>
        <time>2020-12-06T09:02:51.000Z</time>
      </trkpt>
      <trkpt lat="47.30657" lon="-2.35895">
        <ele>66.800003051758</ele>
        <time>2020-12-06T09:02:52.000Z</time>
      </trkpt>
      <trkpt lat="47.30661" lon="-2.35894">
        <ele>67.199996948242</ele>
        <time>2020-12-06T09:02:53.000Z</time>
      </trkpt>
      <trkpt lat="47.30665" lon="-2.35892">
        <ele>67.599998474121</ele>
        <time>2020-12-06T09:02:54.000Z</time>
      </trkpt>
      <trkpt lat="47.30671" lon="-2.35886">
        <ele>67.599998474121</ele>
        <time>2020-12-06T09:02:56.000Z</time>
      </trkpt>
      <trkpt lat="47.30674" lon="-2.35883">
        <ele>67.599998474121</ele>
        <time>2020-12-06T09:02:57.000Z</time>
      </trkpt>
      <trkpt lat="47.30691" lon="-2.35864">
        <ele>67.599998474121</ele>
        <time>2020-12-06T09:03:03.000Z</time>
      </trkpt>
      <trkpt lat="47.30697" lon="-2.35856">
        <ele>67.599998474121</ele>
        <time>2020-12-06T09:03:05.000Z</time>
      </trkpt>
      <trkpt lat="47.30715" lon="-2.35837">
        <ele>67.599998474121</ele>
        <time>2020-12-06T09:03:10.000Z</time>
      </trkpt>
      <trkpt lat="47.30738" lon="-2.3581">
        <ele>67.599998474121</ele>
        <time>2020-12-06T09:03:17.000Z</time>
      </trkpt>
      <trkpt lat="47.30741" lon="-2.35806">
        <ele>67.599998474121</ele>
        <time>2020-12-06T09:03:18.000Z</time>
      </trkpt>
      <trkpt lat="47.30749" lon="-2.358">
        <ele>67.599998474121</ele>
        <time>2020-12-06T09:03:20.000Z</time>
      </trkpt>
      <trkpt lat="47.30762" lon="-2.35795">
        <ele>67.599998474121</ele>
        <time>2020-12-06T09:03:23.000Z</time>
      </trkpt>
      <trkpt lat="47.30781" lon="-2.35801">
        <ele>67.599998474121</ele>
        <time>2020-12-06T09:03:27.000Z</time>
      </trkpt>
      <trkpt lat="47.30785" lon="-2.35804">
        <ele>68</ele>
        <time>2020-12-06T09:03:28.000Z</time>
      </trkpt>
      <trkpt lat="47.30789" lon="-2.35807">
        <ele>68.400001525879</ele>
        <time>2020-12-06T09:03:29.000Z</time>
      </trkpt>
      <trkpt lat="47.30793" lon="-2.3581">
        <ele>69</ele>
        <time>2020-12-06T09:03:30.000Z</time>
      </trkpt>
      <trkpt lat="47.30797" lon="-2.35813">
        <ele>69.400001525879</ele>
        <time>2020-12-06T09:03:31.000Z</time>
      </trkpt>
      <trkpt lat="47.30801" lon="-2.35816">
        <ele>69.800003051758</ele>
        <time>2020-12-06T09:03:32.000Z</time>
      </trkpt>
      <trkpt lat="47.3081" lon="-2.35821">
        <ele>69.800003051758</ele>
        <time>2020-12-06T09:03:34.000Z</time>
      </trkpt>
      <trkpt lat="47.30837" lon="-2.3584">
        <ele>69.800003051758</ele>
        <time>2020-12-06T09:03:40.000Z</time>
      </trkpt>
      <trkpt lat="47.30869" lon="-2.3586">
        <ele>69.800003051758</ele>
        <time>2020-12-06T09:03:47.000Z</time>
      </trkpt>
      <trkpt lat="47.30895" lon="-2.35865">
        <ele>69.800003051758</ele>
        <time>2020-12-06T09:03:52.000Z</time>
      </trkpt>
      <trkpt lat="47.30901" lon="-2.35864">
        <ele>69.800003051758</ele>
        <time>2020-12-06T09:03:53.000Z</time>
      </trkpt>
      <trkpt lat="47.30931" lon="-2.35852">
        <ele>69.800003051758</ele>
        <time>2020-12-06T09:03:59.000Z</time>
      </trkpt>
      <trkpt lat="47.30968" lon="-2.35833">
        <ele>69.800003051758</ele>
        <time>2020-12-06T09:04:06.000Z</time>
      </trkpt>
      <trkpt lat="47.31002" lon="-2.35814">
        <ele>69.800003051758</ele>
        <time>2020-12-06T09:04:13.000Z</time>
      </trkpt>
      <trkpt lat="47.31008" lon="-2.35813">
        <ele>69.400001525879</ele>
        <time>2020-12-06T09:04:14.000Z</time>
      </trkpt>
      <trkpt lat="47.31013" lon="-2.35811">
        <ele>68.800003051758</ele>
        <time>2020-12-06T09:04:15.000Z</time>
      </trkpt>
      <trkpt lat="47.31018" lon="-2.3581">
        <ele>68.400001525879</ele>
        <time>2020-12-06T09:04:16.000Z</time>
      </trkpt>
      <trkpt lat="47.31023" lon="-2.35808">
        <ele>68</ele>
        <time>2020-12-06T09:04:17.000Z</time>
      </trkpt>
      <trkpt lat="47.31028" lon="-2.35806">
        <ele>67.400001525879</ele>
        <time>2020-12-06T09:04:18.000Z</time>
      </trkpt>
      <trkpt lat="47.31044" lon="-2.35801">
        <ele>67.400001525879</ele>
        <time>2020-12-06T09:04:21.000Z</time>
      </trkpt>
      <trkpt lat="47.31087" lon="-2.35789">
        <ele>67.400001525879</ele>
        <time>2020-12-06T09:04:30.000Z</time>
      </trkpt>
      <trkpt lat="47.31103" lon="-2.35785">
        <ele>67.400001525879</ele>
        <time>2020-12-06T09:04:33.000Z</time>
      </trkpt>
      <trkpt lat="47.31123" lon="-2.35781">
        <ele>67.400001525879</ele>
        <time>2020-12-06T09:04:37.000Z</time>
      </trkpt>
      <trkpt lat="47.31139" lon="-2.3578">
        <ele>67.400001525879</ele>
        <time>2020-12-06T09:04:40.000Z</time>
      </trkpt>
      <trkpt lat="47.31148" lon="-2.35787">
        <ele>67.400001525879</ele>
        <time>2020-12-06T09:04:42.000Z</time>
      </trkpt>
      <trkpt lat="47.31151" lon="-2.35799">
        <ele>67</ele>
        <time>2020-12-06T09:04:44.000Z</time>
      </trkpt>
      <trkpt lat="47.3115" lon="-2.35806">
        <ele>66.599998474121</ele>
        <time>2020-12-06T09:04:45.000Z</time>
      </trkpt>
      <trkpt lat="47.31148" lon="-2.35813">
        <ele>66.199996948242</ele>
        <time>2020-12-06T09:04:46.000Z</time>
      </trkpt>
      <trkpt lat="47.31146" lon="-2.35819">
        <ele>65.800003051758</ele>
        <time>2020-12-06T09:04:47.000Z</time>
      </trkpt>
      <trkpt lat="47.31143" lon="-2.35825">
        <ele>65.400001525879</ele>
        <time>2020-12-06T09:04:48.000Z</time>
      </trkpt>
      <trkpt lat="47.3114" lon="-2.35831">
        <ele>65.400001525879</ele>
        <time>2020-12-06T09:04:49.000Z</time>
      </trkpt>
      <trkpt lat="47.31114" lon="-2.35883">
        <ele>65.400001525879</ele>
        <time>2020-12-06T09:04:57.000Z</time>
      </trkpt>
      <trkpt lat="47.31083" lon="-2.35943">
        <ele>65.400001525879</ele>
        <time>2020-12-06T09:05:06.000Z</time>
      </trkpt>
      <trkpt lat="47.31048" lon="-2.36011">
        <ele>65.400001525879</ele>
        <time>2020-12-06T09:05:16.000Z</time>
      </trkpt>
      <trkpt lat="47.31042" lon="-2.36025">
        <ele>65.400001525879</ele>
        <time>2020-12-06T09:05:18.000Z</time>
      </trkpt>
      <trkpt lat="47.31031" lon="-2.36053">
        <ele>65.400001525879</ele>
        <time>2020-12-06T09:05:22.000Z</time>
      </trkpt>
      <trkpt lat="47.31029" lon="-2.36068">
        <ele>65.400001525879</ele>
        <time>2020-12-06T09:05:24.000Z</time>
      </trkpt>
      <trkpt lat="47.31035" lon="-2.36091">
        <ele>65.400001525879</ele>
        <time>2020-12-06T09:05:27.000Z</time>
      </trkpt>
      <trkpt lat="47.31037" lon="-2.36097">
        <ele>65.400001525879</ele>
        <time>2020-12-06T09:05:28.000Z</time>
      </trkpt>
      <trkpt lat="47.31055" lon="-2.36147">
        <ele>65.400001525879</ele>
        <time>2020-12-06T09:05:35.000Z</time>
      </trkpt>
      <trkpt lat="47.31058" lon="-2.36161">
        <ele>65.400001525879</ele>
        <time>2020-12-06T09:05:37.000Z</time>
      </trkpt>
      <trkpt lat="47.31061" lon="-2.3619">
        <ele>65.400001525879</ele>
        <time>2020-12-06T09:05:41.000Z</time>
      </trkpt>
      <trkpt lat="47.31064" lon="-2.36238">
        <ele>65.400001525879</ele>
        <time>2020-12-06T09:05:48.000Z</time>
      </trkpt>
      <trkpt lat="47.31067" lon="-2.36289">
        <ele>65.400001525879</ele>
        <time>2020-12-06T09:05:55.000Z</time>
      </trkpt>
      <trkpt lat="47.31076" lon="-2.36341">
        <ele>65.400001525879</ele>
        <time>2020-12-06T09:06:02.000Z</time>
      </trkpt>
      <trkpt lat="47.31087" lon="-2.36392">
        <ele>65.400001525879</ele>
        <time>2020-12-06T09:06:09.000Z</time>
      </trkpt>
      <trkpt lat="47.31088" lon="-2.36399">
        <ele>65.400001525879</ele>
        <time>2020-12-06T09:06:10.000Z</time>
      </trkpt>
      <trkpt lat="47.31094" lon="-2.36417">
        <ele>65.400001525879</ele>
        <time>2020-12-06T09:06:13.000Z</time>
      </trkpt>
      <trkpt lat="47.31103" lon="-2.36417">
        <ele>65.400001525879</ele>
        <time>2020-12-06T09:06:15.000Z</time>
      </trkpt>
      <trkpt lat="47.31111" lon="-2.36412">
        <ele>65.400001525879</ele>
        <time>2020-12-06T09:06:17.000Z</time>
      </trkpt>
      <trkpt lat="47.31123" lon="-2.36403">
        <ele>65.400001525879</ele>
        <time>2020-12-06T09:06:20.000Z</time>
      </trkpt>
      <trkpt lat="47.31155" lon="-2.36382">
        <ele>65.400001525879</ele>
        <time>2020-12-06T09:06:27.000Z</time>
      </trkpt>
      <trkpt lat="47.31159" lon="-2.36379">
        <ele>65.400001525879</ele>
        <time>2020-12-06T09:06:28.000Z</time>
      </trkpt>
      <trkpt lat="47.31185" lon="-2.3636">
        <ele>65.400001525879</ele>
        <time>2020-12-06T09:06:34.000Z</time>
      </trkpt>
      <trkpt lat="47.3121" lon="-2.36344">
        <ele>65.400001525879</ele>
        <time>2020-12-06T09:06:40.000Z</time>
      </trkpt>
      <trkpt lat="47.31214" lon="-2.36342">
        <ele>65.400001525879</ele>
        <time>2020-12-06T09:06:41.000Z</time>
      </trkpt>
      <trkpt lat="47.31242" lon="-2.36324">
        <ele>65.400001525879</ele>
        <time>2020-12-06T09:06:48.000Z</time>
      </trkpt>
      <trkpt lat="47.3127" lon="-2.36307">
        <ele>65.800003051758</ele>
        <time>2020-12-06T09:06:55.000Z</time>
      </trkpt>
      <trkpt lat="47.31275" lon="-2.36305">
        <ele>66.199996948242</ele>
        <time>2020-12-06T09:06:56.000Z</time>
      </trkpt>
      <trkpt lat="47.3128" lon="-2.36303">
        <ele>66.800003051758</ele>
        <time>2020-12-06T09:06:57.000Z</time>
      </trkpt>
      <trkpt lat="47.31284" lon="-2.36301">
        <ele>67.199996948242</ele>
        <time>2020-12-06T09:06:58.000Z</time>
      </trkpt>
      <trkpt lat="47.31288" lon="-2.36299">
        <ele>67.599998474121</ele>
        <time>2020-12-06T09:06:59.000Z</time>
      </trkpt>
      <trkpt lat="47.31305" lon="-2.36292">
        <ele>67.599998474121</ele>
        <time>2020-12-06T09:07:03.000Z</time>
      </trkpt>
      <trkpt lat="47.31325" lon="-2.36276">
        <ele>67.599998474121</ele>
        <time>2020-12-06T09:07:09.000Z</time>
      </trkpt>
      <trkpt lat="47.31344" lon="-2.36257">
        <ele>67.599998474121</ele>
        <time>2020-12-06T09:07:15.000Z</time>
      </trkpt>
      <trkpt lat="47.31364" lon="-2.36238">
        <ele>67.599998474121</ele>
        <time>2020-12-06T09:07:21.000Z</time>
      </trkpt>
      <trkpt lat="47.31368" lon="-2.36236">
        <ele>67.599998474121</ele>
        <time>2020-12-06T09:07:22.000Z</time>
      </trkpt>
      <trkpt lat="47.31387" lon="-2.36224">
        <ele>67.599998474121</ele>
        <time>2020-12-06T09:07:27.000Z</time>
      </trkpt>
      <trkpt lat="47.31396" lon="-2.3622">
        <ele>67.599998474121</ele>
        <time>2020-12-06T09:07:29.000Z</time>
      </trkpt>
      <trkpt lat="47.31404" lon="-2.36217">
        <ele>67.599998474121</ele>
        <time>2020-12-06T09:07:31.000Z</time>
      </trkpt>
      <trkpt lat="47.31421" lon="-2.36208">
        <ele>67.599998474121</ele>
        <time>2020-12-06T09:07:35.000Z</time>
      </trkpt>
      <trkpt lat="47.31449" lon="-2.36191">
        <ele>67.599998474121</ele>
        <time>2020-12-06T09:07:42.000Z</time>
      </trkpt>
      <trkpt lat="47.31471" lon="-2.36167">
        <ele>67.599998474121</ele>
        <time>2020-12-06T09:07:49.000Z</time>
      </trkpt>
      <trkpt lat="47.31484" lon="-2.36148">
        <ele>67.599998474121</ele>
        <time>2020-12-06T09:07:54.000Z</time>
      </trkpt>
      <trkpt lat="47.31502" lon="-2.3613">
        <ele>67.599998474121</ele>
        <time>2020-12-06T09:07:59.000Z</time>
      </trkpt>
      <trkpt lat="47.3152" lon="-2.36111">
        <ele>67.599998474121</ele>
        <time>2020-12-06T09:08:04.000Z</time>
      </trkpt>
      <trkpt lat="47.31523" lon="-2.36107">
        <ele>67.599998474121</ele>
        <time>2020-12-06T09:08:05.000Z</time>
      </trkpt>
      <trkpt lat="47.31536" lon="-2.36093">
        <ele>67.599998474121</ele>
        <time>2020-12-06T09:08:09.000Z</time>
      </trkpt>
      <trkpt lat="47.31552" lon="-2.36073">
        <ele>67.599998474121</ele>
        <time>2020-12-06T09:08:14.000Z</time>
      </trkpt>
      <trkpt lat="47.31556" lon="-2.3607">
        <ele>67.599998474121</ele>
        <time>2020-12-06T09:08:15.000Z</time>
      </trkpt>
      <trkpt lat="47.3157" lon="-2.36056">
        <ele>67.599998474121</ele>
        <time>2020-12-06T09:08:19.000Z</time>
      </trkpt>
      <trkpt lat="47.31578" lon="-2.36049">
        <ele>67.199996948242</ele>
        <time>2020-12-06T09:08:21.000Z</time>
      </trkpt>
      <trkpt lat="47.31582" lon="-2.36046">
        <ele>66.800003051758</ele>
        <time>2020-12-06T09:08:22.000Z</time>
      </trkpt>
      <trkpt lat="47.31586" lon="-2.36042">
        <ele>66.400001525879</ele>
        <time>2020-12-06T09:08:23.000Z</time>
      </trkpt>
      <trkpt lat="47.3159" lon="-2.36039">
        <ele>66</ele>
        <time>2020-12-06T09:08:24.000Z</time>
      </trkpt>
      <trkpt lat="47.31593" lon="-2.36035">
        <ele>65.599998474121</ele>
        <time>2020-12-06T09:08:25.000Z</time>
      </trkpt>
      <trkpt lat="47.31605" lon="-2.36025">
        <ele>65.599998474121</ele>
        <time>2020-12-06T09:08:28.000Z</time>
      </trkpt>
      <trkpt lat="47.31625" lon="-2.36001">
        <ele>65.599998474121</ele>
        <time>2020-12-06T09:08:34.000Z</time>
      </trkpt>
      <trkpt lat="47.31629" lon="-2.35996">
        <ele>65.599998474121</ele>
        <time>2020-12-06T09:08:35.000Z</time>
      </trkpt>
      <trkpt lat="47.31641" lon="-2.35983">
        <ele>65.599998474121</ele>
        <time>2020-12-06T09:08:39.000Z</time>
      </trkpt>
      <trkpt lat="47.31644" lon="-2.3598">
        <ele>65</ele>
        <time>2020-12-06T09:08:40.000Z</time>
      </trkpt>
      <trkpt lat="47.31649" lon="-2.35977">
        <ele>64.599998474121</ele>
        <time>2020-12-06T09:08:41.000Z</time>
      </trkpt>
      <trkpt lat="47.31653" lon="-2.35974">
        <ele>64.199996948242</ele>
        <time>2020-12-06T09:08:42.000Z</time>
      </trkpt>
      <trkpt lat="47.31656" lon="-2.35972">
        <ele>63.799999237061</ele>
        <time>2020-12-06T09:08:43.000Z</time>
      </trkpt>
      <trkpt lat="47.3166" lon="-2.3597">
        <ele>63.400001525879</ele>
        <time>2020-12-06T09:08:44.000Z</time>
      </trkpt>
      <trkpt lat="47.31686" lon="-2.35954">
        <ele>63.400001525879</ele>
        <time>2020-12-06T09:08:50.000Z</time>
      </trkpt>
      <trkpt lat="47.31689" lon="-2.35951">
        <ele>63.400001525879</ele>
        <time>2020-12-06T09:08:51.000Z</time>
      </trkpt>
      <trkpt lat="47.3171" lon="-2.35942">
        <ele>63.400001525879</ele>
        <time>2020-12-06T09:08:56.000Z</time>
      </trkpt>
      <trkpt lat="47.31714" lon="-2.35939">
        <ele>63.400001525879</ele>
        <time>2020-12-06T09:08:57.000Z</time>
      </trkpt>
      <trkpt lat="47.31741" lon="-2.35922">
        <ele>63.400001525879</ele>
        <time>2020-12-06T09:09:03.000Z</time>
      </trkpt>
      <trkpt lat="47.31759" lon="-2.35912">
        <ele>63</ele>
        <time>2020-12-06T09:09:07.000Z</time>
      </trkpt>
      <trkpt lat="47.31763" lon="-2.35909">
        <ele>62.599998474121</ele>
        <time>2020-12-06T09:09:08.000Z</time>
      </trkpt>
      <trkpt lat="47.31768" lon="-2.35906">
        <ele>62.200000762939</ele>
        <time>2020-12-06T09:09:09.000Z</time>
      </trkpt>
      <trkpt lat="47.31772" lon="-2.35904">
        <ele>61.599998474121</ele>
        <time>2020-12-06T09:09:10.000Z</time>
      </trkpt>
      <trkpt lat="47.31776" lon="-2.35901">
        <ele>61.200000762939</ele>
        <time>2020-12-06T09:09:11.000Z</time>
      </trkpt>
      <trkpt lat="47.31784" lon="-2.35897">
        <ele>60.799999237061</ele>
        <time>2020-12-06T09:09:13.000Z</time>
      </trkpt>
      <trkpt lat="47.31788" lon="-2.35894">
        <ele>60.400001525879</ele>
        <time>2020-12-06T09:09:14.000Z</time>
      </trkpt>
      <trkpt lat="47.31792" lon="-2.35893">
        <ele>60</ele>
        <time>2020-12-06T09:09:15.000Z</time>
      </trkpt>
      <trkpt lat="47.31795" lon="-2.35891">
        <ele>59.599998474121</ele>
        <time>2020-12-06T09:09:16.000Z</time>
      </trkpt>
      <trkpt lat="47.31799" lon="-2.35891">
        <ele>59.200000762939</ele>
        <time>2020-12-06T09:09:17.000Z</time>
      </trkpt>
      <trkpt lat="47.31806" lon="-2.35888">
        <ele>59.200000762939</ele>
        <time>2020-12-06T09:09:19.000Z</time>
      </trkpt>
      <trkpt lat="47.31817" lon="-2.35877">
        <ele>59.200000762939</ele>
        <time>2020-12-06T09:09:23.000Z</time>
      </trkpt>
      <trkpt lat="47.31824" lon="-2.35864">
        <ele>59.200000762939</ele>
        <time>2020-12-06T09:09:27.000Z</time>
      </trkpt>
      <trkpt lat="47.31822" lon="-2.35851">
        <ele>59.200000762939</ele>
        <time>2020-12-06T09:09:32.000Z</time>
      </trkpt>
      <trkpt lat="47.31816" lon="-2.35838">
        <ele>59.200000762939</ele>
        <time>2020-12-06T09:09:38.000Z</time>
      </trkpt>
      <trkpt lat="47.31805" lon="-2.3582">
        <ele>59.200000762939</ele>
        <time>2020-12-06T09:09:44.000Z</time>
      </trkpt>
      <trkpt lat="47.3179" lon="-2.35802">
        <ele>59.200000762939</ele>
        <time>2020-12-06T09:09:50.000Z</time>
      </trkpt>
      <trkpt lat="47.31784" lon="-2.35777">
        <ele>59.200000762939</ele>
        <time>2020-12-06T09:09:56.000Z</time>
      </trkpt>
      <trkpt lat="47.31782" lon="-2.35744">
        <ele>59.200000762939</ele>
        <time>2020-12-06T09:10:01.000Z</time>
      </trkpt>
      <trkpt lat="47.31784" lon="-2.35699">
        <ele>59.200000762939</ele>
        <time>2020-12-06T09:10:07.000Z</time>
      </trkpt>
      <trkpt lat="47.31786" lon="-2.35662">
        <ele>58.799999237061</ele>
        <time>2020-12-06T09:10:12.000Z</time>
      </trkpt>
      <trkpt lat="47.31786" lon="-2.35655">
        <ele>58.200000762939</ele>
        <time>2020-12-06T09:10:13.000Z</time>
      </trkpt>
      <trkpt lat="47.31787" lon="-2.35648">
        <ele>57.799999237061</ele>
        <time>2020-12-06T09:10:14.000Z</time>
      </trkpt>
      <trkpt lat="47.31789" lon="-2.35642">
        <ele>57.400001525879</ele>
        <time>2020-12-06T09:10:15.000Z</time>
      </trkpt>
      <trkpt lat="47.31791" lon="-2.35635">
        <ele>57</ele>
        <time>2020-12-06T09:10:16.000Z</time>
      </trkpt>
      <trkpt lat="47.31796" lon="-2.35623">
        <ele>57</ele>
        <time>2020-12-06T09:10:18.000Z</time>
      </trkpt>
      <trkpt lat="47.31804" lon="-2.35607">
        <ele>56.400001525879</ele>
        <time>2020-12-06T09:10:21.000Z</time>
      </trkpt>
      <trkpt lat="47.31806" lon="-2.35602">
        <ele>56</ele>
        <time>2020-12-06T09:10:22.000Z</time>
      </trkpt>
      <trkpt lat="47.31809" lon="-2.35597">
        <ele>55.599998474121</ele>
        <time>2020-12-06T09:10:23.000Z</time>
      </trkpt>
      <trkpt lat="47.31811" lon="-2.35592">
        <ele>55.200000762939</ele>
        <time>2020-12-06T09:10:24.000Z</time>
      </trkpt>
      <trkpt lat="47.31814" lon="-2.35588">
        <ele>54.799999237061</ele>
        <time>2020-12-06T09:10:25.000Z</time>
      </trkpt>
      <trkpt lat="47.31821" lon="-2.35572">
        <ele>54.799999237061</ele>
        <time>2020-12-06T09:10:29.000Z</time>
      </trkpt>
      <trkpt lat="47.31833" lon="-2.35563">
        <ele>54.799999237061</ele>
        <time>2020-12-06T09:10:33.000Z</time>
      </trkpt>
      <trkpt lat="47.3184" lon="-2.35549">
        <ele>54.400001525879</ele>
        <time>2020-12-06T09:10:37.000Z</time>
      </trkpt>
      <trkpt lat="47.31839" lon="-2.35546">
        <ele>54</ele>
        <time>2020-12-06T09:10:38.000Z</time>
      </trkpt>
      <trkpt lat="47.31839" lon="-2.35542">
        <ele>53.599998474121</ele>
        <time>2020-12-06T09:10:39.000Z</time>
      </trkpt>
      <trkpt lat="47.31838" lon="-2.35538">
        <ele>53.200000762939</ele>
        <time>2020-12-06T09:10:40.000Z</time>
      </trkpt>
      <trkpt lat="47.31838" lon="-2.35535">
        <ele>52.599998474121</ele>
        <time>2020-12-06T09:10:41.000Z</time>
      </trkpt>
      <trkpt lat="47.31835" lon="-2.3553">
        <ele>52.599998474121</ele>
        <time>2020-12-06T09:10:43.000Z</time>
      </trkpt>
      <trkpt lat="47.31829" lon="-2.35509">
        <ele>52.599998474121</ele>
        <time>2020-12-06T09:10:49.000Z</time>
      </trkpt>
      <trkpt lat="47.3182" lon="-2.35486">
        <ele>52.599998474121</ele>
        <time>2020-12-06T09:10:55.000Z</time>
      </trkpt>
      <trkpt lat="47.31811" lon="-2.35471">
        <ele>52.599998474121</ele>
        <time>2020-12-06T09:11:01.000Z</time>
      </trkpt>
      <trkpt lat="47.31809" lon="-2.35466">
        <ele>52.599998474121</ele>
        <time>2020-12-06T09:11:04.000Z</time>
      </trkpt>
      <trkpt lat="47.31806" lon="-2.35458">
        <ele>52.599998474121</ele>
        <time>2020-12-06T09:11:07.000Z</time>
      </trkpt>
      <trkpt lat="47.31803" lon="-2.3545">
        <ele>52.599998474121</ele>
        <time>2020-12-06T09:11:10.000Z</time>
      </trkpt>
      <trkpt lat="47.31801" lon="-2.35443">
        <ele>52.599998474121</ele>
        <time>2020-12-06T09:11:13.000Z</time>
      </trkpt>
      <trkpt lat="47.31794" lon="-2.3543">
        <ele>53.200000762939</ele>
        <time>2020-12-06T09:11:18.000Z</time>
      </trkpt>
      <trkpt lat="47.31791" lon="-2.35427">
        <ele>53.599998474121</ele>
        <time>2020-12-06T09:11:19.000Z</time>
      </trkpt>
      <trkpt lat="47.31788" lon="-2.35424">
        <ele>54</ele>
        <time>2020-12-06T09:11:20.000Z</time>
      </trkpt>
      <trkpt lat="47.31786" lon="-2.3542">
        <ele>54.400001525879</ele>
        <time>2020-12-06T09:11:21.000Z</time>
      </trkpt>
      <trkpt lat="47.31785" lon="-2.35417">
        <ele>54.799999237061</ele>
        <time>2020-12-06T09:11:22.000Z</time>
      </trkpt>
      <trkpt lat="47.3178" lon="-2.35408">
        <ele>54.799999237061</ele>
        <time>2020-12-06T09:11:25.000Z</time>
      </trkpt>
      <trkpt lat="47.31778" lon="-2.35404">
        <ele>54.799999237061</ele>
        <time>2020-12-06T09:11:26.000Z</time>
      </trkpt>
      <trkpt lat="47.31772" lon="-2.35394">
        <ele>54.799999237061</ele>
        <time>2020-12-06T09:11:30.000Z</time>
      </trkpt>
      <trkpt lat="47.3177" lon="-2.3539">
        <ele>54.799999237061</ele>
        <time>2020-12-06T09:11:32.000Z</time>
      </trkpt>
      <trkpt lat="47.31763" lon="-2.35377">
        <ele>54.799999237061</ele>
        <time>2020-12-06T09:11:38.000Z</time>
      </trkpt>
      <trkpt lat="47.31767" lon="-2.35369">
        <ele>54.799999237061</ele>
        <time>2020-12-06T09:12:33.000Z</time>
      </trkpt>
      <trkpt lat="47.31774" lon="-2.35354">
        <ele>54.799999237061</ele>
        <time>2020-12-06T09:12:39.000Z</time>
      </trkpt>
      <trkpt lat="47.31784" lon="-2.35348">
        <ele>54.799999237061</ele>
        <time>2020-12-06T09:12:43.000Z</time>
      </trkpt>
      <trkpt lat="47.31788" lon="-2.35342">
        <ele>54.799999237061</ele>
        <time>2020-12-06T09:12:45.000Z</time>
      </trkpt>
      <trkpt lat="47.31807" lon="-2.35328">
        <ele>54.799999237061</ele>
        <time>2020-12-06T09:12:50.000Z</time>
      </trkpt>
      <trkpt lat="47.31811" lon="-2.35327">
        <ele>54.799999237061</ele>
        <time>2020-12-06T09:12:51.000Z</time>
      </trkpt>
      <trkpt lat="47.31826" lon="-2.35317">
        <ele>54.799999237061</ele>
        <time>2020-12-06T09:12:54.000Z</time>
      </trkpt>
      <trkpt lat="47.3184" lon="-2.35308">
        <ele>54.799999237061</ele>
        <time>2020-12-06T09:12:57.000Z</time>
      </trkpt>
      <trkpt lat="47.31848" lon="-2.353">
        <ele>54.799999237061</ele>
        <time>2020-12-06T09:12:59.000Z</time>
      </trkpt>
      <trkpt lat="47.31857" lon="-2.35294">
        <ele>54.799999237061</ele>
        <time>2020-12-06T09:13:01.000Z</time>
      </trkpt>
      <trkpt lat="47.31871" lon="-2.35282">
        <ele>54</ele>
        <time>2020-12-06T09:13:04.000Z</time>
      </trkpt>
      <trkpt lat="47.31875" lon="-2.35278">
        <ele>53.599998474121</ele>
        <time>2020-12-06T09:13:05.000Z</time>
      </trkpt>
      <trkpt lat="47.31879" lon="-2.35273">
        <ele>53.200000762939</ele>
        <time>2020-12-06T09:13:06.000Z</time>
      </trkpt>
      <trkpt lat="47.31884" lon="-2.3527">
        <ele>52.799999237061</ele>
        <time>2020-12-06T09:13:07.000Z</time>
      </trkpt>
      <trkpt lat="47.31898" lon="-2.3526">
        <ele>52.799999237061</ele>
        <time>2020-12-06T09:13:10.000Z</time>
      </trkpt>
      <trkpt lat="47.3192" lon="-2.35243">
        <ele>52.799999237061</ele>
        <time>2020-12-06T09:13:15.000Z</time>
      </trkpt>
      <trkpt lat="47.31924" lon="-2.35238">
        <ele>52.799999237061</ele>
        <time>2020-12-06T09:13:16.000Z</time>
      </trkpt>
      <trkpt lat="47.3194" lon="-2.35224">
        <ele>52.799999237061</ele>
        <time>2020-12-06T09:13:20.000Z</time>
      </trkpt>
      <trkpt lat="47.3197" lon="-2.35194">
        <ele>52.799999237061</ele>
        <time>2020-12-06T09:13:27.000Z</time>
      </trkpt>
      <trkpt lat="47.31974" lon="-2.35188">
        <ele>52.799999237061</ele>
        <time>2020-12-06T09:13:28.000Z</time>
      </trkpt>
      <trkpt lat="47.31978" lon="-2.35182">
        <ele>52.200000762939</ele>
        <time>2020-12-06T09:13:29.000Z</time>
      </trkpt>
      <trkpt lat="47.31981" lon="-2.35178">
        <ele>51.799999237061</ele>
        <time>2020-12-06T09:13:30.000Z</time>
      </trkpt>
      <trkpt lat="47.31985" lon="-2.35173">
        <ele>51.400001525879</ele>
        <time>2020-12-06T09:13:31.000Z</time>
      </trkpt>
      <trkpt lat="47.31989" lon="-2.35169">
        <ele>51</ele>
        <time>2020-12-06T09:13:32.000Z</time>
      </trkpt>
      <trkpt lat="47.31993" lon="-2.35164">
        <ele>50.599998474121</ele>
        <time>2020-12-06T09:13:33.000Z</time>
      </trkpt>
      <trkpt lat="47.31997" lon="-2.3516">
        <ele>50.599998474121</ele>
        <time>2020-12-06T09:13:34.000Z</time>
      </trkpt>
      <trkpt lat="47.32017" lon="-2.35142">
        <ele>50.599998474121</ele>
        <time>2020-12-06T09:13:39.000Z</time>
      </trkpt>
      <trkpt lat="47.32031" lon="-2.35121">
        <ele>50.599998474121</ele>
        <time>2020-12-06T09:13:43.000Z</time>
      </trkpt>
      <trkpt lat="47.32032" lon="-2.35114">
        <ele>50.599998474121</ele>
        <time>2020-12-06T09:13:44.000Z</time>
      </trkpt>
      <trkpt lat="47.32034" lon="-2.35078">
        <ele>50.599998474121</ele>
        <time>2020-12-06T09:13:50.000Z</time>
      </trkpt>
      <trkpt lat="47.32038" lon="-2.35068">
        <ele>50.599998474121</ele>
        <time>2020-12-06T09:13:52.000Z</time>
      </trkpt>
      <trkpt lat="47.32041" lon="-2.35066">
        <ele>50.599998474121</ele>
        <time>2020-12-06T09:13:53.000Z</time>
      </trkpt>
      <trkpt lat="47.32057" lon="-2.35066">
        <ele>50.599998474121</ele>
        <time>2020-12-06T09:13:57.000Z</time>
      </trkpt>
      <trkpt lat="47.32087" lon="-2.35065">
        <ele>50.599998474121</ele>
        <time>2020-12-06T09:14:03.000Z</time>
      </trkpt>
      <trkpt lat="47.32097" lon="-2.35066">
        <ele>50.599998474121</ele>
        <time>2020-12-06T09:14:05.000Z</time>
      </trkpt>
      <trkpt lat="47.32113" lon="-2.35065">
        <ele>50.599998474121</ele>
        <time>2020-12-06T09:14:08.000Z</time>
      </trkpt>
      <trkpt lat="47.32151" lon="-2.35064">
        <ele>50.599998474121</ele>
        <time>2020-12-06T09:14:15.000Z</time>
      </trkpt>
      <trkpt lat="47.3219" lon="-2.3506">
        <ele>50.599998474121</ele>
        <time>2020-12-06T09:14:22.000Z</time>
      </trkpt>
      <trkpt lat="47.32227" lon="-2.35053">
        <ele>50.599998474121</ele>
        <time>2020-12-06T09:14:29.000Z</time>
      </trkpt>
      <trkpt lat="47.32254" lon="-2.3505">
        <ele>50.599998474121</ele>
        <time>2020-12-06T09:14:35.000Z</time>
      </trkpt>
      <trkpt lat="47.32263" lon="-2.35049">
        <ele>50.599998474121</ele>
        <time>2020-12-06T09:14:37.000Z</time>
      </trkpt>
      <trkpt lat="47.32278" lon="-2.35049">
        <ele>50.599998474121</ele>
        <time>2020-12-06T09:14:40.000Z</time>
      </trkpt>
      <trkpt lat="47.32283" lon="-2.35049">
        <ele>50.599998474121</ele>
        <time>2020-12-06T09:14:41.000Z</time>
      </trkpt>
      <trkpt lat="47.32307" lon="-2.35049">
        <ele>51</ele>
        <time>2020-12-06T09:14:46.000Z</time>
      </trkpt>
      <trkpt lat="47.32311" lon="-2.35048">
        <ele>51.400001525879</ele>
        <time>2020-12-06T09:14:47.000Z</time>
      </trkpt>
      <trkpt lat="47.32316" lon="-2.35048">
        <ele>51.799999237061</ele>
        <time>2020-12-06T09:14:48.000Z</time>
      </trkpt>
      <trkpt lat="47.32321" lon="-2.35049">
        <ele>52.200000762939</ele>
        <time>2020-12-06T09:14:49.000Z</time>
      </trkpt>
      <trkpt lat="47.32326" lon="-2.35049">
        <ele>52.599998474121</ele>
        <time>2020-12-06T09:14:50.000Z</time>
      </trkpt>
      <trkpt lat="47.32347" lon="-2.35049">
        <ele>52.599998474121</ele>
        <time>2020-12-06T09:14:54.000Z</time>
      </trkpt>
      <trkpt lat="47.32352" lon="-2.35048">
        <ele>52.599998474121</ele>
        <time>2020-12-06T09:14:55.000Z</time>
      </trkpt>
      <trkpt lat="47.32387" lon="-2.35047">
        <ele>53</ele>
        <time>2020-12-06T09:15:02.000Z</time>
      </trkpt>
      <trkpt lat="47.32392" lon="-2.35047">
        <ele>53.400001525879</ele>
        <time>2020-12-06T09:15:03.000Z</time>
      </trkpt>
      <trkpt lat="47.32397" lon="-2.35046">
        <ele>53.799999237061</ele>
        <time>2020-12-06T09:15:04.000Z</time>
      </trkpt>
      <trkpt lat="47.32402" lon="-2.35046">
        <ele>54.200000762939</ele>
        <time>2020-12-06T09:15:05.000Z</time>
      </trkpt>
      <trkpt lat="47.32409" lon="-2.35046">
        <ele>54.599998474121</ele>
        <time>2020-12-06T09:15:06.000Z</time>
      </trkpt>
      <trkpt lat="47.32425" lon="-2.35046">
        <ele>54.599998474121</ele>
        <time>2020-12-06T09:15:09.000Z</time>
      </trkpt>
      <trkpt lat="47.3246" lon="-2.3504">
        <ele>54.599998474121</ele>
        <time>2020-12-06T09:15:16.000Z</time>
      </trkpt>
      <trkpt lat="47.32475" lon="-2.35037">
        <ele>54.599998474121</ele>
        <time>2020-12-06T09:15:19.000Z</time>
      </trkpt>
      <trkpt lat="47.32491" lon="-2.35033">
        <ele>54.599998474121</ele>
        <time>2020-12-06T09:15:22.000Z</time>
      </trkpt>
      <trkpt lat="47.3252" lon="-2.35028">
        <ele>54.599998474121</ele>
        <time>2020-12-06T09:15:28.000Z</time>
      </trkpt>
      <trkpt lat="47.32537" lon="-2.35023">
        <ele>54.599998474121</ele>
        <time>2020-12-06T09:15:31.000Z</time>
      </trkpt>
      <trkpt lat="47.32548" lon="-2.35019">
        <ele>54.599998474121</ele>
        <time>2020-12-06T09:15:33.000Z</time>
      </trkpt>
      <trkpt lat="47.32582" lon="-2.35002">
        <ele>54.599998474121</ele>
        <time>2020-12-06T09:15:39.000Z</time>
      </trkpt>
      <trkpt lat="47.32605" lon="-2.34988">
        <ele>54.599998474121</ele>
        <time>2020-12-06T09:15:43.000Z</time>
      </trkpt>
      <trkpt lat="47.3261" lon="-2.34986">
        <ele>54.599998474121</ele>
        <time>2020-12-06T09:15:44.000Z</time>
      </trkpt>
      <trkpt lat="47.32626" lon="-2.34977">
        <ele>54.200000762939</ele>
        <time>2020-12-06T09:15:47.000Z</time>
      </trkpt>
      <trkpt lat="47.32632" lon="-2.34974">
        <ele>53.799999237061</ele>
        <time>2020-12-06T09:15:48.000Z</time>
      </trkpt>
      <trkpt lat="47.32638" lon="-2.34971">
        <ele>53.400001525879</ele>
        <time>2020-12-06T09:15:49.000Z</time>
      </trkpt>
      <trkpt lat="47.32643" lon="-2.34968">
        <ele>53</ele>
        <time>2020-12-06T09:15:50.000Z</time>
      </trkpt>
      <trkpt lat="47.32647" lon="-2.34966">
        <ele>52.599998474121</ele>
        <time>2020-12-06T09:15:51.000Z</time>
      </trkpt>
      <trkpt lat="47.32665" lon="-2.34954">
        <ele>52.599998474121</ele>
        <time>2020-12-06T09:15:56.000Z</time>
      </trkpt>
      <trkpt lat="47.32677" lon="-2.34945">
        <ele>52.200000762939</ele>
        <time>2020-12-06T09:16:00.000Z</time>
      </trkpt>
      <trkpt lat="47.32681" lon="-2.34941">
        <ele>51.799999237061</ele>
        <time>2020-12-06T09:16:01.000Z</time>
      </trkpt>
      <trkpt lat="47.32685" lon="-2.34937">
        <ele>51.400001525879</ele>
        <time>2020-12-06T09:16:02.000Z</time>
      </trkpt>
      <trkpt lat="47.32689" lon="-2.34934">
        <ele>51</ele>
        <time>2020-12-06T09:16:03.000Z</time>
      </trkpt>
      <trkpt lat="47.32694" lon="-2.34931">
        <ele>50.599998474121</ele>
        <time>2020-12-06T09:16:04.000Z</time>
      </trkpt>
      <trkpt lat="47.32712" lon="-2.34917">
        <ele>50.599998474121</ele>
        <time>2020-12-06T09:16:08.000Z</time>
      </trkpt>
      <trkpt lat="47.32756" lon="-2.34885">
        <ele>50.599998474121</ele>
        <time>2020-12-06T09:16:17.000Z</time>
      </trkpt>
      <trkpt lat="47.32785" lon="-2.34865">
        <ele>50.599998474121</ele>
        <time>2020-12-06T09:16:23.000Z</time>
      </trkpt>
      <trkpt lat="47.32827" lon="-2.34832">
        <ele>50.599998474121</ele>
        <time>2020-12-06T09:16:32.000Z</time>
      </trkpt>
      <trkpt lat="47.32856" lon="-2.34811">
        <ele>50.200000762939</ele>
        <time>2020-12-06T09:16:38.000Z</time>
      </trkpt>
      <trkpt lat="47.32861" lon="-2.34808">
        <ele>49.599998474121</ele>
        <time>2020-12-06T09:16:39.000Z</time>
      </trkpt>
      <trkpt lat="47.32866" lon="-2.34804">
        <ele>49.200000762939</ele>
        <time>2020-12-06T09:16:40.000Z</time>
      </trkpt>
      <trkpt lat="47.3287" lon="-2.348">
        <ele>48.799999237061</ele>
        <time>2020-12-06T09:16:41.000Z</time>
      </trkpt>
      <trkpt lat="47.32875" lon="-2.34796">
        <ele>48.400001525879</ele>
        <time>2020-12-06T09:16:42.000Z</time>
      </trkpt>
      <trkpt lat="47.32893" lon="-2.34784">
        <ele>48.400001525879</ele>
        <time>2020-12-06T09:16:46.000Z</time>
      </trkpt>
      <trkpt lat="47.32899" lon="-2.34784">
        <ele>48.400001525879</ele>
        <time>2020-12-06T09:16:48.000Z</time>
      </trkpt>
      <trkpt lat="47.32902" lon="-2.34786">
        <ele>48.400001525879</ele>
        <time>2020-12-06T09:16:49.000Z</time>
      </trkpt>
      <trkpt lat="47.32909" lon="-2.34789">
        <ele>48</ele>
        <time>2020-12-06T09:16:52.000Z</time>
      </trkpt>
      <trkpt lat="47.32911" lon="-2.34792">
        <ele>47.400001525879</ele>
        <time>2020-12-06T09:16:53.000Z</time>
      </trkpt>
      <trkpt lat="47.32913" lon="-2.34795">
        <ele>47</ele>
        <time>2020-12-06T09:16:54.000Z</time>
      </trkpt>
      <trkpt lat="47.32914" lon="-2.34798">
        <ele>46.599998474121</ele>
        <time>2020-12-06T09:16:55.000Z</time>
      </trkpt>
      <trkpt lat="47.32915" lon="-2.34801">
        <ele>46.200000762939</ele>
        <time>2020-12-06T09:16:56.000Z</time>
      </trkpt>
      <trkpt lat="47.32922" lon="-2.34812">
        <ele>46.200000762939</ele>
        <time>2020-12-06T09:17:00.000Z</time>
      </trkpt>
      <trkpt lat="47.3293" lon="-2.34838">
        <ele>46.200000762939</ele>
        <time>2020-12-06T09:17:06.000Z</time>
      </trkpt>
      <trkpt lat="47.32941" lon="-2.3486">
        <ele>46.200000762939</ele>
        <time>2020-12-06T09:17:13.000Z</time>
      </trkpt>
      <trkpt lat="47.32949" lon="-2.34882">
        <ele>46.200000762939</ele>
        <time>2020-12-06T09:17:19.000Z</time>
      </trkpt>
      <trkpt lat="47.32957" lon="-2.34905">
        <ele>46.200000762939</ele>
        <time>2020-12-06T09:17:25.000Z</time>
      </trkpt>
      <trkpt lat="47.32966" lon="-2.34932">
        <ele>46.200000762939</ele>
        <time>2020-12-06T09:17:33.000Z</time>
      </trkpt>
      <trkpt lat="47.32973" lon="-2.34949">
        <ele>46.200000762939</ele>
        <time>2020-12-06T09:17:39.000Z</time>
      </trkpt>
      <trkpt lat="47.32981" lon="-2.34965">
        <ele>46.200000762939</ele>
        <time>2020-12-06T09:17:44.000Z</time>
      </trkpt>
      <trkpt lat="47.32983" lon="-2.34968">
        <ele>46.599998474121</ele>
        <time>2020-12-06T09:17:45.000Z</time>
      </trkpt>
      <trkpt lat="47.32985" lon="-2.34972">
        <ele>47</ele>
        <time>2020-12-06T09:17:46.000Z</time>
      </trkpt>
      <trkpt lat="47.32987" lon="-2.34976">
        <ele>47.400001525879</ele>
        <time>2020-12-06T09:17:47.000Z</time>
      </trkpt>
      <trkpt lat="47.3299" lon="-2.34981">
        <ele>47.799999237061</ele>
        <time>2020-12-06T09:17:48.000Z</time>
      </trkpt>
      <trkpt lat="47.32992" lon="-2.34984">
        <ele>48.200000762939</ele>
        <time>2020-12-06T09:17:49.000Z</time>
      </trkpt>
      <trkpt lat="47.32994" lon="-2.34988">
        <ele>48.200000762939</ele>
        <time>2020-12-06T09:17:50.000Z</time>
      </trkpt>
      <trkpt lat="47.33002" lon="-2.35015">
        <ele>48.200000762939</ele>
        <time>2020-12-06T09:17:56.000Z</time>
      </trkpt>
      <trkpt lat="47.33005" lon="-2.35035">
        <ele>48.200000762939</ele>
        <time>2020-12-06T09:18:01.000Z</time>
      </trkpt>
      <trkpt lat="47.33007" lon="-2.35042">
        <ele>48.200000762939</ele>
        <time>2020-12-06T09:18:03.000Z</time>
      </trkpt>
      <trkpt lat="47.33009" lon="-2.35055">
        <ele>48.200000762939</ele>
        <time>2020-12-06T09:18:06.000Z</time>
      </trkpt>
      <trkpt lat="47.33011" lon="-2.35059">
        <ele>48.200000762939</ele>
        <time>2020-12-06T09:18:07.000Z</time>
      </trkpt>
      <trkpt lat="47.33014" lon="-2.35069">
        <ele>48.599998474121</ele>
        <time>2020-12-06T09:18:09.000Z</time>
      </trkpt>
      <trkpt lat="47.33015" lon="-2.35075">
        <ele>49</ele>
        <time>2020-12-06T09:18:10.000Z</time>
      </trkpt>
      <trkpt lat="47.33016" lon="-2.3508">
        <ele>49.599998474121</ele>
        <time>2020-12-06T09:18:11.000Z</time>
      </trkpt>
      <trkpt lat="47.33016" lon="-2.35086">
        <ele>50</ele>
        <time>2020-12-06T09:18:12.000Z</time>
      </trkpt>
      <trkpt lat="47.33015" lon="-2.35093">
        <ele>50.400001525879</ele>
        <time>2020-12-06T09:18:13.000Z</time>
      </trkpt>
      <trkpt lat="47.33018" lon="-2.35109">
        <ele>50.400001525879</ele>
        <time>2020-12-06T09:18:16.000Z</time>
      </trkpt>
      <trkpt lat="47.33024" lon="-2.35146">
        <ele>50.400001525879</ele>
        <time>2020-12-06T09:18:23.000Z</time>
      </trkpt>
      <trkpt lat="47.33027" lon="-2.35174">
        <ele>50.400001525879</ele>
        <time>2020-12-06T09:18:28.000Z</time>
      </trkpt>
      <trkpt lat="47.33027" lon="-2.35204">
        <ele>50.400001525879</ele>
        <time>2020-12-06T09:18:35.000Z</time>
      </trkpt>
      <trkpt lat="47.33028" lon="-2.35225">
        <ele>50.400001525879</ele>
        <time>2020-12-06T09:18:40.000Z</time>
      </trkpt>
      <trkpt lat="47.33032" lon="-2.3524">
        <ele>50.400001525879</ele>
        <time>2020-12-06T09:18:43.000Z</time>
      </trkpt>
      <trkpt lat="47.33031" lon="-2.35246">
        <ele>50.400001525879</ele>
        <time>2020-12-06T09:18:44.000Z</time>
      </trkpt>
      <trkpt lat="47.33029" lon="-2.35262">
        <ele>50.400001525879</ele>
        <time>2020-12-06T09:18:47.000Z</time>
      </trkpt>
      <trkpt lat="47.33028" lon="-2.35281">
        <ele>50.400001525879</ele>
        <time>2020-12-06T09:18:50.000Z</time>
      </trkpt>
      <trkpt lat="47.33025" lon="-2.35333">
        <ele>50.400001525879</ele>
        <time>2020-12-06T09:18:57.000Z</time>
      </trkpt>
      <trkpt lat="47.33025" lon="-2.35339">
        <ele>50.400001525879</ele>
        <time>2020-12-06T09:18:58.000Z</time>
      </trkpt>
      <trkpt lat="47.33027" lon="-2.3537">
        <ele>50.400001525879</ele>
        <time>2020-12-06T09:19:02.000Z</time>
      </trkpt>
      <trkpt lat="47.33031" lon="-2.35408">
        <ele>50.400001525879</ele>
        <time>2020-12-06T09:19:07.000Z</time>
      </trkpt>
      <trkpt lat="47.33031" lon="-2.3542">
        <ele>50.400001525879</ele>
        <time>2020-12-06T09:19:09.000Z</time>
      </trkpt>
      <trkpt lat="47.33033" lon="-2.35451">
        <ele>50.400001525879</ele>
        <time>2020-12-06T09:19:14.000Z</time>
      </trkpt>
      <trkpt lat="47.33033" lon="-2.35478">
        <ele>50.400001525879</ele>
        <time>2020-12-06T09:19:18.000Z</time>
      </trkpt>
      <trkpt lat="47.33031" lon="-2.35521">
        <ele>50.400001525879</ele>
        <time>2020-12-06T09:19:24.000Z</time>
      </trkpt>
      <trkpt lat="47.3303" lon="-2.35527">
        <ele>50</ele>
        <time>2020-12-06T09:19:25.000Z</time>
      </trkpt>
      <trkpt lat="47.3303" lon="-2.35533">
        <ele>49.599998474121</ele>
        <time>2020-12-06T09:19:26.000Z</time>
      </trkpt>
      <trkpt lat="47.33029" lon="-2.35539">
        <ele>49.200000762939</ele>
        <time>2020-12-06T09:19:27.000Z</time>
      </trkpt>
      <trkpt lat="47.33029" lon="-2.35546">
        <ele>48.799999237061</ele>
        <time>2020-12-06T09:19:28.000Z</time>
      </trkpt>
      <trkpt lat="47.33028" lon="-2.35552">
        <ele>48.400001525879</ele>
        <time>2020-12-06T09:19:29.000Z</time>
      </trkpt>
      <trkpt lat="47.33028" lon="-2.35557">
        <ele>48.400001525879</ele>
        <time>2020-12-06T09:19:30.000Z</time>
      </trkpt>
      <trkpt lat="47.33027" lon="-2.35588">
        <ele>48.400001525879</ele>
        <time>2020-12-06T09:19:35.000Z</time>
      </trkpt>
      <trkpt lat="47.33023" lon="-2.35612">
        <ele>48.400001525879</ele>
        <time>2020-12-06T09:19:38.000Z</time>
      </trkpt>
      <trkpt lat="47.33023" lon="-2.35619">
        <ele>48</ele>
        <time>2020-12-06T09:19:39.000Z</time>
      </trkpt>
      <trkpt lat="47.33022" lon="-2.35625">
        <ele>47</ele>
        <time>2020-12-06T09:19:40.000Z</time>
      </trkpt>
      <trkpt lat="47.33021" lon="-2.35631">
        <ele>46.599998474121</ele>
        <time>2020-12-06T09:19:41.000Z</time>
      </trkpt>
      <trkpt lat="47.3302" lon="-2.35635">
        <ele>46</ele>
        <time>2020-12-06T09:19:42.000Z</time>
      </trkpt>
      <trkpt lat="47.33019" lon="-2.35644">
        <ele>46</ele>
        <time>2020-12-06T09:19:44.000Z</time>
      </trkpt>
      <trkpt lat="47.33019" lon="-2.35654">
        <ele>46</ele>
        <time>2020-12-06T09:19:47.000Z</time>
      </trkpt>
      <trkpt lat="47.3302" lon="-2.35657">
        <ele>46</ele>
        <time>2020-12-06T09:19:49.000Z</time>
      </trkpt>
      <trkpt lat="47.33022" lon="-2.35658">
        <ele>46</ele>
        <time>2020-12-06T09:19:51.000Z</time>
      </trkpt>
      <trkpt lat="47.33028" lon="-2.35656">
        <ele>46</ele>
        <time>2020-12-06T09:19:54.000Z</time>
      </trkpt>
      <trkpt lat="47.33031" lon="-2.35655">
        <ele>46</ele>
        <time>2020-12-06T09:19:55.000Z</time>
      </trkpt>
      <trkpt lat="47.33046" lon="-2.35653">
        <ele>46</ele>
        <time>2020-12-06T09:20:01.000Z</time>
      </trkpt>
      <trkpt lat="47.33067" lon="-2.35649">
        <ele>46</ele>
        <time>2020-12-06T09:20:07.000Z</time>
      </trkpt>
      <trkpt lat="47.33083" lon="-2.35645">
        <ele>46</ele>
        <time>2020-12-06T09:20:12.000Z</time>
      </trkpt>
      <trkpt lat="47.33103" lon="-2.35643">
        <ele>46</ele>
        <time>2020-12-06T09:20:17.000Z</time>
      </trkpt>
      <trkpt lat="47.33107" lon="-2.35644">
        <ele>46.599998474121</ele>
        <time>2020-12-06T09:20:18.000Z</time>
      </trkpt>
      <trkpt lat="47.33112" lon="-2.35643">
        <ele>47</ele>
        <time>2020-12-06T09:20:19.000Z</time>
      </trkpt>
      <trkpt lat="47.33116" lon="-2.35643">
        <ele>47.400001525879</ele>
        <time>2020-12-06T09:20:20.000Z</time>
      </trkpt>
      <trkpt lat="47.33121" lon="-2.35642">
        <ele>47.799999237061</ele>
        <time>2020-12-06T09:20:21.000Z</time>
      </trkpt>
      <trkpt lat="47.33125" lon="-2.35641">
        <ele>48.400001525879</ele>
        <time>2020-12-06T09:20:22.000Z</time>
      </trkpt>
      <trkpt lat="47.3313" lon="-2.3564">
        <ele>48.400001525879</ele>
        <time>2020-12-06T09:20:23.000Z</time>
      </trkpt>
      <trkpt lat="47.33139" lon="-2.35638">
        <ele>48.400001525879</ele>
        <time>2020-12-06T09:20:25.000Z</time>
      </trkpt>
      <trkpt lat="47.33154" lon="-2.35637">
        <ele>48.400001525879</ele>
        <time>2020-12-06T09:20:28.000Z</time>
      </trkpt>
      <trkpt lat="47.33158" lon="-2.35636">
        <ele>48.799999237061</ele>
        <time>2020-12-06T09:20:29.000Z</time>
      </trkpt>
      <trkpt lat="47.33162" lon="-2.35635">
        <ele>49.799999237061</ele>
        <time>2020-12-06T09:20:30.000Z</time>
      </trkpt>
      <trkpt lat="47.33167" lon="-2.35633">
        <ele>50.200000762939</ele>
        <time>2020-12-06T09:20:31.000Z</time>
      </trkpt>
      <trkpt lat="47.33171" lon="-2.35632">
        <ele>50.599998474121</ele>
        <time>2020-12-06T09:20:32.000Z</time>
      </trkpt>
      <trkpt lat="47.3318" lon="-2.35629">
        <ele>50.599998474121</ele>
        <time>2020-12-06T09:20:34.000Z</time>
      </trkpt>
      <trkpt lat="47.33193" lon="-2.35622">
        <ele>50.599998474121</ele>
        <time>2020-12-06T09:20:37.000Z</time>
      </trkpt>
      <trkpt lat="47.33197" lon="-2.35619">
        <ele>51.200000762939</ele>
        <time>2020-12-06T09:20:38.000Z</time>
      </trkpt>
      <trkpt lat="47.33201" lon="-2.35617">
        <ele>51.599998474121</ele>
        <time>2020-12-06T09:20:39.000Z</time>
      </trkpt>
      <trkpt lat="47.33205" lon="-2.35615">
        <ele>52</ele>
        <time>2020-12-06T09:20:40.000Z</time>
      </trkpt>
      <trkpt lat="47.33209" lon="-2.35611">
        <ele>52.400001525879</ele>
        <time>2020-12-06T09:20:41.000Z</time>
      </trkpt>
      <trkpt lat="47.33213" lon="-2.35608">
        <ele>53</ele>
        <time>2020-12-06T09:20:42.000Z</time>
      </trkpt>
      <trkpt lat="47.33238" lon="-2.35587">
        <ele>53</ele>
        <time>2020-12-06T09:20:48.000Z</time>
      </trkpt>
      <trkpt lat="47.33269" lon="-2.35558">
        <ele>53</ele>
        <time>2020-12-06T09:20:56.000Z</time>
      </trkpt>
      <trkpt lat="47.33297" lon="-2.35525">
        <ele>53</ele>
        <time>2020-12-06T09:21:04.000Z</time>
      </trkpt>
      <trkpt lat="47.33309" lon="-2.35515">
        <ele>53</ele>
        <time>2020-12-06T09:21:07.000Z</time>
      </trkpt>
      <trkpt lat="47.33318" lon="-2.35509">
        <ele>53</ele>
        <time>2020-12-06T09:21:09.000Z</time>
      </trkpt>
      <trkpt lat="47.33323" lon="-2.35506">
        <ele>53</ele>
        <time>2020-12-06T09:21:10.000Z</time>
      </trkpt>
      <trkpt lat="47.33356" lon="-2.35489">
        <ele>53</ele>
        <time>2020-12-06T09:21:17.000Z</time>
      </trkpt>
      <trkpt lat="47.33368" lon="-2.35481">
        <ele>53</ele>
        <time>2020-12-06T09:21:20.000Z</time>
      </trkpt>
      <trkpt lat="47.33379" lon="-2.35473">
        <ele>53</ele>
        <time>2020-12-06T09:21:23.000Z</time>
      </trkpt>
      <trkpt lat="47.33396" lon="-2.35465">
        <ele>53</ele>
        <time>2020-12-06T09:21:27.000Z</time>
      </trkpt>
      <trkpt lat="47.33405" lon="-2.3546">
        <ele>53</ele>
        <time>2020-12-06T09:21:29.000Z</time>
      </trkpt>
      <trkpt lat="47.33432" lon="-2.35447">
        <ele>52.599998474121</ele>
        <time>2020-12-06T09:21:35.000Z</time>
      </trkpt>
      <trkpt lat="47.33437" lon="-2.35446">
        <ele>52</ele>
        <time>2020-12-06T09:21:36.000Z</time>
      </trkpt>
      <trkpt lat="47.33441" lon="-2.35444">
        <ele>51.599998474121</ele>
        <time>2020-12-06T09:21:37.000Z</time>
      </trkpt>
      <trkpt lat="47.33445" lon="-2.35441">
        <ele>51.200000762939</ele>
        <time>2020-12-06T09:21:38.000Z</time>
      </trkpt>
      <trkpt lat="47.33449" lon="-2.35438">
        <ele>50.799999237061</ele>
        <time>2020-12-06T09:21:39.000Z</time>
      </trkpt>
      <trkpt lat="47.33459" lon="-2.35431">
        <ele>50.799999237061</ele>
        <time>2020-12-06T09:21:42.000Z</time>
      </trkpt>
      <trkpt lat="47.33468" lon="-2.35422">
        <ele>50.799999237061</ele>
        <time>2020-12-06T09:21:46.000Z</time>
      </trkpt>
      <trkpt lat="47.33483" lon="-2.35416">
        <ele>50.799999237061</ele>
        <time>2020-12-06T09:21:51.000Z</time>
      </trkpt>
      <trkpt lat="47.33497" lon="-2.35411">
        <ele>50.799999237061</ele>
        <time>2020-12-06T09:21:54.000Z</time>
      </trkpt>
      <trkpt lat="47.33508" lon="-2.35408">
        <ele>50.799999237061</ele>
        <time>2020-12-06T09:21:56.000Z</time>
      </trkpt>
      <trkpt lat="47.33518" lon="-2.35402">
        <ele>50.799999237061</ele>
        <time>2020-12-06T09:21:58.000Z</time>
      </trkpt>
      <trkpt lat="47.33538" lon="-2.35392">
        <ele>50.799999237061</ele>
        <time>2020-12-06T09:22:02.000Z</time>
      </trkpt>
      <trkpt lat="47.33551" lon="-2.35386">
        <ele>50.799999237061</ele>
        <time>2020-12-06T09:22:05.000Z</time>
      </trkpt>
      <trkpt lat="47.33565" lon="-2.35381">
        <ele>50.799999237061</ele>
        <time>2020-12-06T09:22:08.000Z</time>
      </trkpt>
      <trkpt lat="47.33583" lon="-2.35374">
        <ele>50.799999237061</ele>
        <time>2020-12-06T09:22:12.000Z</time>
      </trkpt>
      <trkpt lat="47.33588" lon="-2.35372">
        <ele>50.799999237061</ele>
        <time>2020-12-06T09:22:13.000Z</time>
      </trkpt>
      <trkpt lat="47.33631" lon="-2.35364">
        <ele>50.799999237061</ele>
        <time>2020-12-06T09:22:21.000Z</time>
      </trkpt>
      <trkpt lat="47.33637" lon="-2.35366">
        <ele>50.799999237061</ele>
        <time>2020-12-06T09:22:22.000Z</time>
      </trkpt>
      <trkpt lat="47.33658" lon="-2.35365">
        <ele>50.799999237061</ele>
        <time>2020-12-06T09:22:26.000Z</time>
      </trkpt>
      <trkpt lat="47.33663" lon="-2.35366">
        <ele>50.799999237061</ele>
        <time>2020-12-06T09:22:27.000Z</time>
      </trkpt>
      <trkpt lat="47.33673" lon="-2.35364">
        <ele>50.799999237061</ele>
        <time>2020-12-06T09:22:29.000Z</time>
      </trkpt>
      <trkpt lat="47.33686" lon="-2.35363">
        <ele>50.799999237061</ele>
        <time>2020-12-06T09:22:32.000Z</time>
      </trkpt>
      <trkpt lat="47.33709" lon="-2.35361">
        <ele>50.799999237061</ele>
        <time>2020-12-06T09:22:37.000Z</time>
      </trkpt>
      <trkpt lat="47.33713" lon="-2.3536">
        <ele>50.799999237061</ele>
        <time>2020-12-06T09:22:38.000Z</time>
      </trkpt>
      <trkpt lat="47.33727" lon="-2.35356">
        <ele>50.799999237061</ele>
        <time>2020-12-06T09:22:41.000Z</time>
      </trkpt>
      <trkpt lat="47.33735" lon="-2.35356">
        <ele>50.799999237061</ele>
        <time>2020-12-06T09:22:43.000Z</time>
      </trkpt>
      <trkpt lat="47.33746" lon="-2.35354">
        <ele>50.799999237061</ele>
        <time>2020-12-06T09:22:45.000Z</time>
      </trkpt>
      <trkpt lat="47.33767" lon="-2.35351">
        <ele>50.799999237061</ele>
        <time>2020-12-06T09:22:49.000Z</time>
      </trkpt>
      <trkpt lat="47.33803" lon="-2.35347">
        <ele>50.799999237061</ele>
        <time>2020-12-06T09:22:56.000Z</time>
      </trkpt>
      <trkpt lat="47.3383" lon="-2.35339">
        <ele>50.799999237061</ele>
        <time>2020-12-06T09:23:01.000Z</time>
      </trkpt>
      <trkpt lat="47.33835" lon="-2.35336">
        <ele>50.799999237061</ele>
        <time>2020-12-06T09:23:02.000Z</time>
      </trkpt>
      <trkpt lat="47.33839" lon="-2.35332">
        <ele>50.799999237061</ele>
        <time>2020-12-06T09:23:03.000Z</time>
      </trkpt>
      <trkpt lat="47.33852" lon="-2.35319">
        <ele>50.799999237061</ele>
        <time>2020-12-06T09:23:06.000Z</time>
      </trkpt>
      <trkpt lat="47.33856" lon="-2.35314">
        <ele>50.799999237061</ele>
        <time>2020-12-06T09:23:07.000Z</time>
      </trkpt>
      <trkpt lat="47.33861" lon="-2.35311">
        <ele>50.799999237061</ele>
        <time>2020-12-06T09:23:08.000Z</time>
      </trkpt>
      <trkpt lat="47.33881" lon="-2.353">
        <ele>50.799999237061</ele>
        <time>2020-12-06T09:23:12.000Z</time>
      </trkpt>
      <trkpt lat="47.33912" lon="-2.35288">
        <ele>50.799999237061</ele>
        <time>2020-12-06T09:23:18.000Z</time>
      </trkpt>
      <trkpt lat="47.33939" lon="-2.35273">
        <ele>50.799999237061</ele>
        <time>2020-12-06T09:23:24.000Z</time>
      </trkpt>
      <trkpt lat="47.33943" lon="-2.3527">
        <ele>50.799999237061</ele>
        <time>2020-12-06T09:23:25.000Z</time>
      </trkpt>
      <trkpt lat="47.33956" lon="-2.35268">
        <ele>50.799999237061</ele>
        <time>2020-12-06T09:23:30.000Z</time>
      </trkpt>
      <trkpt lat="47.33958" lon="-2.3527">
        <ele>50.799999237061</ele>
        <time>2020-12-06T09:23:33.000Z</time>
      </trkpt>
      <trkpt lat="47.33958" lon="-2.35266">
        <ele>50.799999237061</ele>
        <time>2020-12-06T09:25:42.000Z</time>
      </trkpt>
      <trkpt lat="47.33955" lon="-2.35262">
        <ele>50.799999237061</ele>
        <time>2020-12-06T09:25:46.000Z</time>
      </trkpt>
      <trkpt lat="47.33953" lon="-2.35263">
        <ele>50.799999237061</ele>
        <time>2020-12-06T09:26:15.000Z</time>
      </trkpt>
      <trkpt lat="47.33942" lon="-2.35269">
        <ele>50.799999237061</ele>
        <time>2020-12-06T09:26:20.000Z</time>
      </trkpt>
      <trkpt lat="47.33937" lon="-2.35271">
        <ele>50.799999237061</ele>
        <time>2020-12-06T09:26:23.000Z</time>
      </trkpt>
      <trkpt lat="47.33937" lon="-2.3527">
        <ele>50.799999237061</ele>
        <time>2020-12-06T09:26:24.000Z</time>
      </trkpt>
      <trkpt lat="47.3394" lon="-2.35265">
        <ele>50.799999237061</ele>
        <time>2020-12-06T09:26:27.000Z</time>
      </trkpt>
      <trkpt lat="47.33942" lon="-2.35264">
        <ele>50.799999237061</ele>
        <time>2020-12-06T09:26:28.000Z</time>
      </trkpt>
      <trkpt lat="47.33944" lon="-2.35264">
        <ele>50.799999237061</ele>
        <time>2020-12-06T09:26:29.000Z</time>
      </trkpt>
      <trkpt lat="47.33955" lon="-2.35261">
        <ele>50.799999237061</ele>
        <time>2020-12-06T09:26:33.000Z</time>
      </trkpt>
      <trkpt lat="47.33966" lon="-2.35268">
        <ele>50.799999237061</ele>
        <time>2020-12-06T09:26:37.000Z</time>
      </trkpt>
      <trkpt lat="47.33984" lon="-2.35289">
        <ele>50.799999237061</ele>
        <time>2020-12-06T09:26:42.000Z</time>
      </trkpt>
      <trkpt lat="47.34011" lon="-2.35317">
        <ele>50.799999237061</ele>
        <time>2020-12-06T09:26:48.000Z</time>
      </trkpt>
      <trkpt lat="47.3402" lon="-2.35326">
        <ele>50.400001525879</ele>
        <time>2020-12-06T09:26:50.000Z</time>
      </trkpt>
      <trkpt lat="47.34025" lon="-2.3533">
        <ele>50</ele>
        <time>2020-12-06T09:26:51.000Z</time>
      </trkpt>
      <trkpt lat="47.34029" lon="-2.35335">
        <ele>49.599998474121</ele>
        <time>2020-12-06T09:26:52.000Z</time>
      </trkpt>
      <trkpt lat="47.34034" lon="-2.35339">
        <ele>49.200000762939</ele>
        <time>2020-12-06T09:26:53.000Z</time>
      </trkpt>
      <trkpt lat="47.34038" lon="-2.35343">
        <ele>48.799999237061</ele>
        <time>2020-12-06T09:26:54.000Z</time>
      </trkpt>
      <trkpt lat="47.34046" lon="-2.35352">
        <ele>48.799999237061</ele>
        <time>2020-12-06T09:26:56.000Z</time>
      </trkpt>
      <trkpt lat="47.34059" lon="-2.35373">
        <ele>48.799999237061</ele>
        <time>2020-12-06T09:27:00.000Z</time>
      </trkpt>
      <trkpt lat="47.34065" lon="-2.35384">
        <ele>48.799999237061</ele>
        <time>2020-12-06T09:27:02.000Z</time>
      </trkpt>
      <trkpt lat="47.3408" lon="-2.35422">
        <ele>48.799999237061</ele>
        <time>2020-12-06T09:27:08.000Z</time>
      </trkpt>
      <trkpt lat="47.34085" lon="-2.35436">
        <ele>48.400001525879</ele>
        <time>2020-12-06T09:27:10.000Z</time>
      </trkpt>
      <trkpt lat="47.34088" lon="-2.35442">
        <ele>48</ele>
        <time>2020-12-06T09:27:11.000Z</time>
      </trkpt>
      <trkpt lat="47.3409" lon="-2.35449">
        <ele>47.599998474121</ele>
        <time>2020-12-06T09:27:12.000Z</time>
      </trkpt>
      <trkpt lat="47.34093" lon="-2.35456">
        <ele>47.200000762939</ele>
        <time>2020-12-06T09:27:13.000Z</time>
      </trkpt>
      <trkpt lat="47.34095" lon="-2.35463">
        <ele>46.799999237061</ele>
        <time>2020-12-06T09:27:14.000Z</time>
      </trkpt>
      <trkpt lat="47.34103" lon="-2.35483">
        <ele>46.799999237061</ele>
        <time>2020-12-06T09:27:17.000Z</time>
      </trkpt>
      <trkpt lat="47.34121" lon="-2.35534">
        <ele>46.799999237061</ele>
        <time>2020-12-06T09:27:24.000Z</time>
      </trkpt>
      <trkpt lat="47.34126" lon="-2.35549">
        <ele>46.799999237061</ele>
        <time>2020-12-06T09:27:26.000Z</time>
      </trkpt>
      <trkpt lat="47.34131" lon="-2.35571">
        <ele>46.799999237061</ele>
        <time>2020-12-06T09:27:29.000Z</time>
      </trkpt>
      <trkpt lat="47.34146" lon="-2.35607">
        <ele>46.799999237061</ele>
        <time>2020-12-06T09:27:35.000Z</time>
      </trkpt>
      <trkpt lat="47.34172" lon="-2.35652">
        <ele>46.799999237061</ele>
        <time>2020-12-06T09:27:43.000Z</time>
      </trkpt>
      <trkpt lat="47.34193" lon="-2.35685">
        <ele>46.200000762939</ele>
        <time>2020-12-06T09:27:49.000Z</time>
      </trkpt>
      <trkpt lat="47.34196" lon="-2.35689">
        <ele>45.799999237061</ele>
        <time>2020-12-06T09:27:50.000Z</time>
      </trkpt>
      <trkpt lat="47.342" lon="-2.35692">
        <ele>45.400001525879</ele>
        <time>2020-12-06T09:27:51.000Z</time>
      </trkpt>
      <trkpt lat="47.34203" lon="-2.35695">
        <ele>45</ele>
        <time>2020-12-06T09:27:52.000Z</time>
      </trkpt>
      <trkpt lat="47.34205" lon="-2.35697">
        <ele>44.599998474121</ele>
        <time>2020-12-06T09:27:53.000Z</time>
      </trkpt>
      <trkpt lat="47.34207" lon="-2.35699">
        <ele>43.799999237061</ele>
        <time>2020-12-06T09:27:54.000Z</time>
      </trkpt>
      <trkpt lat="47.34207" lon="-2.35702">
        <ele>43.400001525879</ele>
        <time>2020-12-06T09:27:55.000Z</time>
      </trkpt>
      <trkpt lat="47.34207" lon="-2.35705">
        <ele>42.799999237061</ele>
        <time>2020-12-06T09:27:56.000Z</time>
      </trkpt>
      <trkpt lat="47.34207" lon="-2.35707">
        <ele>42.400001525879</ele>
        <time>2020-12-06T09:27:57.000Z</time>
      </trkpt>
      <trkpt lat="47.34208" lon="-2.35708">
        <ele>42.400001525879</ele>
        <time>2020-12-06T09:27:58.000Z</time>
      </trkpt>
      <trkpt lat="47.3421" lon="-2.35716">
        <ele>42</ele>
        <time>2020-12-06T09:28:01.000Z</time>
      </trkpt>
      <trkpt lat="47.34212" lon="-2.3572">
        <ele>41.400001525879</ele>
        <time>2020-12-06T09:28:02.000Z</time>
      </trkpt>
      <trkpt lat="47.34214" lon="-2.35724">
        <ele>41</ele>
        <time>2020-12-06T09:28:03.000Z</time>
      </trkpt>
      <trkpt lat="47.34218" lon="-2.35727">
        <ele>40.400001525879</ele>
        <time>2020-12-06T09:28:04.000Z</time>
      </trkpt>
      <trkpt lat="47.34221" lon="-2.35731">
        <ele>39.799999237061</ele>
        <time>2020-12-06T09:28:05.000Z</time>
      </trkpt>
      <trkpt lat="47.34224" lon="-2.35736">
        <ele>39.200000762939</ele>
        <time>2020-12-06T09:28:06.000Z</time>
      </trkpt>
      <trkpt lat="47.34226" lon="-2.35743">
        <ele>38.599998474121</ele>
        <time>2020-12-06T09:28:07.000Z</time>
      </trkpt>
      <trkpt lat="47.34227" lon="-2.35749">
        <ele>38</ele>
        <time>2020-12-06T09:28:08.000Z</time>
      </trkpt>
      <trkpt lat="47.34234" lon="-2.3578">
        <ele>38</ele>
        <time>2020-12-06T09:28:12.000Z</time>
      </trkpt>
      <trkpt lat="47.34249" lon="-2.35836">
        <ele>38</ele>
        <time>2020-12-06T09:28:19.000Z</time>
      </trkpt>
      <trkpt lat="47.34251" lon="-2.35851">
        <ele>38</ele>
        <time>2020-12-06T09:28:21.000Z</time>
      </trkpt>
      <trkpt lat="47.34252" lon="-2.35874">
        <ele>38</ele>
        <time>2020-12-06T09:28:24.000Z</time>
      </trkpt>
      <trkpt lat="47.34245" lon="-2.35913">
        <ele>38</ele>
        <time>2020-12-06T09:28:30.000Z</time>
      </trkpt>
      <trkpt lat="47.34243" lon="-2.3593">
        <ele>38</ele>
        <time>2020-12-06T09:28:35.000Z</time>
      </trkpt>
      <trkpt lat="47.34242" lon="-2.35933">
        <ele>38</ele>
        <time>2020-12-06T09:28:37.000Z</time>
      </trkpt>
      <trkpt lat="47.34242" lon="-2.35934">
        <ele>38</ele>
        <time>2020-12-06T09:28:38.000Z</time>
      </trkpt>
      <trkpt lat="47.34243" lon="-2.35938">
        <ele>38</ele>
        <time>2020-12-06T09:29:23.000Z</time>
      </trkpt>
      <trkpt lat="47.34244" lon="-2.3594">
        <ele>38</ele>
        <time>2020-12-06T09:29:24.000Z</time>
      </trkpt>
      <trkpt lat="47.34254" lon="-2.35944">
        <ele>38</ele>
        <time>2020-12-06T09:29:28.000Z</time>
      </trkpt>
      <trkpt lat="47.34262" lon="-2.35945">
        <ele>38</ele>
        <time>2020-12-06T09:29:31.000Z</time>
      </trkpt>
      <trkpt lat="47.34268" lon="-2.35945">
        <ele>38</ele>
        <time>2020-12-06T09:29:33.000Z</time>
      </trkpt>
      <trkpt lat="47.34278" lon="-2.35944">
        <ele>38.400001525879</ele>
        <time>2020-12-06T09:29:36.000Z</time>
      </trkpt>
      <trkpt lat="47.34281" lon="-2.35944">
        <ele>38.799999237061</ele>
        <time>2020-12-06T09:29:37.000Z</time>
      </trkpt>
      <trkpt lat="47.34284" lon="-2.35944">
        <ele>39.200000762939</ele>
        <time>2020-12-06T09:29:38.000Z</time>
      </trkpt>
      <trkpt lat="47.34287" lon="-2.35945">
        <ele>39.599998474121</ele>
        <time>2020-12-06T09:29:39.000Z</time>
      </trkpt>
      <trkpt lat="47.3429" lon="-2.35946">
        <ele>40</ele>
        <time>2020-12-06T09:29:40.000Z</time>
      </trkpt>
      <trkpt lat="47.34299" lon="-2.35948">
        <ele>40.400001525879</ele>
        <time>2020-12-06T09:29:43.000Z</time>
      </trkpt>
      <trkpt lat="47.34303" lon="-2.35949">
        <ele>40.799999237061</ele>
        <time>2020-12-06T09:29:44.000Z</time>
      </trkpt>
      <trkpt lat="47.34307" lon="-2.35949">
        <ele>41.200000762939</ele>
        <time>2020-12-06T09:29:45.000Z</time>
      </trkpt>
      <trkpt lat="47.3431" lon="-2.3595">
        <ele>41.599998474121</ele>
        <time>2020-12-06T09:29:46.000Z</time>
      </trkpt>
      <trkpt lat="47.34314" lon="-2.35951">
        <ele>42</ele>
        <time>2020-12-06T09:29:47.000Z</time>
      </trkpt>
      <trkpt lat="47.34335" lon="-2.35959">
        <ele>42</ele>
        <time>2020-12-06T09:29:53.000Z</time>
      </trkpt>
      <trkpt lat="47.34349" lon="-2.35967">
        <ele>42.400001525879</ele>
        <time>2020-12-06T09:29:57.000Z</time>
      </trkpt>
      <trkpt lat="47.34353" lon="-2.35969">
        <ele>43.400001525879</ele>
        <time>2020-12-06T09:29:58.000Z</time>
      </trkpt>
      <trkpt lat="47.34356" lon="-2.35971">
        <ele>43.799999237061</ele>
        <time>2020-12-06T09:29:59.000Z</time>
      </trkpt>
      <trkpt lat="47.3436" lon="-2.35973">
        <ele>44.200000762939</ele>
        <time>2020-12-06T09:30:00.000Z</time>
      </trkpt>
      <trkpt lat="47.34384" lon="-2.35984">
        <ele>44.200000762939</ele>
        <time>2020-12-06T09:30:06.000Z</time>
      </trkpt>
      <trkpt lat="47.34406" lon="-2.35999">
        <ele>44.200000762939</ele>
        <time>2020-12-06T09:30:12.000Z</time>
      </trkpt>
      <trkpt lat="47.34416" lon="-2.3602">
        <ele>44.200000762939</ele>
        <time>2020-12-06T09:30:16.000Z</time>
      </trkpt>
      <trkpt lat="47.34417" lon="-2.36026">
        <ele>44.200000762939</ele>
        <time>2020-12-06T09:30:17.000Z</time>
      </trkpt>
      <trkpt lat="47.34423" lon="-2.36046">
        <ele>44.200000762939</ele>
        <time>2020-12-06T09:30:20.000Z</time>
      </trkpt>
      <trkpt lat="47.34426" lon="-2.36059">
        <ele>44.200000762939</ele>
        <time>2020-12-06T09:30:22.000Z</time>
      </trkpt>
      <trkpt lat="47.3443" lon="-2.36073">
        <ele>44.200000762939</ele>
        <time>2020-12-06T09:30:24.000Z</time>
      </trkpt>
      <trkpt lat="47.34434" lon="-2.36086">
        <ele>44.200000762939</ele>
        <time>2020-12-06T09:30:26.000Z</time>
      </trkpt>
      <trkpt lat="47.34445" lon="-2.36117">
        <ele>44.200000762939</ele>
        <time>2020-12-06T09:30:31.000Z</time>
      </trkpt>
      <trkpt lat="47.34458" lon="-2.36154">
        <ele>43.799999237061</ele>
        <time>2020-12-06T09:30:36.000Z</time>
      </trkpt>
      <trkpt lat="47.34461" lon="-2.36161">
        <ele>43.400001525879</ele>
        <time>2020-12-06T09:30:37.000Z</time>
      </trkpt>
      <trkpt lat="47.34465" lon="-2.36169">
        <ele>43</ele>
        <time>2020-12-06T09:30:38.000Z</time>
      </trkpt>
      <trkpt lat="47.34469" lon="-2.36176">
        <ele>42.599998474121</ele>
        <time>2020-12-06T09:30:39.000Z</time>
      </trkpt>
      <trkpt lat="47.34472" lon="-2.36183">
        <ele>42.200000762939</ele>
        <time>2020-12-06T09:30:40.000Z</time>
      </trkpt>
      <trkpt lat="47.34484" lon="-2.36203">
        <ele>42.200000762939</ele>
        <time>2020-12-06T09:30:43.000Z</time>
      </trkpt>
      <trkpt lat="47.34499" lon="-2.36227">
        <ele>42.200000762939</ele>
        <time>2020-12-06T09:30:47.000Z</time>
      </trkpt>
      <trkpt lat="47.34505" lon="-2.36242">
        <ele>42.200000762939</ele>
        <time>2020-12-06T09:30:49.000Z</time>
      </trkpt>
      <trkpt lat="47.34511" lon="-2.36259">
        <ele>42.200000762939</ele>
        <time>2020-12-06T09:30:51.000Z</time>
      </trkpt>
      <trkpt lat="47.34517" lon="-2.36283">
        <ele>42.200000762939</ele>
        <time>2020-12-06T09:30:54.000Z</time>
      </trkpt>
      <trkpt lat="47.34534" lon="-2.36334">
        <ele>42.200000762939</ele>
        <time>2020-12-06T09:31:01.000Z</time>
      </trkpt>
      <trkpt lat="47.34549" lon="-2.36371">
        <ele>42.200000762939</ele>
        <time>2020-12-06T09:31:07.000Z</time>
      </trkpt>
      <trkpt lat="47.34569" lon="-2.36404">
        <ele>42.200000762939</ele>
        <time>2020-12-06T09:31:13.000Z</time>
      </trkpt>
      <trkpt lat="47.34591" lon="-2.36435">
        <ele>42.200000762939</ele>
        <time>2020-12-06T09:31:20.000Z</time>
      </trkpt>
      <trkpt lat="47.34599" lon="-2.36438">
        <ele>42.200000762939</ele>
        <time>2020-12-06T09:31:22.000Z</time>
      </trkpt>
      <trkpt lat="47.34604" lon="-2.36438">
        <ele>42.200000762939</ele>
        <time>2020-12-06T09:31:23.000Z</time>
      </trkpt>
      <trkpt lat="47.34608" lon="-2.36436">
        <ele>42.599998474121</ele>
        <time>2020-12-06T09:31:24.000Z</time>
      </trkpt>
      <trkpt lat="47.34612" lon="-2.36434">
        <ele>43</ele>
        <time>2020-12-06T09:31:25.000Z</time>
      </trkpt>
      <trkpt lat="47.34616" lon="-2.36432">
        <ele>43.400001525879</ele>
        <time>2020-12-06T09:31:26.000Z</time>
      </trkpt>
      <trkpt lat="47.3462" lon="-2.36429">
        <ele>44</ele>
        <time>2020-12-06T09:31:27.000Z</time>
      </trkpt>
      <trkpt lat="47.34625" lon="-2.36425">
        <ele>44.400001525879</ele>
        <time>2020-12-06T09:31:28.000Z</time>
      </trkpt>
      <trkpt lat="47.3464" lon="-2.36416">
        <ele>44.400001525879</ele>
        <time>2020-12-06T09:31:31.000Z</time>
      </trkpt>
      <trkpt lat="47.3465" lon="-2.36411">
        <ele>44.400001525879</ele>
        <time>2020-12-06T09:31:33.000Z</time>
      </trkpt>
      <trkpt lat="47.34654" lon="-2.36409">
        <ele>44.400001525879</ele>
        <time>2020-12-06T09:31:34.000Z</time>
      </trkpt>
      <trkpt lat="47.34664" lon="-2.36404">
        <ele>45.200000762939</ele>
        <time>2020-12-06T09:31:36.000Z</time>
      </trkpt>
      <trkpt lat="47.34668" lon="-2.36401">
        <ele>45.799999237061</ele>
        <time>2020-12-06T09:31:37.000Z</time>
      </trkpt>
      <trkpt lat="47.34673" lon="-2.36399">
        <ele>46.200000762939</ele>
        <time>2020-12-06T09:31:38.000Z</time>
      </trkpt>
      <trkpt lat="47.34677" lon="-2.36396">
        <ele>46.599998474121</ele>
        <time>2020-12-06T09:31:39.000Z</time>
      </trkpt>
      <trkpt lat="47.34687" lon="-2.36393">
        <ele>46.599998474121</ele>
        <time>2020-12-06T09:31:41.000Z</time>
      </trkpt>
      <trkpt lat="47.34716" lon="-2.36382">
        <ele>46.599998474121</ele>
        <time>2020-12-06T09:31:47.000Z</time>
      </trkpt>
      <trkpt lat="47.34746" lon="-2.36366">
        <ele>47</ele>
        <time>2020-12-06T09:31:53.000Z</time>
      </trkpt>
      <trkpt lat="47.34751" lon="-2.36364">
        <ele>47.599998474121</ele>
        <time>2020-12-06T09:31:54.000Z</time>
      </trkpt>
      <trkpt lat="47.34756" lon="-2.36361">
        <ele>48</ele>
        <time>2020-12-06T09:31:55.000Z</time>
      </trkpt>
      <trkpt lat="47.34761" lon="-2.36358">
        <ele>48.400001525879</ele>
        <time>2020-12-06T09:31:56.000Z</time>
      </trkpt>
      <trkpt lat="47.34766" lon="-2.36355">
        <ele>48.799999237061</ele>
        <time>2020-12-06T09:31:57.000Z</time>
      </trkpt>
      <trkpt lat="47.34781" lon="-2.36344">
        <ele>48.799999237061</ele>
        <time>2020-12-06T09:32:00.000Z</time>
      </trkpt>
      <trkpt lat="47.34829" lon="-2.36315">
        <ele>48.799999237061</ele>
        <time>2020-12-06T09:32:09.000Z</time>
      </trkpt>
      <trkpt lat="47.34851" lon="-2.36328">
        <ele>48.799999237061</ele>
        <time>2020-12-06T09:32:13.000Z</time>
      </trkpt>
      <trkpt lat="47.34862" lon="-2.36334">
        <ele>48.799999237061</ele>
        <time>2020-12-06T09:32:15.000Z</time>
      </trkpt>
      <trkpt lat="47.34877" lon="-2.36345">
        <ele>48.799999237061</ele>
        <time>2020-12-06T09:32:18.000Z</time>
      </trkpt>
      <trkpt lat="47.34881" lon="-2.36348">
        <ele>48.799999237061</ele>
        <time>2020-12-06T09:32:19.000Z</time>
      </trkpt>
      <trkpt lat="47.34918" lon="-2.36371">
        <ele>48.799999237061</ele>
        <time>2020-12-06T09:32:26.000Z</time>
      </trkpt>
      <trkpt lat="47.34952" lon="-2.36393">
        <ele>48.799999237061</ele>
        <time>2020-12-06T09:32:32.000Z</time>
      </trkpt>
      <trkpt lat="47.34959" lon="-2.36397">
        <ele>48.400001525879</ele>
        <time>2020-12-06T09:32:33.000Z</time>
      </trkpt>
      <trkpt lat="47.34965" lon="-2.36401">
        <ele>48</ele>
        <time>2020-12-06T09:32:34.000Z</time>
      </trkpt>
      <trkpt lat="47.34972" lon="-2.36405">
        <ele>47.400001525879</ele>
        <time>2020-12-06T09:32:35.000Z</time>
      </trkpt>
      <trkpt lat="47.34979" lon="-2.36409">
        <ele>47</ele>
        <time>2020-12-06T09:32:36.000Z</time>
      </trkpt>
      <trkpt lat="47.34986" lon="-2.36412">
        <ele>46.599998474121</ele>
        <time>2020-12-06T09:32:37.000Z</time>
      </trkpt>
      <trkpt lat="47.34993" lon="-2.36417">
        <ele>46</ele>
        <time>2020-12-06T09:32:38.000Z</time>
      </trkpt>
      <trkpt lat="47.34999" lon="-2.36422">
        <ele>45.599998474121</ele>
        <time>2020-12-06T09:32:39.000Z</time>
      </trkpt>
      <trkpt lat="47.35004" lon="-2.36429">
        <ele>45</ele>
        <time>2020-12-06T09:32:40.000Z</time>
      </trkpt>
      <trkpt lat="47.35008" lon="-2.36436">
        <ele>44.599998474121</ele>
        <time>2020-12-06T09:32:41.000Z</time>
      </trkpt>
      <trkpt lat="47.35014" lon="-2.36452">
        <ele>44</ele>
        <time>2020-12-06T09:32:43.000Z</time>
      </trkpt>
      <trkpt lat="47.35017" lon="-2.36461">
        <ele>43.599998474121</ele>
        <time>2020-12-06T09:32:44.000Z</time>
      </trkpt>
      <trkpt lat="47.35019" lon="-2.3647">
        <ele>43.200000762939</ele>
        <time>2020-12-06T09:32:45.000Z</time>
      </trkpt>
      <trkpt lat="47.35022" lon="-2.36478">
        <ele>42.599998474121</ele>
        <time>2020-12-06T09:32:46.000Z</time>
      </trkpt>
      <trkpt lat="47.35025" lon="-2.36486">
        <ele>42.200000762939</ele>
        <time>2020-12-06T09:32:47.000Z</time>
      </trkpt>
      <trkpt lat="47.35032" lon="-2.36501">
        <ele>42.200000762939</ele>
        <time>2020-12-06T09:32:49.000Z</time>
      </trkpt>
      <trkpt lat="47.3504" lon="-2.36515">
        <ele>42.200000762939</ele>
        <time>2020-12-06T09:32:51.000Z</time>
      </trkpt>
      <trkpt lat="47.35054" lon="-2.36539">
        <ele>42.200000762939</ele>
        <time>2020-12-06T09:32:55.000Z</time>
      </trkpt>
      <trkpt lat="47.3506" lon="-2.36553">
        <ele>42.200000762939</ele>
        <time>2020-12-06T09:32:57.000Z</time>
      </trkpt>
      <trkpt lat="47.35077" lon="-2.36598">
        <ele>42.200000762939</ele>
        <time>2020-12-06T09:33:03.000Z</time>
      </trkpt>
      <trkpt lat="47.35083" lon="-2.36613">
        <ele>42.599998474121</ele>
        <time>2020-12-06T09:33:05.000Z</time>
      </trkpt>
      <trkpt lat="47.35085" lon="-2.3662">
        <ele>43</ele>
        <time>2020-12-06T09:33:06.000Z</time>
      </trkpt>
      <trkpt lat="47.35088" lon="-2.36628">
        <ele>43.400001525879</ele>
        <time>2020-12-06T09:33:07.000Z</time>
      </trkpt>
      <trkpt lat="47.3509" lon="-2.36635">
        <ele>43.799999237061</ele>
        <time>2020-12-06T09:33:08.000Z</time>
      </trkpt>
      <trkpt lat="47.35092" lon="-2.36643">
        <ele>44.400001525879</ele>
        <time>2020-12-06T09:33:09.000Z</time>
      </trkpt>
      <trkpt lat="47.35095" lon="-2.3665">
        <ele>44.400001525879</ele>
        <time>2020-12-06T09:33:10.000Z</time>
      </trkpt>
      <trkpt lat="47.35107" lon="-2.36694">
        <ele>44.400001525879</ele>
        <time>2020-12-06T09:33:16.000Z</time>
      </trkpt>
      <trkpt lat="47.35122" lon="-2.36752">
        <ele>44.799999237061</ele>
        <time>2020-12-06T09:33:24.000Z</time>
      </trkpt>
      <trkpt lat="47.35124" lon="-2.3676">
        <ele>45.200000762939</ele>
        <time>2020-12-06T09:33:25.000Z</time>
      </trkpt>
      <trkpt lat="47.35125" lon="-2.36766">
        <ele>45.599998474121</ele>
        <time>2020-12-06T09:33:26.000Z</time>
      </trkpt>
      <trkpt lat="47.35127" lon="-2.36773">
        <ele>46</ele>
        <time>2020-12-06T09:33:27.000Z</time>
      </trkpt>
      <trkpt lat="47.35128" lon="-2.3678">
        <ele>46.400001525879</ele>
        <time>2020-12-06T09:33:28.000Z</time>
      </trkpt>
      <trkpt lat="47.35133" lon="-2.36802">
        <ele>46.400001525879</ele>
        <time>2020-12-06T09:33:31.000Z</time>
      </trkpt>
      <trkpt lat="47.35143" lon="-2.36848">
        <ele>46.400001525879</ele>
        <time>2020-12-06T09:33:38.000Z</time>
      </trkpt>
      <trkpt lat="47.35146" lon="-2.36858">
        <ele>46.400001525879</ele>
        <time>2020-12-06T09:33:42.000Z</time>
      </trkpt>
      <trkpt lat="47.35151" lon="-2.36888">
        <ele>46.400001525879</ele>
        <time>2020-12-06T09:33:49.000Z</time>
      </trkpt>
      <trkpt lat="47.35154" lon="-2.36893">
        <ele>46.400001525879</ele>
        <time>2020-12-06T09:33:50.000Z</time>
      </trkpt>
      <trkpt lat="47.35163" lon="-2.36917">
        <ele>46.400001525879</ele>
        <time>2020-12-06T09:33:54.000Z</time>
      </trkpt>
      <trkpt lat="47.3517" lon="-2.36934">
        <ele>46.400001525879</ele>
        <time>2020-12-06T09:33:57.000Z</time>
      </trkpt>
      <trkpt lat="47.35178" lon="-2.3695">
        <ele>46.400001525879</ele>
        <time>2020-12-06T09:34:00.000Z</time>
      </trkpt>
      <trkpt lat="47.35197" lon="-2.36989">
        <ele>46.400001525879</ele>
        <time>2020-12-06T09:34:07.000Z</time>
      </trkpt>
      <trkpt lat="47.35204" lon="-2.37008">
        <ele>46.799999237061</ele>
        <time>2020-12-06T09:34:10.000Z</time>
      </trkpt>
      <trkpt lat="47.35207" lon="-2.37015">
        <ele>47.200000762939</ele>
        <time>2020-12-06T09:34:11.000Z</time>
      </trkpt>
      <trkpt lat="47.35209" lon="-2.37022">
        <ele>47.599998474121</ele>
        <time>2020-12-06T09:34:12.000Z</time>
      </trkpt>
      <trkpt lat="47.3521" lon="-2.3703">
        <ele>48</ele>
        <time>2020-12-06T09:34:13.000Z</time>
      </trkpt>
      <trkpt lat="47.35212" lon="-2.37037">
        <ele>48.400001525879</ele>
        <time>2020-12-06T09:34:14.000Z</time>
      </trkpt>
      <trkpt lat="47.35216" lon="-2.37052">
        <ele>48.400001525879</ele>
        <time>2020-12-06T09:34:16.000Z</time>
      </trkpt>
      <trkpt lat="47.35221" lon="-2.37075">
        <ele>48.400001525879</ele>
        <time>2020-12-06T09:34:19.000Z</time>
      </trkpt>
      <trkpt lat="47.35229" lon="-2.37122">
        <ele>48.400001525879</ele>
        <time>2020-12-06T09:34:25.000Z</time>
      </trkpt>
      <trkpt lat="47.35242" lon="-2.37164">
        <ele>48.400001525879</ele>
        <time>2020-12-06T09:34:31.000Z</time>
      </trkpt>
      <trkpt lat="47.35247" lon="-2.37175">
        <ele>48.400001525879</ele>
        <time>2020-12-06T09:34:33.000Z</time>
      </trkpt>
      <trkpt lat="47.35257" lon="-2.37189">
        <ele>48.400001525879</ele>
        <time>2020-12-06T09:34:36.000Z</time>
      </trkpt>
      <trkpt lat="47.35263" lon="-2.37198">
        <ele>48</ele>
        <time>2020-12-06T09:34:38.000Z</time>
      </trkpt>
      <trkpt lat="47.35266" lon="-2.37202">
        <ele>47.599998474121</ele>
        <time>2020-12-06T09:34:39.000Z</time>
      </trkpt>
      <trkpt lat="47.35269" lon="-2.37207">
        <ele>47.200000762939</ele>
        <time>2020-12-06T09:34:40.000Z</time>
      </trkpt>
      <trkpt lat="47.35271" lon="-2.37211">
        <ele>46.599998474121</ele>
        <time>2020-12-06T09:34:41.000Z</time>
      </trkpt>
      <trkpt lat="47.35274" lon="-2.37215">
        <ele>46.200000762939</ele>
        <time>2020-12-06T09:34:42.000Z</time>
      </trkpt>
      <trkpt lat="47.35276" lon="-2.37218">
        <ele>46.200000762939</ele>
        <time>2020-12-06T09:34:43.000Z</time>
      </trkpt>
      <trkpt lat="47.35281" lon="-2.37233">
        <ele>46.200000762939</ele>
        <time>2020-12-06T09:34:47.000Z</time>
      </trkpt>
      <trkpt lat="47.35282" lon="-2.3726">
        <ele>46.200000762939</ele>
        <time>2020-12-06T09:34:52.000Z</time>
      </trkpt>
      <trkpt lat="47.35282" lon="-2.3729">
        <ele>46.200000762939</ele>
        <time>2020-12-06T09:34:58.000Z</time>
      </trkpt>
      <trkpt lat="47.35282" lon="-2.37322">
        <ele>46.200000762939</ele>
        <time>2020-12-06T09:35:04.000Z</time>
      </trkpt>
      <trkpt lat="47.35285" lon="-2.37366">
        <ele>46.200000762939</ele>
        <time>2020-12-06T09:35:11.000Z</time>
      </trkpt>
      <trkpt lat="47.35285" lon="-2.37379">
        <ele>46.200000762939</ele>
        <time>2020-12-06T09:35:13.000Z</time>
      </trkpt>
      <trkpt lat="47.35286" lon="-2.37415">
        <ele>46.200000762939</ele>
        <time>2020-12-06T09:35:18.000Z</time>
      </trkpt>
      <trkpt lat="47.35289" lon="-2.3746">
        <ele>46.200000762939</ele>
        <time>2020-12-06T09:35:24.000Z</time>
      </trkpt>
      <trkpt lat="47.35291" lon="-2.37469">
        <ele>46.200000762939</ele>
        <time>2020-12-06T09:35:25.000Z</time>
      </trkpt>
      <trkpt lat="47.35297" lon="-2.37504">
        <ele>45.799999237061</ele>
        <time>2020-12-06T09:35:29.000Z</time>
      </trkpt>
      <trkpt lat="47.35299" lon="-2.37513">
        <ele>45.400001525879</ele>
        <time>2020-12-06T09:35:30.000Z</time>
      </trkpt>
      <trkpt lat="47.35301" lon="-2.37521">
        <ele>44.799999237061</ele>
        <time>2020-12-06T09:35:31.000Z</time>
      </trkpt>
      <trkpt lat="47.35303" lon="-2.3753">
        <ele>44.400001525879</ele>
        <time>2020-12-06T09:35:32.000Z</time>
      </trkpt>
      <trkpt lat="47.35304" lon="-2.37538">
        <ele>44</ele>
        <time>2020-12-06T09:35:33.000Z</time>
      </trkpt>
      <trkpt lat="47.35314" lon="-2.37581">
        <ele>44</ele>
        <time>2020-12-06T09:35:38.000Z</time>
      </trkpt>
      <trkpt lat="47.3533" lon="-2.37643">
        <ele>44</ele>
        <time>2020-12-06T09:35:46.000Z</time>
      </trkpt>
      <trkpt lat="47.35338" lon="-2.37673">
        <ele>44</ele>
        <time>2020-12-06T09:35:50.000Z</time>
      </trkpt>
      <trkpt lat="47.35342" lon="-2.37688">
        <ele>44</ele>
        <time>2020-12-06T09:35:52.000Z</time>
      </trkpt>
      <trkpt lat="47.3535" lon="-2.3772">
        <ele>43.599998474121</ele>
        <time>2020-12-06T09:35:56.000Z</time>
      </trkpt>
      <trkpt lat="47.35352" lon="-2.37729">
        <ele>43.200000762939</ele>
        <time>2020-12-06T09:35:57.000Z</time>
      </trkpt>
      <trkpt lat="47.35354" lon="-2.37737">
        <ele>42.799999237061</ele>
        <time>2020-12-06T09:35:58.000Z</time>
      </trkpt>
      <trkpt lat="47.35356" lon="-2.37745">
        <ele>42.400001525879</ele>
        <time>2020-12-06T09:35:59.000Z</time>
      </trkpt>
      <trkpt lat="47.35358" lon="-2.37752">
        <ele>42</ele>
        <time>2020-12-06T09:36:00.000Z</time>
      </trkpt>
      <trkpt lat="47.35362" lon="-2.37773">
        <ele>42</ele>
        <time>2020-12-06T09:36:04.000Z</time>
      </trkpt>
      <trkpt lat="47.35369" lon="-2.37799">
        <ele>42</ele>
        <time>2020-12-06T09:36:10.000Z</time>
      </trkpt>
      <trkpt lat="47.3538" lon="-2.37834">
        <ele>42</ele>
        <time>2020-12-06T09:36:16.000Z</time>
      </trkpt>
      <trkpt lat="47.35392" lon="-2.37879">
        <ele>42</ele>
        <time>2020-12-06T09:36:23.000Z</time>
      </trkpt>
      <trkpt lat="47.35405" lon="-2.37922">
        <ele>42</ele>
        <time>2020-12-06T09:36:30.000Z</time>
      </trkpt>
      <trkpt lat="47.35416" lon="-2.37961">
        <ele>42</ele>
        <time>2020-12-06T09:36:37.000Z</time>
      </trkpt>
      <trkpt lat="47.35417" lon="-2.37966">
        <ele>42</ele>
        <time>2020-12-06T09:36:38.000Z</time>
      </trkpt>
      <trkpt lat="47.35424" lon="-2.37989">
        <ele>42</ele>
        <time>2020-12-06T09:36:42.000Z</time>
      </trkpt>
      <trkpt lat="47.35438" lon="-2.38038">
        <ele>42</ele>
        <time>2020-12-06T09:36:50.000Z</time>
      </trkpt>
      <trkpt lat="47.3545" lon="-2.38068">
        <ele>42</ele>
        <time>2020-12-06T09:36:56.000Z</time>
      </trkpt>
      <trkpt lat="47.35453" lon="-2.38075">
        <ele>42</ele>
        <time>2020-12-06T09:36:59.000Z</time>
      </trkpt>
      <trkpt lat="47.35452" lon="-2.38077">
        <ele>42</ele>
        <time>2020-12-06T09:37:00.000Z</time>
      </trkpt>
      <trkpt lat="47.35445" lon="-2.38084">
        <ele>42</ele>
        <time>2020-12-06T09:37:03.000Z</time>
      </trkpt>
      <trkpt lat="47.35439" lon="-2.3809">
        <ele>42</ele>
        <time>2020-12-06T09:37:05.000Z</time>
      </trkpt>
      <trkpt lat="47.35417" lon="-2.38119">
        <ele>42</ele>
        <time>2020-12-06T09:37:11.000Z</time>
      </trkpt>
      <trkpt lat="47.35388" lon="-2.38162">
        <ele>42</ele>
        <time>2020-12-06T09:37:18.000Z</time>
      </trkpt>
      <trkpt lat="47.35362" lon="-2.382">
        <ele>42</ele>
        <time>2020-12-06T09:37:24.000Z</time>
      </trkpt>
      <trkpt lat="47.35344" lon="-2.38224">
        <ele>41.599998474121</ele>
        <time>2020-12-06T09:37:28.000Z</time>
      </trkpt>
      <trkpt lat="47.3534" lon="-2.3823">
        <ele>41.200000762939</ele>
        <time>2020-12-06T09:37:29.000Z</time>
      </trkpt>
      <trkpt lat="47.35336" lon="-2.38236">
        <ele>40.799999237061</ele>
        <time>2020-12-06T09:37:30.000Z</time>
      </trkpt>
      <trkpt lat="47.35332" lon="-2.38242">
        <ele>40.400001525879</ele>
        <time>2020-12-06T09:37:31.000Z</time>
      </trkpt>
      <trkpt lat="47.35328" lon="-2.38248">
        <ele>40</ele>
        <time>2020-12-06T09:37:32.000Z</time>
      </trkpt>
      <trkpt lat="47.35296" lon="-2.38292">
        <ele>40</ele>
        <time>2020-12-06T09:37:39.000Z</time>
      </trkpt>
      <trkpt lat="47.35259" lon="-2.38341">
        <ele>39</ele>
        <time>2020-12-06T09:37:47.000Z</time>
      </trkpt>
      <trkpt lat="47.35255" lon="-2.38348">
        <ele>38.599998474121</ele>
        <time>2020-12-06T09:37:48.000Z</time>
      </trkpt>
      <trkpt lat="47.35251" lon="-2.38355">
        <ele>38.200000762939</ele>
        <time>2020-12-06T09:37:49.000Z</time>
      </trkpt>
      <trkpt lat="47.35247" lon="-2.38361">
        <ele>37.599998474121</ele>
        <time>2020-12-06T09:37:50.000Z</time>
      </trkpt>
      <trkpt lat="47.35238" lon="-2.38373">
        <ele>37.599998474121</ele>
        <time>2020-12-06T09:37:52.000Z</time>
      </trkpt>
      <trkpt lat="47.35209" lon="-2.38412">
        <ele>37.599998474121</ele>
        <time>2020-12-06T09:37:59.000Z</time>
      </trkpt>
      <trkpt lat="47.35188" lon="-2.3844">
        <ele>37.599998474121</ele>
        <time>2020-12-06T09:38:04.000Z</time>
      </trkpt>
      <trkpt lat="47.35184" lon="-2.38446">
        <ele>37.599998474121</ele>
        <time>2020-12-06T09:38:05.000Z</time>
      </trkpt>
      <trkpt lat="47.35154" lon="-2.38489">
        <ele>37.599998474121</ele>
        <time>2020-12-06T09:38:13.000Z</time>
      </trkpt>
      <trkpt lat="47.35134" lon="-2.38525">
        <ele>37.599998474121</ele>
        <time>2020-12-06T09:38:19.000Z</time>
      </trkpt>
      <trkpt lat="47.35114" lon="-2.38571">
        <ele>37.599998474121</ele>
        <time>2020-12-06T09:38:26.000Z</time>
      </trkpt>
      <trkpt lat="47.35093" lon="-2.38616">
        <ele>37.599998474121</ele>
        <time>2020-12-06T09:38:33.000Z</time>
      </trkpt>
      <trkpt lat="47.35071" lon="-2.38659">
        <ele>37.599998474121</ele>
        <time>2020-12-06T09:38:40.000Z</time>
      </trkpt>
      <trkpt lat="47.35049" lon="-2.38705">
        <ele>37.599998474121</ele>
        <time>2020-12-06T09:38:47.000Z</time>
      </trkpt>
      <trkpt lat="47.35022" lon="-2.38759">
        <ele>37.599998474121</ele>
        <time>2020-12-06T09:38:55.000Z</time>
      </trkpt>
      <trkpt lat="47.34995" lon="-2.38787">
        <ele>37.599998474121</ele>
        <time>2020-12-06T09:39:01.000Z</time>
      </trkpt>
      <trkpt lat="47.34972" lon="-2.38816">
        <ele>37.599998474121</ele>
        <time>2020-12-06T09:39:06.000Z</time>
      </trkpt>
      <trkpt lat="47.34949" lon="-2.38854">
        <ele>37.599998474121</ele>
        <time>2020-12-06T09:39:12.000Z</time>
      </trkpt>
      <trkpt lat="47.34927" lon="-2.38891">
        <ele>37.599998474121</ele>
        <time>2020-12-06T09:39:18.000Z</time>
      </trkpt>
      <trkpt lat="47.34925" lon="-2.38897">
        <ele>37.599998474121</ele>
        <time>2020-12-06T09:39:19.000Z</time>
      </trkpt>
      <trkpt lat="47.34925" lon="-2.3891">
        <ele>37.599998474121</ele>
        <time>2020-12-06T09:39:21.000Z</time>
      </trkpt>
      <trkpt lat="47.34935" lon="-2.38932">
        <ele>37.599998474121</ele>
        <time>2020-12-06T09:39:25.000Z</time>
      </trkpt>
      <trkpt lat="47.34941" lon="-2.38944">
        <ele>38</ele>
        <time>2020-12-06T09:39:27.000Z</time>
      </trkpt>
      <trkpt lat="47.34943" lon="-2.3895">
        <ele>38.400001525879</ele>
        <time>2020-12-06T09:39:28.000Z</time>
      </trkpt>
      <trkpt lat="47.34946" lon="-2.38956">
        <ele>38.799999237061</ele>
        <time>2020-12-06T09:39:29.000Z</time>
      </trkpt>
      <trkpt lat="47.34949" lon="-2.38961">
        <ele>39.400001525879</ele>
        <time>2020-12-06T09:39:30.000Z</time>
      </trkpt>
      <trkpt lat="47.34952" lon="-2.38967">
        <ele>39.799999237061</ele>
        <time>2020-12-06T09:39:31.000Z</time>
      </trkpt>
      <trkpt lat="47.34955" lon="-2.38973">
        <ele>39.799999237061</ele>
        <time>2020-12-06T09:39:32.000Z</time>
      </trkpt>
      <trkpt lat="47.34958" lon="-2.38978">
        <ele>39.799999237061</ele>
        <time>2020-12-06T09:39:33.000Z</time>
      </trkpt>
      <trkpt lat="47.34971" lon="-2.39">
        <ele>39.799999237061</ele>
        <time>2020-12-06T09:39:37.000Z</time>
      </trkpt>
      <trkpt lat="47.34992" lon="-2.39043">
        <ele>39.799999237061</ele>
        <time>2020-12-06T09:39:44.000Z</time>
      </trkpt>
      <trkpt lat="47.34999" lon="-2.39056">
        <ele>39.799999237061</ele>
        <time>2020-12-06T09:39:46.000Z</time>
      </trkpt>
      <trkpt lat="47.35014" lon="-2.3909">
        <ele>39.799999237061</ele>
        <time>2020-12-06T09:39:51.000Z</time>
      </trkpt>
      <trkpt lat="47.35021" lon="-2.39104">
        <ele>39.799999237061</ele>
        <time>2020-12-06T09:39:53.000Z</time>
      </trkpt>
      <trkpt lat="47.3503" lon="-2.39125">
        <ele>39.799999237061</ele>
        <time>2020-12-06T09:39:56.000Z</time>
      </trkpt>
      <trkpt lat="47.35035" lon="-2.3914">
        <ele>39.799999237061</ele>
        <time>2020-12-06T09:39:58.000Z</time>
      </trkpt>
      <trkpt lat="47.35038" lon="-2.39158">
        <ele>39.799999237061</ele>
        <time>2020-12-06T09:40:00.000Z</time>
      </trkpt>
      <trkpt lat="47.35038" lon="-2.39166">
        <ele>39.799999237061</ele>
        <time>2020-12-06T09:40:01.000Z</time>
      </trkpt>
      <trkpt lat="47.3504" lon="-2.39207">
        <ele>39.799999237061</ele>
        <time>2020-12-06T09:40:06.000Z</time>
      </trkpt>
      <trkpt lat="47.35044" lon="-2.39257">
        <ele>39.799999237061</ele>
        <time>2020-12-06T09:40:12.000Z</time>
      </trkpt>
      <trkpt lat="47.35046" lon="-2.39301">
        <ele>39.799999237061</ele>
        <time>2020-12-06T09:40:18.000Z</time>
      </trkpt>
      <trkpt lat="47.35045" lon="-2.39338">
        <ele>39.799999237061</ele>
        <time>2020-12-06T09:40:23.000Z</time>
      </trkpt>
      <trkpt lat="47.35044" lon="-2.39344">
        <ele>39.799999237061</ele>
        <time>2020-12-06T09:40:24.000Z</time>
      </trkpt>
      <trkpt lat="47.35035" lon="-2.3939">
        <ele>39.799999237061</ele>
        <time>2020-12-06T09:40:31.000Z</time>
      </trkpt>
      <trkpt lat="47.35031" lon="-2.39423">
        <ele>39.799999237061</ele>
        <time>2020-12-06T09:40:38.000Z</time>
      </trkpt>
      <trkpt lat="47.35032" lon="-2.3945">
        <ele>39.799999237061</ele>
        <time>2020-12-06T09:40:43.000Z</time>
      </trkpt>
      <trkpt lat="47.35032" lon="-2.395">
        <ele>39.799999237061</ele>
        <time>2020-12-06T09:40:50.000Z</time>
      </trkpt>
      <trkpt lat="47.35028" lon="-2.3956">
        <ele>39.799999237061</ele>
        <time>2020-12-06T09:40:58.000Z</time>
      </trkpt>
      <trkpt lat="47.35026" lon="-2.39615">
        <ele>39.799999237061</ele>
        <time>2020-12-06T09:41:05.000Z</time>
      </trkpt>
      <trkpt lat="47.35023" lon="-2.39669">
        <ele>39.799999237061</ele>
        <time>2020-12-06T09:41:12.000Z</time>
      </trkpt>
      <trkpt lat="47.35018" lon="-2.39725">
        <ele>40.200000762939</ele>
        <time>2020-12-06T09:41:19.000Z</time>
      </trkpt>
      <trkpt lat="47.35018" lon="-2.39734">
        <ele>40.599998474121</ele>
        <time>2020-12-06T09:41:20.000Z</time>
      </trkpt>
      <trkpt lat="47.35017" lon="-2.39742">
        <ele>41</ele>
        <time>2020-12-06T09:41:21.000Z</time>
      </trkpt>
      <trkpt lat="47.35016" lon="-2.3975">
        <ele>41.400001525879</ele>
        <time>2020-12-06T09:41:22.000Z</time>
      </trkpt>
      <trkpt lat="47.35015" lon="-2.39759">
        <ele>41.799999237061</ele>
        <time>2020-12-06T09:41:23.000Z</time>
      </trkpt>
      <trkpt lat="47.35011" lon="-2.398">
        <ele>41.799999237061</ele>
        <time>2020-12-06T09:41:28.000Z</time>
      </trkpt>
      <trkpt lat="47.3501" lon="-2.39837">
        <ele>41.799999237061</ele>
        <time>2020-12-06T09:41:32.000Z</time>
      </trkpt>
      <trkpt lat="47.35013" lon="-2.39854">
        <ele>41.799999237061</ele>
        <time>2020-12-06T09:41:34.000Z</time>
      </trkpt>
      <trkpt lat="47.35018" lon="-2.39886">
        <ele>41.799999237061</ele>
        <time>2020-12-06T09:41:38.000Z</time>
      </trkpt>
      <trkpt lat="47.35016" lon="-2.39902">
        <ele>41.799999237061</ele>
        <time>2020-12-06T09:41:40.000Z</time>
      </trkpt>
      <trkpt lat="47.35004" lon="-2.39936">
        <ele>41.799999237061</ele>
        <time>2020-12-06T09:41:45.000Z</time>
      </trkpt>
      <trkpt lat="47.34979" lon="-2.39983">
        <ele>41.799999237061</ele>
        <time>2020-12-06T09:41:52.000Z</time>
      </trkpt>
      <trkpt lat="47.3497" lon="-2.39995">
        <ele>41.799999237061</ele>
        <time>2020-12-06T09:41:54.000Z</time>
      </trkpt>
      <trkpt lat="47.34956" lon="-2.4001">
        <ele>41.799999237061</ele>
        <time>2020-12-06T09:41:57.000Z</time>
      </trkpt>
      <trkpt lat="47.34928" lon="-2.40032">
        <ele>41.799999237061</ele>
        <time>2020-12-06T09:42:02.000Z</time>
      </trkpt>
      <trkpt lat="47.34893" lon="-2.40067">
        <ele>41.799999237061</ele>
        <time>2020-12-06T09:42:09.000Z</time>
      </trkpt>
      <trkpt lat="47.3487" lon="-2.40094">
        <ele>41.799999237061</ele>
        <time>2020-12-06T09:42:15.000Z</time>
      </trkpt>
      <trkpt lat="47.34867" lon="-2.401">
        <ele>41.799999237061</ele>
        <time>2020-12-06T09:42:16.000Z</time>
      </trkpt>
      <trkpt lat="47.3486" lon="-2.40121">
        <ele>42.200000762939</ele>
        <time>2020-12-06T09:42:19.000Z</time>
      </trkpt>
      <trkpt lat="47.34859" lon="-2.40129">
        <ele>43</ele>
        <time>2020-12-06T09:42:20.000Z</time>
      </trkpt>
      <trkpt lat="47.34857" lon="-2.40137">
        <ele>43.400001525879</ele>
        <time>2020-12-06T09:42:21.000Z</time>
      </trkpt>
      <trkpt lat="47.34856" lon="-2.40145">
        <ele>43.799999237061</ele>
        <time>2020-12-06T09:42:22.000Z</time>
      </trkpt>
      <trkpt lat="47.34853" lon="-2.40168">
        <ele>43.799999237061</ele>
        <time>2020-12-06T09:42:25.000Z</time>
      </trkpt>
      <trkpt lat="47.34853" lon="-2.40181">
        <ele>43.799999237061</ele>
        <time>2020-12-06T09:42:27.000Z</time>
      </trkpt>
      <trkpt lat="47.34856" lon="-2.40192">
        <ele>43.799999237061</ele>
        <time>2020-12-06T09:42:29.000Z</time>
      </trkpt>
      <trkpt lat="47.34866" lon="-2.40201">
        <ele>43.799999237061</ele>
        <time>2020-12-06T09:42:32.000Z</time>
      </trkpt>
      <trkpt lat="47.3487" lon="-2.40202">
        <ele>43.799999237061</ele>
        <time>2020-12-06T09:42:34.000Z</time>
      </trkpt>
      <trkpt lat="47.34874" lon="-2.40204">
        <ele>43.799999237061</ele>
        <time>2020-12-06T09:42:37.000Z</time>
      </trkpt>
      <trkpt lat="47.34875" lon="-2.40207">
        <ele>43.799999237061</ele>
        <time>2020-12-06T09:42:39.000Z</time>
      </trkpt>
      <trkpt lat="47.34873" lon="-2.40209">
        <ele>43.799999237061</ele>
        <time>2020-12-06T09:42:41.000Z</time>
      </trkpt>
      <trkpt lat="47.34869" lon="-2.40207">
        <ele>43.799999237061</ele>
        <time>2020-12-06T09:42:43.000Z</time>
      </trkpt>
      <trkpt lat="47.34866" lon="-2.40204">
        <ele>43.799999237061</ele>
        <time>2020-12-06T09:42:45.000Z</time>
      </trkpt>
      <trkpt lat="47.3485" lon="-2.40195">
        <ele>43.799999237061</ele>
        <time>2020-12-06T09:42:50.000Z</time>
      </trkpt>
      <trkpt lat="47.3484" lon="-2.40196">
        <ele>43.799999237061</ele>
        <time>2020-12-06T09:42:54.000Z</time>
      </trkpt>
      <trkpt lat="47.34826" lon="-2.40202">
        <ele>43.799999237061</ele>
        <time>2020-12-06T09:43:01.000Z</time>
      </trkpt>
      <trkpt lat="47.34811" lon="-2.40206">
        <ele>43.799999237061</ele>
        <time>2020-12-06T09:43:07.000Z</time>
      </trkpt>
      <trkpt lat="47.34801" lon="-2.40211">
        <ele>43.799999237061</ele>
        <time>2020-12-06T09:43:12.000Z</time>
      </trkpt>
      <trkpt lat="47.348" lon="-2.40217">
        <ele>43.799999237061</ele>
        <time>2020-12-06T09:43:14.000Z</time>
      </trkpt>
      <trkpt lat="47.34805" lon="-2.40234">
        <ele>43.799999237061</ele>
        <time>2020-12-06T09:43:18.000Z</time>
      </trkpt>
      <trkpt lat="47.34818" lon="-2.40261">
        <ele>43.799999237061</ele>
        <time>2020-12-06T09:43:24.000Z</time>
      </trkpt>
      <trkpt lat="47.34834" lon="-2.4029">
        <ele>43.799999237061</ele>
        <time>2020-12-06T09:43:32.000Z</time>
      </trkpt>
      <trkpt lat="47.34847" lon="-2.40316">
        <ele>43.799999237061</ele>
        <time>2020-12-06T09:43:39.000Z</time>
      </trkpt>
      <trkpt lat="47.34855" lon="-2.40342">
        <ele>43.799999237061</ele>
        <time>2020-12-06T09:43:45.000Z</time>
      </trkpt>
      <trkpt lat="47.34861" lon="-2.40371">
        <ele>43.799999237061</ele>
        <time>2020-12-06T09:43:51.000Z</time>
      </trkpt>
      <trkpt lat="47.34867" lon="-2.404">
        <ele>43.799999237061</ele>
        <time>2020-12-06T09:43:57.000Z</time>
      </trkpt>
      <trkpt lat="47.34869" lon="-2.4041">
        <ele>43</ele>
        <time>2020-12-06T09:43:59.000Z</time>
      </trkpt>
      <trkpt lat="47.34869" lon="-2.40415">
        <ele>42.599998474121</ele>
        <time>2020-12-06T09:44:00.000Z</time>
      </trkpt>
      <trkpt lat="47.3487" lon="-2.40421">
        <ele>42.200000762939</ele>
        <time>2020-12-06T09:44:01.000Z</time>
      </trkpt>
      <trkpt lat="47.34871" lon="-2.40427">
        <ele>41.799999237061</ele>
        <time>2020-12-06T09:44:02.000Z</time>
      </trkpt>
      <trkpt lat="47.34873" lon="-2.40446">
        <ele>41.799999237061</ele>
        <time>2020-12-06T09:44:05.000Z</time>
      </trkpt>
      <trkpt lat="47.3488" lon="-2.40489">
        <ele>41.799999237061</ele>
        <time>2020-12-06T09:44:11.000Z</time>
      </trkpt>
      <trkpt lat="47.34885" lon="-2.40523">
        <ele>41.400001525879</ele>
        <time>2020-12-06T09:44:15.000Z</time>
      </trkpt>
      <trkpt lat="47.34886" lon="-2.40532">
        <ele>41</ele>
        <time>2020-12-06T09:44:16.000Z</time>
      </trkpt>
      <trkpt lat="47.34886" lon="-2.4054">
        <ele>40.599998474121</ele>
        <time>2020-12-06T09:44:17.000Z</time>
      </trkpt>
      <trkpt lat="47.34885" lon="-2.40548">
        <ele>40.200000762939</ele>
        <time>2020-12-06T09:44:18.000Z</time>
      </trkpt>
      <trkpt lat="47.34883" lon="-2.40555">
        <ele>39.799999237061</ele>
        <time>2020-12-06T09:44:19.000Z</time>
      </trkpt>
      <trkpt lat="47.34881" lon="-2.40561">
        <ele>39.799999237061</ele>
        <time>2020-12-06T09:44:20.000Z</time>
      </trkpt>
      <trkpt lat="47.34868" lon="-2.40581">
        <ele>39.799999237061</ele>
        <time>2020-12-06T09:44:24.000Z</time>
      </trkpt>
      <trkpt lat="47.34865" lon="-2.40585">
        <ele>39.799999237061</ele>
        <time>2020-12-06T09:44:25.000Z</time>
      </trkpt>
      <trkpt lat="47.34861" lon="-2.40588">
        <ele>39.799999237061</ele>
        <time>2020-12-06T09:44:26.000Z</time>
      </trkpt>
      <trkpt lat="47.34846" lon="-2.40604">
        <ele>39.799999237061</ele>
        <time>2020-12-06T09:44:31.000Z</time>
      </trkpt>
      <trkpt lat="47.34835" lon="-2.40623">
        <ele>39.799999237061</ele>
        <time>2020-12-06T09:44:35.000Z</time>
      </trkpt>
      <trkpt lat="47.34832" lon="-2.40634">
        <ele>39.799999237061</ele>
        <time>2020-12-06T09:44:37.000Z</time>
      </trkpt>
      <trkpt lat="47.34826" lon="-2.40666">
        <ele>39.799999237061</ele>
        <time>2020-12-06T09:44:43.000Z</time>
      </trkpt>
      <trkpt lat="47.34821" lon="-2.40707">
        <ele>39.799999237061</ele>
        <time>2020-12-06T09:44:51.000Z</time>
      </trkpt>
      <trkpt lat="47.3482" lon="-2.40712">
        <ele>40.200000762939</ele>
        <time>2020-12-06T09:44:52.000Z</time>
      </trkpt>
      <trkpt lat="47.34821" lon="-2.40716">
        <ele>40.599998474121</ele>
        <time>2020-12-06T09:44:53.000Z</time>
      </trkpt>
      <trkpt lat="47.34821" lon="-2.40721">
        <ele>41</ele>
        <time>2020-12-06T09:44:54.000Z</time>
      </trkpt>
      <trkpt lat="47.34821" lon="-2.40726">
        <ele>41.400001525879</ele>
        <time>2020-12-06T09:44:55.000Z</time>
      </trkpt>
      <trkpt lat="47.34822" lon="-2.40731">
        <ele>41.799999237061</ele>
        <time>2020-12-06T09:44:56.000Z</time>
      </trkpt>
      <trkpt lat="47.34822" lon="-2.40739">
        <ele>41.799999237061</ele>
        <time>2020-12-06T09:44:58.000Z</time>
      </trkpt>
      <trkpt lat="47.34826" lon="-2.40765">
        <ele>41.799999237061</ele>
        <time>2020-12-06T09:45:05.000Z</time>
      </trkpt>
      <trkpt lat="47.34831" lon="-2.40774">
        <ele>41.799999237061</ele>
        <time>2020-12-06T09:45:10.000Z</time>
      </trkpt>
      <trkpt lat="47.34833" lon="-2.40773">
        <ele>41.799999237061</ele>
        <time>2020-12-06T09:45:11.000Z</time>
      </trkpt>
      <trkpt lat="47.3484" lon="-2.40771">
        <ele>41.799999237061</ele>
        <time>2020-12-06T09:45:15.000Z</time>
      </trkpt>
      <trkpt lat="47.34842" lon="-2.40772">
        <ele>41.799999237061</ele>
        <time>2020-12-06T09:45:17.000Z</time>
      </trkpt>
      <trkpt lat="47.34851" lon="-2.40774">
        <ele>41.799999237061</ele>
        <time>2020-12-06T09:45:23.000Z</time>
      </trkpt>
      <trkpt lat="47.34858" lon="-2.40772">
        <ele>41.799999237061</ele>
        <time>2020-12-06T09:45:30.000Z</time>
      </trkpt>
      <trkpt lat="47.34866" lon="-2.40772">
        <ele>41.799999237061</ele>
        <time>2020-12-06T09:45:38.000Z</time>
      </trkpt>
      <trkpt lat="47.34873" lon="-2.40772">
        <ele>42.200000762939</ele>
        <time>2020-12-06T09:45:44.000Z</time>
      </trkpt>
      <trkpt lat="47.34874" lon="-2.40772">
        <ele>42.799999237061</ele>
        <time>2020-12-06T09:45:45.000Z</time>
      </trkpt>
      <trkpt lat="47.34875" lon="-2.40772">
        <ele>43.200000762939</ele>
        <time>2020-12-06T09:45:46.000Z</time>
      </trkpt>
      <trkpt lat="47.34876" lon="-2.40771">
        <ele>43.799999237061</ele>
        <time>2020-12-06T09:45:47.000Z</time>
      </trkpt>
      <trkpt lat="47.34877" lon="-2.40771">
        <ele>44.200000762939</ele>
        <time>2020-12-06T09:45:48.000Z</time>
      </trkpt>
      <trkpt lat="47.34879" lon="-2.40772">
        <ele>44.200000762939</ele>
        <time>2020-12-06T09:45:51.000Z</time>
      </trkpt>
      <trkpt lat="47.34891" lon="-2.4078">
        <ele>44.200000762939</ele>
        <time>2020-12-06T09:46:34.000Z</time>
      </trkpt>
      <trkpt lat="47.34897" lon="-2.4079">
        <ele>44.200000762939</ele>
        <time>2020-12-06T09:46:39.000Z</time>
      </trkpt>
      <trkpt lat="47.34905" lon="-2.408">
        <ele>44.200000762939</ele>
        <time>2020-12-06T09:46:42.000Z</time>
      </trkpt>
      <trkpt lat="47.34908" lon="-2.40806">
        <ele>44.200000762939</ele>
        <time>2020-12-06T09:46:44.000Z</time>
      </trkpt>
      <trkpt lat="47.34917" lon="-2.40825">
        <ele>44.200000762939</ele>
        <time>2020-12-06T09:46:50.000Z</time>
      </trkpt>
      <trkpt lat="47.34928" lon="-2.40845">
        <ele>44.200000762939</ele>
        <time>2020-12-06T09:46:55.000Z</time>
      </trkpt>
      <trkpt lat="47.34935" lon="-2.40874">
        <ele>44.200000762939</ele>
        <time>2020-12-06T09:47:00.000Z</time>
      </trkpt>
      <trkpt lat="47.34937" lon="-2.40894">
        <ele>44.200000762939</ele>
        <time>2020-12-06T09:47:03.000Z</time>
      </trkpt>
      <trkpt lat="47.34937" lon="-2.40907">
        <ele>44.200000762939</ele>
        <time>2020-12-06T09:47:05.000Z</time>
      </trkpt>
      <trkpt lat="47.34938" lon="-2.40934">
        <ele>44.200000762939</ele>
        <time>2020-12-06T09:47:09.000Z</time>
      </trkpt>
      <trkpt lat="47.34938" lon="-2.4094">
        <ele>44.200000762939</ele>
        <time>2020-12-06T09:47:10.000Z</time>
      </trkpt>
      <trkpt lat="47.34935" lon="-2.40986">
        <ele>44.200000762939</ele>
        <time>2020-12-06T09:47:17.000Z</time>
      </trkpt>
      <trkpt lat="47.34931" lon="-2.41022">
        <ele>44.200000762939</ele>
        <time>2020-12-06T09:47:22.000Z</time>
      </trkpt>
      <trkpt lat="47.34931" lon="-2.41041">
        <ele>44.200000762939</ele>
        <time>2020-12-06T09:47:25.000Z</time>
      </trkpt>
      <trkpt lat="47.34935" lon="-2.41056">
        <ele>44.200000762939</ele>
        <time>2020-12-06T09:47:27.000Z</time>
      </trkpt>
      <trkpt lat="47.34941" lon="-2.41069">
        <ele>44.200000762939</ele>
        <time>2020-12-06T09:47:29.000Z</time>
      </trkpt>
      <trkpt lat="47.34947" lon="-2.41083">
        <ele>44.200000762939</ele>
        <time>2020-12-06T09:47:31.000Z</time>
      </trkpt>
      <trkpt lat="47.3495" lon="-2.4109">
        <ele>44.200000762939</ele>
        <time>2020-12-06T09:47:32.000Z</time>
      </trkpt>
      <trkpt lat="47.34965" lon="-2.41127">
        <ele>43.799999237061</ele>
        <time>2020-12-06T09:47:37.000Z</time>
      </trkpt>
      <trkpt lat="47.34968" lon="-2.41135">
        <ele>43.400001525879</ele>
        <time>2020-12-06T09:47:38.000Z</time>
      </trkpt>
      <trkpt lat="47.34971" lon="-2.41142">
        <ele>43</ele>
        <time>2020-12-06T09:47:39.000Z</time>
      </trkpt>
      <trkpt lat="47.34974" lon="-2.41148">
        <ele>42.599998474121</ele>
        <time>2020-12-06T09:47:40.000Z</time>
      </trkpt>
      <trkpt lat="47.34977" lon="-2.41155">
        <ele>42.200000762939</ele>
        <time>2020-12-06T09:47:41.000Z</time>
      </trkpt>
      <trkpt lat="47.34984" lon="-2.41169">
        <ele>42.200000762939</ele>
        <time>2020-12-06T09:47:43.000Z</time>
      </trkpt>
      <trkpt lat="47.35005" lon="-2.41217">
        <ele>42.200000762939</ele>
        <time>2020-12-06T09:47:50.000Z</time>
      </trkpt>
      <trkpt lat="47.35022" lon="-2.41261">
        <ele>42.200000762939</ele>
        <time>2020-12-06T09:47:56.000Z</time>
      </trkpt>
      <trkpt lat="47.35033" lon="-2.41288">
        <ele>42.200000762939</ele>
        <time>2020-12-06T09:48:00.000Z</time>
      </trkpt>
      <trkpt lat="47.35052" lon="-2.41337">
        <ele>42.200000762939</ele>
        <time>2020-12-06T09:48:07.000Z</time>
      </trkpt>
      <trkpt lat="47.35069" lon="-2.41382">
        <ele>42.200000762939</ele>
        <time>2020-12-06T09:48:14.000Z</time>
      </trkpt>
      <trkpt lat="47.35074" lon="-2.41394">
        <ele>42.200000762939</ele>
        <time>2020-12-06T09:48:16.000Z</time>
      </trkpt>
      <trkpt lat="47.35074" lon="-2.41404">
        <ele>42.200000762939</ele>
        <time>2020-12-06T09:48:18.000Z</time>
      </trkpt>
      <trkpt lat="47.35067" lon="-2.4141">
        <ele>42.200000762939</ele>
        <time>2020-12-06T09:48:21.000Z</time>
      </trkpt>
      <trkpt lat="47.35064" lon="-2.41412">
        <ele>42.200000762939</ele>
        <time>2020-12-06T09:48:22.000Z</time>
      </trkpt>
      <trkpt lat="47.3506" lon="-2.41414">
        <ele>41.799999237061</ele>
        <time>2020-12-06T09:48:23.000Z</time>
      </trkpt>
      <trkpt lat="47.35057" lon="-2.41416">
        <ele>41.400001525879</ele>
        <time>2020-12-06T09:48:24.000Z</time>
      </trkpt>
      <trkpt lat="47.35052" lon="-2.41418">
        <ele>41</ele>
        <time>2020-12-06T09:48:25.000Z</time>
      </trkpt>
      <trkpt lat="47.35048" lon="-2.41419">
        <ele>40.599998474121</ele>
        <time>2020-12-06T09:48:26.000Z</time>
      </trkpt>
      <trkpt lat="47.35044" lon="-2.41422">
        <ele>40.200000762939</ele>
        <time>2020-12-06T09:48:27.000Z</time>
      </trkpt>
      <trkpt lat="47.35025" lon="-2.4143">
        <ele>40.200000762939</ele>
        <time>2020-12-06T09:48:31.000Z</time>
      </trkpt>
      <trkpt lat="47.35009" lon="-2.41436">
        <ele>40.200000762939</ele>
        <time>2020-12-06T09:48:34.000Z</time>
      </trkpt>
      <trkpt lat="47.34998" lon="-2.41442">
        <ele>40.200000762939</ele>
        <time>2020-12-06T09:48:36.000Z</time>
      </trkpt>
      <trkpt lat="47.34967" lon="-2.41454">
        <ele>40.200000762939</ele>
        <time>2020-12-06T09:48:42.000Z</time>
      </trkpt>
      <trkpt lat="47.34947" lon="-2.41463">
        <ele>40.599998474121</ele>
        <time>2020-12-06T09:48:46.000Z</time>
      </trkpt>
      <trkpt lat="47.34942" lon="-2.41465">
        <ele>41</ele>
        <time>2020-12-06T09:48:47.000Z</time>
      </trkpt>
      <trkpt lat="47.34937" lon="-2.41467">
        <ele>41.400001525879</ele>
        <time>2020-12-06T09:48:48.000Z</time>
      </trkpt>
      <trkpt lat="47.34932" lon="-2.41469">
        <ele>41.799999237061</ele>
        <time>2020-12-06T09:48:49.000Z</time>
      </trkpt>
      <trkpt lat="47.34926" lon="-2.41471">
        <ele>42.200000762939</ele>
        <time>2020-12-06T09:48:50.000Z</time>
      </trkpt>
      <trkpt lat="47.34897" lon="-2.4148">
        <ele>42.200000762939</ele>
        <time>2020-12-06T09:48:55.000Z</time>
      </trkpt>
      <trkpt lat="47.34865" lon="-2.41489">
        <ele>42.200000762939</ele>
        <time>2020-12-06T09:49:00.000Z</time>
      </trkpt>
      <trkpt lat="47.34841" lon="-2.41497">
        <ele>42.200000762939</ele>
        <time>2020-12-06T09:49:04.000Z</time>
      </trkpt>
      <trkpt lat="47.34829" lon="-2.41502">
        <ele>42.200000762939</ele>
        <time>2020-12-06T09:49:06.000Z</time>
      </trkpt>
      <trkpt lat="47.34817" lon="-2.41507">
        <ele>42.200000762939</ele>
        <time>2020-12-06T09:49:08.000Z</time>
      </trkpt>
      <trkpt lat="47.34797" lon="-2.4151">
        <ele>42.200000762939</ele>
        <time>2020-12-06T09:49:11.000Z</time>
      </trkpt>
      <trkpt lat="47.34772" lon="-2.41517">
        <ele>42.599998474121</ele>
        <time>2020-12-06T09:49:15.000Z</time>
      </trkpt>
      <trkpt lat="47.34766" lon="-2.41518">
        <ele>43</ele>
        <time>2020-12-06T09:49:16.000Z</time>
      </trkpt>
      <trkpt lat="47.3476" lon="-2.4152">
        <ele>43.599998474121</ele>
        <time>2020-12-06T09:49:17.000Z</time>
      </trkpt>
      <trkpt lat="47.34755" lon="-2.41521">
        <ele>44</ele>
        <time>2020-12-06T09:49:18.000Z</time>
      </trkpt>
      <trkpt lat="47.34749" lon="-2.41523">
        <ele>44.400001525879</ele>
        <time>2020-12-06T09:49:19.000Z</time>
      </trkpt>
      <trkpt lat="47.34743" lon="-2.41524">
        <ele>44.400001525879</ele>
        <time>2020-12-06T09:49:20.000Z</time>
      </trkpt>
      <trkpt lat="47.34727" lon="-2.41529">
        <ele>44.400001525879</ele>
        <time>2020-12-06T09:49:23.000Z</time>
      </trkpt>
      <trkpt lat="47.34702" lon="-2.41538">
        <ele>44.400001525879</ele>
        <time>2020-12-06T09:49:28.000Z</time>
      </trkpt>
      <trkpt lat="47.34692" lon="-2.41541">
        <ele>44.400001525879</ele>
        <time>2020-12-06T09:49:30.000Z</time>
      </trkpt>
      <trkpt lat="47.34688" lon="-2.41542">
        <ele>44.799999237061</ele>
        <time>2020-12-06T09:49:31.000Z</time>
      </trkpt>
      <trkpt lat="47.34683" lon="-2.41544">
        <ele>45.200000762939</ele>
        <time>2020-12-06T09:49:32.000Z</time>
      </trkpt>
      <trkpt lat="47.34678" lon="-2.41545">
        <ele>45.599998474121</ele>
        <time>2020-12-06T09:49:33.000Z</time>
      </trkpt>
      <trkpt lat="47.34672" lon="-2.41546">
        <ele>46.200000762939</ele>
        <time>2020-12-06T09:49:34.000Z</time>
      </trkpt>
      <trkpt lat="47.34667" lon="-2.41548">
        <ele>46.599998474121</ele>
        <time>2020-12-06T09:49:35.000Z</time>
      </trkpt>
      <trkpt lat="47.34657" lon="-2.41551">
        <ele>46.599998474121</ele>
        <time>2020-12-06T09:49:37.000Z</time>
      </trkpt>
      <trkpt lat="47.34618" lon="-2.41565">
        <ele>46.599998474121</ele>
        <time>2020-12-06T09:49:45.000Z</time>
      </trkpt>
      <trkpt lat="47.34587" lon="-2.41581">
        <ele>46.599998474121</ele>
        <time>2020-12-06T09:49:51.000Z</time>
      </trkpt>
      <trkpt lat="47.34556" lon="-2.41593">
        <ele>46.599998474121</ele>
        <time>2020-12-06T09:49:58.000Z</time>
      </trkpt>
      <trkpt lat="47.34521" lon="-2.41604">
        <ele>46.599998474121</ele>
        <time>2020-12-06T09:50:06.000Z</time>
      </trkpt>
      <trkpt lat="47.34498" lon="-2.41613">
        <ele>46.599998474121</ele>
        <time>2020-12-06T09:50:12.000Z</time>
      </trkpt>
      <trkpt lat="47.34482" lon="-2.41622">
        <ele>46.599998474121</ele>
        <time>2020-12-06T09:50:16.000Z</time>
      </trkpt>
      <trkpt lat="47.3447" lon="-2.41629">
        <ele>46.599998474121</ele>
        <time>2020-12-06T09:50:19.000Z</time>
      </trkpt>
      <trkpt lat="47.34462" lon="-2.41632">
        <ele>47</ele>
        <time>2020-12-06T09:50:21.000Z</time>
      </trkpt>
      <trkpt lat="47.34458" lon="-2.41635">
        <ele>47.400001525879</ele>
        <time>2020-12-06T09:50:22.000Z</time>
      </trkpt>
      <trkpt lat="47.34454" lon="-2.41638">
        <ele>47.799999237061</ele>
        <time>2020-12-06T09:50:23.000Z</time>
      </trkpt>
      <trkpt lat="47.34451" lon="-2.41642">
        <ele>48.200000762939</ele>
        <time>2020-12-06T09:50:24.000Z</time>
      </trkpt>
      <trkpt lat="47.34448" lon="-2.41645">
        <ele>48.599998474121</ele>
        <time>2020-12-06T09:50:25.000Z</time>
      </trkpt>
      <trkpt lat="47.34436" lon="-2.41663">
        <ele>48.599998474121</ele>
        <time>2020-12-06T09:50:29.000Z</time>
      </trkpt>
      <trkpt lat="47.34419" lon="-2.41688">
        <ele>48.599998474121</ele>
        <time>2020-12-06T09:50:35.000Z</time>
      </trkpt>
      <trkpt lat="47.34403" lon="-2.41699">
        <ele>49</ele>
        <time>2020-12-06T09:50:39.000Z</time>
      </trkpt>
      <trkpt lat="47.34398" lon="-2.41702">
        <ele>49.400001525879</ele>
        <time>2020-12-06T09:50:40.000Z</time>
      </trkpt>
      <trkpt lat="47.34394" lon="-2.41704">
        <ele>49.799999237061</ele>
        <time>2020-12-06T09:50:41.000Z</time>
      </trkpt>
      <trkpt lat="47.3439" lon="-2.41705">
        <ele>50.200000762939</ele>
        <time>2020-12-06T09:50:42.000Z</time>
      </trkpt>
      <trkpt lat="47.34387" lon="-2.41707">
        <ele>50.599998474121</ele>
        <time>2020-12-06T09:50:43.000Z</time>
      </trkpt>
      <trkpt lat="47.34374" lon="-2.41715">
        <ele>50.599998474121</ele>
        <time>2020-12-06T09:50:46.000Z</time>
      </trkpt>
      <trkpt lat="47.34359" lon="-2.41725">
        <ele>50.599998474121</ele>
        <time>2020-12-06T09:50:50.000Z</time>
      </trkpt>
      <trkpt lat="47.34351" lon="-2.41728">
        <ele>50.599998474121</ele>
        <time>2020-12-06T09:50:52.000Z</time>
      </trkpt>
      <trkpt lat="47.34332" lon="-2.41736">
        <ele>51</ele>
        <time>2020-12-06T09:50:57.000Z</time>
      </trkpt>
      <trkpt lat="47.34329" lon="-2.41737">
        <ele>51.400001525879</ele>
        <time>2020-12-06T09:50:58.000Z</time>
      </trkpt>
      <trkpt lat="47.34325" lon="-2.41739">
        <ele>52.200000762939</ele>
        <time>2020-12-06T09:50:59.000Z</time>
      </trkpt>
      <trkpt lat="47.3432" lon="-2.4174">
        <ele>52.599998474121</ele>
        <time>2020-12-06T09:51:00.000Z</time>
      </trkpt>
      <trkpt lat="47.34315" lon="-2.41743">
        <ele>52.599998474121</ele>
        <time>2020-12-06T09:51:01.000Z</time>
      </trkpt>
      <trkpt lat="47.34303" lon="-2.41751">
        <ele>52.599998474121</ele>
        <time>2020-12-06T09:51:04.000Z</time>
      </trkpt>
      <trkpt lat="47.34274" lon="-2.4177">
        <ele>52.599998474121</ele>
        <time>2020-12-06T09:51:11.000Z</time>
      </trkpt>
      <trkpt lat="47.34244" lon="-2.41785">
        <ele>53.200000762939</ele>
        <time>2020-12-06T09:51:19.000Z</time>
      </trkpt>
      <trkpt lat="47.34241" lon="-2.41784">
        <ele>53.599998474121</ele>
        <time>2020-12-06T09:51:20.000Z</time>
      </trkpt>
      <trkpt lat="47.34236" lon="-2.4178">
        <ele>54</ele>
        <time>2020-12-06T09:51:21.000Z</time>
      </trkpt>
      <trkpt lat="47.34233" lon="-2.41776">
        <ele>54.400001525879</ele>
        <time>2020-12-06T09:51:22.000Z</time>
      </trkpt>
      <trkpt lat="47.3423" lon="-2.4177">
        <ele>54.799999237061</ele>
        <time>2020-12-06T09:51:23.000Z</time>
      </trkpt>
      <trkpt lat="47.34226" lon="-2.41758">
        <ele>54.799999237061</ele>
        <time>2020-12-06T09:51:25.000Z</time>
      </trkpt>
      <trkpt lat="47.34222" lon="-2.41746">
        <ele>54.799999237061</ele>
        <time>2020-12-06T09:51:27.000Z</time>
      </trkpt>
      <trkpt lat="47.34217" lon="-2.41727">
        <ele>54.799999237061</ele>
        <time>2020-12-06T09:51:30.000Z</time>
      </trkpt>
      <trkpt lat="47.34212" lon="-2.4171">
        <ele>54.799999237061</ele>
        <time>2020-12-06T09:51:33.000Z</time>
      </trkpt>
      <trkpt lat="47.34202" lon="-2.41695">
        <ele>54.799999237061</ele>
        <time>2020-12-06T09:51:37.000Z</time>
      </trkpt>
      <trkpt lat="47.34194" lon="-2.41694">
        <ele>54.799999237061</ele>
        <time>2020-12-06T09:51:39.000Z</time>
      </trkpt>
      <trkpt lat="47.34188" lon="-2.41694">
        <ele>54.799999237061</ele>
        <time>2020-12-06T09:51:41.000Z</time>
      </trkpt>
      <trkpt lat="47.34176" lon="-2.41707">
        <ele>54.799999237061</ele>
        <time>2020-12-06T09:51:45.000Z</time>
      </trkpt>
      <trkpt lat="47.34156" lon="-2.41732">
        <ele>54.799999237061</ele>
        <time>2020-12-06T09:51:52.000Z</time>
      </trkpt>
      <trkpt lat="47.34131" lon="-2.41756">
        <ele>54.799999237061</ele>
        <time>2020-12-06T09:51:59.000Z</time>
      </trkpt>
      <trkpt lat="47.34116" lon="-2.41769">
        <ele>55.200000762939</ele>
        <time>2020-12-06T09:52:04.000Z</time>
      </trkpt>
      <trkpt lat="47.34113" lon="-2.41771">
        <ele>55.599998474121</ele>
        <time>2020-12-06T09:52:05.000Z</time>
      </trkpt>
      <trkpt lat="47.34111" lon="-2.41772">
        <ele>56</ele>
        <time>2020-12-06T09:52:06.000Z</time>
      </trkpt>
      <trkpt lat="47.34108" lon="-2.41773">
        <ele>56.400001525879</ele>
        <time>2020-12-06T09:52:07.000Z</time>
      </trkpt>
      <trkpt lat="47.34107" lon="-2.41775">
        <ele>56.799999237061</ele>
        <time>2020-12-06T09:52:08.000Z</time>
      </trkpt>
      <trkpt lat="47.34105" lon="-2.41777">
        <ele>56.799999237061</ele>
        <time>2020-12-06T09:52:10.000Z</time>
      </trkpt>
      <trkpt lat="47.34097" lon="-2.41786">
        <ele>56.799999237061</ele>
        <time>2020-12-06T09:52:16.000Z</time>
      </trkpt>
      <trkpt lat="47.34084" lon="-2.41796">
        <ele>56.799999237061</ele>
        <time>2020-12-06T09:52:21.000Z</time>
      </trkpt>
      <trkpt lat="47.34064" lon="-2.4182">
        <ele>56.799999237061</ele>
        <time>2020-12-06T09:52:30.000Z</time>
      </trkpt>
      <trkpt lat="47.34052" lon="-2.41838">
        <ele>57.200000762939</ele>
        <time>2020-12-06T09:52:36.000Z</time>
      </trkpt>
      <trkpt lat="47.3405" lon="-2.41841">
        <ele>58</ele>
        <time>2020-12-06T09:52:37.000Z</time>
      </trkpt>
      <trkpt lat="47.34047" lon="-2.41844">
        <ele>58.599998474121</ele>
        <time>2020-12-06T09:52:38.000Z</time>
      </trkpt>
      <trkpt lat="47.34045" lon="-2.41847">
        <ele>59</ele>
        <time>2020-12-06T09:52:39.000Z</time>
      </trkpt>
      <trkpt lat="47.34032" lon="-2.41868">
        <ele>59</ele>
        <time>2020-12-06T09:52:45.000Z</time>
      </trkpt>
      <trkpt lat="47.34017" lon="-2.41891">
        <ele>59</ele>
        <time>2020-12-06T09:52:51.000Z</time>
      </trkpt>
      <trkpt lat="47.34" lon="-2.41918">
        <ele>59</ele>
        <time>2020-12-06T09:52:58.000Z</time>
      </trkpt>
      <trkpt lat="47.33978" lon="-2.41949">
        <ele>59</ele>
        <time>2020-12-06T09:53:06.000Z</time>
      </trkpt>
      <trkpt lat="47.33972" lon="-2.41956">
        <ele>59.400001525879</ele>
        <time>2020-12-06T09:53:08.000Z</time>
      </trkpt>
      <trkpt lat="47.33969" lon="-2.41959">
        <ele>59.799999237061</ele>
        <time>2020-12-06T09:53:09.000Z</time>
      </trkpt>
      <trkpt lat="47.33966" lon="-2.41963">
        <ele>60.200000762939</ele>
        <time>2020-12-06T09:53:10.000Z</time>
      </trkpt>
      <trkpt lat="47.33963" lon="-2.41966">
        <ele>60.599998474121</ele>
        <time>2020-12-06T09:53:11.000Z</time>
      </trkpt>
      <trkpt lat="47.33959" lon="-2.4197">
        <ele>61</ele>
        <time>2020-12-06T09:53:12.000Z</time>
      </trkpt>
      <trkpt lat="47.33956" lon="-2.41973">
        <ele>61</ele>
        <time>2020-12-06T09:53:13.000Z</time>
      </trkpt>
      <trkpt lat="47.33935" lon="-2.41998">
        <ele>61</ele>
        <time>2020-12-06T09:53:20.000Z</time>
      </trkpt>
      <trkpt lat="47.33919" lon="-2.42014">
        <ele>61.400001525879</ele>
        <time>2020-12-06T09:53:25.000Z</time>
      </trkpt>
      <trkpt lat="47.33916" lon="-2.42016">
        <ele>62.200000762939</ele>
        <time>2020-12-06T09:53:26.000Z</time>
      </trkpt>
      <trkpt lat="47.33913" lon="-2.42019">
        <ele>62.599998474121</ele>
        <time>2020-12-06T09:53:27.000Z</time>
      </trkpt>
      <trkpt lat="47.3391" lon="-2.42023">
        <ele>63</ele>
        <time>2020-12-06T09:53:28.000Z</time>
      </trkpt>
      <trkpt lat="47.33897" lon="-2.42035">
        <ele>63</ele>
        <time>2020-12-06T09:53:32.000Z</time>
      </trkpt>
      <trkpt lat="47.3389" lon="-2.4204">
        <ele>63</ele>
        <time>2020-12-06T09:53:34.000Z</time>
      </trkpt>
      <trkpt lat="47.33867" lon="-2.42059">
        <ele>63</ele>
        <time>2020-12-06T09:53:41.000Z</time>
      </trkpt>
      <trkpt lat="47.33841" lon="-2.42076">
        <ele>63</ele>
        <time>2020-12-06T09:53:49.000Z</time>
      </trkpt>
      <trkpt lat="47.33815" lon="-2.42097">
        <ele>63</ele>
        <time>2020-12-06T09:53:58.000Z</time>
      </trkpt>
      <trkpt lat="47.33814" lon="-2.42101">
        <ele>63</ele>
        <time>2020-12-06T09:53:59.000Z</time>
      </trkpt>
      <trkpt lat="47.33818" lon="-2.42116">
        <ele>63</ele>
        <time>2020-12-06T09:54:02.000Z</time>
      </trkpt>
      <trkpt lat="47.3382" lon="-2.42126">
        <ele>63</ele>
        <time>2020-12-06T09:54:04.000Z</time>
      </trkpt>
      <trkpt lat="47.33824" lon="-2.42149">
        <ele>63</ele>
        <time>2020-12-06T09:54:09.000Z</time>
      </trkpt>
      <trkpt lat="47.33828" lon="-2.42181">
        <ele>63</ele>
        <time>2020-12-06T09:54:16.000Z</time>
      </trkpt>
      <trkpt lat="47.3383" lon="-2.4219">
        <ele>63.400001525879</ele>
        <time>2020-12-06T09:54:18.000Z</time>
      </trkpt>
      <trkpt lat="47.3383" lon="-2.42194">
        <ele>63.799999237061</ele>
        <time>2020-12-06T09:54:19.000Z</time>
      </trkpt>
      <trkpt lat="47.33831" lon="-2.42199">
        <ele>64.199996948242</ele>
        <time>2020-12-06T09:54:20.000Z</time>
      </trkpt>
      <trkpt lat="47.33832" lon="-2.42204">
        <ele>64.599998474121</ele>
        <time>2020-12-06T09:54:21.000Z</time>
      </trkpt>
      <trkpt lat="47.33833" lon="-2.42209">
        <ele>65</ele>
        <time>2020-12-06T09:54:22.000Z</time>
      </trkpt>
      <trkpt lat="47.33833" lon="-2.42219">
        <ele>65</ele>
        <time>2020-12-06T09:54:24.000Z</time>
      </trkpt>
      <trkpt lat="47.33839" lon="-2.42252">
        <ele>65.400001525879</ele>
        <time>2020-12-06T09:54:31.000Z</time>
      </trkpt>
      <trkpt lat="47.33839" lon="-2.42257">
        <ele>66</ele>
        <time>2020-12-06T09:54:32.000Z</time>
      </trkpt>
      <trkpt lat="47.3384" lon="-2.42261">
        <ele>66.400001525879</ele>
        <time>2020-12-06T09:54:33.000Z</time>
      </trkpt>
      <trkpt lat="47.3384" lon="-2.42266">
        <ele>66.800003051758</ele>
        <time>2020-12-06T09:54:34.000Z</time>
      </trkpt>
      <trkpt lat="47.33841" lon="-2.4227">
        <ele>67.199996948242</ele>
        <time>2020-12-06T09:54:35.000Z</time>
      </trkpt>
      <trkpt lat="47.33843" lon="-2.42283">
        <ele>67.199996948242</ele>
        <time>2020-12-06T09:54:38.000Z</time>
      </trkpt>
      <trkpt lat="47.33847" lon="-2.42311">
        <ele>67.199996948242</ele>
        <time>2020-12-06T09:54:44.000Z</time>
      </trkpt>
      <trkpt lat="47.33847" lon="-2.42316">
        <ele>67.599998474121</ele>
        <time>2020-12-06T09:54:45.000Z</time>
      </trkpt>
      <trkpt lat="47.33848" lon="-2.42321">
        <ele>68</ele>
        <time>2020-12-06T09:54:46.000Z</time>
      </trkpt>
      <trkpt lat="47.33848" lon="-2.42326">
        <ele>68.599998474121</ele>
        <time>2020-12-06T09:54:47.000Z</time>
      </trkpt>
      <trkpt lat="47.33849" lon="-2.42331">
        <ele>69</ele>
        <time>2020-12-06T09:54:48.000Z</time>
      </trkpt>
      <trkpt lat="47.33849" lon="-2.42335">
        <ele>69.400001525879</ele>
        <time>2020-12-06T09:54:49.000Z</time>
      </trkpt>
      <trkpt lat="47.33851" lon="-2.42344">
        <ele>69.400001525879</ele>
        <time>2020-12-06T09:54:51.000Z</time>
      </trkpt>
      <trkpt lat="47.33857" lon="-2.42385">
        <ele>69.400001525879</ele>
        <time>2020-12-06T09:55:00.000Z</time>
      </trkpt>
      <trkpt lat="47.3386" lon="-2.42413">
        <ele>69</ele>
        <time>2020-12-06T09:55:05.000Z</time>
      </trkpt>
      <trkpt lat="47.33861" lon="-2.42419">
        <ele>68.599998474121</ele>
        <time>2020-12-06T09:55:06.000Z</time>
      </trkpt>
      <trkpt lat="47.33861" lon="-2.42424">
        <ele>68.199996948242</ele>
        <time>2020-12-06T09:55:07.000Z</time>
      </trkpt>
      <trkpt lat="47.33862" lon="-2.42428">
        <ele>67.800003051758</ele>
        <time>2020-12-06T09:55:08.000Z</time>
      </trkpt>
      <trkpt lat="47.33861" lon="-2.42431">
        <ele>67.400001525879</ele>
        <time>2020-12-06T09:55:09.000Z</time>
      </trkpt>
      <trkpt lat="47.33861" lon="-2.42436">
        <ele>67.400001525879</ele>
        <time>2020-12-06T09:55:10.000Z</time>
      </trkpt>
      <trkpt lat="47.33862" lon="-2.42445">
        <ele>67.400001525879</ele>
        <time>2020-12-06T09:55:13.000Z</time>
      </trkpt>
      <trkpt lat="47.33864" lon="-2.42447">
        <ele>67.400001525879</ele>
        <time>2020-12-06T09:55:15.000Z</time>
      </trkpt>
      <trkpt lat="47.33869" lon="-2.42448">
        <ele>67.400001525879</ele>
        <time>2020-12-06T09:55:18.000Z</time>
      </trkpt>
      <trkpt lat="47.33873" lon="-2.42451">
        <ele>67.400001525879</ele>
        <time>2020-12-06T09:55:20.000Z</time>
      </trkpt>
      <trkpt lat="47.33887" lon="-2.42456">
        <ele>67.400001525879</ele>
        <time>2020-12-06T09:55:26.000Z</time>
      </trkpt>
      <trkpt lat="47.33892" lon="-2.42461">
        <ele>67.400001525879</ele>
        <time>2020-12-06T09:55:29.000Z</time>
      </trkpt>
      <trkpt lat="47.33889" lon="-2.42465">
        <ele>67.400001525879</ele>
        <time>2020-12-06T09:55:31.000Z</time>
      </trkpt>
      <trkpt lat="47.33878" lon="-2.42464">
        <ele>67.400001525879</ele>
        <time>2020-12-06T09:55:34.000Z</time>
      </trkpt>
      <trkpt lat="47.3386" lon="-2.42458">
        <ele>67</ele>
        <time>2020-12-06T09:55:38.000Z</time>
      </trkpt>
      <trkpt lat="47.33855" lon="-2.42457">
        <ele>66.599998474121</ele>
        <time>2020-12-06T09:55:39.000Z</time>
      </trkpt>
      <trkpt lat="47.33851" lon="-2.42456">
        <ele>66.199996948242</ele>
        <time>2020-12-06T09:55:40.000Z</time>
      </trkpt>
      <trkpt lat="47.33847" lon="-2.42459">
        <ele>65.800003051758</ele>
        <time>2020-12-06T09:55:41.000Z</time>
      </trkpt>
      <trkpt lat="47.33842" lon="-2.42461">
        <ele>65.400001525879</ele>
        <time>2020-12-06T09:55:42.000Z</time>
      </trkpt>
      <trkpt lat="47.33839" lon="-2.42463">
        <ele>65.400001525879</ele>
        <time>2020-12-06T09:55:43.000Z</time>
      </trkpt>
      <trkpt lat="47.33838" lon="-2.4247">
        <ele>65.400001525879</ele>
        <time>2020-12-06T09:55:44.000Z</time>
      </trkpt>
      <trkpt lat="47.33834" lon="-2.42481">
        <ele>65.400001525879</ele>
        <time>2020-12-06T09:55:46.000Z</time>
      </trkpt>
      <trkpt lat="47.33829" lon="-2.42501">
        <ele>65.400001525879</ele>
        <time>2020-12-06T09:55:49.000Z</time>
      </trkpt>
      <trkpt lat="47.33826" lon="-2.42524">
        <ele>65.400001525879</ele>
        <time>2020-12-06T09:55:52.000Z</time>
      </trkpt>
      <trkpt lat="47.33815" lon="-2.42567">
        <ele>65.400001525879</ele>
        <time>2020-12-06T09:55:59.000Z</time>
      </trkpt>
      <trkpt lat="47.3381" lon="-2.42584">
        <ele>65.400001525879</ele>
        <time>2020-12-06T09:56:02.000Z</time>
      </trkpt>
      <trkpt lat="47.33808" lon="-2.42589">
        <ele>65.800003051758</ele>
        <time>2020-12-06T09:56:03.000Z</time>
      </trkpt>
      <trkpt lat="47.33806" lon="-2.42593">
        <ele>66.199996948242</ele>
        <time>2020-12-06T09:56:04.000Z</time>
      </trkpt>
      <trkpt lat="47.33805" lon="-2.42598">
        <ele>66.599998474121</ele>
        <time>2020-12-06T09:56:05.000Z</time>
      </trkpt>
      <trkpt lat="47.33805" lon="-2.42601">
        <ele>67</ele>
        <time>2020-12-06T09:56:06.000Z</time>
      </trkpt>
      <trkpt lat="47.33805" lon="-2.42604">
        <ele>67.400001525879</ele>
        <time>2020-12-06T09:56:07.000Z</time>
      </trkpt>
      <trkpt lat="47.33807" lon="-2.4261">
        <ele>67.400001525879</ele>
        <time>2020-12-06T09:56:10.000Z</time>
      </trkpt>
      <trkpt lat="47.33809" lon="-2.4261">
        <ele>67.400001525879</ele>
        <time>2020-12-06T09:56:11.000Z</time>
      </trkpt>
      <trkpt lat="47.33816" lon="-2.426">
        <ele>67.400001525879</ele>
        <time>2020-12-06T09:56:15.000Z</time>
      </trkpt>
      <trkpt lat="47.33828" lon="-2.42588">
        <ele>67.400001525879</ele>
        <time>2020-12-06T09:56:20.000Z</time>
      </trkpt>
      <trkpt lat="47.33829" lon="-2.42588">
        <ele>67.400001525879</ele>
        <time>2020-12-06T09:56:21.000Z</time>
      </trkpt>
      <trkpt lat="47.33832" lon="-2.42586">
        <ele>67.400001525879</ele>
        <time>2020-12-06T09:56:25.000Z</time>
      </trkpt>
      <trkpt lat="47.33833" lon="-2.42585">
        <ele>67.400001525879</ele>
        <time>2020-12-06T09:56:28.000Z</time>
      </trkpt>
      <trkpt lat="47.3383" lon="-2.4258">
        <ele>67.400001525879</ele>
        <time>2020-12-06T10:06:57.000Z</time>
      </trkpt>
      <trkpt lat="47.33829" lon="-2.42579">
        <ele>67.400001525879</ele>
        <time>2020-12-06T10:06:58.000Z</time>
      </trkpt>
      <trkpt lat="47.33823" lon="-2.42583">
        <ele>67.400001525879</ele>
        <time>2020-12-06T10:07:03.000Z</time>
      </trkpt>
      <trkpt lat="47.33817" lon="-2.42582">
        <ele>67.400001525879</ele>
        <time>2020-12-06T10:07:06.000Z</time>
      </trkpt>
      <trkpt lat="47.33813" lon="-2.42588">
        <ele>67.400001525879</ele>
        <time>2020-12-06T10:07:09.000Z</time>
      </trkpt>
      <trkpt lat="47.3381" lon="-2.42604">
        <ele>67.400001525879</ele>
        <time>2020-12-06T10:07:13.000Z</time>
      </trkpt>
      <trkpt lat="47.33809" lon="-2.42608">
        <ele>67.400001525879</ele>
        <time>2020-12-06T10:07:14.000Z</time>
      </trkpt>
      <trkpt lat="47.33804" lon="-2.42639">
        <ele>67.400001525879</ele>
        <time>2020-12-06T10:07:20.000Z</time>
      </trkpt>
      <trkpt lat="47.33796" lon="-2.42677">
        <ele>67.400001525879</ele>
        <time>2020-12-06T10:07:26.000Z</time>
      </trkpt>
      <trkpt lat="47.33795" lon="-2.42683">
        <ele>67.400001525879</ele>
        <time>2020-12-06T10:07:27.000Z</time>
      </trkpt>
      <trkpt lat="47.3378" lon="-2.42714">
        <ele>67.400001525879</ele>
        <time>2020-12-06T10:07:34.000Z</time>
      </trkpt>
      <trkpt lat="47.33765" lon="-2.42726">
        <ele>67.400001525879</ele>
        <time>2020-12-06T10:07:39.000Z</time>
      </trkpt>
      <trkpt lat="47.33752" lon="-2.42733">
        <ele>67.400001525879</ele>
        <time>2020-12-06T10:07:42.000Z</time>
      </trkpt>
      <trkpt lat="47.33741" lon="-2.42736">
        <ele>67.400001525879</ele>
        <time>2020-12-06T10:07:44.000Z</time>
      </trkpt>
      <trkpt lat="47.33736" lon="-2.42734">
        <ele>67.400001525879</ele>
        <time>2020-12-06T10:07:45.000Z</time>
      </trkpt>
      <trkpt lat="47.33715" lon="-2.42728">
        <ele>67.400001525879</ele>
        <time>2020-12-06T10:07:50.000Z</time>
      </trkpt>
      <trkpt lat="47.33705" lon="-2.42724">
        <ele>67.400001525879</ele>
        <time>2020-12-06T10:07:52.000Z</time>
      </trkpt>
      <trkpt lat="47.33687" lon="-2.42718">
        <ele>67.400001525879</ele>
        <time>2020-12-06T10:07:56.000Z</time>
      </trkpt>
      <trkpt lat="47.33677" lon="-2.42718">
        <ele>67.400001525879</ele>
        <time>2020-12-06T10:07:58.000Z</time>
      </trkpt>
      <trkpt lat="47.33667" lon="-2.4272">
        <ele>67</ele>
        <time>2020-12-06T10:08:00.000Z</time>
      </trkpt>
      <trkpt lat="47.33661" lon="-2.42721">
        <ele>66.599998474121</ele>
        <time>2020-12-06T10:08:01.000Z</time>
      </trkpt>
      <trkpt lat="47.33656" lon="-2.42722">
        <ele>66.199996948242</ele>
        <time>2020-12-06T10:08:02.000Z</time>
      </trkpt>
      <trkpt lat="47.33651" lon="-2.42723">
        <ele>65.400001525879</ele>
        <time>2020-12-06T10:08:03.000Z</time>
      </trkpt>
      <trkpt lat="47.33624" lon="-2.4273">
        <ele>65.400001525879</ele>
        <time>2020-12-06T10:08:08.000Z</time>
      </trkpt>
      <trkpt lat="47.33599" lon="-2.42739">
        <ele>65.400001525879</ele>
        <time>2020-12-06T10:08:13.000Z</time>
      </trkpt>
      <trkpt lat="47.33594" lon="-2.42743">
        <ele>65.400001525879</ele>
        <time>2020-12-06T10:08:14.000Z</time>
      </trkpt>
      <trkpt lat="47.33573" lon="-2.42751">
        <ele>65.400001525879</ele>
        <time>2020-12-06T10:08:18.000Z</time>
      </trkpt>
      <trkpt lat="47.33563" lon="-2.42754">
        <ele>65.400001525879</ele>
        <time>2020-12-06T10:08:20.000Z</time>
      </trkpt>
      <trkpt lat="47.33559" lon="-2.42756">
        <ele>65.400001525879</ele>
        <time>2020-12-06T10:08:21.000Z</time>
      </trkpt>
      <trkpt lat="47.33552" lon="-2.42766">
        <ele>65.400001525879</ele>
        <time>2020-12-06T10:08:23.000Z</time>
      </trkpt>
      <trkpt lat="47.33547" lon="-2.42787">
        <ele>65.400001525879</ele>
        <time>2020-12-06T10:08:26.000Z</time>
      </trkpt>
      <trkpt lat="47.33545" lon="-2.42794">
        <ele>65.400001525879</ele>
        <time>2020-12-06T10:08:27.000Z</time>
      </trkpt>
      <trkpt lat="47.33537" lon="-2.42822">
        <ele>65.400001525879</ele>
        <time>2020-12-06T10:08:31.000Z</time>
      </trkpt>
      <trkpt lat="47.33537" lon="-2.42843">
        <ele>65.400001525879</ele>
        <time>2020-12-06T10:08:34.000Z</time>
      </trkpt>
      <trkpt lat="47.33529" lon="-2.42856">
        <ele>65.400001525879</ele>
        <time>2020-12-06T10:08:37.000Z</time>
      </trkpt>
      <trkpt lat="47.33509" lon="-2.4286">
        <ele>65.400001525879</ele>
        <time>2020-12-06T10:08:41.000Z</time>
      </trkpt>
      <trkpt lat="47.33473" lon="-2.42863">
        <ele>65.400001525879</ele>
        <time>2020-12-06T10:08:48.000Z</time>
      </trkpt>
      <trkpt lat="47.33424" lon="-2.42869">
        <ele>65.400001525879</ele>
        <time>2020-12-06T10:08:58.000Z</time>
      </trkpt>
      <trkpt lat="47.33413" lon="-2.4287">
        <ele>65.400001525879</ele>
        <time>2020-12-06T10:09:00.000Z</time>
      </trkpt>
      <trkpt lat="47.33408" lon="-2.42871">
        <ele>65.800003051758</ele>
        <time>2020-12-06T10:09:01.000Z</time>
      </trkpt>
      <trkpt lat="47.33404" lon="-2.42871">
        <ele>66.199996948242</ele>
        <time>2020-12-06T10:09:02.000Z</time>
      </trkpt>
      <trkpt lat="47.33399" lon="-2.42871">
        <ele>66.599998474121</ele>
        <time>2020-12-06T10:09:03.000Z</time>
      </trkpt>
      <trkpt lat="47.33394" lon="-2.42872">
        <ele>67</ele>
        <time>2020-12-06T10:09:04.000Z</time>
      </trkpt>
      <trkpt lat="47.33389" lon="-2.42872">
        <ele>67.400001525879</ele>
        <time>2020-12-06T10:09:05.000Z</time>
      </trkpt>
      <trkpt lat="47.33347" lon="-2.42874">
        <ele>67.400001525879</ele>
        <time>2020-12-06T10:09:13.000Z</time>
      </trkpt>
      <trkpt lat="47.33307" lon="-2.42877">
        <ele>67.400001525879</ele>
        <time>2020-12-06T10:09:21.000Z</time>
      </trkpt>
      <trkpt lat="47.33268" lon="-2.42879">
        <ele>67.400001525879</ele>
        <time>2020-12-06T10:09:29.000Z</time>
      </trkpt>
      <trkpt lat="47.33239" lon="-2.42884">
        <ele>67.400001525879</ele>
        <time>2020-12-06T10:09:35.000Z</time>
      </trkpt>
      <trkpt lat="47.33216" lon="-2.42891">
        <ele>67.800003051758</ele>
        <time>2020-12-06T10:09:40.000Z</time>
      </trkpt>
      <trkpt lat="47.33211" lon="-2.42892">
        <ele>68.599998474121</ele>
        <time>2020-12-06T10:09:41.000Z</time>
      </trkpt>
      <trkpt lat="47.33206" lon="-2.42893">
        <ele>69</ele>
        <time>2020-12-06T10:09:42.000Z</time>
      </trkpt>
      <trkpt lat="47.33202" lon="-2.42894">
        <ele>69.400001525879</ele>
        <time>2020-12-06T10:09:43.000Z</time>
      </trkpt>
      <trkpt lat="47.33184" lon="-2.42896">
        <ele>69.400001525879</ele>
        <time>2020-12-06T10:09:47.000Z</time>
      </trkpt>
      <trkpt lat="47.33177" lon="-2.42903">
        <ele>69.400001525879</ele>
        <time>2020-12-06T10:09:49.000Z</time>
      </trkpt>
      <trkpt lat="47.33157" lon="-2.42906">
        <ele>69.400001525879</ele>
        <time>2020-12-06T10:09:53.000Z</time>
      </trkpt>
      <trkpt lat="47.33147" lon="-2.42903">
        <ele>69.400001525879</ele>
        <time>2020-12-06T10:09:55.000Z</time>
      </trkpt>
      <trkpt lat="47.33142" lon="-2.42903">
        <ele>69.400001525879</ele>
        <time>2020-12-06T10:09:56.000Z</time>
      </trkpt>
      <trkpt lat="47.33137" lon="-2.42904">
        <ele>70</ele>
        <time>2020-12-06T10:09:57.000Z</time>
      </trkpt>
      <trkpt lat="47.33132" lon="-2.42903">
        <ele>70.400001525879</ele>
        <time>2020-12-06T10:09:58.000Z</time>
      </trkpt>
      <trkpt lat="47.33127" lon="-2.42904">
        <ele>70.800003051758</ele>
        <time>2020-12-06T10:09:59.000Z</time>
      </trkpt>
      <trkpt lat="47.33122" lon="-2.42904">
        <ele>71.199996948242</ele>
        <time>2020-12-06T10:10:00.000Z</time>
      </trkpt>
      <trkpt lat="47.33117" lon="-2.42906">
        <ele>71.800003051758</ele>
        <time>2020-12-06T10:10:01.000Z</time>
      </trkpt>
      <trkpt lat="47.33108" lon="-2.42909">
        <ele>71.800003051758</ele>
        <time>2020-12-06T10:10:03.000Z</time>
      </trkpt>
      <trkpt lat="47.33104" lon="-2.4291">
        <ele>71.800003051758</ele>
        <time>2020-12-06T10:10:04.000Z</time>
      </trkpt>
      <trkpt lat="47.33085" lon="-2.42912">
        <ele>71.800003051758</ele>
        <time>2020-12-06T10:10:08.000Z</time>
      </trkpt>
      <trkpt lat="47.33062" lon="-2.42917">
        <ele>71.800003051758</ele>
        <time>2020-12-06T10:10:13.000Z</time>
      </trkpt>
      <trkpt lat="47.33053" lon="-2.42917">
        <ele>71.800003051758</ele>
        <time>2020-12-06T10:10:15.000Z</time>
      </trkpt>
      <trkpt lat="47.33021" lon="-2.42922">
        <ele>71.800003051758</ele>
        <time>2020-12-06T10:10:22.000Z</time>
      </trkpt>
      <trkpt lat="47.32986" lon="-2.4293">
        <ele>71.800003051758</ele>
        <time>2020-12-06T10:10:30.000Z</time>
      </trkpt>
      <trkpt lat="47.32984" lon="-2.42936">
        <ele>71.800003051758</ele>
        <time>2020-12-06T10:10:31.000Z</time>
      </trkpt>
      <trkpt lat="47.32983" lon="-2.42942">
        <ele>72.199996948242</ele>
        <time>2020-12-06T10:10:32.000Z</time>
      </trkpt>
      <trkpt lat="47.32982" lon="-2.42948">
        <ele>72.599998474121</ele>
        <time>2020-12-06T10:10:33.000Z</time>
      </trkpt>
      <trkpt lat="47.3298" lon="-2.42956">
        <ele>73</ele>
        <time>2020-12-06T10:10:34.000Z</time>
      </trkpt>
      <trkpt lat="47.32979" lon="-2.42963">
        <ele>73.400001525879</ele>
        <time>2020-12-06T10:10:35.000Z</time>
      </trkpt>
      <trkpt lat="47.32978" lon="-2.4297">
        <ele>73.800003051758</ele>
        <time>2020-12-06T10:10:36.000Z</time>
      </trkpt>
      <trkpt lat="47.32978" lon="-2.42978">
        <ele>73.800003051758</ele>
        <time>2020-12-06T10:10:37.000Z</time>
      </trkpt>
      <trkpt lat="47.32978" lon="-2.43">
        <ele>74.400001525879</ele>
        <time>2020-12-06T10:10:40.000Z</time>
      </trkpt>
      <trkpt lat="47.32978" lon="-2.43008">
        <ele>74.800003051758</ele>
        <time>2020-12-06T10:10:41.000Z</time>
      </trkpt>
      <trkpt lat="47.32978" lon="-2.43016">
        <ele>75.199996948242</ele>
        <time>2020-12-06T10:10:42.000Z</time>
      </trkpt>
      <trkpt lat="47.32979" lon="-2.43023">
        <ele>75.800003051758</ele>
        <time>2020-12-06T10:10:43.000Z</time>
      </trkpt>
      <trkpt lat="47.32979" lon="-2.43031">
        <ele>76.199996948242</ele>
        <time>2020-12-06T10:10:44.000Z</time>
      </trkpt>
      <trkpt lat="47.32981" lon="-2.43069">
        <ele>76.199996948242</ele>
        <time>2020-12-06T10:10:49.000Z</time>
      </trkpt>
      <trkpt lat="47.32979" lon="-2.4309">
        <ele>75.800003051758</ele>
        <time>2020-12-06T10:10:52.000Z</time>
      </trkpt>
      <trkpt lat="47.32977" lon="-2.43097">
        <ele>75.199996948242</ele>
        <time>2020-12-06T10:10:53.000Z</time>
      </trkpt>
      <trkpt lat="47.32976" lon="-2.43104">
        <ele>74.800003051758</ele>
        <time>2020-12-06T10:10:54.000Z</time>
      </trkpt>
      <trkpt lat="47.32973" lon="-2.43111">
        <ele>74.400001525879</ele>
        <time>2020-12-06T10:10:55.000Z</time>
      </trkpt>
      <trkpt lat="47.32969" lon="-2.43116">
        <ele>73.800003051758</ele>
        <time>2020-12-06T10:10:56.000Z</time>
      </trkpt>
      <trkpt lat="47.32966" lon="-2.43122">
        <ele>73.800003051758</ele>
        <time>2020-12-06T10:10:57.000Z</time>
      </trkpt>
      <trkpt lat="47.32955" lon="-2.43139">
        <ele>73.800003051758</ele>
        <time>2020-12-06T10:11:00.000Z</time>
      </trkpt>
      <trkpt lat="47.3294" lon="-2.43161">
        <ele>73.400001525879</ele>
        <time>2020-12-06T10:11:04.000Z</time>
      </trkpt>
      <trkpt lat="47.32936" lon="-2.43166">
        <ele>73</ele>
        <time>2020-12-06T10:11:05.000Z</time>
      </trkpt>
      <trkpt lat="47.32931" lon="-2.4317">
        <ele>72.599998474121</ele>
        <time>2020-12-06T10:11:06.000Z</time>
      </trkpt>
      <trkpt lat="47.32927" lon="-2.43175">
        <ele>72.199996948242</ele>
        <time>2020-12-06T10:11:07.000Z</time>
      </trkpt>
      <trkpt lat="47.32923" lon="-2.43179">
        <ele>71.800003051758</ele>
        <time>2020-12-06T10:11:08.000Z</time>
      </trkpt>
      <trkpt lat="47.32895" lon="-2.43201">
        <ele>71.800003051758</ele>
        <time>2020-12-06T10:11:13.000Z</time>
      </trkpt>
      <trkpt lat="47.3286" lon="-2.43227">
        <ele>71.800003051758</ele>
        <time>2020-12-06T10:11:19.000Z</time>
      </trkpt>
      <trkpt lat="47.32817" lon="-2.43255">
        <ele>71.800003051758</ele>
        <time>2020-12-06T10:11:26.000Z</time>
      </trkpt>
      <trkpt lat="47.32781" lon="-2.43271">
        <ele>71.800003051758</ele>
        <time>2020-12-06T10:11:32.000Z</time>
      </trkpt>
      <trkpt lat="47.32738" lon="-2.43289">
        <ele>71.800003051758</ele>
        <time>2020-12-06T10:11:39.000Z</time>
      </trkpt>
      <trkpt lat="47.32709" lon="-2.43291">
        <ele>71.800003051758</ele>
        <time>2020-12-06T10:11:44.000Z</time>
      </trkpt>
      <trkpt lat="47.32701" lon="-2.4329">
        <ele>71.800003051758</ele>
        <time>2020-12-06T10:11:47.000Z</time>
      </trkpt>
      <trkpt lat="47.32688" lon="-2.43283">
        <ele>71.800003051758</ele>
        <time>2020-12-06T10:11:50.000Z</time>
      </trkpt>
      <trkpt lat="47.32684" lon="-2.43279">
        <ele>71.800003051758</ele>
        <time>2020-12-06T10:11:51.000Z</time>
      </trkpt>
      <trkpt lat="47.32664" lon="-2.43254">
        <ele>71.800003051758</ele>
        <time>2020-12-06T10:11:56.000Z</time>
      </trkpt>
      <trkpt lat="47.32661" lon="-2.43248">
        <ele>71.800003051758</ele>
        <time>2020-12-06T10:11:57.000Z</time>
      </trkpt>
      <trkpt lat="47.32658" lon="-2.43242">
        <ele>71.800003051758</ele>
        <time>2020-12-06T10:11:58.000Z</time>
      </trkpt>
      <trkpt lat="47.3265" lon="-2.43223">
        <ele>71.800003051758</ele>
        <time>2020-12-06T10:12:01.000Z</time>
      </trkpt>
      <trkpt lat="47.32647" lon="-2.43217">
        <ele>71.800003051758</ele>
        <time>2020-12-06T10:12:02.000Z</time>
      </trkpt>
      <trkpt lat="47.32637" lon="-2.43194">
        <ele>71.800003051758</ele>
        <time>2020-12-06T10:12:07.000Z</time>
      </trkpt>
      <trkpt lat="47.32628" lon="-2.43192">
        <ele>71.800003051758</ele>
        <time>2020-12-06T10:12:09.000Z</time>
      </trkpt>
      <trkpt lat="47.32622" lon="-2.43194">
        <ele>71.800003051758</ele>
        <time>2020-12-06T10:12:10.000Z</time>
      </trkpt>
      <trkpt lat="47.32599" lon="-2.43208">
        <ele>71.800003051758</ele>
        <time>2020-12-06T10:12:14.000Z</time>
      </trkpt>
      <trkpt lat="47.3257" lon="-2.4324">
        <ele>71.800003051758</ele>
        <time>2020-12-06T10:12:19.000Z</time>
      </trkpt>
      <trkpt lat="47.32561" lon="-2.43256">
        <ele>71.400001525879</ele>
        <time>2020-12-06T10:12:21.000Z</time>
      </trkpt>
      <trkpt lat="47.32557" lon="-2.43265">
        <ele>70.800003051758</ele>
        <time>2020-12-06T10:12:22.000Z</time>
      </trkpt>
      <trkpt lat="47.32553" lon="-2.43274">
        <ele>70.400001525879</ele>
        <time>2020-12-06T10:12:23.000Z</time>
      </trkpt>
      <trkpt lat="47.32549" lon="-2.43283">
        <ele>69.800003051758</ele>
        <time>2020-12-06T10:12:24.000Z</time>
      </trkpt>
      <trkpt lat="47.32547" lon="-2.43293">
        <ele>69.400001525879</ele>
        <time>2020-12-06T10:12:25.000Z</time>
      </trkpt>
      <trkpt lat="47.32545" lon="-2.43303">
        <ele>69.400001525879</ele>
        <time>2020-12-06T10:12:26.000Z</time>
      </trkpt>
      <trkpt lat="47.32542" lon="-2.43323">
        <ele>69.400001525879</ele>
        <time>2020-12-06T10:12:28.000Z</time>
      </trkpt>
      <trkpt lat="47.32537" lon="-2.43378">
        <ele>68.199996948242</ele>
        <time>2020-12-06T10:12:34.000Z</time>
      </trkpt>
      <trkpt lat="47.32535" lon="-2.43387">
        <ele>67.800003051758</ele>
        <time>2020-12-06T10:12:35.000Z</time>
      </trkpt>
      <trkpt lat="47.32533" lon="-2.43395">
        <ele>67.199996948242</ele>
        <time>2020-12-06T10:12:36.000Z</time>
      </trkpt>
      <trkpt lat="47.32531" lon="-2.43404">
        <ele>66.599998474121</ele>
        <time>2020-12-06T10:12:37.000Z</time>
      </trkpt>
      <trkpt lat="47.32528" lon="-2.43413">
        <ele>66.199996948242</ele>
        <time>2020-12-06T10:12:38.000Z</time>
      </trkpt>
      <trkpt lat="47.32527" lon="-2.43422">
        <ele>65.800003051758</ele>
        <time>2020-12-06T10:12:39.000Z</time>
      </trkpt>
      <trkpt lat="47.32526" lon="-2.43431">
        <ele>65.400001525879</ele>
        <time>2020-12-06T10:12:40.000Z</time>
      </trkpt>
      <trkpt lat="47.32524" lon="-2.43438">
        <ele>65</ele>
        <time>2020-12-06T10:12:41.000Z</time>
      </trkpt>
      <trkpt lat="47.3252" lon="-2.43443">
        <ele>64.599998474121</ele>
        <time>2020-12-06T10:12:42.000Z</time>
      </trkpt>
      <trkpt lat="47.32501" lon="-2.43461">
        <ele>64.599998474121</ele>
        <time>2020-12-06T10:12:46.000Z</time>
      </trkpt>
      <trkpt lat="47.32496" lon="-2.43467">
        <ele>64.599998474121</ele>
        <time>2020-12-06T10:12:47.000Z</time>
      </trkpt>
      <trkpt lat="47.32491" lon="-2.4347">
        <ele>64.599998474121</ele>
        <time>2020-12-06T10:12:48.000Z</time>
      </trkpt>
      <trkpt lat="47.3248" lon="-2.4347">
        <ele>64.599998474121</ele>
        <time>2020-12-06T10:12:50.000Z</time>
      </trkpt>
      <trkpt lat="47.32466" lon="-2.43485">
        <ele>64.599998474121</ele>
        <time>2020-12-06T10:12:53.000Z</time>
      </trkpt>
      <trkpt lat="47.32429" lon="-2.43519">
        <ele>64.599998474121</ele>
        <time>2020-12-06T10:13:00.000Z</time>
      </trkpt>
      <trkpt lat="47.32414" lon="-2.43538">
        <ele>64.599998474121</ele>
        <time>2020-12-06T10:13:03.000Z</time>
      </trkpt>
      <trkpt lat="47.32407" lon="-2.43554">
        <ele>64.599998474121</ele>
        <time>2020-12-06T10:13:05.000Z</time>
      </trkpt>
      <trkpt lat="47.32402" lon="-2.43571">
        <ele>64.599998474121</ele>
        <time>2020-12-06T10:13:07.000Z</time>
      </trkpt>
      <trkpt lat="47.32393" lon="-2.43605">
        <ele>64.599998474121</ele>
        <time>2020-12-06T10:13:11.000Z</time>
      </trkpt>
      <trkpt lat="47.32377" lon="-2.43675">
        <ele>64.599998474121</ele>
        <time>2020-12-06T10:13:19.000Z</time>
      </trkpt>
      <trkpt lat="47.32366" lon="-2.43739">
        <ele>64.599998474121</ele>
        <time>2020-12-06T10:13:26.000Z</time>
      </trkpt>
      <trkpt lat="47.32349" lon="-2.43797">
        <ele>64.599998474121</ele>
        <time>2020-12-06T10:13:33.000Z</time>
      </trkpt>
      <trkpt lat="47.32343" lon="-2.43813">
        <ele>64.199996948242</ele>
        <time>2020-12-06T10:13:35.000Z</time>
      </trkpt>
      <trkpt lat="47.32341" lon="-2.43821">
        <ele>63.799999237061</ele>
        <time>2020-12-06T10:13:36.000Z</time>
      </trkpt>
      <trkpt lat="47.32338" lon="-2.43828">
        <ele>63.400001525879</ele>
        <time>2020-12-06T10:13:37.000Z</time>
      </trkpt>
      <trkpt lat="47.32335" lon="-2.43836">
        <ele>62.799999237061</ele>
        <time>2020-12-06T10:13:38.000Z</time>
      </trkpt>
      <trkpt lat="47.32333" lon="-2.43844">
        <ele>62.400001525879</ele>
        <time>2020-12-06T10:13:39.000Z</time>
      </trkpt>
      <trkpt lat="47.32331" lon="-2.43853">
        <ele>62.400001525879</ele>
        <time>2020-12-06T10:13:40.000Z</time>
      </trkpt>
      <trkpt lat="47.32329" lon="-2.43861">
        <ele>62.400001525879</ele>
        <time>2020-12-06T10:13:41.000Z</time>
      </trkpt>
      <trkpt lat="47.32319" lon="-2.43922">
        <ele>62.400001525879</ele>
        <time>2020-12-06T10:13:48.000Z</time>
      </trkpt>
      <trkpt lat="47.32309" lon="-2.43974">
        <ele>62.400001525879</ele>
        <time>2020-12-06T10:13:54.000Z</time>
      </trkpt>
      <trkpt lat="47.32306" lon="-2.43982">
        <ele>62.400001525879</ele>
        <time>2020-12-06T10:13:55.000Z</time>
      </trkpt>
      <trkpt lat="47.32298" lon="-2.43997">
        <ele>62</ele>
        <time>2020-12-06T10:13:57.000Z</time>
      </trkpt>
      <trkpt lat="47.32292" lon="-2.44004">
        <ele>61.599998474121</ele>
        <time>2020-12-06T10:13:58.000Z</time>
      </trkpt>
      <trkpt lat="47.32286" lon="-2.4401">
        <ele>61.200000762939</ele>
        <time>2020-12-06T10:13:59.000Z</time>
      </trkpt>
      <trkpt lat="47.3228" lon="-2.44016">
        <ele>60.799999237061</ele>
        <time>2020-12-06T10:14:00.000Z</time>
      </trkpt>
      <trkpt lat="47.32274" lon="-2.44021">
        <ele>60.400001525879</ele>
        <time>2020-12-06T10:14:01.000Z</time>
      </trkpt>
      <trkpt lat="47.32261" lon="-2.44033">
        <ele>59.799999237061</ele>
        <time>2020-12-06T10:14:03.000Z</time>
      </trkpt>
      <trkpt lat="47.32255" lon="-2.44038">
        <ele>59.400001525879</ele>
        <time>2020-12-06T10:14:04.000Z</time>
      </trkpt>
      <trkpt lat="47.32249" lon="-2.44044">
        <ele>59</ele>
        <time>2020-12-06T10:14:05.000Z</time>
      </trkpt>
      <trkpt lat="47.32242" lon="-2.44047">
        <ele>58.599998474121</ele>
        <time>2020-12-06T10:14:06.000Z</time>
      </trkpt>
      <trkpt lat="47.32236" lon="-2.44047">
        <ele>58.200000762939</ele>
        <time>2020-12-06T10:14:07.000Z</time>
      </trkpt>
      <trkpt lat="47.32223" lon="-2.44044">
        <ele>58.200000762939</ele>
        <time>2020-12-06T10:14:09.000Z</time>
      </trkpt>
      <trkpt lat="47.32205" lon="-2.44027">
        <ele>57.599998474121</ele>
        <time>2020-12-06T10:14:12.000Z</time>
      </trkpt>
      <trkpt lat="47.322" lon="-2.4402">
        <ele>56.799999237061</ele>
        <time>2020-12-06T10:14:13.000Z</time>
      </trkpt>
      <trkpt lat="47.32194" lon="-2.44012">
        <ele>56.200000762939</ele>
        <time>2020-12-06T10:14:14.000Z</time>
      </trkpt>
      <trkpt lat="47.32189" lon="-2.44005">
        <ele>55.799999237061</ele>
        <time>2020-12-06T10:14:15.000Z</time>
      </trkpt>
      <trkpt lat="47.32161" lon="-2.43966">
        <ele>55.799999237061</ele>
        <time>2020-12-06T10:14:20.000Z</time>
      </trkpt>
      <trkpt lat="47.32155" lon="-2.43958">
        <ele>55.400001525879</ele>
        <time>2020-12-06T10:14:21.000Z</time>
      </trkpt>
      <trkpt lat="47.3215" lon="-2.4395">
        <ele>55</ele>
        <time>2020-12-06T10:14:22.000Z</time>
      </trkpt>
      <trkpt lat="47.32144" lon="-2.43941">
        <ele>54.400001525879</ele>
        <time>2020-12-06T10:14:23.000Z</time>
      </trkpt>
      <trkpt lat="47.32139" lon="-2.43933">
        <ele>54</ele>
        <time>2020-12-06T10:14:24.000Z</time>
      </trkpt>
      <trkpt lat="47.32132" lon="-2.43925">
        <ele>53.599998474121</ele>
        <time>2020-12-06T10:14:25.000Z</time>
      </trkpt>
      <trkpt lat="47.32125" lon="-2.43917">
        <ele>53.200000762939</ele>
        <time>2020-12-06T10:14:26.000Z</time>
      </trkpt>
      <trkpt lat="47.32117" lon="-2.43912">
        <ele>52.799999237061</ele>
        <time>2020-12-06T10:14:27.000Z</time>
      </trkpt>
      <trkpt lat="47.32109" lon="-2.43907">
        <ele>52.400001525879</ele>
        <time>2020-12-06T10:14:28.000Z</time>
      </trkpt>
      <trkpt lat="47.321" lon="-2.43903">
        <ele>51.799999237061</ele>
        <time>2020-12-06T10:14:29.000Z</time>
      </trkpt>
      <trkpt lat="47.32093" lon="-2.439">
        <ele>51</ele>
        <time>2020-12-06T10:14:30.000Z</time>
      </trkpt>
      <trkpt lat="47.32085" lon="-2.43894">
        <ele>50.400001525879</ele>
        <time>2020-12-06T10:14:31.000Z</time>
      </trkpt>
      <trkpt lat="47.32078" lon="-2.43888">
        <ele>49.799999237061</ele>
        <time>2020-12-06T10:14:32.000Z</time>
      </trkpt>
      <trkpt lat="47.32071" lon="-2.43877">
        <ele>49.200000762939</ele>
        <time>2020-12-06T10:14:33.000Z</time>
      </trkpt>
      <trkpt lat="47.3206" lon="-2.43857">
        <ele>49.200000762939</ele>
        <time>2020-12-06T10:14:35.000Z</time>
      </trkpt>
      <trkpt lat="47.3205" lon="-2.43836">
        <ele>48.799999237061</ele>
        <time>2020-12-06T10:14:37.000Z</time>
      </trkpt>
      <trkpt lat="47.32045" lon="-2.43827">
        <ele>47.799999237061</ele>
        <time>2020-12-06T10:14:38.000Z</time>
      </trkpt>
      <trkpt lat="47.32041" lon="-2.43818">
        <ele>47.400001525879</ele>
        <time>2020-12-06T10:14:39.000Z</time>
      </trkpt>
      <trkpt lat="47.32037" lon="-2.43811">
        <ele>47</ele>
        <time>2020-12-06T10:14:40.000Z</time>
      </trkpt>
      <trkpt lat="47.32029" lon="-2.43801">
        <ele>46.599998474121</ele>
        <time>2020-12-06T10:14:42.000Z</time>
      </trkpt>
      <trkpt lat="47.32023" lon="-2.43802">
        <ele>46.200000762939</ele>
        <time>2020-12-06T10:14:43.000Z</time>
      </trkpt>
      <trkpt lat="47.32017" lon="-2.43806">
        <ele>45.599998474121</ele>
        <time>2020-12-06T10:14:44.000Z</time>
      </trkpt>
      <trkpt lat="47.32011" lon="-2.43812">
        <ele>45.200000762939</ele>
        <time>2020-12-06T10:14:45.000Z</time>
      </trkpt>
      <trkpt lat="47.32005" lon="-2.43818">
        <ele>44.799999237061</ele>
        <time>2020-12-06T10:14:46.000Z</time>
      </trkpt>
      <trkpt lat="47.31999" lon="-2.43825">
        <ele>44.799999237061</ele>
        <time>2020-12-06T10:14:47.000Z</time>
      </trkpt>
      <trkpt lat="47.31992" lon="-2.43833">
        <ele>44.400001525879</ele>
        <time>2020-12-06T10:14:48.000Z</time>
      </trkpt>
      <trkpt lat="47.31986" lon="-2.43837">
        <ele>44</ele>
        <time>2020-12-06T10:14:49.000Z</time>
      </trkpt>
      <trkpt lat="47.31979" lon="-2.43838">
        <ele>43.599998474121</ele>
        <time>2020-12-06T10:14:50.000Z</time>
      </trkpt>
      <trkpt lat="47.31973" lon="-2.43836">
        <ele>43</ele>
        <time>2020-12-06T10:14:51.000Z</time>
      </trkpt>
      <trkpt lat="47.31968" lon="-2.4383">
        <ele>42.400001525879</ele>
        <time>2020-12-06T10:14:52.000Z</time>
      </trkpt>
      <trkpt lat="47.31963" lon="-2.43822">
        <ele>41.599998474121</ele>
        <time>2020-12-06T10:14:53.000Z</time>
      </trkpt>
      <trkpt lat="47.31958" lon="-2.43813">
        <ele>41</ele>
        <time>2020-12-06T10:14:54.000Z</time>
      </trkpt>
      <trkpt lat="47.31953" lon="-2.43804">
        <ele>40.400001525879</ele>
        <time>2020-12-06T10:14:55.000Z</time>
      </trkpt>
      <trkpt lat="47.31949" lon="-2.43793">
        <ele>39.599998474121</ele>
        <time>2020-12-06T10:14:56.000Z</time>
      </trkpt>
      <trkpt lat="47.31944" lon="-2.43783">
        <ele>39</ele>
        <time>2020-12-06T10:14:57.000Z</time>
      </trkpt>
      <trkpt lat="47.3194" lon="-2.43772">
        <ele>38.200000762939</ele>
        <time>2020-12-06T10:14:58.000Z</time>
      </trkpt>
      <trkpt lat="47.31918" lon="-2.43713">
        <ele>38.200000762939</ele>
        <time>2020-12-06T10:15:03.000Z</time>
      </trkpt>
      <trkpt lat="47.31908" lon="-2.4369">
        <ele>38.200000762939</ele>
        <time>2020-12-06T10:15:05.000Z</time>
      </trkpt>
      <trkpt lat="47.31893" lon="-2.43659">
        <ele>38.200000762939</ele>
        <time>2020-12-06T10:15:08.000Z</time>
      </trkpt>
      <trkpt lat="47.31887" lon="-2.43634">
        <ele>38.200000762939</ele>
        <time>2020-12-06T10:15:11.000Z</time>
      </trkpt>
      <trkpt lat="47.31895" lon="-2.43617">
        <ele>38.200000762939</ele>
        <time>2020-12-06T10:15:14.000Z</time>
      </trkpt>
      <trkpt lat="47.31904" lon="-2.43609">
        <ele>38.200000762939</ele>
        <time>2020-12-06T10:15:16.000Z</time>
      </trkpt>
      <trkpt lat="47.31914" lon="-2.43598">
        <ele>38.200000762939</ele>
        <time>2020-12-06T10:15:18.000Z</time>
      </trkpt>
      <trkpt lat="47.31922" lon="-2.43587">
        <ele>38.200000762939</ele>
        <time>2020-12-06T10:15:20.000Z</time>
      </trkpt>
      <trkpt lat="47.31926" lon="-2.43572">
        <ele>38.200000762939</ele>
        <time>2020-12-06T10:15:22.000Z</time>
      </trkpt>
      <trkpt lat="47.31927" lon="-2.43539">
        <ele>38.599998474121</ele>
        <time>2020-12-06T10:15:26.000Z</time>
      </trkpt>
      <trkpt lat="47.31927" lon="-2.43531">
        <ele>39.599998474121</ele>
        <time>2020-12-06T10:15:27.000Z</time>
      </trkpt>
      <trkpt lat="47.31927" lon="-2.43522">
        <ele>40</ele>
        <time>2020-12-06T10:15:28.000Z</time>
      </trkpt>
      <trkpt lat="47.31926" lon="-2.43513">
        <ele>40.400001525879</ele>
        <time>2020-12-06T10:15:29.000Z</time>
      </trkpt>
      <trkpt lat="47.31927" lon="-2.43495">
        <ele>40.400001525879</ele>
        <time>2020-12-06T10:15:31.000Z</time>
      </trkpt>
      <trkpt lat="47.31928" lon="-2.43487">
        <ele>40.400001525879</ele>
        <time>2020-12-06T10:15:32.000Z</time>
      </trkpt>
      <trkpt lat="47.3193" lon="-2.43478">
        <ele>40.799999237061</ele>
        <time>2020-12-06T10:15:33.000Z</time>
      </trkpt>
      <trkpt lat="47.31932" lon="-2.4347">
        <ele>41.200000762939</ele>
        <time>2020-12-06T10:15:34.000Z</time>
      </trkpt>
      <trkpt lat="47.31935" lon="-2.43462">
        <ele>41.599998474121</ele>
        <time>2020-12-06T10:15:35.000Z</time>
      </trkpt>
      <trkpt lat="47.31937" lon="-2.43455">
        <ele>42</ele>
        <time>2020-12-06T10:15:36.000Z</time>
      </trkpt>
      <trkpt lat="47.31939" lon="-2.43448">
        <ele>42.400001525879</ele>
        <time>2020-12-06T10:15:37.000Z</time>
      </trkpt>
      <trkpt lat="47.31953" lon="-2.43406">
        <ele>42.799999237061</ele>
        <time>2020-12-06T10:15:43.000Z</time>
      </trkpt>
      <trkpt lat="47.31956" lon="-2.434">
        <ele>43.200000762939</ele>
        <time>2020-12-06T10:15:44.000Z</time>
      </trkpt>
      <trkpt lat="47.31959" lon="-2.43393">
        <ele>43.599998474121</ele>
        <time>2020-12-06T10:15:45.000Z</time>
      </trkpt>
      <trkpt lat="47.31961" lon="-2.43386">
        <ele>44</ele>
        <time>2020-12-06T10:15:46.000Z</time>
      </trkpt>
      <trkpt lat="47.31963" lon="-2.4338">
        <ele>44.599998474121</ele>
        <time>2020-12-06T10:15:47.000Z</time>
      </trkpt>
      <trkpt lat="47.31969" lon="-2.4336">
        <ele>44.599998474121</ele>
        <time>2020-12-06T10:15:50.000Z</time>
      </trkpt>
      <trkpt lat="47.31971" lon="-2.43347">
        <ele>45.400001525879</ele>
        <time>2020-12-06T10:15:52.000Z</time>
      </trkpt>
      <trkpt lat="47.31973" lon="-2.4334">
        <ele>45.799999237061</ele>
        <time>2020-12-06T10:15:53.000Z</time>
      </trkpt>
      <trkpt lat="47.31974" lon="-2.43333">
        <ele>46.200000762939</ele>
        <time>2020-12-06T10:15:54.000Z</time>
      </trkpt>
      <trkpt lat="47.31975" lon="-2.43326">
        <ele>46.599998474121</ele>
        <time>2020-12-06T10:15:55.000Z</time>
      </trkpt>
      <trkpt lat="47.31975" lon="-2.43319">
        <ele>46.599998474121</ele>
        <time>2020-12-06T10:15:56.000Z</time>
      </trkpt>
      <trkpt lat="47.31975" lon="-2.43292">
        <ele>46.599998474121</ele>
        <time>2020-12-06T10:16:01.000Z</time>
      </trkpt>
      <trkpt lat="47.31972" lon="-2.43289">
        <ele>46.599998474121</ele>
        <time>2020-12-06T10:16:02.000Z</time>
      </trkpt>
      <trkpt lat="47.31965" lon="-2.43288">
        <ele>46.599998474121</ele>
        <time>2020-12-06T10:16:04.000Z</time>
      </trkpt>
      <trkpt lat="47.31951" lon="-2.43293">
        <ele>46.599998474121</ele>
        <time>2020-12-06T10:16:07.000Z</time>
      </trkpt>
      <trkpt lat="47.31946" lon="-2.43296">
        <ele>46.599998474121</ele>
        <time>2020-12-06T10:16:08.000Z</time>
      </trkpt>
      <trkpt lat="47.31917" lon="-2.43311">
        <ele>46.599998474121</ele>
        <time>2020-12-06T10:16:12.000Z</time>
      </trkpt>
      <trkpt lat="47.31877" lon="-2.43337">
        <ele>46.200000762939</ele>
        <time>2020-12-06T10:16:17.000Z</time>
      </trkpt>
      <trkpt lat="47.31869" lon="-2.43342">
        <ele>45.599998474121</ele>
        <time>2020-12-06T10:16:18.000Z</time>
      </trkpt>
      <trkpt lat="47.31861" lon="-2.43349">
        <ele>45</ele>
        <time>2020-12-06T10:16:19.000Z</time>
      </trkpt>
      <trkpt lat="47.31853" lon="-2.43356">
        <ele>44.599998474121</ele>
        <time>2020-12-06T10:16:20.000Z</time>
      </trkpt>
      <trkpt lat="47.31846" lon="-2.43362">
        <ele>44</ele>
        <time>2020-12-06T10:16:21.000Z</time>
      </trkpt>
      <trkpt lat="47.31838" lon="-2.43369">
        <ele>43.599998474121</ele>
        <time>2020-12-06T10:16:22.000Z</time>
      </trkpt>
      <trkpt lat="47.3183" lon="-2.43375">
        <ele>43.200000762939</ele>
        <time>2020-12-06T10:16:23.000Z</time>
      </trkpt>
      <trkpt lat="47.31822" lon="-2.43381">
        <ele>42.799999237061</ele>
        <time>2020-12-06T10:16:24.000Z</time>
      </trkpt>
      <trkpt lat="47.31814" lon="-2.43385">
        <ele>42.200000762939</ele>
        <time>2020-12-06T10:16:25.000Z</time>
      </trkpt>
      <trkpt lat="47.31806" lon="-2.4339">
        <ele>41.799999237061</ele>
        <time>2020-12-06T10:16:26.000Z</time>
      </trkpt>
      <trkpt lat="47.31767" lon="-2.43411">
        <ele>41.400001525879</ele>
        <time>2020-12-06T10:16:31.000Z</time>
      </trkpt>
      <trkpt lat="47.3176" lon="-2.43415">
        <ele>41</ele>
        <time>2020-12-06T10:16:32.000Z</time>
      </trkpt>
      <trkpt lat="47.31752" lon="-2.4342">
        <ele>40.599998474121</ele>
        <time>2020-12-06T10:16:33.000Z</time>
      </trkpt>
      <trkpt lat="47.31744" lon="-2.43424">
        <ele>40</ele>
        <time>2020-12-06T10:16:34.000Z</time>
      </trkpt>
      <trkpt lat="47.31737" lon="-2.43429">
        <ele>39.599998474121</ele>
        <time>2020-12-06T10:16:35.000Z</time>
      </trkpt>
      <trkpt lat="47.3173" lon="-2.43434">
        <ele>39.200000762939</ele>
        <time>2020-12-06T10:16:36.000Z</time>
      </trkpt>
      <trkpt lat="47.31723" lon="-2.4344">
        <ele>38.599998474121</ele>
        <time>2020-12-06T10:16:37.000Z</time>
      </trkpt>
      <trkpt lat="47.31716" lon="-2.43447">
        <ele>38.200000762939</ele>
        <time>2020-12-06T10:16:38.000Z</time>
      </trkpt>
      <trkpt lat="47.31711" lon="-2.43455">
        <ele>37.599998474121</ele>
        <time>2020-12-06T10:16:39.000Z</time>
      </trkpt>
      <trkpt lat="47.31693" lon="-2.43495">
        <ele>37.599998474121</ele>
        <time>2020-12-06T10:16:43.000Z</time>
      </trkpt>
      <trkpt lat="47.31666" lon="-2.43539">
        <ele>37.599998474121</ele>
        <time>2020-12-06T10:16:48.000Z</time>
      </trkpt>
      <trkpt lat="47.31631" lon="-2.43582">
        <ele>37.200000762939</ele>
        <time>2020-12-06T10:16:54.000Z</time>
      </trkpt>
      <trkpt lat="47.31624" lon="-2.43588">
        <ele>36.799999237061</ele>
        <time>2020-12-06T10:16:55.000Z</time>
      </trkpt>
      <trkpt lat="47.31617" lon="-2.43594">
        <ele>36.400001525879</ele>
        <time>2020-12-06T10:16:56.000Z</time>
      </trkpt>
      <trkpt lat="47.3161" lon="-2.436">
        <ele>36</ele>
        <time>2020-12-06T10:16:57.000Z</time>
      </trkpt>
      <trkpt lat="47.31603" lon="-2.43605">
        <ele>35.400001525879</ele>
        <time>2020-12-06T10:16:58.000Z</time>
      </trkpt>
      <trkpt lat="47.31582" lon="-2.4362">
        <ele>35.400001525879</ele>
        <time>2020-12-06T10:17:01.000Z</time>
      </trkpt>
      <trkpt lat="47.31532" lon="-2.43657">
        <ele>35.400001525879</ele>
        <time>2020-12-06T10:17:08.000Z</time>
      </trkpt>
      <trkpt lat="47.31488" lon="-2.43692">
        <ele>35.400001525879</ele>
        <time>2020-12-06T10:17:14.000Z</time>
      </trkpt>
      <trkpt lat="47.31481" lon="-2.43697">
        <ele>35.400001525879</ele>
        <time>2020-12-06T10:17:15.000Z</time>
      </trkpt>
      <trkpt lat="47.31473" lon="-2.43703">
        <ele>35.400001525879</ele>
        <time>2020-12-06T10:17:16.000Z</time>
      </trkpt>
      <trkpt lat="47.31451" lon="-2.4372">
        <ele>35.400001525879</ele>
        <time>2020-12-06T10:17:19.000Z</time>
      </trkpt>
      <trkpt lat="47.31412" lon="-2.43747">
        <ele>35</ele>
        <time>2020-12-06T10:17:24.000Z</time>
      </trkpt>
      <trkpt lat="47.31405" lon="-2.43753">
        <ele>34.599998474121</ele>
        <time>2020-12-06T10:17:25.000Z</time>
      </trkpt>
      <trkpt lat="47.31397" lon="-2.43759">
        <ele>34.200000762939</ele>
        <time>2020-12-06T10:17:26.000Z</time>
      </trkpt>
      <trkpt lat="47.3139" lon="-2.43764">
        <ele>33.799999237061</ele>
        <time>2020-12-06T10:17:27.000Z</time>
      </trkpt>
      <trkpt lat="47.31383" lon="-2.43769">
        <ele>33.400001525879</ele>
        <time>2020-12-06T10:17:28.000Z</time>
      </trkpt>
      <trkpt lat="47.3135" lon="-2.43795">
        <ele>33.400001525879</ele>
        <time>2020-12-06T10:17:33.000Z</time>
      </trkpt>
      <trkpt lat="47.31338" lon="-2.43807">
        <ele>33</ele>
        <time>2020-12-06T10:17:35.000Z</time>
      </trkpt>
      <trkpt lat="47.31334" lon="-2.43811">
        <ele>32.400001525879</ele>
        <time>2020-12-06T10:17:36.000Z</time>
      </trkpt>
      <trkpt lat="47.31332" lon="-2.43812">
        <ele>32</ele>
        <time>2020-12-06T10:17:37.000Z</time>
      </trkpt>
      <trkpt lat="47.3133" lon="-2.43814">
        <ele>31.39999961853</ele>
        <time>2020-12-06T10:17:38.000Z</time>
      </trkpt>
      <trkpt lat="47.31328" lon="-2.43816">
        <ele>31</ele>
        <time>2020-12-06T10:17:39.000Z</time>
      </trkpt>
      <trkpt lat="47.31317" lon="-2.43819">
        <ele>31</ele>
        <time>2020-12-06T10:17:42.000Z</time>
      </trkpt>
      <trkpt lat="47.31308" lon="-2.43815">
        <ele>31</ele>
        <time>2020-12-06T10:17:44.000Z</time>
      </trkpt>
      <trkpt lat="47.31295" lon="-2.43801">
        <ele>31</ele>
        <time>2020-12-06T10:17:47.000Z</time>
      </trkpt>
      <trkpt lat="47.31285" lon="-2.43777">
        <ele>31</ele>
        <time>2020-12-06T10:17:50.000Z</time>
      </trkpt>
      <trkpt lat="47.31281" lon="-2.43768">
        <ele>31</ele>
        <time>2020-12-06T10:17:51.000Z</time>
      </trkpt>
      <trkpt lat="47.31256" lon="-2.43705">
        <ele>31</ele>
        <time>2020-12-06T10:17:58.000Z</time>
      </trkpt>
      <trkpt lat="47.31239" lon="-2.43635">
        <ele>31</ele>
        <time>2020-12-06T10:18:05.000Z</time>
      </trkpt>
      <trkpt lat="47.31227" lon="-2.43556">
        <ele>31</ele>
        <time>2020-12-06T10:18:12.000Z</time>
      </trkpt>
      <trkpt lat="47.31222" lon="-2.43522">
        <ele>31</ele>
        <time>2020-12-06T10:18:15.000Z</time>
      </trkpt>
      <trkpt lat="47.3121" lon="-2.43441">
        <ele>31</ele>
        <time>2020-12-06T10:18:22.000Z</time>
      </trkpt>
      <trkpt lat="47.31198" lon="-2.4336">
        <ele>31</ele>
        <time>2020-12-06T10:18:29.000Z</time>
      </trkpt>
      <trkpt lat="47.31183" lon="-2.43306">
        <ele>31</ele>
        <time>2020-12-06T10:18:34.000Z</time>
      </trkpt>
      <trkpt lat="47.31174" lon="-2.43288">
        <ele>31</ele>
        <time>2020-12-06T10:18:36.000Z</time>
      </trkpt>
      <trkpt lat="47.31163" lon="-2.43271">
        <ele>31</ele>
        <time>2020-12-06T10:18:38.000Z</time>
      </trkpt>
      <trkpt lat="47.31131" lon="-2.43221">
        <ele>31</ele>
        <time>2020-12-06T10:18:44.000Z</time>
      </trkpt>
      <trkpt lat="47.31122" lon="-2.43205">
        <ele>31</ele>
        <time>2020-12-06T10:18:46.000Z</time>
      </trkpt>
      <trkpt lat="47.31117" lon="-2.43198">
        <ele>31</ele>
        <time>2020-12-06T10:18:47.000Z</time>
      </trkpt>
      <trkpt lat="47.31106" lon="-2.43191">
        <ele>31</ele>
        <time>2020-12-06T10:18:49.000Z</time>
      </trkpt>
      <trkpt lat="47.31099" lon="-2.43194">
        <ele>31</ele>
        <time>2020-12-06T10:18:50.000Z</time>
      </trkpt>
      <trkpt lat="47.31087" lon="-2.43202">
        <ele>31</ele>
        <time>2020-12-06T10:18:52.000Z</time>
      </trkpt>
      <trkpt lat="47.31081" lon="-2.43207">
        <ele>30.60000038147</ele>
        <time>2020-12-06T10:18:53.000Z</time>
      </trkpt>
      <trkpt lat="47.31076" lon="-2.43212">
        <ele>30.200000762939</ele>
        <time>2020-12-06T10:18:54.000Z</time>
      </trkpt>
      <trkpt lat="47.3107" lon="-2.43218">
        <ele>29.799999237061</ele>
        <time>2020-12-06T10:18:55.000Z</time>
      </trkpt>
      <trkpt lat="47.31064" lon="-2.43224">
        <ele>29.39999961853</ele>
        <time>2020-12-06T10:18:56.000Z</time>
      </trkpt>
      <trkpt lat="47.31059" lon="-2.4323">
        <ele>29</ele>
        <time>2020-12-06T10:18:57.000Z</time>
      </trkpt>
      <trkpt lat="47.31048" lon="-2.43242">
        <ele>29</ele>
        <time>2020-12-06T10:18:59.000Z</time>
      </trkpt>
      <trkpt lat="47.31044" lon="-2.4325">
        <ele>29</ele>
        <time>2020-12-06T10:19:00.000Z</time>
      </trkpt>
      <trkpt lat="47.31026" lon="-2.43275">
        <ele>29</ele>
        <time>2020-12-06T10:19:04.000Z</time>
      </trkpt>
      <trkpt lat="47.31002" lon="-2.43301">
        <ele>29</ele>
        <time>2020-12-06T10:19:09.000Z</time>
      </trkpt>
      <trkpt lat="47.30997" lon="-2.43305">
        <ele>28.60000038147</ele>
        <time>2020-12-06T10:19:10.000Z</time>
      </trkpt>
      <trkpt lat="47.30991" lon="-2.43308">
        <ele>27.799999237061</ele>
        <time>2020-12-06T10:19:11.000Z</time>
      </trkpt>
      <trkpt lat="47.30985" lon="-2.43312">
        <ele>27.39999961853</ele>
        <time>2020-12-06T10:19:12.000Z</time>
      </trkpt>
      <trkpt lat="47.30979" lon="-2.43315">
        <ele>27</ele>
        <time>2020-12-06T10:19:13.000Z</time>
      </trkpt>
      <trkpt lat="47.30967" lon="-2.4332">
        <ele>27</ele>
        <time>2020-12-06T10:19:15.000Z</time>
      </trkpt>
      <trkpt lat="47.30917" lon="-2.43341">
        <ele>27</ele>
        <time>2020-12-06T10:19:23.000Z</time>
      </trkpt>
      <trkpt lat="47.30875" lon="-2.43358">
        <ele>27</ele>
        <time>2020-12-06T10:19:30.000Z</time>
      </trkpt>
      <trkpt lat="47.30839" lon="-2.43375">
        <ele>27</ele>
        <time>2020-12-06T10:19:36.000Z</time>
      </trkpt>
      <trkpt lat="47.30795" lon="-2.43391">
        <ele>27</ele>
        <time>2020-12-06T10:19:43.000Z</time>
      </trkpt>
      <trkpt lat="47.30788" lon="-2.43392">
        <ele>27</ele>
        <time>2020-12-06T10:19:44.000Z</time>
      </trkpt>
      <trkpt lat="47.30761" lon="-2.43393">
        <ele>27</ele>
        <time>2020-12-06T10:19:48.000Z</time>
      </trkpt>
      <trkpt lat="47.30705" lon="-2.43394">
        <ele>27</ele>
        <time>2020-12-06T10:19:56.000Z</time>
      </trkpt>
      <trkpt lat="47.30663" lon="-2.434">
        <ele>27</ele>
        <time>2020-12-06T10:20:02.000Z</time>
      </trkpt>
      <trkpt lat="47.30637" lon="-2.43406">
        <ele>27.39999961853</ele>
        <time>2020-12-06T10:20:06.000Z</time>
      </trkpt>
      <trkpt lat="47.3063" lon="-2.43407">
        <ele>27.799999237061</ele>
        <time>2020-12-06T10:20:07.000Z</time>
      </trkpt>
      <trkpt lat="47.30623" lon="-2.43408">
        <ele>28.200000762939</ele>
        <time>2020-12-06T10:20:08.000Z</time>
      </trkpt>
      <trkpt lat="47.30617" lon="-2.43409">
        <ele>28.60000038147</ele>
        <time>2020-12-06T10:20:09.000Z</time>
      </trkpt>
      <trkpt lat="47.3061" lon="-2.43411">
        <ele>29</ele>
        <time>2020-12-06T10:20:10.000Z</time>
      </trkpt>
      <trkpt lat="47.30558" lon="-2.4342">
        <ele>29</ele>
        <time>2020-12-06T10:20:18.000Z</time>
      </trkpt>
      <trkpt lat="47.30527" lon="-2.43417">
        <ele>29</ele>
        <time>2020-12-06T10:20:23.000Z</time>
      </trkpt>
      <trkpt lat="47.30504" lon="-2.43413">
        <ele>28.60000038147</ele>
        <time>2020-12-06T10:20:27.000Z</time>
      </trkpt>
      <trkpt lat="47.30498" lon="-2.43412">
        <ele>28.200000762939</ele>
        <time>2020-12-06T10:20:28.000Z</time>
      </trkpt>
      <trkpt lat="47.30492" lon="-2.43412">
        <ele>27.799999237061</ele>
        <time>2020-12-06T10:20:29.000Z</time>
      </trkpt>
      <trkpt lat="47.30486" lon="-2.43412">
        <ele>27.39999961853</ele>
        <time>2020-12-06T10:20:30.000Z</time>
      </trkpt>
      <trkpt lat="47.30481" lon="-2.43412">
        <ele>27</ele>
        <time>2020-12-06T10:20:31.000Z</time>
      </trkpt>
      <trkpt lat="47.30455" lon="-2.43417">
        <ele>27</ele>
        <time>2020-12-06T10:20:36.000Z</time>
      </trkpt>
      <trkpt lat="47.3045" lon="-2.43418">
        <ele>27</ele>
        <time>2020-12-06T10:20:37.000Z</time>
      </trkpt>
      <trkpt lat="47.30434" lon="-2.43413">
        <ele>27</ele>
        <time>2020-12-06T10:20:40.000Z</time>
      </trkpt>
      <trkpt lat="47.30426" lon="-2.43391">
        <ele>27</ele>
        <time>2020-12-06T10:20:43.000Z</time>
      </trkpt>
      <trkpt lat="47.30424" lon="-2.43383">
        <ele>27</ele>
        <time>2020-12-06T10:20:44.000Z</time>
      </trkpt>
      <trkpt lat="47.30416" lon="-2.43342">
        <ele>27</ele>
        <time>2020-12-06T10:20:49.000Z</time>
      </trkpt>
      <trkpt lat="47.30405" lon="-2.43289">
        <ele>27</ele>
        <time>2020-12-06T10:20:55.000Z</time>
      </trkpt>
      <trkpt lat="47.30393" lon="-2.43254">
        <ele>27</ele>
        <time>2020-12-06T10:20:59.000Z</time>
      </trkpt>
      <trkpt lat="47.30383" lon="-2.43241">
        <ele>27</ele>
        <time>2020-12-06T10:21:01.000Z</time>
      </trkpt>
      <trkpt lat="47.3037" lon="-2.43234">
        <ele>27</ele>
        <time>2020-12-06T10:21:03.000Z</time>
      </trkpt>
      <trkpt lat="47.30358" lon="-2.43224">
        <ele>27</ele>
        <time>2020-12-06T10:21:05.000Z</time>
      </trkpt>
      <trkpt lat="47.30352" lon="-2.43218">
        <ele>27</ele>
        <time>2020-12-06T10:21:06.000Z</time>
      </trkpt>
      <trkpt lat="47.30324" lon="-2.43178">
        <ele>27</ele>
        <time>2020-12-06T10:21:12.000Z</time>
      </trkpt>
      <trkpt lat="47.30319" lon="-2.43172">
        <ele>27</ele>
        <time>2020-12-06T10:21:13.000Z</time>
      </trkpt>
      <trkpt lat="47.30301" lon="-2.43152">
        <ele>27</ele>
        <time>2020-12-06T10:21:17.000Z</time>
      </trkpt>
      <trkpt lat="47.30292" lon="-2.43144">
        <ele>27</ele>
        <time>2020-12-06T10:21:20.000Z</time>
      </trkpt>
      <trkpt lat="47.30282" lon="-2.43143">
        <ele>27</ele>
        <time>2020-12-06T10:21:25.000Z</time>
      </trkpt>
      <trkpt lat="47.30272" lon="-2.43142">
        <ele>27</ele>
        <time>2020-12-06T10:21:29.000Z</time>
      </trkpt>
      <trkpt lat="47.30267" lon="-2.43129">
        <ele>27</ele>
        <time>2020-12-06T10:21:33.000Z</time>
      </trkpt>
      <trkpt lat="47.30264" lon="-2.43102">
        <ele>27</ele>
        <time>2020-12-06T10:21:39.000Z</time>
      </trkpt>
      <trkpt lat="47.3027" lon="-2.4308">
        <ele>27</ele>
        <time>2020-12-06T10:21:43.000Z</time>
      </trkpt>
      <trkpt lat="47.30273" lon="-2.43076">
        <ele>27</ele>
        <time>2020-12-06T10:21:44.000Z</time>
      </trkpt>
      <trkpt lat="47.30286" lon="-2.43072">
        <ele>27</ele>
        <time>2020-12-06T10:21:47.000Z</time>
      </trkpt>
      <trkpt lat="47.3029" lon="-2.43074">
        <ele>27</ele>
        <time>2020-12-06T10:21:48.000Z</time>
      </trkpt>
      <trkpt lat="47.30299" lon="-2.43075">
        <ele>27</ele>
        <time>2020-12-06T10:21:50.000Z</time>
      </trkpt>
      <trkpt lat="47.30311" lon="-2.43075">
        <ele>27</ele>
        <time>2020-12-06T10:21:53.000Z</time>
      </trkpt>
      <trkpt lat="47.30344" lon="-2.4307">
        <ele>27</ele>
        <time>2020-12-06T10:22:01.000Z</time>
      </trkpt>
      <trkpt lat="47.30372" lon="-2.43065">
        <ele>27</ele>
        <time>2020-12-06T10:22:07.000Z</time>
      </trkpt>
      <trkpt lat="47.30387" lon="-2.43061">
        <ele>27.39999961853</ele>
        <time>2020-12-06T10:22:10.000Z</time>
      </trkpt>
      <trkpt lat="47.30392" lon="-2.4306">
        <ele>28</ele>
        <time>2020-12-06T10:22:11.000Z</time>
      </trkpt>
      <trkpt lat="47.30396" lon="-2.43059">
        <ele>28.39999961853</ele>
        <time>2020-12-06T10:22:12.000Z</time>
      </trkpt>
      <trkpt lat="47.30401" lon="-2.43058">
        <ele>29</ele>
        <time>2020-12-06T10:22:13.000Z</time>
      </trkpt>
      <trkpt lat="47.30406" lon="-2.43056">
        <ele>29.39999961853</ele>
        <time>2020-12-06T10:22:14.000Z</time>
      </trkpt>
      <trkpt lat="47.30411" lon="-2.43055">
        <ele>29.39999961853</ele>
        <time>2020-12-06T10:22:15.000Z</time>
      </trkpt>
      <trkpt lat="47.30439" lon="-2.43041">
        <ele>29.39999961853</ele>
        <time>2020-12-06T10:22:20.000Z</time>
      </trkpt>
      <trkpt lat="47.3045" lon="-2.43033">
        <ele>29.39999961853</ele>
        <time>2020-12-06T10:22:22.000Z</time>
      </trkpt>
      <trkpt lat="47.3046" lon="-2.43023">
        <ele>29.39999961853</ele>
        <time>2020-12-06T10:22:24.000Z</time>
      </trkpt>
      <trkpt lat="47.30471" lon="-2.43015">
        <ele>29.39999961853</ele>
        <time>2020-12-06T10:22:26.000Z</time>
      </trkpt>
      <trkpt lat="47.30476" lon="-2.4301">
        <ele>29.39999961853</ele>
        <time>2020-12-06T10:22:27.000Z</time>
      </trkpt>
      <trkpt lat="47.30487" lon="-2.42999">
        <ele>29.39999961853</ele>
        <time>2020-12-06T10:22:29.000Z</time>
      </trkpt>
      <trkpt lat="47.30498" lon="-2.42989">
        <ele>29.39999961853</ele>
        <time>2020-12-06T10:22:31.000Z</time>
      </trkpt>
      <trkpt lat="47.3052" lon="-2.4297">
        <ele>29.39999961853</ele>
        <time>2020-12-06T10:22:35.000Z</time>
      </trkpt>
      <trkpt lat="47.30551" lon="-2.42946">
        <ele>29.39999961853</ele>
        <time>2020-12-06T10:22:41.000Z</time>
      </trkpt>
      <trkpt lat="47.30589" lon="-2.42915">
        <ele>29.39999961853</ele>
        <time>2020-12-06T10:22:49.000Z</time>
      </trkpt>
      <trkpt lat="47.30627" lon="-2.42885">
        <ele>29.39999961853</ele>
        <time>2020-12-06T10:22:57.000Z</time>
      </trkpt>
      <trkpt lat="47.30655" lon="-2.42861">
        <ele>29.39999961853</ele>
        <time>2020-12-06T10:23:03.000Z</time>
      </trkpt>
      <trkpt lat="47.30699" lon="-2.42822">
        <ele>29.39999961853</ele>
        <time>2020-12-06T10:23:12.000Z</time>
      </trkpt>
      <trkpt lat="47.3073" lon="-2.42799">
        <ele>29.39999961853</ele>
        <time>2020-12-06T10:23:18.000Z</time>
      </trkpt>
      <trkpt lat="47.30741" lon="-2.42792">
        <ele>29.39999961853</ele>
        <time>2020-12-06T10:23:20.000Z</time>
      </trkpt>
      <trkpt lat="47.30759" lon="-2.42788">
        <ele>29.39999961853</ele>
        <time>2020-12-06T10:23:23.000Z</time>
      </trkpt>
      <trkpt lat="47.3077" lon="-2.42786">
        <ele>29.39999961853</ele>
        <time>2020-12-06T10:23:25.000Z</time>
      </trkpt>
      <trkpt lat="47.30787" lon="-2.42784">
        <ele>29.39999961853</ele>
        <time>2020-12-06T10:23:28.000Z</time>
      </trkpt>
      <trkpt lat="47.30798" lon="-2.42784">
        <ele>29.39999961853</ele>
        <time>2020-12-06T10:23:30.000Z</time>
      </trkpt>
      <trkpt lat="47.30803" lon="-2.42783">
        <ele>29.39999961853</ele>
        <time>2020-12-06T10:23:31.000Z</time>
      </trkpt>
      <trkpt lat="47.30819" lon="-2.42781">
        <ele>29.799999237061</ele>
        <time>2020-12-06T10:23:34.000Z</time>
      </trkpt>
      <trkpt lat="47.30824" lon="-2.42779">
        <ele>30.39999961853</ele>
        <time>2020-12-06T10:23:35.000Z</time>
      </trkpt>
      <trkpt lat="47.30829" lon="-2.42778">
        <ele>30.799999237061</ele>
        <time>2020-12-06T10:23:36.000Z</time>
      </trkpt>
      <trkpt lat="47.30834" lon="-2.42776">
        <ele>31.200000762939</ele>
        <time>2020-12-06T10:23:37.000Z</time>
      </trkpt>
      <trkpt lat="47.30839" lon="-2.42775">
        <ele>31.799999237061</ele>
        <time>2020-12-06T10:23:38.000Z</time>
      </trkpt>
      <trkpt lat="47.30855" lon="-2.42774">
        <ele>31.799999237061</ele>
        <time>2020-12-06T10:23:41.000Z</time>
      </trkpt>
      <trkpt lat="47.30871" lon="-2.42772">
        <ele>31.799999237061</ele>
        <time>2020-12-06T10:23:44.000Z</time>
      </trkpt>
      <trkpt lat="47.30881" lon="-2.4277">
        <ele>31.799999237061</ele>
        <time>2020-12-06T10:23:46.000Z</time>
      </trkpt>
      <trkpt lat="47.3091" lon="-2.42768">
        <ele>31.799999237061</ele>
        <time>2020-12-06T10:23:52.000Z</time>
      </trkpt>
      <trkpt lat="47.30944" lon="-2.42762">
        <ele>31.799999237061</ele>
        <time>2020-12-06T10:23:59.000Z</time>
      </trkpt>
      <trkpt lat="47.30978" lon="-2.42758">
        <ele>31.799999237061</ele>
        <time>2020-12-06T10:24:06.000Z</time>
      </trkpt>
      <trkpt lat="47.31013" lon="-2.42754">
        <ele>31.799999237061</ele>
        <time>2020-12-06T10:24:13.000Z</time>
      </trkpt>
      <trkpt lat="47.31029" lon="-2.4275">
        <ele>31.799999237061</ele>
        <time>2020-12-06T10:24:16.000Z</time>
      </trkpt>
      <trkpt lat="47.31038" lon="-2.42744">
        <ele>31.799999237061</ele>
        <time>2020-12-06T10:24:18.000Z</time>
      </trkpt>
      <trkpt lat="47.31042" lon="-2.4274">
        <ele>31.799999237061</ele>
        <time>2020-12-06T10:24:19.000Z</time>
      </trkpt>
      <trkpt lat="47.31048" lon="-2.42727">
        <ele>31.799999237061</ele>
        <time>2020-12-06T10:24:21.000Z</time>
      </trkpt>
      <trkpt lat="47.31048" lon="-2.42703">
        <ele>31.799999237061</ele>
        <time>2020-12-06T10:24:24.000Z</time>
      </trkpt>
      <trkpt lat="47.31041" lon="-2.42681">
        <ele>31.799999237061</ele>
        <time>2020-12-06T10:24:27.000Z</time>
      </trkpt>
      <trkpt lat="47.31039" lon="-2.42674">
        <ele>31.799999237061</ele>
        <time>2020-12-06T10:24:28.000Z</time>
      </trkpt>
      <trkpt lat="47.31037" lon="-2.42666">
        <ele>31.799999237061</ele>
        <time>2020-12-06T10:24:29.000Z</time>
      </trkpt>
      <trkpt lat="47.31019" lon="-2.42602">
        <ele>31.799999237061</ele>
        <time>2020-12-06T10:24:37.000Z</time>
      </trkpt>
      <trkpt lat="47.31016" lon="-2.42593">
        <ele>31.799999237061</ele>
        <time>2020-12-06T10:24:38.000Z</time>
      </trkpt>
      <trkpt lat="47.31009" lon="-2.42557">
        <ele>31.799999237061</ele>
        <time>2020-12-06T10:24:42.000Z</time>
      </trkpt>
      <trkpt lat="47.30992" lon="-2.42492">
        <ele>31.799999237061</ele>
        <time>2020-12-06T10:24:49.000Z</time>
      </trkpt>
      <trkpt lat="47.30987" lon="-2.42473">
        <ele>31.799999237061</ele>
        <time>2020-12-06T10:24:51.000Z</time>
      </trkpt>
      <trkpt lat="47.3098" lon="-2.42443">
        <ele>31.799999237061</ele>
        <time>2020-12-06T10:24:54.000Z</time>
      </trkpt>
      <trkpt lat="47.30963" lon="-2.4237">
        <ele>31.799999237061</ele>
        <time>2020-12-06T10:25:01.000Z</time>
      </trkpt>
      <trkpt lat="47.30961" lon="-2.42359">
        <ele>31.200000762939</ele>
        <time>2020-12-06T10:25:02.000Z</time>
      </trkpt>
      <trkpt lat="47.30959" lon="-2.42348">
        <ele>30.799999237061</ele>
        <time>2020-12-06T10:25:03.000Z</time>
      </trkpt>
      <trkpt lat="47.30957" lon="-2.42338">
        <ele>30.39999961853</ele>
        <time>2020-12-06T10:25:04.000Z</time>
      </trkpt>
      <trkpt lat="47.30954" lon="-2.42327">
        <ele>30</ele>
        <time>2020-12-06T10:25:05.000Z</time>
      </trkpt>
      <trkpt lat="47.30952" lon="-2.42315">
        <ele>29.60000038147</ele>
        <time>2020-12-06T10:25:06.000Z</time>
      </trkpt>
      <trkpt lat="47.30945" lon="-2.42282">
        <ele>29.60000038147</ele>
        <time>2020-12-06T10:25:09.000Z</time>
      </trkpt>
      <trkpt lat="47.30927" lon="-2.42258">
        <ele>29.60000038147</ele>
        <time>2020-12-06T10:25:12.000Z</time>
      </trkpt>
      <trkpt lat="47.3092" lon="-2.42252">
        <ele>29.60000038147</ele>
        <time>2020-12-06T10:25:13.000Z</time>
      </trkpt>
      <trkpt lat="47.309" lon="-2.42237">
        <ele>29.60000038147</ele>
        <time>2020-12-06T10:25:16.000Z</time>
      </trkpt>
      <trkpt lat="47.30894" lon="-2.4223">
        <ele>29.60000038147</ele>
        <time>2020-12-06T10:25:17.000Z</time>
      </trkpt>
      <trkpt lat="47.30868" lon="-2.42198">
        <ele>29.60000038147</ele>
        <time>2020-12-06T10:25:22.000Z</time>
      </trkpt>
      <trkpt lat="47.30862" lon="-2.42196">
        <ele>29.60000038147</ele>
        <time>2020-12-06T10:25:23.000Z</time>
      </trkpt>
      <trkpt lat="47.30843" lon="-2.42201">
        <ele>29.60000038147</ele>
        <time>2020-12-06T10:25:26.000Z</time>
      </trkpt>
      <trkpt lat="47.30829" lon="-2.422">
        <ele>29.60000038147</ele>
        <time>2020-12-06T10:25:28.000Z</time>
      </trkpt>
      <trkpt lat="47.30815" lon="-2.42193">
        <ele>29.60000038147</ele>
        <time>2020-12-06T10:25:30.000Z</time>
      </trkpt>
      <trkpt lat="47.30793" lon="-2.42163">
        <ele>29.60000038147</ele>
        <time>2020-12-06T10:25:34.000Z</time>
      </trkpt>
      <trkpt lat="47.30759" lon="-2.421">
        <ele>29.60000038147</ele>
        <time>2020-12-06T10:25:41.000Z</time>
      </trkpt>
      <trkpt lat="47.30755" lon="-2.42091">
        <ele>29.60000038147</ele>
        <time>2020-12-06T10:25:42.000Z</time>
      </trkpt>
      <trkpt lat="47.30745" lon="-2.42074">
        <ele>29.60000038147</ele>
        <time>2020-12-06T10:25:44.000Z</time>
      </trkpt>
      <trkpt lat="47.30733" lon="-2.42059">
        <ele>29.60000038147</ele>
        <time>2020-12-06T10:25:46.000Z</time>
      </trkpt>
      <trkpt lat="47.30715" lon="-2.42041">
        <ele>29.200000762939</ele>
        <time>2020-12-06T10:25:49.000Z</time>
      </trkpt>
      <trkpt lat="47.30709" lon="-2.42037">
        <ele>28.799999237061</ele>
        <time>2020-12-06T10:25:50.000Z</time>
      </trkpt>
      <trkpt lat="47.30703" lon="-2.42032">
        <ele>28.39999961853</ele>
        <time>2020-12-06T10:25:51.000Z</time>
      </trkpt>
      <trkpt lat="47.30697" lon="-2.42026">
        <ele>28</ele>
        <time>2020-12-06T10:25:52.000Z</time>
      </trkpt>
      <trkpt lat="47.30691" lon="-2.4202">
        <ele>27.39999961853</ele>
        <time>2020-12-06T10:25:53.000Z</time>
      </trkpt>
      <trkpt lat="47.30682" lon="-2.42009">
        <ele>27.39999961853</ele>
        <time>2020-12-06T10:25:55.000Z</time>
      </trkpt>
      <trkpt lat="47.30673" lon="-2.41999">
        <ele>27.39999961853</ele>
        <time>2020-12-06T10:25:57.000Z</time>
      </trkpt>
      <trkpt lat="47.3066" lon="-2.4198">
        <ele>27.39999961853</ele>
        <time>2020-12-06T10:26:00.000Z</time>
      </trkpt>
      <trkpt lat="47.30648" lon="-2.41947">
        <ele>27.39999961853</ele>
        <time>2020-12-06T10:26:04.000Z</time>
      </trkpt>
      <trkpt lat="47.30633" lon="-2.41898">
        <ele>27.39999961853</ele>
        <time>2020-12-06T10:26:09.000Z</time>
      </trkpt>
      <trkpt lat="47.3063" lon="-2.41888">
        <ele>27.39999961853</ele>
        <time>2020-12-06T10:26:10.000Z</time>
      </trkpt>
      <trkpt lat="47.30601" lon="-2.41822">
        <ele>27.39999961853</ele>
        <time>2020-12-06T10:26:17.000Z</time>
      </trkpt>
      <trkpt lat="47.30581" lon="-2.41772">
        <ele>27.39999961853</ele>
        <time>2020-12-06T10:26:22.000Z</time>
      </trkpt>
      <trkpt lat="47.3056" lon="-2.41725">
        <ele>27.39999961853</ele>
        <time>2020-12-06T10:26:27.000Z</time>
      </trkpt>
      <trkpt lat="47.30529" lon="-2.41684">
        <ele>27.39999961853</ele>
        <time>2020-12-06T10:26:33.000Z</time>
      </trkpt>
      <trkpt lat="47.30524" lon="-2.41678">
        <ele>27.39999961853</ele>
        <time>2020-12-06T10:26:34.000Z</time>
      </trkpt>
      <trkpt lat="47.30513" lon="-2.41654">
        <ele>27.39999961853</ele>
        <time>2020-12-06T10:26:37.000Z</time>
      </trkpt>
      <trkpt lat="47.30508" lon="-2.41635">
        <ele>27.39999961853</ele>
        <time>2020-12-06T10:26:39.000Z</time>
      </trkpt>
      <trkpt lat="47.30505" lon="-2.41616">
        <ele>27.39999961853</ele>
        <time>2020-12-06T10:26:41.000Z</time>
      </trkpt>
      <trkpt lat="47.30498" lon="-2.41558">
        <ele>27.39999961853</ele>
        <time>2020-12-06T10:26:47.000Z</time>
      </trkpt>
      <trkpt lat="47.30486" lon="-2.41525">
        <ele>27.39999961853</ele>
        <time>2020-12-06T10:26:51.000Z</time>
      </trkpt>
      <trkpt lat="47.30486" lon="-2.41498">
        <ele>27.39999961853</ele>
        <time>2020-12-06T10:26:54.000Z</time>
      </trkpt>
      <trkpt lat="47.30495" lon="-2.41475">
        <ele>28</ele>
        <time>2020-12-06T10:26:57.000Z</time>
      </trkpt>
      <trkpt lat="47.30499" lon="-2.41467">
        <ele>28.39999961853</ele>
        <time>2020-12-06T10:26:58.000Z</time>
      </trkpt>
      <trkpt lat="47.30502" lon="-2.41458">
        <ele>28.799999237061</ele>
        <time>2020-12-06T10:26:59.000Z</time>
      </trkpt>
      <trkpt lat="47.30503" lon="-2.41448">
        <ele>29.200000762939</ele>
        <time>2020-12-06T10:27:00.000Z</time>
      </trkpt>
      <trkpt lat="47.30503" lon="-2.41438">
        <ele>29.799999237061</ele>
        <time>2020-12-06T10:27:01.000Z</time>
      </trkpt>
      <trkpt lat="47.30498" lon="-2.41408">
        <ele>29.799999237061</ele>
        <time>2020-12-06T10:27:04.000Z</time>
      </trkpt>
      <trkpt lat="47.30495" lon="-2.41398">
        <ele>29.799999237061</ele>
        <time>2020-12-06T10:27:05.000Z</time>
      </trkpt>
      <trkpt lat="47.30478" lon="-2.41322">
        <ele>29.799999237061</ele>
        <time>2020-12-06T10:27:12.000Z</time>
      </trkpt>
      <trkpt lat="47.30467" lon="-2.41281">
        <ele>29.799999237061</ele>
        <time>2020-12-06T10:27:16.000Z</time>
      </trkpt>
      <trkpt lat="47.30463" lon="-2.4126">
        <ele>29.799999237061</ele>
        <time>2020-12-06T10:27:18.000Z</time>
      </trkpt>
      <trkpt lat="47.30456" lon="-2.41203">
        <ele>29.799999237061</ele>
        <time>2020-12-06T10:27:24.000Z</time>
      </trkpt>
      <trkpt lat="47.30452" lon="-2.41174">
        <ele>29.799999237061</ele>
        <time>2020-12-06T10:27:28.000Z</time>
      </trkpt>
      <trkpt lat="47.30449" lon="-2.41168">
        <ele>29.799999237061</ele>
        <time>2020-12-06T10:27:29.000Z</time>
      </trkpt>
      <trkpt lat="47.30446" lon="-2.41163">
        <ele>29.39999961853</ele>
        <time>2020-12-06T10:27:30.000Z</time>
      </trkpt>
      <trkpt lat="47.30443" lon="-2.41159">
        <ele>29</ele>
        <time>2020-12-06T10:27:31.000Z</time>
      </trkpt>
      <trkpt lat="47.30438" lon="-2.41156">
        <ele>28.60000038147</ele>
        <time>2020-12-06T10:27:32.000Z</time>
      </trkpt>
      <trkpt lat="47.30434" lon="-2.41153">
        <ele>28.200000762939</ele>
        <time>2020-12-06T10:27:33.000Z</time>
      </trkpt>
      <trkpt lat="47.30429" lon="-2.41152">
        <ele>27.799999237061</ele>
        <time>2020-12-06T10:27:34.000Z</time>
      </trkpt>
      <trkpt lat="47.30414" lon="-2.41152">
        <ele>27.799999237061</ele>
        <time>2020-12-06T10:27:37.000Z</time>
      </trkpt>
      <trkpt lat="47.30409" lon="-2.41152">
        <ele>27.799999237061</ele>
        <time>2020-12-06T10:27:38.000Z</time>
      </trkpt>
      <trkpt lat="47.30386" lon="-2.41154">
        <ele>27.799999237061</ele>
        <time>2020-12-06T10:27:43.000Z</time>
      </trkpt>
      <trkpt lat="47.30378" lon="-2.41153">
        <ele>27.799999237061</ele>
        <time>2020-12-06T10:27:45.000Z</time>
      </trkpt>
      <trkpt lat="47.30356" lon="-2.41146">
        <ele>27.799999237061</ele>
        <time>2020-12-06T10:27:51.000Z</time>
      </trkpt>
      <trkpt lat="47.30336" lon="-2.41137">
        <ele>27.799999237061</ele>
        <time>2020-12-06T10:27:58.000Z</time>
      </trkpt>
      <trkpt lat="47.30317" lon="-2.41129">
        <ele>27.799999237061</ele>
        <time>2020-12-06T10:28:05.000Z</time>
      </trkpt>
      <trkpt lat="47.30303" lon="-2.41125">
        <ele>27.799999237061</ele>
        <time>2020-12-06T10:28:12.000Z</time>
      </trkpt>
      <trkpt lat="47.303" lon="-2.41123">
        <ele>27.799999237061</ele>
        <time>2020-12-06T10:28:15.000Z</time>
      </trkpt>
      <trkpt lat="47.303" lon="-2.41123">
        <ele>27.799999237061</ele>
        <time>2020-12-06T10:28:51.000Z</time>
      </trkpt>
      <trkpt lat="47.30298" lon="-2.41122">
        <ele>27.799999237061</ele>
        <time>2020-12-06T10:28:52.000Z</time>
      </trkpt>
      <trkpt lat="47.30288" lon="-2.41111">
        <ele>27.799999237061</ele>
        <time>2020-12-06T10:28:58.000Z</time>
      </trkpt>
      <trkpt lat="47.30278" lon="-2.41098">
        <ele>27.799999237061</ele>
        <time>2020-12-06T10:29:05.000Z</time>
      </trkpt>
      <trkpt lat="47.30273" lon="-2.41078">
        <ele>27.799999237061</ele>
        <time>2020-12-06T10:29:12.000Z</time>
      </trkpt>
      <trkpt lat="47.30272" lon="-2.41054">
        <ele>27.799999237061</ele>
        <time>2020-12-06T10:29:19.000Z</time>
      </trkpt>
      <trkpt lat="47.30271" lon="-2.41034">
        <ele>27.799999237061</ele>
        <time>2020-12-06T10:29:24.000Z</time>
      </trkpt>
      <trkpt lat="47.3027" lon="-2.41029">
        <ele>27.799999237061</ele>
        <time>2020-12-06T10:29:25.000Z</time>
      </trkpt>
      <trkpt lat="47.30263" lon="-2.41012">
        <ele>28.200000762939</ele>
        <time>2020-12-06T10:29:29.000Z</time>
      </trkpt>
      <trkpt lat="47.30261" lon="-2.41009">
        <ele>28.60000038147</ele>
        <time>2020-12-06T10:29:30.000Z</time>
      </trkpt>
      <trkpt lat="47.30259" lon="-2.41006">
        <ele>29</ele>
        <time>2020-12-06T10:29:31.000Z</time>
      </trkpt>
      <trkpt lat="47.30256" lon="-2.41004">
        <ele>29.39999961853</ele>
        <time>2020-12-06T10:29:32.000Z</time>
      </trkpt>
      <trkpt lat="47.30254" lon="-2.41001">
        <ele>29.799999237061</ele>
        <time>2020-12-06T10:29:33.000Z</time>
      </trkpt>
      <trkpt lat="47.30247" lon="-2.40993">
        <ele>29.799999237061</ele>
        <time>2020-12-06T10:29:36.000Z</time>
      </trkpt>
      <trkpt lat="47.30232" lon="-2.40978">
        <ele>29.799999237061</ele>
        <time>2020-12-06T10:29:43.000Z</time>
      </trkpt>
      <trkpt lat="47.30221" lon="-2.40962">
        <ele>29.799999237061</ele>
        <time>2020-12-06T10:29:50.000Z</time>
      </trkpt>
      <trkpt lat="47.3022" lon="-2.40948">
        <ele>29.799999237061</ele>
        <time>2020-12-06T10:29:55.000Z</time>
      </trkpt>
      <trkpt lat="47.30223" lon="-2.40934">
        <ele>29.799999237061</ele>
        <time>2020-12-06T10:30:00.000Z</time>
      </trkpt>
      <trkpt lat="47.30224" lon="-2.4093">
        <ele>29.799999237061</ele>
        <time>2020-12-06T10:30:01.000Z</time>
      </trkpt>
      <trkpt lat="47.30229" lon="-2.40925">
        <ele>29.799999237061</ele>
        <time>2020-12-06T10:30:04.000Z</time>
      </trkpt>
      <trkpt lat="47.30232" lon="-2.40925">
        <ele>29.799999237061</ele>
        <time>2020-12-06T10:30:05.000Z</time>
      </trkpt>
      <trkpt lat="47.30239" lon="-2.40926">
        <ele>30.200000762939</ele>
        <time>2020-12-06T10:30:07.000Z</time>
      </trkpt>
      <trkpt lat="47.30242" lon="-2.40927">
        <ele>30.799999237061</ele>
        <time>2020-12-06T10:30:08.000Z</time>
      </trkpt>
      <trkpt lat="47.30246" lon="-2.40928">
        <ele>31.200000762939</ele>
        <time>2020-12-06T10:30:09.000Z</time>
      </trkpt>
      <trkpt lat="47.3025" lon="-2.40928">
        <ele>31.799999237061</ele>
        <time>2020-12-06T10:30:10.000Z</time>
      </trkpt>
      <trkpt lat="47.30254" lon="-2.40929">
        <ele>32.400001525879</ele>
        <time>2020-12-06T10:30:11.000Z</time>
      </trkpt>
      <trkpt lat="47.30286" lon="-2.4093">
        <ele>32.400001525879</ele>
        <time>2020-12-06T10:30:18.000Z</time>
      </trkpt>
      <trkpt lat="47.30323" lon="-2.40924">
        <ele>32.400001525879</ele>
        <time>2020-12-06T10:30:26.000Z</time>
      </trkpt>
      <trkpt lat="47.30367" lon="-2.40908">
        <ele>32.400001525879</ele>
        <time>2020-12-06T10:30:35.000Z</time>
      </trkpt>
      <trkpt lat="47.30415" lon="-2.40892">
        <ele>32.400001525879</ele>
        <time>2020-12-06T10:30:44.000Z</time>
      </trkpt>
      <trkpt lat="47.30461" lon="-2.40875">
        <ele>32.400001525879</ele>
        <time>2020-12-06T10:30:53.000Z</time>
      </trkpt>
      <trkpt lat="47.30503" lon="-2.4086">
        <ele>32.400001525879</ele>
        <time>2020-12-06T10:31:02.000Z</time>
      </trkpt>
      <trkpt lat="47.30513" lon="-2.40857">
        <ele>32.400001525879</ele>
        <time>2020-12-06T10:31:04.000Z</time>
      </trkpt>
      <trkpt lat="47.30531" lon="-2.4085">
        <ele>32.400001525879</ele>
        <time>2020-12-06T10:31:08.000Z</time>
      </trkpt>
      <trkpt lat="47.30568" lon="-2.40839">
        <ele>32.400001525879</ele>
        <time>2020-12-06T10:31:16.000Z</time>
      </trkpt>
      <trkpt lat="47.3058" lon="-2.40837">
        <ele>32.799999237061</ele>
        <time>2020-12-06T10:31:19.000Z</time>
      </trkpt>
      <trkpt lat="47.30584" lon="-2.40837">
        <ele>33.200000762939</ele>
        <time>2020-12-06T10:31:20.000Z</time>
      </trkpt>
      <trkpt lat="47.30589" lon="-2.40836">
        <ele>33.599998474121</ele>
        <time>2020-12-06T10:31:21.000Z</time>
      </trkpt>
      <trkpt lat="47.30593" lon="-2.40835">
        <ele>34</ele>
        <time>2020-12-06T10:31:22.000Z</time>
      </trkpt>
      <trkpt lat="47.30596" lon="-2.40834">
        <ele>34.400001525879</ele>
        <time>2020-12-06T10:31:23.000Z</time>
      </trkpt>
      <trkpt lat="47.30599" lon="-2.40831">
        <ele>34.400001525879</ele>
        <time>2020-12-06T10:31:24.000Z</time>
      </trkpt>
      <trkpt lat="47.30602" lon="-2.40823">
        <ele>34.400001525879</ele>
        <time>2020-12-06T10:31:26.000Z</time>
      </trkpt>
      <trkpt lat="47.30596" lon="-2.40807">
        <ele>34.400001525879</ele>
        <time>2020-12-06T10:31:29.000Z</time>
      </trkpt>
      <trkpt lat="47.30579" lon="-2.40764">
        <ele>34.400001525879</ele>
        <time>2020-12-06T10:31:36.000Z</time>
      </trkpt>
      <trkpt lat="47.30558" lon="-2.40712">
        <ele>34.400001525879</ele>
        <time>2020-12-06T10:31:43.000Z</time>
      </trkpt>
      <trkpt lat="47.30538" lon="-2.4066">
        <ele>34.400001525879</ele>
        <time>2020-12-06T10:31:49.000Z</time>
      </trkpt>
      <trkpt lat="47.30511" lon="-2.4059">
        <ele>34.400001525879</ele>
        <time>2020-12-06T10:31:57.000Z</time>
      </trkpt>
      <trkpt lat="47.30508" lon="-2.40582">
        <ele>34.400001525879</ele>
        <time>2020-12-06T10:31:58.000Z</time>
      </trkpt>
      <trkpt lat="47.30483" lon="-2.40517">
        <ele>34.400001525879</ele>
        <time>2020-12-06T10:32:06.000Z</time>
      </trkpt>
      <trkpt lat="47.30461" lon="-2.40465">
        <ele>34.400001525879</ele>
        <time>2020-12-06T10:32:13.000Z</time>
      </trkpt>
      <trkpt lat="47.30444" lon="-2.40419">
        <ele>34.400001525879</ele>
        <time>2020-12-06T10:32:19.000Z</time>
      </trkpt>
      <trkpt lat="47.30435" lon="-2.40399">
        <ele>34.799999237061</ele>
        <time>2020-12-06T10:32:22.000Z</time>
      </trkpt>
      <trkpt lat="47.30433" lon="-2.40392">
        <ele>35.400001525879</ele>
        <time>2020-12-06T10:32:23.000Z</time>
      </trkpt>
      <trkpt lat="47.3043" lon="-2.40385">
        <ele>35.799999237061</ele>
        <time>2020-12-06T10:32:24.000Z</time>
      </trkpt>
      <trkpt lat="47.30428" lon="-2.40379">
        <ele>36.200000762939</ele>
        <time>2020-12-06T10:32:25.000Z</time>
      </trkpt>
      <trkpt lat="47.30426" lon="-2.40372">
        <ele>36.599998474121</ele>
        <time>2020-12-06T10:32:26.000Z</time>
      </trkpt>
      <trkpt lat="47.30412" lon="-2.40337">
        <ele>36.599998474121</ele>
        <time>2020-12-06T10:32:32.000Z</time>
      </trkpt>
      <trkpt lat="47.3041" lon="-2.40331">
        <ele>37</ele>
        <time>2020-12-06T10:32:33.000Z</time>
      </trkpt>
      <trkpt lat="47.30407" lon="-2.40324">
        <ele>37.400001525879</ele>
        <time>2020-12-06T10:32:34.000Z</time>
      </trkpt>
      <trkpt lat="47.30405" lon="-2.40318">
        <ele>37.799999237061</ele>
        <time>2020-12-06T10:32:35.000Z</time>
      </trkpt>
      <trkpt lat="47.30403" lon="-2.40312">
        <ele>38.200000762939</ele>
        <time>2020-12-06T10:32:36.000Z</time>
      </trkpt>
      <trkpt lat="47.304" lon="-2.40307">
        <ele>38.799999237061</ele>
        <time>2020-12-06T10:32:37.000Z</time>
      </trkpt>
      <trkpt lat="47.30397" lon="-2.403">
        <ele>38.799999237061</ele>
        <time>2020-12-06T10:32:38.000Z</time>
      </trkpt>
      <trkpt lat="47.30378" lon="-2.40254">
        <ele>38.799999237061</ele>
        <time>2020-12-06T10:32:45.000Z</time>
      </trkpt>
      <trkpt lat="47.30361" lon="-2.40203">
        <ele>38.799999237061</ele>
        <time>2020-12-06T10:32:52.000Z</time>
      </trkpt>
      <trkpt lat="47.30344" lon="-2.40179">
        <ele>38.799999237061</ele>
        <time>2020-12-06T10:32:56.000Z</time>
      </trkpt>
      <trkpt lat="47.30341" lon="-2.40172">
        <ele>38.799999237061</ele>
        <time>2020-12-06T10:32:57.000Z</time>
      </trkpt>
      <trkpt lat="47.30334" lon="-2.40149">
        <ele>38.799999237061</ele>
        <time>2020-12-06T10:33:00.000Z</time>
      </trkpt>
      <trkpt lat="47.30332" lon="-2.40141">
        <ele>38.799999237061</ele>
        <time>2020-12-06T10:33:01.000Z</time>
      </trkpt>
      <trkpt lat="47.30315" lon="-2.40078">
        <ele>38.799999237061</ele>
        <time>2020-12-06T10:33:09.000Z</time>
      </trkpt>
      <trkpt lat="47.30293" lon="-2.40016">
        <ele>38.799999237061</ele>
        <time>2020-12-06T10:33:17.000Z</time>
      </trkpt>
      <trkpt lat="47.30277" lon="-2.39958">
        <ele>38.799999237061</ele>
        <time>2020-12-06T10:33:24.000Z</time>
      </trkpt>
      <trkpt lat="47.3026" lon="-2.39903">
        <ele>38.799999237061</ele>
        <time>2020-12-06T10:33:31.000Z</time>
      </trkpt>
      <trkpt lat="47.30242" lon="-2.3985">
        <ele>38.799999237061</ele>
        <time>2020-12-06T10:33:38.000Z</time>
      </trkpt>
      <trkpt lat="47.30226" lon="-2.39799">
        <ele>38.799999237061</ele>
        <time>2020-12-06T10:33:45.000Z</time>
      </trkpt>
      <trkpt lat="47.30212" lon="-2.39757">
        <ele>38.799999237061</ele>
        <time>2020-12-06T10:33:51.000Z</time>
      </trkpt>
      <trkpt lat="47.30201" lon="-2.39722">
        <ele>38.799999237061</ele>
        <time>2020-12-06T10:33:56.000Z</time>
      </trkpt>
      <trkpt lat="47.30199" lon="-2.39716">
        <ele>38.799999237061</ele>
        <time>2020-12-06T10:33:57.000Z</time>
      </trkpt>
      <trkpt lat="47.3019" lon="-2.39689">
        <ele>38.799999237061</ele>
        <time>2020-12-06T10:34:01.000Z</time>
      </trkpt>
      <trkpt lat="47.30182" lon="-2.39679">
        <ele>38.799999237061</ele>
        <time>2020-12-06T10:34:03.000Z</time>
      </trkpt>
      <trkpt lat="47.30167" lon="-2.39672">
        <ele>39.200000762939</ele>
        <time>2020-12-06T10:34:06.000Z</time>
      </trkpt>
      <trkpt lat="47.30162" lon="-2.39671">
        <ele>39.599998474121</ele>
        <time>2020-12-06T10:34:07.000Z</time>
      </trkpt>
      <trkpt lat="47.30156" lon="-2.3967">
        <ele>40</ele>
        <time>2020-12-06T10:34:08.000Z</time>
      </trkpt>
      <trkpt lat="47.30151" lon="-2.39669">
        <ele>40.400001525879</ele>
        <time>2020-12-06T10:34:09.000Z</time>
      </trkpt>
      <trkpt lat="47.30145" lon="-2.39668">
        <ele>40.799999237061</ele>
        <time>2020-12-06T10:34:10.000Z</time>
      </trkpt>
      <trkpt lat="47.30117" lon="-2.39663">
        <ele>40.799999237061</ele>
        <time>2020-12-06T10:34:15.000Z</time>
      </trkpt>
      <trkpt lat="47.30064" lon="-2.39653">
        <ele>40.799999237061</ele>
        <time>2020-12-06T10:34:24.000Z</time>
      </trkpt>
      <trkpt lat="47.30025" lon="-2.39645">
        <ele>40.799999237061</ele>
        <time>2020-12-06T10:34:31.000Z</time>
      </trkpt>
      <trkpt lat="47.29974" lon="-2.39636">
        <ele>40.799999237061</ele>
        <time>2020-12-06T10:34:40.000Z</time>
      </trkpt>
      <trkpt lat="47.29959" lon="-2.39635">
        <ele>40.799999237061</ele>
        <time>2020-12-06T10:34:44.000Z</time>
      </trkpt>
      <trkpt lat="47.29956" lon="-2.39632">
        <ele>40.400001525879</ele>
        <time>2020-12-06T10:34:46.000Z</time>
      </trkpt>
      <trkpt lat="47.29955" lon="-2.39629">
        <ele>40</ele>
        <time>2020-12-06T10:34:47.000Z</time>
      </trkpt>
      <trkpt lat="47.29955" lon="-2.39625">
        <ele>39.400001525879</ele>
        <time>2020-12-06T10:34:48.000Z</time>
      </trkpt>
      <trkpt lat="47.29955" lon="-2.39622">
        <ele>38.599998474121</ele>
        <time>2020-12-06T10:34:49.000Z</time>
      </trkpt>
      <trkpt lat="47.29956" lon="-2.3962">
        <ele>38.599998474121</ele>
        <time>2020-12-06T10:34:50.000Z</time>
      </trkpt>
      <trkpt lat="47.29957" lon="-2.39617">
        <ele>38.599998474121</ele>
        <time>2020-12-06T10:34:52.000Z</time>
      </trkpt>
      <trkpt lat="47.29962" lon="-2.39603">
        <ele>38.599998474121</ele>
        <time>2020-12-06T10:34:59.000Z</time>
      </trkpt>
      <trkpt lat="47.29969" lon="-2.39589">
        <ele>38.599998474121</ele>
        <time>2020-12-06T10:35:06.000Z</time>
      </trkpt>
      <trkpt lat="47.29977" lon="-2.39576">
        <ele>38.599998474121</ele>
        <time>2020-12-06T10:35:13.000Z</time>
      </trkpt>
      <trkpt lat="47.29983" lon="-2.39564">
        <ele>38.599998474121</ele>
        <time>2020-12-06T10:35:18.000Z</time>
      </trkpt>
      <trkpt lat="47.29993" lon="-2.39547">
        <ele>38.599998474121</ele>
        <time>2020-12-06T10:35:24.000Z</time>
      </trkpt>
      <trkpt lat="47.29995" lon="-2.39531">
        <ele>38.599998474121</ele>
        <time>2020-12-06T10:35:29.000Z</time>
      </trkpt>
      <trkpt lat="47.29985" lon="-2.39517">
        <ele>38.599998474121</ele>
        <time>2020-12-06T10:35:35.000Z</time>
      </trkpt>
      <trkpt lat="47.29971" lon="-2.39497">
        <ele>38.599998474121</ele>
        <time>2020-12-06T10:35:44.000Z</time>
      </trkpt>
      <trkpt lat="47.29961" lon="-2.39481">
        <ele>38.599998474121</ele>
        <time>2020-12-06T10:35:50.000Z</time>
      </trkpt>
      <trkpt lat="47.29949" lon="-2.39454">
        <ele>38.599998474121</ele>
        <time>2020-12-06T10:35:56.000Z</time>
      </trkpt>
      <trkpt lat="47.29942" lon="-2.3942">
        <ele>38.599998474121</ele>
        <time>2020-12-06T10:36:02.000Z</time>
      </trkpt>
      <trkpt lat="47.29942" lon="-2.39378">
        <ele>38.599998474121</ele>
        <time>2020-12-06T10:36:10.000Z</time>
      </trkpt>
      <trkpt lat="47.29946" lon="-2.39336">
        <ele>38.599998474121</ele>
        <time>2020-12-06T10:36:16.000Z</time>
      </trkpt>
      <trkpt lat="47.29946" lon="-2.39328">
        <ele>38.599998474121</ele>
        <time>2020-12-06T10:36:17.000Z</time>
      </trkpt>
      <trkpt lat="47.29952" lon="-2.39284">
        <ele>38.599998474121</ele>
        <time>2020-12-06T10:36:22.000Z</time>
      </trkpt>
      <trkpt lat="47.29953" lon="-2.39275">
        <ele>38.200000762939</ele>
        <time>2020-12-06T10:36:23.000Z</time>
      </trkpt>
      <trkpt lat="47.29954" lon="-2.39265">
        <ele>37.799999237061</ele>
        <time>2020-12-06T10:36:24.000Z</time>
      </trkpt>
      <trkpt lat="47.29954" lon="-2.39255">
        <ele>37.400001525879</ele>
        <time>2020-12-06T10:36:25.000Z</time>
      </trkpt>
      <trkpt lat="47.29956" lon="-2.39244">
        <ele>37</ele>
        <time>2020-12-06T10:36:26.000Z</time>
      </trkpt>
      <trkpt lat="47.29957" lon="-2.39234">
        <ele>36.599998474121</ele>
        <time>2020-12-06T10:36:27.000Z</time>
      </trkpt>
      <trkpt lat="47.29958" lon="-2.39223">
        <ele>36</ele>
        <time>2020-12-06T10:36:28.000Z</time>
      </trkpt>
      <trkpt lat="47.29959" lon="-2.39212">
        <ele>35.599998474121</ele>
        <time>2020-12-06T10:36:29.000Z</time>
      </trkpt>
      <trkpt lat="47.2996" lon="-2.39201">
        <ele>34.599998474121</ele>
        <time>2020-12-06T10:36:30.000Z</time>
      </trkpt>
      <trkpt lat="47.29961" lon="-2.39191">
        <ele>34</ele>
        <time>2020-12-06T10:36:31.000Z</time>
      </trkpt>
      <trkpt lat="47.29962" lon="-2.3918">
        <ele>33.400001525879</ele>
        <time>2020-12-06T10:36:32.000Z</time>
      </trkpt>
      <trkpt lat="47.29963" lon="-2.3917">
        <ele>33</ele>
        <time>2020-12-06T10:36:33.000Z</time>
      </trkpt>
      <trkpt lat="47.29964" lon="-2.39161">
        <ele>32.400001525879</ele>
        <time>2020-12-06T10:36:34.000Z</time>
      </trkpt>
      <trkpt lat="47.29965" lon="-2.39152">
        <ele>31.799999237061</ele>
        <time>2020-12-06T10:36:35.000Z</time>
      </trkpt>
      <trkpt lat="47.29966" lon="-2.39134">
        <ele>31.799999237061</ele>
        <time>2020-12-06T10:36:37.000Z</time>
      </trkpt>
      <trkpt lat="47.29973" lon="-2.39097">
        <ele>31.799999237061</ele>
        <time>2020-12-06T10:36:42.000Z</time>
      </trkpt>
      <trkpt lat="47.29976" lon="-2.39085">
        <ele>31.799999237061</ele>
        <time>2020-12-06T10:36:44.000Z</time>
      </trkpt>
      <trkpt lat="47.29978" lon="-2.39079">
        <ele>32.200000762939</ele>
        <time>2020-12-06T10:36:45.000Z</time>
      </trkpt>
      <trkpt lat="47.29979" lon="-2.39073">
        <ele>32.599998474121</ele>
        <time>2020-12-06T10:36:46.000Z</time>
      </trkpt>
      <trkpt lat="47.29982" lon="-2.39068">
        <ele>33</ele>
        <time>2020-12-06T10:36:47.000Z</time>
      </trkpt>
      <trkpt lat="47.29984" lon="-2.39063">
        <ele>33.400001525879</ele>
        <time>2020-12-06T10:36:48.000Z</time>
      </trkpt>
      <trkpt lat="47.29985" lon="-2.39058">
        <ele>33.799999237061</ele>
        <time>2020-12-06T10:36:49.000Z</time>
      </trkpt>
      <trkpt lat="47.29993" lon="-2.39037">
        <ele>34.400001525879</ele>
        <time>2020-12-06T10:36:53.000Z</time>
      </trkpt>
      <trkpt lat="47.29995" lon="-2.39031">
        <ele>35.200000762939</ele>
        <time>2020-12-06T10:36:54.000Z</time>
      </trkpt>
      <trkpt lat="47.29996" lon="-2.39026">
        <ele>35.599998474121</ele>
        <time>2020-12-06T10:36:55.000Z</time>
      </trkpt>
      <trkpt lat="47.29997" lon="-2.3902">
        <ele>36</ele>
        <time>2020-12-06T10:36:56.000Z</time>
      </trkpt>
      <trkpt lat="47.29998" lon="-2.39015">
        <ele>36</ele>
        <time>2020-12-06T10:36:57.000Z</time>
      </trkpt>
      <trkpt lat="47.30002" lon="-2.38974">
        <ele>36</ele>
        <time>2020-12-06T10:37:04.000Z</time>
      </trkpt>
      <trkpt lat="47.30006" lon="-2.38947">
        <ele>36</ele>
        <time>2020-12-06T10:37:08.000Z</time>
      </trkpt>
      <trkpt lat="47.30006" lon="-2.38941">
        <ele>36</ele>
        <time>2020-12-06T10:37:09.000Z</time>
      </trkpt>
      <trkpt lat="47.30008" lon="-2.38914">
        <ele>36</ele>
        <time>2020-12-06T10:37:14.000Z</time>
      </trkpt>
      <trkpt lat="47.30007" lon="-2.38902">
        <ele>36.599998474121</ele>
        <time>2020-12-06T10:37:16.000Z</time>
      </trkpt>
      <trkpt lat="47.30007" lon="-2.38897">
        <ele>37</ele>
        <time>2020-12-06T10:37:17.000Z</time>
      </trkpt>
      <trkpt lat="47.30006" lon="-2.3889">
        <ele>37.400001525879</ele>
        <time>2020-12-06T10:37:18.000Z</time>
      </trkpt>
      <trkpt lat="47.30006" lon="-2.38884">
        <ele>38.200000762939</ele>
        <time>2020-12-06T10:37:19.000Z</time>
      </trkpt>
      <trkpt lat="47.30006" lon="-2.38878">
        <ele>38.200000762939</ele>
        <time>2020-12-06T10:37:20.000Z</time>
      </trkpt>
      <trkpt lat="47.30006" lon="-2.38872">
        <ele>38.599998474121</ele>
        <time>2020-12-06T10:37:21.000Z</time>
      </trkpt>
      <trkpt lat="47.30006" lon="-2.38866">
        <ele>39</ele>
        <time>2020-12-06T10:37:22.000Z</time>
      </trkpt>
      <trkpt lat="47.30007" lon="-2.38859">
        <ele>39.599998474121</ele>
        <time>2020-12-06T10:37:23.000Z</time>
      </trkpt>
      <trkpt lat="47.30007" lon="-2.38853">
        <ele>40</ele>
        <time>2020-12-06T10:37:24.000Z</time>
      </trkpt>
      <trkpt lat="47.30007" lon="-2.38846">
        <ele>40.400001525879</ele>
        <time>2020-12-06T10:37:25.000Z</time>
      </trkpt>
      <trkpt lat="47.30008" lon="-2.38833">
        <ele>40.400001525879</ele>
        <time>2020-12-06T10:37:27.000Z</time>
      </trkpt>
      <trkpt lat="47.3001" lon="-2.38814">
        <ele>40.799999237061</ele>
        <time>2020-12-06T10:37:30.000Z</time>
      </trkpt>
      <trkpt lat="47.3001" lon="-2.38808">
        <ele>41.200000762939</ele>
        <time>2020-12-06T10:37:31.000Z</time>
      </trkpt>
      <trkpt lat="47.30011" lon="-2.38801">
        <ele>41.599998474121</ele>
        <time>2020-12-06T10:37:32.000Z</time>
      </trkpt>
      <trkpt lat="47.30012" lon="-2.38795">
        <ele>42</ele>
        <time>2020-12-06T10:37:33.000Z</time>
      </trkpt>
      <trkpt lat="47.30012" lon="-2.38788">
        <ele>42.400001525879</ele>
        <time>2020-12-06T10:37:34.000Z</time>
      </trkpt>
      <trkpt lat="47.30015" lon="-2.38763">
        <ele>42.799999237061</ele>
        <time>2020-12-06T10:37:38.000Z</time>
      </trkpt>
      <trkpt lat="47.30016" lon="-2.38758">
        <ele>43.400001525879</ele>
        <time>2020-12-06T10:37:39.000Z</time>
      </trkpt>
      <trkpt lat="47.30016" lon="-2.38752">
        <ele>43.799999237061</ele>
        <time>2020-12-06T10:37:40.000Z</time>
      </trkpt>
      <trkpt lat="47.30017" lon="-2.38746">
        <ele>44.200000762939</ele>
        <time>2020-12-06T10:37:41.000Z</time>
      </trkpt>
      <trkpt lat="47.30018" lon="-2.3874">
        <ele>44.799999237061</ele>
        <time>2020-12-06T10:37:42.000Z</time>
      </trkpt>
      <trkpt lat="47.30023" lon="-2.38704">
        <ele>44.799999237061</ele>
        <time>2020-12-06T10:37:48.000Z</time>
      </trkpt>
      <trkpt lat="47.30024" lon="-2.38698">
        <ele>45.200000762939</ele>
        <time>2020-12-06T10:37:49.000Z</time>
      </trkpt>
      <trkpt lat="47.30024" lon="-2.38693">
        <ele>45.599998474121</ele>
        <time>2020-12-06T10:37:50.000Z</time>
      </trkpt>
      <trkpt lat="47.30025" lon="-2.38687">
        <ele>46</ele>
        <time>2020-12-06T10:37:51.000Z</time>
      </trkpt>
      <trkpt lat="47.30026" lon="-2.38682">
        <ele>46.400001525879</ele>
        <time>2020-12-06T10:37:52.000Z</time>
      </trkpt>
      <trkpt lat="47.30026" lon="-2.38676">
        <ele>46.799999237061</ele>
        <time>2020-12-06T10:37:53.000Z</time>
      </trkpt>
      <trkpt lat="47.30026" lon="-2.38665">
        <ele>46.799999237061</ele>
        <time>2020-12-06T10:37:55.000Z</time>
      </trkpt>
      <trkpt lat="47.30024" lon="-2.38631">
        <ele>46.799999237061</ele>
        <time>2020-12-06T10:38:02.000Z</time>
      </trkpt>
      <trkpt lat="47.30024" lon="-2.38626">
        <ele>47.200000762939</ele>
        <time>2020-12-06T10:38:03.000Z</time>
      </trkpt>
      <trkpt lat="47.30024" lon="-2.38621">
        <ele>47.599998474121</ele>
        <time>2020-12-06T10:38:04.000Z</time>
      </trkpt>
      <trkpt lat="47.30024" lon="-2.38617">
        <ele>48</ele>
        <time>2020-12-06T10:38:05.000Z</time>
      </trkpt>
      <trkpt lat="47.30025" lon="-2.38613">
        <ele>48.400001525879</ele>
        <time>2020-12-06T10:38:06.000Z</time>
      </trkpt>
      <trkpt lat="47.30025" lon="-2.38608">
        <ele>48.799999237061</ele>
        <time>2020-12-06T10:38:07.000Z</time>
      </trkpt>
      <trkpt lat="47.30024" lon="-2.38588">
        <ele>49.200000762939</ele>
        <time>2020-12-06T10:38:12.000Z</time>
      </trkpt>
      <trkpt lat="47.30023" lon="-2.38583">
        <ele>49.799999237061</ele>
        <time>2020-12-06T10:38:13.000Z</time>
      </trkpt>
      <trkpt lat="47.30022" lon="-2.38579">
        <ele>50.200000762939</ele>
        <time>2020-12-06T10:38:14.000Z</time>
      </trkpt>
      <trkpt lat="47.30021" lon="-2.38575">
        <ele>50.599998474121</ele>
        <time>2020-12-06T10:38:15.000Z</time>
      </trkpt>
      <trkpt lat="47.30021" lon="-2.38569">
        <ele>51</ele>
        <time>2020-12-06T10:38:16.000Z</time>
      </trkpt>
      <trkpt lat="47.30019" lon="-2.38554">
        <ele>51.400001525879</ele>
        <time>2020-12-06T10:38:19.000Z</time>
      </trkpt>
      <trkpt lat="47.30018" lon="-2.38549">
        <ele>51.799999237061</ele>
        <time>2020-12-06T10:38:20.000Z</time>
      </trkpt>
      <trkpt lat="47.30017" lon="-2.38544">
        <ele>52.400001525879</ele>
        <time>2020-12-06T10:38:21.000Z</time>
      </trkpt>
      <trkpt lat="47.30017" lon="-2.38539">
        <ele>52.799999237061</ele>
        <time>2020-12-06T10:38:22.000Z</time>
      </trkpt>
      <trkpt lat="47.30016" lon="-2.38534">
        <ele>53.200000762939</ele>
        <time>2020-12-06T10:38:23.000Z</time>
      </trkpt>
      <trkpt lat="47.30013" lon="-2.38509">
        <ele>53.200000762939</ele>
        <time>2020-12-06T10:38:28.000Z</time>
      </trkpt>
      <trkpt lat="47.30012" lon="-2.38504">
        <ele>53.599998474121</ele>
        <time>2020-12-06T10:38:29.000Z</time>
      </trkpt>
      <trkpt lat="47.30011" lon="-2.38499">
        <ele>54</ele>
        <time>2020-12-06T10:38:30.000Z</time>
      </trkpt>
      <trkpt lat="47.30011" lon="-2.38494">
        <ele>54.400001525879</ele>
        <time>2020-12-06T10:38:31.000Z</time>
      </trkpt>
      <trkpt lat="47.3001" lon="-2.38489">
        <ele>54.799999237061</ele>
        <time>2020-12-06T10:38:32.000Z</time>
      </trkpt>
      <trkpt lat="47.30009" lon="-2.38484">
        <ele>55.200000762939</ele>
        <time>2020-12-06T10:38:33.000Z</time>
      </trkpt>
      <trkpt lat="47.30006" lon="-2.38468">
        <ele>55.200000762939</ele>
        <time>2020-12-06T10:38:36.000Z</time>
      </trkpt>
      <trkpt lat="47.30004" lon="-2.38456">
        <ele>55.200000762939</ele>
        <time>2020-12-06T10:38:38.000Z</time>
      </trkpt>
      <trkpt lat="47.30002" lon="-2.38432">
        <ele>55.200000762939</ele>
        <time>2020-12-06T10:38:42.000Z</time>
      </trkpt>
      <trkpt lat="47.29997" lon="-2.38394">
        <ele>55.200000762939</ele>
        <time>2020-12-06T10:38:47.000Z</time>
      </trkpt>
      <trkpt lat="47.29994" lon="-2.38337">
        <ele>55.200000762939</ele>
        <time>2020-12-06T10:38:54.000Z</time>
      </trkpt>
      <trkpt lat="47.29993" lon="-2.38269">
        <ele>55.200000762939</ele>
        <time>2020-12-06T10:39:02.000Z</time>
      </trkpt>
      <trkpt lat="47.2999" lon="-2.38193">
        <ele>55.200000762939</ele>
        <time>2020-12-06T10:39:10.000Z</time>
      </trkpt>
      <trkpt lat="47.29987" lon="-2.38105">
        <ele>55.200000762939</ele>
        <time>2020-12-06T10:39:18.000Z</time>
      </trkpt>
      <trkpt lat="47.29986" lon="-2.38045">
        <ele>54.200000762939</ele>
        <time>2020-12-06T10:39:23.000Z</time>
      </trkpt>
      <trkpt lat="47.29986" lon="-2.38032">
        <ele>53.599998474121</ele>
        <time>2020-12-06T10:39:24.000Z</time>
      </trkpt>
      <trkpt lat="47.29987" lon="-2.3802">
        <ele>53</ele>
        <time>2020-12-06T10:39:25.000Z</time>
      </trkpt>
      <trkpt lat="47.29987" lon="-2.38007">
        <ele>52.599998474121</ele>
        <time>2020-12-06T10:39:26.000Z</time>
      </trkpt>
      <trkpt lat="47.29985" lon="-2.37951">
        <ele>52.599998474121</ele>
        <time>2020-12-06T10:39:31.000Z</time>
      </trkpt>
      <trkpt lat="47.29971" lon="-2.37924">
        <ele>52.599998474121</ele>
        <time>2020-12-06T10:39:34.000Z</time>
      </trkpt>
      <trkpt lat="47.29959" lon="-2.3791">
        <ele>52.599998474121</ele>
        <time>2020-12-06T10:39:36.000Z</time>
      </trkpt>
      <trkpt lat="47.2994" lon="-2.3789">
        <ele>52.599998474121</ele>
        <time>2020-12-06T10:39:39.000Z</time>
      </trkpt>
      <trkpt lat="47.29904" lon="-2.37848">
        <ele>52.599998474121</ele>
        <time>2020-12-06T10:39:46.000Z</time>
      </trkpt>
      <trkpt lat="47.2989" lon="-2.37829">
        <ele>53</ele>
        <time>2020-12-06T10:39:50.000Z</time>
      </trkpt>
      <trkpt lat="47.29887" lon="-2.37825">
        <ele>53.400001525879</ele>
        <time>2020-12-06T10:39:51.000Z</time>
      </trkpt>
      <trkpt lat="47.29883" lon="-2.37821">
        <ele>53.799999237061</ele>
        <time>2020-12-06T10:39:52.000Z</time>
      </trkpt>
      <trkpt lat="47.2988" lon="-2.37817">
        <ele>54.200000762939</ele>
        <time>2020-12-06T10:39:53.000Z</time>
      </trkpt>
      <trkpt lat="47.29878" lon="-2.37814">
        <ele>54.799999237061</ele>
        <time>2020-12-06T10:39:54.000Z</time>
      </trkpt>
      <trkpt lat="47.29875" lon="-2.37811">
        <ele>55.400001525879</ele>
        <time>2020-12-06T10:39:55.000Z</time>
      </trkpt>
      <trkpt lat="47.29872" lon="-2.3781">
        <ele>56</ele>
        <time>2020-12-06T10:39:56.000Z</time>
      </trkpt>
      <trkpt lat="47.29869" lon="-2.37812">
        <ele>56.599998474121</ele>
        <time>2020-12-06T10:39:57.000Z</time>
      </trkpt>
      <trkpt lat="47.29868" lon="-2.37815">
        <ele>57</ele>
        <time>2020-12-06T10:39:58.000Z</time>
      </trkpt>
      <trkpt lat="47.29866" lon="-2.37819">
        <ele>57</ele>
        <time>2020-12-06T10:39:59.000Z</time>
      </trkpt>
      <trkpt lat="47.29861" lon="-2.37831">
        <ele>57</ele>
        <time>2020-12-06T10:40:02.000Z</time>
      </trkpt>
      <trkpt lat="47.29857" lon="-2.37845">
        <ele>57</ele>
        <time>2020-12-06T10:40:05.000Z</time>
      </trkpt>
      <trkpt lat="47.29851" lon="-2.37856">
        <ele>57</ele>
        <time>2020-12-06T10:40:07.000Z</time>
      </trkpt>
      <trkpt lat="47.29848" lon="-2.37861">
        <ele>57.400001525879</ele>
        <time>2020-12-06T10:40:08.000Z</time>
      </trkpt>
      <trkpt lat="47.29845" lon="-2.37866">
        <ele>58</ele>
        <time>2020-12-06T10:40:09.000Z</time>
      </trkpt>
      <trkpt lat="47.29842" lon="-2.37869">
        <ele>58.400001525879</ele>
        <time>2020-12-06T10:40:10.000Z</time>
      </trkpt>
      <trkpt lat="47.29838" lon="-2.37872">
        <ele>58.799999237061</ele>
        <time>2020-12-06T10:40:11.000Z</time>
      </trkpt>
      <trkpt lat="47.29835" lon="-2.37876">
        <ele>59.200000762939</ele>
        <time>2020-12-06T10:40:12.000Z</time>
      </trkpt>
      <trkpt lat="47.29832" lon="-2.37879">
        <ele>59.200000762939</ele>
        <time>2020-12-06T10:40:13.000Z</time>
      </trkpt>
      <trkpt lat="47.2982" lon="-2.37888">
        <ele>59.200000762939</ele>
        <time>2020-12-06T10:40:16.000Z</time>
      </trkpt>
      <trkpt lat="47.29796" lon="-2.37902">
        <ele>59.200000762939</ele>
        <time>2020-12-06T10:40:23.000Z</time>
      </trkpt>
      <trkpt lat="47.29772" lon="-2.37919">
        <ele>59.200000762939</ele>
        <time>2020-12-06T10:40:29.000Z</time>
      </trkpt>
      <trkpt lat="47.29746" lon="-2.3795">
        <ele>59.200000762939</ele>
        <time>2020-12-06T10:40:35.000Z</time>
      </trkpt>
      <trkpt lat="47.29735" lon="-2.37979">
        <ele>58.599998474121</ele>
        <time>2020-12-06T10:40:39.000Z</time>
      </trkpt>
      <trkpt lat="47.29734" lon="-2.37986">
        <ele>58</ele>
        <time>2020-12-06T10:40:40.000Z</time>
      </trkpt>
      <trkpt lat="47.29733" lon="-2.37993">
        <ele>57.599998474121</ele>
        <time>2020-12-06T10:40:41.000Z</time>
      </trkpt>
      <trkpt lat="47.29732" lon="-2.38">
        <ele>56.799999237061</ele>
        <time>2020-12-06T10:40:42.000Z</time>
      </trkpt>
      <trkpt lat="47.29732" lon="-2.38006">
        <ele>56.200000762939</ele>
        <time>2020-12-06T10:40:43.000Z</time>
      </trkpt>
      <trkpt lat="47.29733" lon="-2.38012">
        <ele>55.599998474121</ele>
        <time>2020-12-06T10:40:44.000Z</time>
      </trkpt>
      <trkpt lat="47.29734" lon="-2.3802">
        <ele>54.799999237061</ele>
        <time>2020-12-06T10:40:45.000Z</time>
      </trkpt>
      <trkpt lat="47.29735" lon="-2.38026">
        <ele>54</ele>
        <time>2020-12-06T10:40:46.000Z</time>
      </trkpt>
      <trkpt lat="47.29734" lon="-2.38031">
        <ele>53.400001525879</ele>
        <time>2020-12-06T10:40:47.000Z</time>
      </trkpt>
      <trkpt lat="47.29732" lon="-2.38035">
        <ele>52.599998474121</ele>
        <time>2020-12-06T10:40:48.000Z</time>
      </trkpt>
      <trkpt lat="47.29728" lon="-2.38037">
        <ele>51.599998474121</ele>
        <time>2020-12-06T10:40:49.000Z</time>
      </trkpt>
      <trkpt lat="47.29724" lon="-2.38041">
        <ele>50.799999237061</ele>
        <time>2020-12-06T10:40:50.000Z</time>
      </trkpt>
      <trkpt lat="47.29718" lon="-2.38045">
        <ele>50</ele>
        <time>2020-12-06T10:40:51.000Z</time>
      </trkpt>
      <trkpt lat="47.29713" lon="-2.3805">
        <ele>49.400001525879</ele>
        <time>2020-12-06T10:40:52.000Z</time>
      </trkpt>
      <trkpt lat="47.29706" lon="-2.38056">
        <ele>48.799999237061</ele>
        <time>2020-12-06T10:40:53.000Z</time>
      </trkpt>
      <trkpt lat="47.29698" lon="-2.38062">
        <ele>48.200000762939</ele>
        <time>2020-12-06T10:40:54.000Z</time>
      </trkpt>
      <trkpt lat="47.29691" lon="-2.38068">
        <ele>47.599998474121</ele>
        <time>2020-12-06T10:40:55.000Z</time>
      </trkpt>
      <trkpt lat="47.29683" lon="-2.38074">
        <ele>47</ele>
        <time>2020-12-06T10:40:56.000Z</time>
      </trkpt>
      <trkpt lat="47.29674" lon="-2.38079">
        <ele>46.400001525879</ele>
        <time>2020-12-06T10:40:57.000Z</time>
      </trkpt>
      <trkpt lat="47.29666" lon="-2.38084">
        <ele>45.799999237061</ele>
        <time>2020-12-06T10:40:58.000Z</time>
      </trkpt>
      <trkpt lat="47.29657" lon="-2.38089">
        <ele>45.200000762939</ele>
        <time>2020-12-06T10:40:59.000Z</time>
      </trkpt>
      <trkpt lat="47.29648" lon="-2.38093">
        <ele>44.599998474121</ele>
        <time>2020-12-06T10:41:00.000Z</time>
      </trkpt>
      <trkpt lat="47.2964" lon="-2.38098">
        <ele>44</ele>
        <time>2020-12-06T10:41:01.000Z</time>
      </trkpt>
      <trkpt lat="47.29632" lon="-2.38103">
        <ele>43.200000762939</ele>
        <time>2020-12-06T10:41:02.000Z</time>
      </trkpt>
      <trkpt lat="47.29623" lon="-2.38106">
        <ele>41.599998474121</ele>
        <time>2020-12-06T10:41:03.000Z</time>
      </trkpt>
      <trkpt lat="47.29615" lon="-2.38109">
        <ele>40.799999237061</ele>
        <time>2020-12-06T10:41:04.000Z</time>
      </trkpt>
      <trkpt lat="47.29607" lon="-2.38111">
        <ele>39.799999237061</ele>
        <time>2020-12-06T10:41:05.000Z</time>
      </trkpt>
      <trkpt lat="47.29599" lon="-2.38113">
        <ele>39.400001525879</ele>
        <time>2020-12-06T10:41:06.000Z</time>
      </trkpt>
      <trkpt lat="47.29591" lon="-2.38115">
        <ele>39</ele>
        <time>2020-12-06T10:41:07.000Z</time>
      </trkpt>
      <trkpt lat="47.29583" lon="-2.38116">
        <ele>38.599998474121</ele>
        <time>2020-12-06T10:41:08.000Z</time>
      </trkpt>
      <trkpt lat="47.29574" lon="-2.38118">
        <ele>38.200000762939</ele>
        <time>2020-12-06T10:41:09.000Z</time>
      </trkpt>
      <trkpt lat="47.29566" lon="-2.3812">
        <ele>37.799999237061</ele>
        <time>2020-12-06T10:41:10.000Z</time>
      </trkpt>
      <trkpt lat="47.29559" lon="-2.38121">
        <ele>37.400001525879</ele>
        <time>2020-12-06T10:41:11.000Z</time>
      </trkpt>
      <trkpt lat="47.29551" lon="-2.38122">
        <ele>37</ele>
        <time>2020-12-06T10:41:12.000Z</time>
      </trkpt>
      <trkpt lat="47.29543" lon="-2.38122">
        <ele>36.400001525879</ele>
        <time>2020-12-06T10:41:13.000Z</time>
      </trkpt>
      <trkpt lat="47.29535" lon="-2.38123">
        <ele>36</ele>
        <time>2020-12-06T10:41:14.000Z</time>
      </trkpt>
      <trkpt lat="47.29527" lon="-2.38122">
        <ele>35.599998474121</ele>
        <time>2020-12-06T10:41:15.000Z</time>
      </trkpt>
      <trkpt lat="47.29519" lon="-2.38122">
        <ele>35.200000762939</ele>
        <time>2020-12-06T10:41:16.000Z</time>
      </trkpt>
      <trkpt lat="47.29512" lon="-2.38121">
        <ele>34.799999237061</ele>
        <time>2020-12-06T10:41:17.000Z</time>
      </trkpt>
      <trkpt lat="47.29504" lon="-2.3812">
        <ele>34.400001525879</ele>
        <time>2020-12-06T10:41:18.000Z</time>
      </trkpt>
      <trkpt lat="47.29496" lon="-2.38121">
        <ele>33.799999237061</ele>
        <time>2020-12-06T10:41:19.000Z</time>
      </trkpt>
      <trkpt lat="47.2949" lon="-2.38123">
        <ele>33.400001525879</ele>
        <time>2020-12-06T10:41:20.000Z</time>
      </trkpt>
      <trkpt lat="47.29476" lon="-2.3813">
        <ele>33</ele>
        <time>2020-12-06T10:41:22.000Z</time>
      </trkpt>
      <trkpt lat="47.2947" lon="-2.38135">
        <ele>32.400001525879</ele>
        <time>2020-12-06T10:41:23.000Z</time>
      </trkpt>
      <trkpt lat="47.29465" lon="-2.3814">
        <ele>32</ele>
        <time>2020-12-06T10:41:24.000Z</time>
      </trkpt>
      <trkpt lat="47.29459" lon="-2.38144">
        <ele>31.39999961853</ele>
        <time>2020-12-06T10:41:25.000Z</time>
      </trkpt>
      <trkpt lat="47.29454" lon="-2.38147">
        <ele>31</ele>
        <time>2020-12-06T10:41:26.000Z</time>
      </trkpt>
      <trkpt lat="47.2945" lon="-2.38149">
        <ele>31</ele>
        <time>2020-12-06T10:41:27.000Z</time>
      </trkpt>
      <trkpt lat="47.29447" lon="-2.38149">
        <ele>31</ele>
        <time>2020-12-06T10:41:28.000Z</time>
      </trkpt>
      <trkpt lat="47.29444" lon="-2.38146">
        <ele>30.60000038147</ele>
        <time>2020-12-06T10:41:29.000Z</time>
      </trkpt>
      <trkpt lat="47.29441" lon="-2.38142">
        <ele>30.200000762939</ele>
        <time>2020-12-06T10:41:30.000Z</time>
      </trkpt>
      <trkpt lat="47.29438" lon="-2.38138">
        <ele>29.799999237061</ele>
        <time>2020-12-06T10:41:31.000Z</time>
      </trkpt>
      <trkpt lat="47.29436" lon="-2.38134">
        <ele>29.39999961853</ele>
        <time>2020-12-06T10:41:32.000Z</time>
      </trkpt>
      <trkpt lat="47.29434" lon="-2.38127">
        <ele>29</ele>
        <time>2020-12-06T10:41:33.000Z</time>
      </trkpt>
      <trkpt lat="47.29429" lon="-2.38113">
        <ele>29</ele>
        <time>2020-12-06T10:41:35.000Z</time>
      </trkpt>
      <trkpt lat="47.29406" lon="-2.38043">
        <ele>29</ele>
        <time>2020-12-06T10:41:44.000Z</time>
      </trkpt>
      <trkpt lat="47.29391" lon="-2.37992">
        <ele>29</ele>
        <time>2020-12-06T10:41:51.000Z</time>
      </trkpt>
      <trkpt lat="47.29373" lon="-2.37941">
        <ele>29</ele>
        <time>2020-12-06T10:41:58.000Z</time>
      </trkpt>
      <trkpt lat="47.2936" lon="-2.37906">
        <ele>29.39999961853</ele>
        <time>2020-12-06T10:42:03.000Z</time>
      </trkpt>
      <trkpt lat="47.29358" lon="-2.37899">
        <ele>29.799999237061</ele>
        <time>2020-12-06T10:42:04.000Z</time>
      </trkpt>
      <trkpt lat="47.29355" lon="-2.37892">
        <ele>30.39999961853</ele>
        <time>2020-12-06T10:42:05.000Z</time>
      </trkpt>
      <trkpt lat="47.29353" lon="-2.37886">
        <ele>30.799999237061</ele>
        <time>2020-12-06T10:42:06.000Z</time>
      </trkpt>
      <trkpt lat="47.2935" lon="-2.37879">
        <ele>31.200000762939</ele>
        <time>2020-12-06T10:42:07.000Z</time>
      </trkpt>
      <trkpt lat="47.29343" lon="-2.37859">
        <ele>31.200000762939</ele>
        <time>2020-12-06T10:42:10.000Z</time>
      </trkpt>
      <trkpt lat="47.29337" lon="-2.37829">
        <ele>31.200000762939</ele>
        <time>2020-12-06T10:42:14.000Z</time>
      </trkpt>
      <trkpt lat="47.29334" lon="-2.37807">
        <ele>31.799999237061</ele>
        <time>2020-12-06T10:42:17.000Z</time>
      </trkpt>
      <trkpt lat="47.29334" lon="-2.378">
        <ele>32.200000762939</ele>
        <time>2020-12-06T10:42:18.000Z</time>
      </trkpt>
      <trkpt lat="47.29334" lon="-2.37792">
        <ele>32.599998474121</ele>
        <time>2020-12-06T10:42:19.000Z</time>
      </trkpt>
      <trkpt lat="47.29334" lon="-2.37785">
        <ele>33</ele>
        <time>2020-12-06T10:42:20.000Z</time>
      </trkpt>
      <trkpt lat="47.29333" lon="-2.37778">
        <ele>33.400001525879</ele>
        <time>2020-12-06T10:42:21.000Z</time>
      </trkpt>
      <trkpt lat="47.29332" lon="-2.37749">
        <ele>33.799999237061</ele>
        <time>2020-12-06T10:42:25.000Z</time>
      </trkpt>
      <trkpt lat="47.29332" lon="-2.37742">
        <ele>34.200000762939</ele>
        <time>2020-12-06T10:42:26.000Z</time>
      </trkpt>
      <trkpt lat="47.29331" lon="-2.37736">
        <ele>34.799999237061</ele>
        <time>2020-12-06T10:42:27.000Z</time>
      </trkpt>
      <trkpt lat="47.29331" lon="-2.37729">
        <ele>35.200000762939</ele>
        <time>2020-12-06T10:42:28.000Z</time>
      </trkpt>
      <trkpt lat="47.29331" lon="-2.37723">
        <ele>35.599998474121</ele>
        <time>2020-12-06T10:42:29.000Z</time>
      </trkpt>
      <trkpt lat="47.29329" lon="-2.37697">
        <ele>36</ele>
        <time>2020-12-06T10:42:33.000Z</time>
      </trkpt>
      <trkpt lat="47.29329" lon="-2.37691">
        <ele>36.400001525879</ele>
        <time>2020-12-06T10:42:34.000Z</time>
      </trkpt>
      <trkpt lat="47.29329" lon="-2.37684">
        <ele>36.799999237061</ele>
        <time>2020-12-06T10:42:35.000Z</time>
      </trkpt>
      <trkpt lat="47.29329" lon="-2.37679">
        <ele>37.200000762939</ele>
        <time>2020-12-06T10:42:36.000Z</time>
      </trkpt>
      <trkpt lat="47.29329" lon="-2.37673">
        <ele>37.799999237061</ele>
        <time>2020-12-06T10:42:37.000Z</time>
      </trkpt>
      <trkpt lat="47.29328" lon="-2.37651">
        <ele>38.599998474121</ele>
        <time>2020-12-06T10:42:41.000Z</time>
      </trkpt>
      <trkpt lat="47.29327" lon="-2.37646">
        <ele>39</ele>
        <time>2020-12-06T10:42:42.000Z</time>
      </trkpt>
      <trkpt lat="47.29325" lon="-2.3764">
        <ele>39.400001525879</ele>
        <time>2020-12-06T10:42:43.000Z</time>
      </trkpt>
      <trkpt lat="47.29323" lon="-2.37634">
        <ele>39.799999237061</ele>
        <time>2020-12-06T10:42:44.000Z</time>
      </trkpt>
      <trkpt lat="47.29316" lon="-2.37612">
        <ele>39.799999237061</ele>
        <time>2020-12-06T10:42:48.000Z</time>
      </trkpt>
      <trkpt lat="47.29311" lon="-2.37603">
        <ele>39.799999237061</ele>
        <time>2020-12-06T10:42:50.000Z</time>
      </trkpt>
      <trkpt lat="47.29292" lon="-2.37576">
        <ele>39.799999237061</ele>
        <time>2020-12-06T10:42:56.000Z</time>
      </trkpt>
      <trkpt lat="47.2927" lon="-2.37539">
        <ele>39.799999237061</ele>
        <time>2020-12-06T10:43:02.000Z</time>
      </trkpt>
      <trkpt lat="47.29249" lon="-2.37508">
        <ele>39.799999237061</ele>
        <time>2020-12-06T10:43:08.000Z</time>
      </trkpt>
      <trkpt lat="47.29234" lon="-2.37483">
        <ele>39.799999237061</ele>
        <time>2020-12-06T10:43:13.000Z</time>
      </trkpt>
      <trkpt lat="47.29228" lon="-2.37474">
        <ele>39.799999237061</ele>
        <time>2020-12-06T10:43:15.000Z</time>
      </trkpt>
      <trkpt lat="47.29225" lon="-2.37468">
        <ele>40.200000762939</ele>
        <time>2020-12-06T10:43:16.000Z</time>
      </trkpt>
      <trkpt lat="47.29221" lon="-2.37464">
        <ele>40.599998474121</ele>
        <time>2020-12-06T10:43:17.000Z</time>
      </trkpt>
      <trkpt lat="47.29218" lon="-2.37458">
        <ele>41</ele>
        <time>2020-12-06T10:43:18.000Z</time>
      </trkpt>
      <trkpt lat="47.29215" lon="-2.37454">
        <ele>41.400001525879</ele>
        <time>2020-12-06T10:43:19.000Z</time>
      </trkpt>
      <trkpt lat="47.29212" lon="-2.37449">
        <ele>41.799999237061</ele>
        <time>2020-12-06T10:43:20.000Z</time>
      </trkpt>
      <trkpt lat="47.29206" lon="-2.3744">
        <ele>41.799999237061</ele>
        <time>2020-12-06T10:43:22.000Z</time>
      </trkpt>
      <trkpt lat="47.29189" lon="-2.37412">
        <ele>42.200000762939</ele>
        <time>2020-12-06T10:43:28.000Z</time>
      </trkpt>
      <trkpt lat="47.29187" lon="-2.37408">
        <ele>42.599998474121</ele>
        <time>2020-12-06T10:43:29.000Z</time>
      </trkpt>
      <trkpt lat="47.29185" lon="-2.37403">
        <ele>43</ele>
        <time>2020-12-06T10:43:30.000Z</time>
      </trkpt>
      <trkpt lat="47.29183" lon="-2.374">
        <ele>43.799999237061</ele>
        <time>2020-12-06T10:43:31.000Z</time>
      </trkpt>
      <trkpt lat="47.29177" lon="-2.37391">
        <ele>43.799999237061</ele>
        <time>2020-12-06T10:43:34.000Z</time>
      </trkpt>
      <trkpt lat="47.29165" lon="-2.37373">
        <ele>43.799999237061</ele>
        <time>2020-12-06T10:43:40.000Z</time>
      </trkpt>
      <trkpt lat="47.29155" lon="-2.37352">
        <ele>43.799999237061</ele>
        <time>2020-12-06T10:43:46.000Z</time>
      </trkpt>
      <trkpt lat="47.29149" lon="-2.3733">
        <ele>43.799999237061</ele>
        <time>2020-12-06T10:43:52.000Z</time>
      </trkpt>
      <trkpt lat="47.29141" lon="-2.37318">
        <ele>44.200000762939</ele>
        <time>2020-12-06T10:43:57.000Z</time>
      </trkpt>
      <trkpt lat="47.29139" lon="-2.37316">
        <ele>44.599998474121</ele>
        <time>2020-12-06T10:43:58.000Z</time>
      </trkpt>
      <trkpt lat="47.29137" lon="-2.37314">
        <ele>45</ele>
        <time>2020-12-06T10:43:59.000Z</time>
      </trkpt>
      <trkpt lat="47.29135" lon="-2.37312">
        <ele>45.400001525879</ele>
        <time>2020-12-06T10:44:00.000Z</time>
      </trkpt>
      <trkpt lat="47.29133" lon="-2.3731">
        <ele>45.799999237061</ele>
        <time>2020-12-06T10:44:01.000Z</time>
      </trkpt>
      <trkpt lat="47.29123" lon="-2.37298">
        <ele>45.799999237061</ele>
        <time>2020-12-06T10:44:06.000Z</time>
      </trkpt>
      <trkpt lat="47.29106" lon="-2.3728">
        <ele>45.799999237061</ele>
        <time>2020-12-06T10:44:14.000Z</time>
      </trkpt>
      <trkpt lat="47.29091" lon="-2.37265">
        <ele>45.799999237061</ele>
        <time>2020-12-06T10:44:20.000Z</time>
      </trkpt>
      <trkpt lat="47.29072" lon="-2.37248">
        <ele>45.799999237061</ele>
        <time>2020-12-06T10:44:27.000Z</time>
      </trkpt>
      <trkpt lat="47.29053" lon="-2.37225">
        <ele>45.799999237061</ele>
        <time>2020-12-06T10:44:34.000Z</time>
      </trkpt>
      <trkpt lat="47.29034" lon="-2.37208">
        <ele>45.400001525879</ele>
        <time>2020-12-06T10:44:39.000Z</time>
      </trkpt>
      <trkpt lat="47.29029" lon="-2.37203">
        <ele>45</ele>
        <time>2020-12-06T10:44:40.000Z</time>
      </trkpt>
      <trkpt lat="47.29024" lon="-2.37198">
        <ele>44.599998474121</ele>
        <time>2020-12-06T10:44:41.000Z</time>
      </trkpt>
      <trkpt lat="47.2902" lon="-2.37194">
        <ele>44.200000762939</ele>
        <time>2020-12-06T10:44:42.000Z</time>
      </trkpt>
      <trkpt lat="47.29016" lon="-2.37189">
        <ele>43.799999237061</ele>
        <time>2020-12-06T10:44:43.000Z</time>
      </trkpt>
      <trkpt lat="47.29009" lon="-2.37181">
        <ele>43.799999237061</ele>
        <time>2020-12-06T10:44:45.000Z</time>
      </trkpt>
      <trkpt lat="47.29006" lon="-2.37176">
        <ele>43.400001525879</ele>
        <time>2020-12-06T10:44:46.000Z</time>
      </trkpt>
      <trkpt lat="47.29005" lon="-2.37171">
        <ele>42.799999237061</ele>
        <time>2020-12-06T10:44:47.000Z</time>
      </trkpt>
      <trkpt lat="47.29005" lon="-2.37166">
        <ele>42.400001525879</ele>
        <time>2020-12-06T10:44:48.000Z</time>
      </trkpt>
      <trkpt lat="47.29005" lon="-2.37161">
        <ele>42</ele>
        <time>2020-12-06T10:44:49.000Z</time>
      </trkpt>
      <trkpt lat="47.29005" lon="-2.37156">
        <ele>41.599998474121</ele>
        <time>2020-12-06T10:44:50.000Z</time>
      </trkpt>
      <trkpt lat="47.28999" lon="-2.37139">
        <ele>41.599998474121</ele>
        <time>2020-12-06T10:44:54.000Z</time>
      </trkpt>
      <trkpt lat="47.28988" lon="-2.37111">
        <ele>41.599998474121</ele>
        <time>2020-12-06T10:45:00.000Z</time>
      </trkpt>
      <trkpt lat="47.28987" lon="-2.37107">
        <ele>42</ele>
        <time>2020-12-06T10:45:01.000Z</time>
      </trkpt>
      <trkpt lat="47.28985" lon="-2.37102">
        <ele>42.400001525879</ele>
        <time>2020-12-06T10:45:02.000Z</time>
      </trkpt>
      <trkpt lat="47.28983" lon="-2.37098">
        <ele>42.799999237061</ele>
        <time>2020-12-06T10:45:03.000Z</time>
      </trkpt>
      <trkpt lat="47.28981" lon="-2.37093">
        <ele>43.200000762939</ele>
        <time>2020-12-06T10:45:04.000Z</time>
      </trkpt>
      <trkpt lat="47.28979" lon="-2.37089">
        <ele>43.599998474121</ele>
        <time>2020-12-06T10:45:05.000Z</time>
      </trkpt>
      <trkpt lat="47.28976" lon="-2.37081">
        <ele>43.599998474121</ele>
        <time>2020-12-06T10:45:07.000Z</time>
      </trkpt>
      <trkpt lat="47.28967" lon="-2.37051">
        <ele>43.599998474121</ele>
        <time>2020-12-06T10:45:15.000Z</time>
      </trkpt>
      <trkpt lat="47.28966" lon="-2.37047">
        <ele>44</ele>
        <time>2020-12-06T10:45:16.000Z</time>
      </trkpt>
      <trkpt lat="47.28964" lon="-2.37043">
        <ele>44.400001525879</ele>
        <time>2020-12-06T10:45:17.000Z</time>
      </trkpt>
      <trkpt lat="47.28963" lon="-2.37039">
        <ele>44.799999237061</ele>
        <time>2020-12-06T10:45:18.000Z</time>
      </trkpt>
      <trkpt lat="47.28961" lon="-2.37036">
        <ele>45.200000762939</ele>
        <time>2020-12-06T10:45:19.000Z</time>
      </trkpt>
      <trkpt lat="47.28959" lon="-2.37032">
        <ele>45.599998474121</ele>
        <time>2020-12-06T10:45:20.000Z</time>
      </trkpt>
      <trkpt lat="47.28956" lon="-2.37026">
        <ele>45.599998474121</ele>
        <time>2020-12-06T10:45:22.000Z</time>
      </trkpt>
      <trkpt lat="47.28944" lon="-2.37006">
        <ele>45.599998474121</ele>
        <time>2020-12-06T10:45:29.000Z</time>
      </trkpt>
      <trkpt lat="47.28928" lon="-2.36981">
        <ele>45.599998474121</ele>
        <time>2020-12-06T10:45:37.000Z</time>
      </trkpt>
      <trkpt lat="47.28915" lon="-2.36962">
        <ele>45.599998474121</ele>
        <time>2020-12-06T10:45:43.000Z</time>
      </trkpt>
      <trkpt lat="47.28898" lon="-2.36939">
        <ele>45.599998474121</ele>
        <time>2020-12-06T10:45:51.000Z</time>
      </trkpt>
      <trkpt lat="47.28884" lon="-2.36922">
        <ele>45.599998474121</ele>
        <time>2020-12-06T10:45:58.000Z</time>
      </trkpt>
      <trkpt lat="47.28869" lon="-2.36907">
        <ele>45.599998474121</ele>
        <time>2020-12-06T10:46:05.000Z</time>
      </trkpt>
      <trkpt lat="47.28855" lon="-2.36898">
        <ele>45.599998474121</ele>
        <time>2020-12-06T10:46:11.000Z</time>
      </trkpt>
      <trkpt lat="47.28851" lon="-2.36897">
        <ele>45.599998474121</ele>
        <time>2020-12-06T10:46:16.000Z</time>
      </trkpt>
      <trkpt lat="47.28848" lon="-2.36895">
        <ele>45.599998474121</ele>
        <time>2020-12-06T10:46:29.000Z</time>
      </trkpt>
      <trkpt lat="47.28843" lon="-2.36886">
        <ele>45.599998474121</ele>
        <time>2020-12-06T10:46:35.000Z</time>
      </trkpt>
      <trkpt lat="47.28843" lon="-2.36886">
        <ele>45.599998474121</ele>
        <time>2020-12-06T10:46:36.000Z</time>
      </trkpt>
      <trkpt lat="47.28842" lon="-2.36883">
        <ele>45.599998474121</ele>
        <time>2020-12-06T10:46:43.000Z</time>
      </trkpt>
      <trkpt lat="47.28839" lon="-2.36881">
        <ele>45.200000762939</ele>
        <time>2020-12-06T10:46:44.000Z</time>
      </trkpt>
      <trkpt lat="47.28836" lon="-2.36877">
        <ele>44.799999237061</ele>
        <time>2020-12-06T10:46:45.000Z</time>
      </trkpt>
      <trkpt lat="47.28833" lon="-2.36872">
        <ele>44.200000762939</ele>
        <time>2020-12-06T10:46:46.000Z</time>
      </trkpt>
      <trkpt lat="47.2883" lon="-2.36865">
        <ele>43.799999237061</ele>
        <time>2020-12-06T10:46:47.000Z</time>
      </trkpt>
      <trkpt lat="47.28827" lon="-2.36858">
        <ele>42.799999237061</ele>
        <time>2020-12-06T10:46:48.000Z</time>
      </trkpt>
      <trkpt lat="47.28825" lon="-2.36849">
        <ele>42.200000762939</ele>
        <time>2020-12-06T10:46:49.000Z</time>
      </trkpt>
      <trkpt lat="47.28823" lon="-2.3684">
        <ele>41.799999237061</ele>
        <time>2020-12-06T10:46:50.000Z</time>
      </trkpt>
      <trkpt lat="47.28819" lon="-2.36832">
        <ele>41</ele>
        <time>2020-12-06T10:46:51.000Z</time>
      </trkpt>
      <trkpt lat="47.28815" lon="-2.36826">
        <ele>40.400001525879</ele>
        <time>2020-12-06T10:46:52.000Z</time>
      </trkpt>
      <trkpt lat="47.28811" lon="-2.36821">
        <ele>39.799999237061</ele>
        <time>2020-12-06T10:46:53.000Z</time>
      </trkpt>
      <trkpt lat="47.28806" lon="-2.36819">
        <ele>39</ele>
        <time>2020-12-06T10:46:54.000Z</time>
      </trkpt>
      <trkpt lat="47.28802" lon="-2.36821">
        <ele>38.200000762939</ele>
        <time>2020-12-06T10:46:55.000Z</time>
      </trkpt>
      <trkpt lat="47.28798" lon="-2.36826">
        <ele>37.599998474121</ele>
        <time>2020-12-06T10:46:56.000Z</time>
      </trkpt>
      <trkpt lat="47.28795" lon="-2.36832">
        <ele>36.799999237061</ele>
        <time>2020-12-06T10:46:57.000Z</time>
      </trkpt>
      <trkpt lat="47.28792" lon="-2.36838">
        <ele>36.200000762939</ele>
        <time>2020-12-06T10:46:58.000Z</time>
      </trkpt>
      <trkpt lat="47.28786" lon="-2.36857">
        <ele>36.200000762939</ele>
        <time>2020-12-06T10:47:01.000Z</time>
      </trkpt>
      <trkpt lat="47.28782" lon="-2.36871">
        <ele>36.200000762939</ele>
        <time>2020-12-06T10:47:03.000Z</time>
      </trkpt>
      <trkpt lat="47.28778" lon="-2.36892">
        <ele>36.200000762939</ele>
        <time>2020-12-06T10:47:06.000Z</time>
      </trkpt>
      <trkpt lat="47.28778" lon="-2.3691">
        <ele>36.200000762939</ele>
        <time>2020-12-06T10:47:09.000Z</time>
      </trkpt>
      <trkpt lat="47.28776" lon="-2.36912">
        <ele>36.200000762939</ele>
        <time>2020-12-06T10:47:10.000Z</time>
      </trkpt>
      <trkpt lat="47.28772" lon="-2.36914">
        <ele>36.200000762939</ele>
        <time>2020-12-06T10:47:12.000Z</time>
      </trkpt>
      <trkpt lat="47.28766" lon="-2.36908">
        <ele>36.200000762939</ele>
        <time>2020-12-06T10:47:15.000Z</time>
      </trkpt>
      <trkpt lat="47.28761" lon="-2.36898">
        <ele>36.200000762939</ele>
        <time>2020-12-06T10:47:19.000Z</time>
      </trkpt>
      <trkpt lat="47.28761" lon="-2.36895">
        <ele>36.200000762939</ele>
        <time>2020-12-06T10:47:20.000Z</time>
      </trkpt>
      <trkpt lat="47.28763" lon="-2.36871">
        <ele>36.200000762939</ele>
        <time>2020-12-06T10:47:26.000Z</time>
      </trkpt>
      <trkpt lat="47.28766" lon="-2.36839">
        <ele>36.599998474121</ele>
        <time>2020-12-06T10:47:33.000Z</time>
      </trkpt>
      <trkpt lat="47.28767" lon="-2.36835">
        <ele>37</ele>
        <time>2020-12-06T10:47:34.000Z</time>
      </trkpt>
      <trkpt lat="47.28768" lon="-2.3683">
        <ele>37.400001525879</ele>
        <time>2020-12-06T10:47:35.000Z</time>
      </trkpt>
      <trkpt lat="47.28769" lon="-2.36825">
        <ele>38</ele>
        <time>2020-12-06T10:47:36.000Z</time>
      </trkpt>
      <trkpt lat="47.28771" lon="-2.36821">
        <ele>38.400001525879</ele>
        <time>2020-12-06T10:47:37.000Z</time>
      </trkpt>
      <trkpt lat="47.28773" lon="-2.36812">
        <ele>38.799999237061</ele>
        <time>2020-12-06T10:47:39.000Z</time>
      </trkpt>
      <trkpt lat="47.28773" lon="-2.36808">
        <ele>39.200000762939</ele>
        <time>2020-12-06T10:47:40.000Z</time>
      </trkpt>
      <trkpt lat="47.28773" lon="-2.36803">
        <ele>39.599998474121</ele>
        <time>2020-12-06T10:47:41.000Z</time>
      </trkpt>
      <trkpt lat="47.28774" lon="-2.36799">
        <ele>40</ele>
        <time>2020-12-06T10:47:42.000Z</time>
      </trkpt>
      <trkpt lat="47.28775" lon="-2.36794">
        <ele>40.400001525879</ele>
        <time>2020-12-06T10:47:43.000Z</time>
      </trkpt>
      <trkpt lat="47.28777" lon="-2.36782">
        <ele>40.400001525879</ele>
        <time>2020-12-06T10:47:46.000Z</time>
      </trkpt>
      <trkpt lat="47.28784" lon="-2.3675">
        <ele>40.799999237061</ele>
        <time>2020-12-06T10:47:54.000Z</time>
      </trkpt>
      <trkpt lat="47.28786" lon="-2.36746">
        <ele>41.400001525879</ele>
        <time>2020-12-06T10:47:55.000Z</time>
      </trkpt>
      <trkpt lat="47.28787" lon="-2.36742">
        <ele>41.799999237061</ele>
        <time>2020-12-06T10:47:56.000Z</time>
      </trkpt>
      <trkpt lat="47.28789" lon="-2.36737">
        <ele>42.200000762939</ele>
        <time>2020-12-06T10:47:57.000Z</time>
      </trkpt>
      <trkpt lat="47.2879" lon="-2.36733">
        <ele>42.599998474121</ele>
        <time>2020-12-06T10:47:58.000Z</time>
      </trkpt>
      <trkpt lat="47.28794" lon="-2.36721">
        <ele>42.599998474121</ele>
        <time>2020-12-06T10:48:01.000Z</time>
      </trkpt>
      <trkpt lat="47.28795" lon="-2.36714">
        <ele>43.400001525879</ele>
        <time>2020-12-06T10:48:03.000Z</time>
      </trkpt>
      <trkpt lat="47.28796" lon="-2.3671">
        <ele>43.799999237061</ele>
        <time>2020-12-06T10:48:04.000Z</time>
      </trkpt>
      <trkpt lat="47.28796" lon="-2.36708">
        <ele>44.200000762939</ele>
        <time>2020-12-06T10:48:05.000Z</time>
      </trkpt>
      <trkpt lat="47.28797" lon="-2.36704">
        <ele>44.599998474121</ele>
        <time>2020-12-06T10:48:06.000Z</time>
      </trkpt>
      <trkpt lat="47.28798" lon="-2.36701">
        <ele>44.599998474121</ele>
        <time>2020-12-06T10:48:07.000Z</time>
      </trkpt>
      <trkpt lat="47.28801" lon="-2.36694">
        <ele>45.200000762939</ele>
        <time>2020-12-06T10:48:09.000Z</time>
      </trkpt>
      <trkpt lat="47.28802" lon="-2.36691">
        <ele>45.599998474121</ele>
        <time>2020-12-06T10:48:10.000Z</time>
      </trkpt>
      <trkpt lat="47.28803" lon="-2.36687">
        <ele>46</ele>
        <time>2020-12-06T10:48:11.000Z</time>
      </trkpt>
      <trkpt lat="47.28805" lon="-2.36684">
        <ele>46.400001525879</ele>
        <time>2020-12-06T10:48:12.000Z</time>
      </trkpt>
      <trkpt lat="47.28806" lon="-2.36679">
        <ele>47</ele>
        <time>2020-12-06T10:48:13.000Z</time>
      </trkpt>
      <trkpt lat="47.28812" lon="-2.36665">
        <ele>47.400001525879</ele>
        <time>2020-12-06T10:48:17.000Z</time>
      </trkpt>
      <trkpt lat="47.28813" lon="-2.36661">
        <ele>47.799999237061</ele>
        <time>2020-12-06T10:48:18.000Z</time>
      </trkpt>
      <trkpt lat="47.28814" lon="-2.36659">
        <ele>48.400001525879</ele>
        <time>2020-12-06T10:48:19.000Z</time>
      </trkpt>
      <trkpt lat="47.28815" lon="-2.36656">
        <ele>48.799999237061</ele>
        <time>2020-12-06T10:48:20.000Z</time>
      </trkpt>
      <trkpt lat="47.28816" lon="-2.36654">
        <ele>49.200000762939</ele>
        <time>2020-12-06T10:48:21.000Z</time>
      </trkpt>
      <trkpt lat="47.28821" lon="-2.36646">
        <ele>49.599998474121</ele>
        <time>2020-12-06T10:48:24.000Z</time>
      </trkpt>
      <trkpt lat="47.28823" lon="-2.36644">
        <ele>50</ele>
        <time>2020-12-06T10:48:25.000Z</time>
      </trkpt>
      <trkpt lat="47.28825" lon="-2.36642">
        <ele>50.400001525879</ele>
        <time>2020-12-06T10:48:26.000Z</time>
      </trkpt>
      <trkpt lat="47.28826" lon="-2.3664">
        <ele>51.200000762939</ele>
        <time>2020-12-06T10:48:27.000Z</time>
      </trkpt>
      <trkpt lat="47.2884" lon="-2.36615">
        <ele>51.200000762939</ele>
        <time>2020-12-06T10:48:35.000Z</time>
      </trkpt>
      <trkpt lat="47.28853" lon="-2.36586">
        <ele>51.200000762939</ele>
        <time>2020-12-06T10:48:41.000Z</time>
      </trkpt>
      <trkpt lat="47.28866" lon="-2.36545">
        <ele>51.200000762939</ele>
        <time>2020-12-06T10:48:48.000Z</time>
      </trkpt>
      <trkpt lat="47.28866" lon="-2.36528">
        <ele>51.799999237061</ele>
        <time>2020-12-06T10:48:52.000Z</time>
      </trkpt>
      <trkpt lat="47.28865" lon="-2.36523">
        <ele>52.200000762939</ele>
        <time>2020-12-06T10:48:53.000Z</time>
      </trkpt>
      <trkpt lat="47.28865" lon="-2.36519">
        <ele>52.599998474121</ele>
        <time>2020-12-06T10:48:54.000Z</time>
      </trkpt>
      <trkpt lat="47.28864" lon="-2.36516">
        <ele>53</ele>
        <time>2020-12-06T10:48:55.000Z</time>
      </trkpt>
      <trkpt lat="47.28863" lon="-2.36512">
        <ele>53.400001525879</ele>
        <time>2020-12-06T10:48:56.000Z</time>
      </trkpt>
      <trkpt lat="47.2886" lon="-2.36503">
        <ele>53.400001525879</ele>
        <time>2020-12-06T10:48:59.000Z</time>
      </trkpt>
      <trkpt lat="47.28859" lon="-2.36502">
        <ele>53.799999237061</ele>
        <time>2020-12-06T10:49:00.000Z</time>
      </trkpt>
      <trkpt lat="47.28858" lon="-2.365">
        <ele>54.400001525879</ele>
        <time>2020-12-06T10:49:01.000Z</time>
      </trkpt>
      <trkpt lat="47.28857" lon="-2.36498">
        <ele>54.799999237061</ele>
        <time>2020-12-06T10:49:02.000Z</time>
      </trkpt>
      <trkpt lat="47.28857" lon="-2.36496">
        <ele>55.200000762939</ele>
        <time>2020-12-06T10:49:03.000Z</time>
      </trkpt>
      <trkpt lat="47.28856" lon="-2.36492">
        <ele>55.599998474121</ele>
        <time>2020-12-06T10:49:04.000Z</time>
      </trkpt>
      <trkpt lat="47.28854" lon="-2.36463">
        <ele>55.599998474121</ele>
        <time>2020-12-06T10:49:10.000Z</time>
      </trkpt>
      <trkpt lat="47.28854" lon="-2.36451">
        <ele>56</ele>
        <time>2020-12-06T10:49:13.000Z</time>
      </trkpt>
      <trkpt lat="47.28853" lon="-2.36447">
        <ele>56.400001525879</ele>
        <time>2020-12-06T10:49:14.000Z</time>
      </trkpt>
      <trkpt lat="47.28852" lon="-2.36443">
        <ele>56.799999237061</ele>
        <time>2020-12-06T10:49:15.000Z</time>
      </trkpt>
      <trkpt lat="47.28851" lon="-2.3644">
        <ele>57.599998474121</ele>
        <time>2020-12-06T10:49:16.000Z</time>
      </trkpt>
      <trkpt lat="47.28849" lon="-2.3643">
        <ele>58</ele>
        <time>2020-12-06T10:49:19.000Z</time>
      </trkpt>
      <trkpt lat="47.28849" lon="-2.36427">
        <ele>58.400001525879</ele>
        <time>2020-12-06T10:49:20.000Z</time>
      </trkpt>
      <trkpt lat="47.28848" lon="-2.36424">
        <ele>58.799999237061</ele>
        <time>2020-12-06T10:49:21.000Z</time>
      </trkpt>
      <trkpt lat="47.28848" lon="-2.36421">
        <ele>59.400001525879</ele>
        <time>2020-12-06T10:49:22.000Z</time>
      </trkpt>
      <trkpt lat="47.28848" lon="-2.36419">
        <ele>59.799999237061</ele>
        <time>2020-12-06T10:49:23.000Z</time>
      </trkpt>
      <trkpt lat="47.28847" lon="-2.36417">
        <ele>60.200000762939</ele>
        <time>2020-12-06T10:49:24.000Z</time>
      </trkpt>
      <trkpt lat="47.28846" lon="-2.36415">
        <ele>60.599998474121</ele>
        <time>2020-12-06T10:49:25.000Z</time>
      </trkpt>
      <trkpt lat="47.28844" lon="-2.36413">
        <ele>61</ele>
        <time>2020-12-06T10:49:26.000Z</time>
      </trkpt>
      <trkpt lat="47.28843" lon="-2.36412">
        <ele>61.400001525879</ele>
        <time>2020-12-06T10:49:27.000Z</time>
      </trkpt>
      <trkpt lat="47.2884" lon="-2.36412">
        <ele>61.799999237061</ele>
        <time>2020-12-06T10:49:28.000Z</time>
      </trkpt>
      <trkpt lat="47.28832" lon="-2.36409">
        <ele>61.799999237061</ele>
        <time>2020-12-06T10:49:33.000Z</time>
      </trkpt>
      <trkpt lat="47.2882" lon="-2.36415">
        <ele>61.799999237061</ele>
        <time>2020-12-06T10:49:39.000Z</time>
      </trkpt>
      <trkpt lat="47.28807" lon="-2.36415">
        <ele>61.799999237061</ele>
        <time>2020-12-06T10:49:43.000Z</time>
      </trkpt>
      <trkpt lat="47.28804" lon="-2.36417">
        <ele>61.799999237061</ele>
        <time>2020-12-06T10:49:44.000Z</time>
      </trkpt>
      <trkpt lat="47.28793" lon="-2.36432">
        <ele>61.799999237061</ele>
        <time>2020-12-06T10:49:48.000Z</time>
      </trkpt>
      <trkpt lat="47.28773" lon="-2.3646">
        <ele>61.799999237061</ele>
        <time>2020-12-06T10:49:55.000Z</time>
      </trkpt>
      <trkpt lat="47.28767" lon="-2.36463">
        <ele>61.799999237061</ele>
        <time>2020-12-06T10:49:57.000Z</time>
      </trkpt>
      <trkpt lat="47.28766" lon="-2.36461">
        <ele>61.799999237061</ele>
        <time>2020-12-06T10:49:58.000Z</time>
      </trkpt>
      <trkpt lat="47.2876" lon="-2.36447">
        <ele>61.799999237061</ele>
        <time>2020-12-06T10:50:01.000Z</time>
      </trkpt>
      <trkpt lat="47.28756" lon="-2.3644">
        <ele>61.799999237061</ele>
        <time>2020-12-06T10:50:03.000Z</time>
      </trkpt>
      <trkpt lat="47.28755" lon="-2.36435">
        <ele>61.799999237061</ele>
        <time>2020-12-06T10:50:06.000Z</time>
      </trkpt>
      <trkpt lat="47.2875" lon="-2.36434">
        <ele>61.799999237061</ele>
        <time>2020-12-06T10:50:11.000Z</time>
      </trkpt>
      <trkpt lat="47.28746" lon="-2.3642">
        <ele>61.799999237061</ele>
        <time>2020-12-06T10:50:17.000Z</time>
      </trkpt>
      <trkpt lat="47.28745" lon="-2.36415">
        <ele>62.200000762939</ele>
        <time>2020-12-06T10:50:19.000Z</time>
      </trkpt>
      <trkpt lat="47.28744" lon="-2.36413">
        <ele>62.799999237061</ele>
        <time>2020-12-06T10:50:20.000Z</time>
      </trkpt>
      <trkpt lat="47.28744" lon="-2.36411">
        <ele>63.200000762939</ele>
        <time>2020-12-06T10:50:21.000Z</time>
      </trkpt>
      <trkpt lat="47.28743" lon="-2.36409">
        <ele>63.599998474121</ele>
        <time>2020-12-06T10:50:22.000Z</time>
      </trkpt>
      <trkpt lat="47.28742" lon="-2.36407">
        <ele>64</ele>
        <time>2020-12-06T10:50:23.000Z</time>
      </trkpt>
      <trkpt lat="47.28737" lon="-2.36401">
        <ele>64</ele>
        <time>2020-12-06T10:50:26.000Z</time>
      </trkpt>
      <trkpt lat="47.28734" lon="-2.36398">
        <ele>64.400001525879</ele>
        <time>2020-12-06T10:50:28.000Z</time>
      </trkpt>
      <trkpt lat="47.28733" lon="-2.36396">
        <ele>64.800003051758</ele>
        <time>2020-12-06T10:50:29.000Z</time>
      </trkpt>
      <trkpt lat="47.28732" lon="-2.36394">
        <ele>65.800003051758</ele>
        <time>2020-12-06T10:50:30.000Z</time>
      </trkpt>
      <trkpt lat="47.2873" lon="-2.36391">
        <ele>66.199996948242</ele>
        <time>2020-12-06T10:50:31.000Z</time>
      </trkpt>
      <trkpt lat="47.28725" lon="-2.36388">
        <ele>66.599998474121</ele>
        <time>2020-12-06T10:50:34.000Z</time>
      </trkpt>
      <trkpt lat="47.28723" lon="-2.36387">
        <ele>67</ele>
        <time>2020-12-06T10:50:35.000Z</time>
      </trkpt>
      <trkpt lat="47.28721" lon="-2.36387">
        <ele>67.400001525879</ele>
        <time>2020-12-06T10:50:36.000Z</time>
      </trkpt>
      <trkpt lat="47.28719" lon="-2.36387">
        <ele>67.800003051758</ele>
        <time>2020-12-06T10:50:37.000Z</time>
      </trkpt>
      <trkpt lat="47.28716" lon="-2.36388">
        <ele>68.199996948242</ele>
        <time>2020-12-06T10:50:38.000Z</time>
      </trkpt>
      <trkpt lat="47.28709" lon="-2.3639">
        <ele>68.199996948242</ele>
        <time>2020-12-06T10:50:40.000Z</time>
      </trkpt>
      <trkpt lat="47.28696" lon="-2.36393">
        <ele>68.199996948242</ele>
        <time>2020-12-06T10:50:45.000Z</time>
      </trkpt>
      <trkpt lat="47.28694" lon="-2.36392">
        <ele>68.199996948242</ele>
        <time>2020-12-06T10:50:46.000Z</time>
      </trkpt>
      <trkpt lat="47.28694" lon="-2.36382">
        <ele>68.199996948242</ele>
        <time>2020-12-06T10:50:49.000Z</time>
      </trkpt>
      <trkpt lat="47.28697" lon="-2.36368">
        <ele>68.199996948242</ele>
        <time>2020-12-06T10:50:52.000Z</time>
      </trkpt>
      <trkpt lat="47.287" lon="-2.36358">
        <ele>68.199996948242</ele>
        <time>2020-12-06T10:50:54.000Z</time>
      </trkpt>
      <trkpt lat="47.28706" lon="-2.36322">
        <ele>68.199996948242</ele>
        <time>2020-12-06T10:50:59.000Z</time>
      </trkpt>
      <trkpt lat="47.28708" lon="-2.36314">
        <ele>67.800003051758</ele>
        <time>2020-12-06T10:51:00.000Z</time>
      </trkpt>
      <trkpt lat="47.28708" lon="-2.36307">
        <ele>67.400001525879</ele>
        <time>2020-12-06T10:51:01.000Z</time>
      </trkpt>
      <trkpt lat="47.28709" lon="-2.363">
        <ele>67</ele>
        <time>2020-12-06T10:51:02.000Z</time>
      </trkpt>
      <trkpt lat="47.28709" lon="-2.36294">
        <ele>66.599998474121</ele>
        <time>2020-12-06T10:51:03.000Z</time>
      </trkpt>
      <trkpt lat="47.28708" lon="-2.3629">
        <ele>66</ele>
        <time>2020-12-06T10:51:04.000Z</time>
      </trkpt>
      <trkpt lat="47.28705" lon="-2.36287">
        <ele>65.400001525879</ele>
        <time>2020-12-06T10:51:05.000Z</time>
      </trkpt>
      <trkpt lat="47.28703" lon="-2.36285">
        <ele>64.800003051758</ele>
        <time>2020-12-06T10:51:06.000Z</time>
      </trkpt>
      <trkpt lat="47.28701" lon="-2.36285">
        <ele>64.400001525879</ele>
        <time>2020-12-06T10:51:07.000Z</time>
      </trkpt>
      <trkpt lat="47.28698" lon="-2.36285">
        <ele>63.799999237061</ele>
        <time>2020-12-06T10:51:08.000Z</time>
      </trkpt>
      <trkpt lat="47.28682" lon="-2.36288">
        <ele>63.799999237061</ele>
        <time>2020-12-06T10:51:14.000Z</time>
      </trkpt>
      <trkpt lat="47.28668" lon="-2.36285">
        <ele>63.799999237061</ele>
        <time>2020-12-06T10:51:20.000Z</time>
      </trkpt>
      <trkpt lat="47.28664" lon="-2.36278">
        <ele>63.799999237061</ele>
        <time>2020-12-06T10:51:25.000Z</time>
      </trkpt>
      <trkpt lat="47.28662" lon="-2.36273">
        <ele>63.799999237061</ele>
        <time>2020-12-06T10:51:27.000Z</time>
      </trkpt>
      <trkpt lat="47.28661" lon="-2.36266">
        <ele>64.199996948242</ele>
        <time>2020-12-06T10:51:30.000Z</time>
      </trkpt>
      <trkpt lat="47.28661" lon="-2.36264">
        <ele>64.599998474121</ele>
        <time>2020-12-06T10:51:31.000Z</time>
      </trkpt>
      <trkpt lat="47.28661" lon="-2.36262">
        <ele>65</ele>
        <time>2020-12-06T10:51:32.000Z</time>
      </trkpt>
      <trkpt lat="47.28662" lon="-2.36258">
        <ele>65.400001525879</ele>
        <time>2020-12-06T10:51:33.000Z</time>
      </trkpt>
      <trkpt lat="47.28663" lon="-2.36254">
        <ele>65.800003051758</ele>
        <time>2020-12-06T10:51:34.000Z</time>
      </trkpt>
      <trkpt lat="47.28665" lon="-2.36245">
        <ele>65.800003051758</ele>
        <time>2020-12-06T10:51:36.000Z</time>
      </trkpt>
      <trkpt lat="47.28668" lon="-2.36218">
        <ele>65.800003051758</ele>
        <time>2020-12-06T10:51:43.000Z</time>
      </trkpt>
      <trkpt lat="47.28667" lon="-2.36209">
        <ele>65.800003051758</ele>
        <time>2020-12-06T10:51:46.000Z</time>
      </trkpt>
      <trkpt lat="47.28665" lon="-2.36199">
        <ele>65.800003051758</ele>
        <time>2020-12-06T10:51:49.000Z</time>
      </trkpt>
      <trkpt lat="47.28662" lon="-2.36186">
        <ele>66.199996948242</ele>
        <time>2020-12-06T10:51:53.000Z</time>
      </trkpt>
      <trkpt lat="47.28661" lon="-2.36183">
        <ele>66.599998474121</ele>
        <time>2020-12-06T10:51:54.000Z</time>
      </trkpt>
      <trkpt lat="47.2866" lon="-2.36181">
        <ele>67</ele>
        <time>2020-12-06T10:51:55.000Z</time>
      </trkpt>
      <trkpt lat="47.28658" lon="-2.36178">
        <ele>67.400001525879</ele>
        <time>2020-12-06T10:51:56.000Z</time>
      </trkpt>
      <trkpt lat="47.28658" lon="-2.36177">
        <ele>67.800003051758</ele>
        <time>2020-12-06T10:51:57.000Z</time>
      </trkpt>
      <trkpt lat="47.28648" lon="-2.36166">
        <ele>67.800003051758</ele>
        <time>2020-12-06T10:52:06.000Z</time>
      </trkpt>
      <trkpt lat="47.28644" lon="-2.36161">
        <ele>67.800003051758</ele>
        <time>2020-12-06T10:52:08.000Z</time>
      </trkpt>
      <trkpt lat="47.28639" lon="-2.36153">
        <ele>68.199996948242</ele>
        <time>2020-12-06T10:52:12.000Z</time>
      </trkpt>
      <trkpt lat="47.28638" lon="-2.36151">
        <ele>68.599998474121</ele>
        <time>2020-12-06T10:52:13.000Z</time>
      </trkpt>
      <trkpt lat="47.28636" lon="-2.36149">
        <ele>69</ele>
        <time>2020-12-06T10:52:14.000Z</time>
      </trkpt>
      <trkpt lat="47.28635" lon="-2.36147">
        <ele>69.400001525879</ele>
        <time>2020-12-06T10:52:15.000Z</time>
      </trkpt>
      <trkpt lat="47.28634" lon="-2.36144">
        <ele>69.800003051758</ele>
        <time>2020-12-06T10:52:16.000Z</time>
      </trkpt>
      <trkpt lat="47.28628" lon="-2.36139">
        <ele>69.800003051758</ele>
        <time>2020-12-06T10:52:19.000Z</time>
      </trkpt>
      <trkpt lat="47.28613" lon="-2.36147">
        <ele>69.800003051758</ele>
        <time>2020-12-06T10:52:25.000Z</time>
      </trkpt>
      <trkpt lat="47.28598" lon="-2.36152">
        <ele>69.800003051758</ele>
        <time>2020-12-06T10:52:30.000Z</time>
      </trkpt>
      <trkpt lat="47.28582" lon="-2.36143">
        <ele>69.800003051758</ele>
        <time>2020-12-06T10:52:36.000Z</time>
      </trkpt>
      <trkpt lat="47.28577" lon="-2.36143">
        <ele>69.800003051758</ele>
        <time>2020-12-06T10:52:37.000Z</time>
      </trkpt>
      <trkpt lat="47.28564" lon="-2.3615">
        <ele>69.800003051758</ele>
        <time>2020-12-06T10:52:40.000Z</time>
      </trkpt>
      <trkpt lat="47.28553" lon="-2.36153">
        <ele>69.400001525879</ele>
        <time>2020-12-06T10:52:43.000Z</time>
      </trkpt>
      <trkpt lat="47.28551" lon="-2.36149">
        <ele>68.800003051758</ele>
        <time>2020-12-06T10:52:44.000Z</time>
      </trkpt>
      <trkpt lat="47.28549" lon="-2.36144">
        <ele>68.400001525879</ele>
        <time>2020-12-06T10:52:45.000Z</time>
      </trkpt>
      <trkpt lat="47.28547" lon="-2.3614">
        <ele>67.800003051758</ele>
        <time>2020-12-06T10:52:46.000Z</time>
      </trkpt>
      <trkpt lat="47.28546" lon="-2.36135">
        <ele>67.400001525879</ele>
        <time>2020-12-06T10:52:47.000Z</time>
      </trkpt>
      <trkpt lat="47.28539" lon="-2.36114">
        <ele>67.400001525879</ele>
        <time>2020-12-06T10:52:50.000Z</time>
      </trkpt>
      <trkpt lat="47.28538" lon="-2.36106">
        <ele>67.400001525879</ele>
        <time>2020-12-06T10:52:51.000Z</time>
      </trkpt>
      <trkpt lat="47.28532" lon="-2.36079">
        <ele>67.400001525879</ele>
        <time>2020-12-06T10:52:55.000Z</time>
      </trkpt>
      <trkpt lat="47.28519" lon="-2.36062">
        <ele>67.400001525879</ele>
        <time>2020-12-06T10:52:59.000Z</time>
      </trkpt>
      <trkpt lat="47.28499" lon="-2.36036">
        <ele>67.400001525879</ele>
        <time>2020-12-06T10:53:05.000Z</time>
      </trkpt>
      <trkpt lat="47.28489" lon="-2.36033">
        <ele>67.400001525879</ele>
        <time>2020-12-06T10:53:07.000Z</time>
      </trkpt>
      <trkpt lat="47.2848" lon="-2.3603">
        <ele>67.400001525879</ele>
        <time>2020-12-06T10:53:09.000Z</time>
      </trkpt>
      <trkpt lat="47.28472" lon="-2.36024">
        <ele>67.400001525879</ele>
        <time>2020-12-06T10:53:11.000Z</time>
      </trkpt>
      <trkpt lat="47.28464" lon="-2.36009">
        <ele>67.400001525879</ele>
        <time>2020-12-06T10:53:13.000Z</time>
      </trkpt>
      <trkpt lat="47.28461" lon="-2.36003">
        <ele>67.400001525879</ele>
        <time>2020-12-06T10:53:14.000Z</time>
      </trkpt>
      <trkpt lat="47.28451" lon="-2.35986">
        <ele>67.400001525879</ele>
        <time>2020-12-06T10:53:17.000Z</time>
      </trkpt>
      <trkpt lat="47.28446" lon="-2.35986">
        <ele>67.400001525879</ele>
        <time>2020-12-06T10:53:18.000Z</time>
      </trkpt>
      <trkpt lat="47.28433" lon="-2.35995">
        <ele>67.400001525879</ele>
        <time>2020-12-06T10:53:21.000Z</time>
      </trkpt>
      <trkpt lat="47.28425" lon="-2.36004">
        <ele>67.400001525879</ele>
        <time>2020-12-06T10:53:23.000Z</time>
      </trkpt>
      <trkpt lat="47.28412" lon="-2.36015">
        <ele>67.400001525879</ele>
        <time>2020-12-06T10:53:26.000Z</time>
      </trkpt>
      <trkpt lat="47.28408" lon="-2.36018">
        <ele>67.400001525879</ele>
        <time>2020-12-06T10:53:27.000Z</time>
      </trkpt>
      <trkpt lat="47.2839" lon="-2.36021">
        <ele>67.400001525879</ele>
        <time>2020-12-06T10:53:30.000Z</time>
      </trkpt>
      <trkpt lat="47.28382" lon="-2.3602">
        <ele>67</ele>
        <time>2020-12-06T10:53:31.000Z</time>
      </trkpt>
      <trkpt lat="47.28375" lon="-2.3602">
        <ele>66.599998474121</ele>
        <time>2020-12-06T10:53:32.000Z</time>
      </trkpt>
      <trkpt lat="47.28367" lon="-2.36021">
        <ele>66</ele>
        <time>2020-12-06T10:53:33.000Z</time>
      </trkpt>
      <trkpt lat="47.2836" lon="-2.36022">
        <ele>65.599998474121</ele>
        <time>2020-12-06T10:53:34.000Z</time>
      </trkpt>
      <trkpt lat="47.28354" lon="-2.36025">
        <ele>65.199996948242</ele>
        <time>2020-12-06T10:53:35.000Z</time>
      </trkpt>
      <trkpt lat="47.28348" lon="-2.36028">
        <ele>64.800003051758</ele>
        <time>2020-12-06T10:53:36.000Z</time>
      </trkpt>
      <trkpt lat="47.28341" lon="-2.36031">
        <ele>64.199996948242</ele>
        <time>2020-12-06T10:53:37.000Z</time>
      </trkpt>
      <trkpt lat="47.28336" lon="-2.36037">
        <ele>63.599998474121</ele>
        <time>2020-12-06T10:53:38.000Z</time>
      </trkpt>
      <trkpt lat="47.28331" lon="-2.36041">
        <ele>63.200000762939</ele>
        <time>2020-12-06T10:53:39.000Z</time>
      </trkpt>
      <trkpt lat="47.28325" lon="-2.36047">
        <ele>62.599998474121</ele>
        <time>2020-12-06T10:53:40.000Z</time>
      </trkpt>
      <trkpt lat="47.28321" lon="-2.3605">
        <ele>62</ele>
        <time>2020-12-06T10:53:41.000Z</time>
      </trkpt>
      <trkpt lat="47.28316" lon="-2.3605">
        <ele>61.400001525879</ele>
        <time>2020-12-06T10:53:42.000Z</time>
      </trkpt>
      <trkpt lat="47.28313" lon="-2.36049">
        <ele>60.799999237061</ele>
        <time>2020-12-06T10:53:43.000Z</time>
      </trkpt>
      <trkpt lat="47.28308" lon="-2.36048">
        <ele>60.400001525879</ele>
        <time>2020-12-06T10:53:44.000Z</time>
      </trkpt>
      <trkpt lat="47.28294" lon="-2.36047">
        <ele>59.799999237061</ele>
        <time>2020-12-06T10:53:47.000Z</time>
      </trkpt>
      <trkpt lat="47.2829" lon="-2.36045">
        <ele>59.400001525879</ele>
        <time>2020-12-06T10:53:48.000Z</time>
      </trkpt>
      <trkpt lat="47.28287" lon="-2.36042">
        <ele>58.799999237061</ele>
        <time>2020-12-06T10:53:49.000Z</time>
      </trkpt>
      <trkpt lat="47.28285" lon="-2.3604">
        <ele>58.400001525879</ele>
        <time>2020-12-06T10:53:50.000Z</time>
      </trkpt>
      <trkpt lat="47.28283" lon="-2.36037">
        <ele>57.599998474121</ele>
        <time>2020-12-06T10:53:51.000Z</time>
      </trkpt>
      <trkpt lat="47.28282" lon="-2.36033">
        <ele>57</ele>
        <time>2020-12-06T10:53:52.000Z</time>
      </trkpt>
      <trkpt lat="47.28279" lon="-2.36028">
        <ele>56.400001525879</ele>
        <time>2020-12-06T10:53:53.000Z</time>
      </trkpt>
      <trkpt lat="47.28278" lon="-2.36022">
        <ele>55.599998474121</ele>
        <time>2020-12-06T10:53:54.000Z</time>
      </trkpt>
      <trkpt lat="47.28277" lon="-2.36017">
        <ele>54.799999237061</ele>
        <time>2020-12-06T10:53:55.000Z</time>
      </trkpt>
      <trkpt lat="47.28277" lon="-2.36011">
        <ele>54.200000762939</ele>
        <time>2020-12-06T10:53:56.000Z</time>
      </trkpt>
      <trkpt lat="47.28277" lon="-2.36006">
        <ele>53.200000762939</ele>
        <time>2020-12-06T10:53:57.000Z</time>
      </trkpt>
      <trkpt lat="47.28279" lon="-2.36001">
        <ele>52.400001525879</ele>
        <time>2020-12-06T10:53:58.000Z</time>
      </trkpt>
      <trkpt lat="47.28279" lon="-2.35997">
        <ele>51.599998474121</ele>
        <time>2020-12-06T10:53:59.000Z</time>
      </trkpt>
      <trkpt lat="47.2828" lon="-2.35992">
        <ele>50.799999237061</ele>
        <time>2020-12-06T10:54:00.000Z</time>
      </trkpt>
      <trkpt lat="47.2828" lon="-2.35986">
        <ele>50</ele>
        <time>2020-12-06T10:54:01.000Z</time>
      </trkpt>
      <trkpt lat="47.28277" lon="-2.3597">
        <ele>50</ele>
        <time>2020-12-06T10:54:04.000Z</time>
      </trkpt>
      <trkpt lat="47.28269" lon="-2.35945">
        <ele>50</ele>
        <time>2020-12-06T10:54:09.000Z</time>
      </trkpt>
      <trkpt lat="47.28263" lon="-2.35931">
        <ele>50.400001525879</ele>
        <time>2020-12-06T10:54:12.000Z</time>
      </trkpt>
      <trkpt lat="47.28261" lon="-2.35927">
        <ele>50.799999237061</ele>
        <time>2020-12-06T10:54:13.000Z</time>
      </trkpt>
      <trkpt lat="47.2826" lon="-2.35925">
        <ele>51.200000762939</ele>
        <time>2020-12-06T10:54:14.000Z</time>
      </trkpt>
      <trkpt lat="47.28259" lon="-2.35921">
        <ele>51.799999237061</ele>
        <time>2020-12-06T10:54:15.000Z</time>
      </trkpt>
      <trkpt lat="47.28257" lon="-2.35918">
        <ele>52.200000762939</ele>
        <time>2020-12-06T10:54:16.000Z</time>
      </trkpt>
      <trkpt lat="47.28252" lon="-2.35913">
        <ele>52.200000762939</ele>
        <time>2020-12-06T10:54:18.000Z</time>
      </trkpt>
      <trkpt lat="47.28249" lon="-2.35913">
        <ele>52.200000762939</ele>
        <time>2020-12-06T10:54:19.000Z</time>
      </trkpt>
      <trkpt lat="47.28233" lon="-2.35912">
        <ele>52.200000762939</ele>
        <time>2020-12-06T10:54:23.000Z</time>
      </trkpt>
      <trkpt lat="47.28205" lon="-2.35905">
        <ele>51.799999237061</ele>
        <time>2020-12-06T10:54:29.000Z</time>
      </trkpt>
      <trkpt lat="47.28201" lon="-2.35905">
        <ele>51.200000762939</ele>
        <time>2020-12-06T10:54:30.000Z</time>
      </trkpt>
      <trkpt lat="47.28196" lon="-2.35905">
        <ele>50.799999237061</ele>
        <time>2020-12-06T10:54:31.000Z</time>
      </trkpt>
      <trkpt lat="47.28192" lon="-2.35904">
        <ele>50.400001525879</ele>
        <time>2020-12-06T10:54:32.000Z</time>
      </trkpt>
      <trkpt lat="47.28189" lon="-2.35901">
        <ele>50</ele>
        <time>2020-12-06T10:54:33.000Z</time>
      </trkpt>
      <trkpt lat="47.28186" lon="-2.35897">
        <ele>50</ele>
        <time>2020-12-06T10:54:34.000Z</time>
      </trkpt>
      <trkpt lat="47.28183" lon="-2.35872">
        <ele>50</ele>
        <time>2020-12-06T10:54:39.000Z</time>
      </trkpt>
      <trkpt lat="47.28172" lon="-2.35841">
        <ele>50</ele>
        <time>2020-12-06T10:54:44.000Z</time>
      </trkpt>
      <trkpt lat="47.28155" lon="-2.35825">
        <ele>50</ele>
        <time>2020-12-06T10:54:49.000Z</time>
      </trkpt>
      <trkpt lat="47.2814" lon="-2.35799">
        <ele>50</ele>
        <time>2020-12-06T10:54:54.000Z</time>
      </trkpt>
      <trkpt lat="47.28135" lon="-2.35767">
        <ele>50</ele>
        <time>2020-12-06T10:54:59.000Z</time>
      </trkpt>
      <trkpt lat="47.28133" lon="-2.35753">
        <ele>50</ele>
        <time>2020-12-06T10:55:02.000Z</time>
      </trkpt>
      <trkpt lat="47.28131" lon="-2.35751">
        <ele>50</ele>
        <time>2020-12-06T10:55:03.000Z</time>
      </trkpt>
      <trkpt lat="47.28122" lon="-2.35749">
        <ele>50</ele>
        <time>2020-12-06T10:55:06.000Z</time>
      </trkpt>
      <trkpt lat="47.28117" lon="-2.3575">
        <ele>50</ele>
        <time>2020-12-06T10:55:08.000Z</time>
      </trkpt>
      <trkpt lat="47.28108" lon="-2.35761">
        <ele>50</ele>
        <time>2020-12-06T10:55:12.000Z</time>
      </trkpt>
      <trkpt lat="47.28099" lon="-2.3578">
        <ele>49.599998474121</ele>
        <time>2020-12-06T10:55:17.000Z</time>
      </trkpt>
      <trkpt lat="47.28097" lon="-2.35784">
        <ele>49.200000762939</ele>
        <time>2020-12-06T10:55:18.000Z</time>
      </trkpt>
      <trkpt lat="47.28096" lon="-2.35788">
        <ele>48.799999237061</ele>
        <time>2020-12-06T10:55:19.000Z</time>
      </trkpt>
      <trkpt lat="47.28094" lon="-2.35791">
        <ele>48.400001525879</ele>
        <time>2020-12-06T10:55:20.000Z</time>
      </trkpt>
      <trkpt lat="47.28092" lon="-2.35794">
        <ele>48</ele>
        <time>2020-12-06T10:55:21.000Z</time>
      </trkpt>
      <trkpt lat="47.28081" lon="-2.35804">
        <ele>48</ele>
        <time>2020-12-06T10:55:25.000Z</time>
      </trkpt>
      <trkpt lat="47.28078" lon="-2.35802">
        <ele>48</ele>
        <time>2020-12-06T10:55:26.000Z</time>
      </trkpt>
      <trkpt lat="47.28078" lon="-2.35795">
        <ele>48.400001525879</ele>
        <time>2020-12-06T10:55:28.000Z</time>
      </trkpt>
      <trkpt lat="47.28078" lon="-2.35791">
        <ele>48.799999237061</ele>
        <time>2020-12-06T10:55:29.000Z</time>
      </trkpt>
      <trkpt lat="47.28079" lon="-2.35787">
        <ele>49.400001525879</ele>
        <time>2020-12-06T10:55:30.000Z</time>
      </trkpt>
      <trkpt lat="47.2808" lon="-2.35784">
        <ele>49.799999237061</ele>
        <time>2020-12-06T10:55:31.000Z</time>
      </trkpt>
      <trkpt lat="47.28081" lon="-2.3578">
        <ele>50.200000762939</ele>
        <time>2020-12-06T10:55:32.000Z</time>
      </trkpt>
      <trkpt lat="47.28085" lon="-2.35764">
        <ele>50.599998474121</ele>
        <time>2020-12-06T10:55:36.000Z</time>
      </trkpt>
      <trkpt lat="47.28085" lon="-2.35759">
        <ele>51</ele>
        <time>2020-12-06T10:55:37.000Z</time>
      </trkpt>
      <trkpt lat="47.28086" lon="-2.35756">
        <ele>51.400001525879</ele>
        <time>2020-12-06T10:55:38.000Z</time>
      </trkpt>
      <trkpt lat="47.28086" lon="-2.35749">
        <ele>51.799999237061</ele>
        <time>2020-12-06T10:55:39.000Z</time>
      </trkpt>
      <trkpt lat="47.28086" lon="-2.35744">
        <ele>52.200000762939</ele>
        <time>2020-12-06T10:55:40.000Z</time>
      </trkpt>
      <trkpt lat="47.28088" lon="-2.35735">
        <ele>52.200000762939</ele>
        <time>2020-12-06T10:55:42.000Z</time>
      </trkpt>
      <trkpt lat="47.28093" lon="-2.35716">
        <ele>52.799999237061</ele>
        <time>2020-12-06T10:55:47.000Z</time>
      </trkpt>
      <trkpt lat="47.28094" lon="-2.35711">
        <ele>53.200000762939</ele>
        <time>2020-12-06T10:55:48.000Z</time>
      </trkpt>
      <trkpt lat="47.28095" lon="-2.35707">
        <ele>53.599998474121</ele>
        <time>2020-12-06T10:55:49.000Z</time>
      </trkpt>
      <trkpt lat="47.28094" lon="-2.35702">
        <ele>54.400001525879</ele>
        <time>2020-12-06T10:55:50.000Z</time>
      </trkpt>
      <trkpt lat="47.28093" lon="-2.35686">
        <ele>54.400001525879</ele>
        <time>2020-12-06T10:55:53.000Z</time>
      </trkpt>
      <trkpt lat="47.2808" lon="-2.35641">
        <ele>54</ele>
        <time>2020-12-06T10:56:00.000Z</time>
      </trkpt>
      <trkpt lat="47.28079" lon="-2.35636">
        <ele>53.400001525879</ele>
        <time>2020-12-06T10:56:01.000Z</time>
      </trkpt>
      <trkpt lat="47.28078" lon="-2.3563">
        <ele>53</ele>
        <time>2020-12-06T10:56:02.000Z</time>
      </trkpt>
      <trkpt lat="47.28078" lon="-2.35624">
        <ele>52.400001525879</ele>
        <time>2020-12-06T10:56:03.000Z</time>
      </trkpt>
      <trkpt lat="47.28077" lon="-2.3562">
        <ele>51.799999237061</ele>
        <time>2020-12-06T10:56:04.000Z</time>
      </trkpt>
      <trkpt lat="47.28077" lon="-2.35615">
        <ele>51.200000762939</ele>
        <time>2020-12-06T10:56:05.000Z</time>
      </trkpt>
      <trkpt lat="47.28077" lon="-2.35611">
        <ele>50.599998474121</ele>
        <time>2020-12-06T10:56:06.000Z</time>
      </trkpt>
      <trkpt lat="47.28078" lon="-2.35608">
        <ele>49.799999237061</ele>
        <time>2020-12-06T10:56:07.000Z</time>
      </trkpt>
      <trkpt lat="47.28082" lon="-2.35607">
        <ele>49.400001525879</ele>
        <time>2020-12-06T10:56:09.000Z</time>
      </trkpt>
      <trkpt lat="47.28083" lon="-2.35608">
        <ele>49</ele>
        <time>2020-12-06T10:56:10.000Z</time>
      </trkpt>
      <trkpt lat="47.28084" lon="-2.3561">
        <ele>48.599998474121</ele>
        <time>2020-12-06T10:56:11.000Z</time>
      </trkpt>
      <trkpt lat="47.28085" lon="-2.35611">
        <ele>48.200000762939</ele>
        <time>2020-12-06T10:56:12.000Z</time>
      </trkpt>
      <trkpt lat="47.28086" lon="-2.35614">
        <ele>47.799999237061</ele>
        <time>2020-12-06T10:56:13.000Z</time>
      </trkpt>
      <trkpt lat="47.28088" lon="-2.35618">
        <ele>47.799999237061</ele>
        <time>2020-12-06T10:56:16.000Z</time>
      </trkpt>
      <trkpt lat="47.28084" lon="-2.35613">
        <ele>47.799999237061</ele>
        <time>2020-12-06T11:09:20.000Z</time>
      </trkpt>
      <trkpt lat="47.28074" lon="-2.35598">
        <ele>47.799999237061</ele>
        <time>2020-12-06T11:09:26.000Z</time>
      </trkpt>
      <trkpt lat="47.28061" lon="-2.35581">
        <ele>47.799999237061</ele>
        <time>2020-12-06T11:09:32.000Z</time>
      </trkpt>
      <trkpt lat="47.28041" lon="-2.35574">
        <ele>47.799999237061</ele>
        <time>2020-12-06T11:09:37.000Z</time>
      </trkpt>
      <trkpt lat="47.28037" lon="-2.35571">
        <ele>47.799999237061</ele>
        <time>2020-12-06T11:09:38.000Z</time>
      </trkpt>
      <trkpt lat="47.28024" lon="-2.35559">
        <ele>47.799999237061</ele>
        <time>2020-12-06T11:09:41.000Z</time>
      </trkpt>
      <trkpt lat="47.2801" lon="-2.35556">
        <ele>47.799999237061</ele>
        <time>2020-12-06T11:09:44.000Z</time>
      </trkpt>
      <trkpt lat="47.28006" lon="-2.35558">
        <ele>47.400001525879</ele>
        <time>2020-12-06T11:09:45.000Z</time>
      </trkpt>
      <trkpt lat="47.28002" lon="-2.35559">
        <ele>47</ele>
        <time>2020-12-06T11:09:46.000Z</time>
      </trkpt>
      <trkpt lat="47.27997" lon="-2.35561">
        <ele>46.599998474121</ele>
        <time>2020-12-06T11:09:47.000Z</time>
      </trkpt>
      <trkpt lat="47.27994" lon="-2.35562">
        <ele>46.200000762939</ele>
        <time>2020-12-06T11:09:48.000Z</time>
      </trkpt>
      <trkpt lat="47.27989" lon="-2.35564">
        <ele>45.799999237061</ele>
        <time>2020-12-06T11:09:49.000Z</time>
      </trkpt>
      <trkpt lat="47.27985" lon="-2.35566">
        <ele>45.799999237061</ele>
        <time>2020-12-06T11:09:50.000Z</time>
      </trkpt>
      <trkpt lat="47.27951" lon="-2.3558">
        <ele>45.799999237061</ele>
        <time>2020-12-06T11:09:57.000Z</time>
      </trkpt>
      <trkpt lat="47.2792" lon="-2.35589">
        <ele>45.799999237061</ele>
        <time>2020-12-06T11:10:03.000Z</time>
      </trkpt>
      <trkpt lat="47.27892" lon="-2.35596">
        <ele>45.799999237061</ele>
        <time>2020-12-06T11:10:08.000Z</time>
      </trkpt>
      <trkpt lat="47.27858" lon="-2.35606">
        <ele>45.200000762939</ele>
        <time>2020-12-06T11:10:13.000Z</time>
      </trkpt>
      <trkpt lat="47.27852" lon="-2.35608">
        <ele>44.799999237061</ele>
        <time>2020-12-06T11:10:14.000Z</time>
      </trkpt>
      <trkpt lat="47.27845" lon="-2.3561">
        <ele>43.799999237061</ele>
        <time>2020-12-06T11:10:15.000Z</time>
      </trkpt>
      <trkpt lat="47.27837" lon="-2.35611">
        <ele>43.400001525879</ele>
        <time>2020-12-06T11:10:16.000Z</time>
      </trkpt>
      <trkpt lat="47.27794" lon="-2.35623">
        <ele>43.400001525879</ele>
        <time>2020-12-06T11:10:22.000Z</time>
      </trkpt>
      <trkpt lat="47.27781" lon="-2.3563">
        <ele>43</ele>
        <time>2020-12-06T11:10:24.000Z</time>
      </trkpt>
      <trkpt lat="47.27774" lon="-2.35634">
        <ele>42.599998474121</ele>
        <time>2020-12-06T11:10:25.000Z</time>
      </trkpt>
      <trkpt lat="47.27768" lon="-2.35639">
        <ele>42.200000762939</ele>
        <time>2020-12-06T11:10:26.000Z</time>
      </trkpt>
      <trkpt lat="47.27763" lon="-2.35645">
        <ele>41.799999237061</ele>
        <time>2020-12-06T11:10:27.000Z</time>
      </trkpt>
      <trkpt lat="47.27757" lon="-2.35651">
        <ele>41.400001525879</ele>
        <time>2020-12-06T11:10:28.000Z</time>
      </trkpt>
      <trkpt lat="47.27743" lon="-2.35672">
        <ele>41.400001525879</ele>
        <time>2020-12-06T11:10:31.000Z</time>
      </trkpt>
      <trkpt lat="47.27725" lon="-2.35701">
        <ele>41.400001525879</ele>
        <time>2020-12-06T11:10:35.000Z</time>
      </trkpt>
      <trkpt lat="47.27715" lon="-2.35712">
        <ele>41</ele>
        <time>2020-12-06T11:10:37.000Z</time>
      </trkpt>
      <trkpt lat="47.2771" lon="-2.35717">
        <ele>40.599998474121</ele>
        <time>2020-12-06T11:10:38.000Z</time>
      </trkpt>
      <trkpt lat="47.27704" lon="-2.35722">
        <ele>40.200000762939</ele>
        <time>2020-12-06T11:10:39.000Z</time>
      </trkpt>
      <trkpt lat="47.27699" lon="-2.35726">
        <ele>39.200000762939</ele>
        <time>2020-12-06T11:10:40.000Z</time>
      </trkpt>
      <trkpt lat="47.27683" lon="-2.35738">
        <ele>39.200000762939</ele>
        <time>2020-12-06T11:10:43.000Z</time>
      </trkpt>
      <trkpt lat="47.2767" lon="-2.35742">
        <ele>39.200000762939</ele>
        <time>2020-12-06T11:10:46.000Z</time>
      </trkpt>
      <trkpt lat="47.27665" lon="-2.35737">
        <ele>38.799999237061</ele>
        <time>2020-12-06T11:10:47.000Z</time>
      </trkpt>
      <trkpt lat="47.27661" lon="-2.3573">
        <ele>38.400001525879</ele>
        <time>2020-12-06T11:10:48.000Z</time>
      </trkpt>
      <trkpt lat="47.27657" lon="-2.35725">
        <ele>38</ele>
        <time>2020-12-06T11:10:49.000Z</time>
      </trkpt>
      <trkpt lat="47.27651" lon="-2.35721">
        <ele>37.599998474121</ele>
        <time>2020-12-06T11:10:50.000Z</time>
      </trkpt>
      <trkpt lat="47.27645" lon="-2.35717">
        <ele>37.200000762939</ele>
        <time>2020-12-06T11:10:51.000Z</time>
      </trkpt>
      <trkpt lat="47.27632" lon="-2.35713">
        <ele>37.200000762939</ele>
        <time>2020-12-06T11:10:53.000Z</time>
      </trkpt>
      <trkpt lat="47.2758" lon="-2.35701">
        <ele>37.200000762939</ele>
        <time>2020-12-06T11:11:00.000Z</time>
      </trkpt>
      <trkpt lat="47.27543" lon="-2.35692">
        <ele>36.200000762939</ele>
        <time>2020-12-06T11:11:05.000Z</time>
      </trkpt>
      <trkpt lat="47.27536" lon="-2.3569">
        <ele>35.799999237061</ele>
        <time>2020-12-06T11:11:06.000Z</time>
      </trkpt>
      <trkpt lat="47.27529" lon="-2.35688">
        <ele>35.400001525879</ele>
        <time>2020-12-06T11:11:07.000Z</time>
      </trkpt>
      <trkpt lat="47.27522" lon="-2.35686">
        <ele>35</ele>
        <time>2020-12-06T11:11:08.000Z</time>
      </trkpt>
      <trkpt lat="47.27465" lon="-2.35674">
        <ele>35</ele>
        <time>2020-12-06T11:11:16.000Z</time>
      </trkpt>
      <trkpt lat="47.27458" lon="-2.35673">
        <ele>34.400001525879</ele>
        <time>2020-12-06T11:11:17.000Z</time>
      </trkpt>
      <trkpt lat="47.27451" lon="-2.35671">
        <ele>34</ele>
        <time>2020-12-06T11:11:18.000Z</time>
      </trkpt>
      <trkpt lat="47.27444" lon="-2.3567">
        <ele>33.599998474121</ele>
        <time>2020-12-06T11:11:19.000Z</time>
      </trkpt>
      <trkpt lat="47.27438" lon="-2.35668">
        <ele>33.200000762939</ele>
        <time>2020-12-06T11:11:20.000Z</time>
      </trkpt>
      <trkpt lat="47.27431" lon="-2.35667">
        <ele>32.599998474121</ele>
        <time>2020-12-06T11:11:21.000Z</time>
      </trkpt>
      <trkpt lat="47.27412" lon="-2.35665">
        <ele>32.599998474121</ele>
        <time>2020-12-06T11:11:24.000Z</time>
      </trkpt>
      <trkpt lat="47.27389" lon="-2.35671">
        <ele>32.599998474121</ele>
        <time>2020-12-06T11:11:27.000Z</time>
      </trkpt>
      <trkpt lat="47.27383" lon="-2.35675">
        <ele>32.599998474121</ele>
        <time>2020-12-06T11:11:28.000Z</time>
      </trkpt>
      <trkpt lat="47.27345" lon="-2.35702">
        <ele>32.599998474121</ele>
        <time>2020-12-06T11:11:34.000Z</time>
      </trkpt>
      <trkpt lat="47.27325" lon="-2.35723">
        <ele>32.599998474121</ele>
        <time>2020-12-06T11:11:38.000Z</time>
      </trkpt>
      <trkpt lat="47.27323" lon="-2.35729">
        <ele>32.599998474121</ele>
        <time>2020-12-06T11:11:39.000Z</time>
      </trkpt>
      <trkpt lat="47.27312" lon="-2.35738">
        <ele>32.599998474121</ele>
        <time>2020-12-06T11:11:42.000Z</time>
      </trkpt>
      <trkpt lat="47.27302" lon="-2.35722">
        <ele>32.599998474121</ele>
        <time>2020-12-06T11:11:45.000Z</time>
      </trkpt>
      <trkpt lat="47.27286" lon="-2.35685">
        <ele>32.599998474121</ele>
        <time>2020-12-06T11:11:50.000Z</time>
      </trkpt>
      <trkpt lat="47.27264" lon="-2.35636">
        <ele>32.599998474121</ele>
        <time>2020-12-06T11:11:56.000Z</time>
      </trkpt>
      <trkpt lat="47.27232" lon="-2.35564">
        <ele>32.599998474121</ele>
        <time>2020-12-06T11:12:06.000Z</time>
      </trkpt>
      <trkpt lat="47.27229" lon="-2.35556">
        <ele>32.599998474121</ele>
        <time>2020-12-06T11:12:07.000Z</time>
      </trkpt>
      <trkpt lat="47.27197" lon="-2.35487">
        <ele>32.599998474121</ele>
        <time>2020-12-06T11:12:16.000Z</time>
      </trkpt>
      <trkpt lat="47.2719" lon="-2.35472">
        <ele>32.599998474121</ele>
        <time>2020-12-06T11:12:18.000Z</time>
      </trkpt>
      <trkpt lat="47.27155" lon="-2.35404">
        <ele>32.599998474121</ele>
        <time>2020-12-06T11:12:27.000Z</time>
      </trkpt>
      <trkpt lat="47.27147" lon="-2.35389">
        <ele>32.599998474121</ele>
        <time>2020-12-06T11:12:29.000Z</time>
      </trkpt>
      <trkpt lat="47.27114" lon="-2.35332">
        <ele>32.599998474121</ele>
        <time>2020-12-06T11:12:37.000Z</time>
      </trkpt>
      <trkpt lat="47.27079" lon="-2.35277">
        <ele>32.599998474121</ele>
        <time>2020-12-06T11:12:45.000Z</time>
      </trkpt>
      <trkpt lat="47.27048" lon="-2.35229">
        <ele>32.599998474121</ele>
        <time>2020-12-06T11:12:52.000Z</time>
      </trkpt>
      <trkpt lat="47.27015" lon="-2.35177">
        <ele>32.599998474121</ele>
        <time>2020-12-06T11:12:59.000Z</time>
      </trkpt>
      <trkpt lat="47.26977" lon="-2.35119">
        <ele>32.599998474121</ele>
        <time>2020-12-06T11:13:07.000Z</time>
      </trkpt>
      <trkpt lat="47.26973" lon="-2.35112">
        <ele>32.599998474121</ele>
        <time>2020-12-06T11:13:08.000Z</time>
      </trkpt>
      <trkpt lat="47.26939" lon="-2.3506">
        <ele>32.599998474121</ele>
        <time>2020-12-06T11:13:15.000Z</time>
      </trkpt>
      <trkpt lat="47.26897" lon="-2.34997">
        <ele>32.599998474121</ele>
        <time>2020-12-06T11:13:24.000Z</time>
      </trkpt>
      <trkpt lat="47.26861" lon="-2.34939">
        <ele>32.599998474121</ele>
        <time>2020-12-06T11:13:32.000Z</time>
      </trkpt>
      <trkpt lat="47.26828" lon="-2.34891">
        <ele>32.599998474121</ele>
        <time>2020-12-06T11:13:39.000Z</time>
      </trkpt>
      <trkpt lat="47.26823" lon="-2.34884">
        <ele>32.599998474121</ele>
        <time>2020-12-06T11:13:40.000Z</time>
      </trkpt>
      <trkpt lat="47.26782" lon="-2.34824">
        <ele>32.599998474121</ele>
        <time>2020-12-06T11:13:49.000Z</time>
      </trkpt>
      <trkpt lat="47.26777" lon="-2.34818">
        <ele>32.599998474121</ele>
        <time>2020-12-06T11:13:50.000Z</time>
      </trkpt>
      <trkpt lat="47.2675" lon="-2.34783">
        <ele>32.599998474121</ele>
        <time>2020-12-06T11:13:56.000Z</time>
      </trkpt>
      <trkpt lat="47.2671" lon="-2.34734">
        <ele>32.599998474121</ele>
        <time>2020-12-06T11:14:04.000Z</time>
      </trkpt>
      <trkpt lat="47.26681" lon="-2.34697">
        <ele>32.599998474121</ele>
        <time>2020-12-06T11:14:10.000Z</time>
      </trkpt>
      <trkpt lat="47.26638" lon="-2.34644">
        <ele>32.599998474121</ele>
        <time>2020-12-06T11:14:19.000Z</time>
      </trkpt>
      <trkpt lat="47.26593" lon="-2.34591">
        <ele>32.599998474121</ele>
        <time>2020-12-06T11:14:28.000Z</time>
      </trkpt>
      <trkpt lat="47.2655" lon="-2.34546">
        <ele>32.599998474121</ele>
        <time>2020-12-06T11:14:36.000Z</time>
      </trkpt>
      <trkpt lat="47.26512" lon="-2.34512">
        <ele>32.599998474121</ele>
        <time>2020-12-06T11:14:43.000Z</time>
      </trkpt>
      <trkpt lat="47.26467" lon="-2.34481">
        <ele>32.599998474121</ele>
        <time>2020-12-06T11:14:51.000Z</time>
      </trkpt>
      <trkpt lat="47.26416" lon="-2.34445">
        <ele>32.599998474121</ele>
        <time>2020-12-06T11:15:01.000Z</time>
      </trkpt>
      <trkpt lat="47.26375" lon="-2.34411">
        <ele>32.599998474121</ele>
        <time>2020-12-06T11:15:09.000Z</time>
      </trkpt>
      <trkpt lat="47.26352" lon="-2.34389">
        <ele>32.599998474121</ele>
        <time>2020-12-06T11:15:15.000Z</time>
      </trkpt>
      <trkpt lat="47.26338" lon="-2.34379">
        <ele>32.599998474121</ele>
        <time>2020-12-06T11:15:19.000Z</time>
      </trkpt>
      <trkpt lat="47.26329" lon="-2.34379">
        <ele>32.599998474121</ele>
        <time>2020-12-06T11:15:21.000Z</time>
      </trkpt>
      <trkpt lat="47.26318" lon="-2.3437">
        <ele>32.599998474121</ele>
        <time>2020-12-06T11:15:24.000Z</time>
      </trkpt>
      <trkpt lat="47.26305" lon="-2.34346">
        <ele>32.599998474121</ele>
        <time>2020-12-06T11:15:28.000Z</time>
      </trkpt>
      <trkpt lat="47.26296" lon="-2.34337">
        <ele>32.599998474121</ele>
        <time>2020-12-06T11:15:30.000Z</time>
      </trkpt>
      <trkpt lat="47.26277" lon="-2.34318">
        <ele>32.599998474121</ele>
        <time>2020-12-06T11:15:34.000Z</time>
      </trkpt>
      <trkpt lat="47.26229" lon="-2.34266">
        <ele>32.599998474121</ele>
        <time>2020-12-06T11:15:44.000Z</time>
      </trkpt>
      <trkpt lat="47.26187" lon="-2.34222">
        <ele>32.599998474121</ele>
        <time>2020-12-06T11:15:53.000Z</time>
      </trkpt>
      <trkpt lat="47.26153" lon="-2.34187">
        <ele>32.599998474121</ele>
        <time>2020-12-06T11:16:01.000Z</time>
      </trkpt>
      <trkpt lat="47.26148" lon="-2.34183">
        <ele>32.599998474121</ele>
        <time>2020-12-06T11:16:02.000Z</time>
      </trkpt>
      <trkpt lat="47.26132" lon="-2.34178">
        <ele>32.599998474121</ele>
        <time>2020-12-06T11:16:05.000Z</time>
      </trkpt>
      <trkpt lat="47.26128" lon="-2.34174">
        <ele>32.200000762939</ele>
        <time>2020-12-06T11:16:06.000Z</time>
      </trkpt>
      <trkpt lat="47.26124" lon="-2.34169">
        <ele>31.799999237061</ele>
        <time>2020-12-06T11:16:07.000Z</time>
      </trkpt>
      <trkpt lat="47.2612" lon="-2.34164">
        <ele>31.39999961853</ele>
        <time>2020-12-06T11:16:08.000Z</time>
      </trkpt>
      <trkpt lat="47.26115" lon="-2.34159">
        <ele>31</ele>
        <time>2020-12-06T11:16:09.000Z</time>
      </trkpt>
      <trkpt lat="47.2611" lon="-2.34156">
        <ele>30.39999961853</ele>
        <time>2020-12-06T11:16:10.000Z</time>
      </trkpt>
      <trkpt lat="47.26088" lon="-2.34144">
        <ele>30.39999961853</ele>
        <time>2020-12-06T11:16:14.000Z</time>
      </trkpt>
      <trkpt lat="47.26049" lon="-2.34125">
        <ele>30.39999961853</ele>
        <time>2020-12-06T11:16:21.000Z</time>
      </trkpt>
      <trkpt lat="47.26002" lon="-2.34102">
        <ele>30.39999961853</ele>
        <time>2020-12-06T11:16:30.000Z</time>
      </trkpt>
      <trkpt lat="47.25963" lon="-2.34083">
        <ele>30.39999961853</ele>
        <time>2020-12-06T11:16:38.000Z</time>
      </trkpt>
      <trkpt lat="47.25927" lon="-2.34068">
        <ele>30.39999961853</ele>
        <time>2020-12-06T11:16:45.000Z</time>
      </trkpt>
      <trkpt lat="47.25922" lon="-2.34068">
        <ele>30.39999961853</ele>
        <time>2020-12-06T11:16:46.000Z</time>
      </trkpt>
      <trkpt lat="47.25907" lon="-2.34067">
        <ele>30.39999961853</ele>
        <time>2020-12-06T11:16:49.000Z</time>
      </trkpt>
      <trkpt lat="47.25899" lon="-2.34059">
        <ele>30.39999961853</ele>
        <time>2020-12-06T11:16:51.000Z</time>
      </trkpt>
      <trkpt lat="47.25898" lon="-2.34037">
        <ele>30.39999961853</ele>
        <time>2020-12-06T11:16:54.000Z</time>
      </trkpt>
      <trkpt lat="47.25908" lon="-2.34009">
        <ele>30.39999961853</ele>
        <time>2020-12-06T11:16:58.000Z</time>
      </trkpt>
      <trkpt lat="47.2591" lon="-2.34002">
        <ele>30.39999961853</ele>
        <time>2020-12-06T11:16:59.000Z</time>
      </trkpt>
      <trkpt lat="47.25919" lon="-2.3397">
        <ele>30.39999961853</ele>
        <time>2020-12-06T11:17:03.000Z</time>
      </trkpt>
      <trkpt lat="47.25925" lon="-2.33955">
        <ele>30.39999961853</ele>
        <time>2020-12-06T11:17:05.000Z</time>
      </trkpt>
      <trkpt lat="47.25928" lon="-2.33949">
        <ele>30.39999961853</ele>
        <time>2020-12-06T11:17:06.000Z</time>
      </trkpt>
      <trkpt lat="47.25934" lon="-2.33936">
        <ele>30.39999961853</ele>
        <time>2020-12-06T11:17:08.000Z</time>
      </trkpt>
      <trkpt lat="47.25942" lon="-2.33923">
        <ele>30.39999961853</ele>
        <time>2020-12-06T11:17:11.000Z</time>
      </trkpt>
      <trkpt lat="47.25944" lon="-2.33921">
        <ele>30.39999961853</ele>
        <time>2020-12-06T11:17:12.000Z</time>
      </trkpt>
      <trkpt lat="47.25946" lon="-2.33911">
        <ele>30.39999961853</ele>
        <time>2020-12-06T11:17:16.000Z</time>
      </trkpt>
      <trkpt lat="47.2595" lon="-2.33893">
        <ele>30.39999961853</ele>
        <time>2020-12-06T11:17:20.000Z</time>
      </trkpt>
      <trkpt lat="47.25955" lon="-2.33883">
        <ele>30.39999961853</ele>
        <time>2020-12-06T11:17:23.000Z</time>
      </trkpt>
      <trkpt lat="47.25955" lon="-2.33883">
        <ele>30</ele>
        <time>2020-12-06T11:17:24.000Z</time>
      </trkpt>
      <trkpt lat="47.25956" lon="-2.33882">
        <ele>29.60000038147</ele>
        <time>2020-12-06T11:17:25.000Z</time>
      </trkpt>
      <trkpt lat="47.25956" lon="-2.33881">
        <ele>29</ele>
        <time>2020-12-06T11:17:26.000Z</time>
      </trkpt>
      <trkpt lat="47.25957" lon="-2.33879">
        <ele>28.60000038147</ele>
        <time>2020-12-06T11:17:27.000Z</time>
      </trkpt>
      <trkpt lat="47.25957" lon="-2.33878">
        <ele>28.200000762939</ele>
        <time>2020-12-06T11:17:28.000Z</time>
      </trkpt>
      <trkpt lat="47.25961" lon="-2.33865">
        <ele>28.200000762939</ele>
        <time>2020-12-06T11:17:32.000Z</time>
      </trkpt>
      <trkpt lat="47.2597" lon="-2.33835">
        <ele>28.200000762939</ele>
        <time>2020-12-06T11:17:37.000Z</time>
      </trkpt>
      <trkpt lat="47.25981" lon="-2.338">
        <ele>28.200000762939</ele>
        <time>2020-12-06T11:17:42.000Z</time>
      </trkpt>
      <trkpt lat="47.25988" lon="-2.33779">
        <ele>28.200000762939</ele>
        <time>2020-12-06T11:17:45.000Z</time>
      </trkpt>
      <trkpt lat="47.26004" lon="-2.33731">
        <ele>28.200000762939</ele>
        <time>2020-12-06T11:17:52.000Z</time>
      </trkpt>
      <trkpt lat="47.26021" lon="-2.33679">
        <ele>28.200000762939</ele>
        <time>2020-12-06T11:18:00.000Z</time>
      </trkpt>
      <trkpt lat="47.26025" lon="-2.33666">
        <ele>28.200000762939</ele>
        <time>2020-12-06T11:18:02.000Z</time>
      </trkpt>
      <trkpt lat="47.26032" lon="-2.33663">
        <ele>28.200000762939</ele>
        <time>2020-12-06T11:18:04.000Z</time>
      </trkpt>
      <trkpt lat="47.2604" lon="-2.33663">
        <ele>28.200000762939</ele>
        <time>2020-12-06T11:18:06.000Z</time>
      </trkpt>
      <trkpt lat="47.26048" lon="-2.33663">
        <ele>28.200000762939</ele>
        <time>2020-12-06T11:18:08.000Z</time>
      </trkpt>
      <trkpt lat="47.26053" lon="-2.33663">
        <ele>28.200000762939</ele>
        <time>2020-12-06T11:18:09.000Z</time>
      </trkpt>
      <trkpt lat="47.26061" lon="-2.33649">
        <ele>28.200000762939</ele>
        <time>2020-12-06T11:18:12.000Z</time>
      </trkpt>
      <trkpt lat="47.26067" lon="-2.33632">
        <ele>28.200000762939</ele>
        <time>2020-12-06T11:18:15.000Z</time>
      </trkpt>
      <trkpt lat="47.26072" lon="-2.33614">
        <ele>28.200000762939</ele>
        <time>2020-12-06T11:18:18.000Z</time>
      </trkpt>
      <trkpt lat="47.2609" lon="-2.33562">
        <ele>28.200000762939</ele>
        <time>2020-12-06T11:18:26.000Z</time>
      </trkpt>
      <trkpt lat="47.2611" lon="-2.33505">
        <ele>28.200000762939</ele>
        <time>2020-12-06T11:18:34.000Z</time>
      </trkpt>
      <trkpt lat="47.26126" lon="-2.33458">
        <ele>28.200000762939</ele>
        <time>2020-12-06T11:18:41.000Z</time>
      </trkpt>
      <trkpt lat="47.26136" lon="-2.33436">
        <ele>28.200000762939</ele>
        <time>2020-12-06T11:18:46.000Z</time>
      </trkpt>
      <trkpt lat="47.26136" lon="-2.33431">
        <ele>28.200000762939</ele>
        <time>2020-12-06T11:18:47.000Z</time>
      </trkpt>
      <trkpt lat="47.26132" lon="-2.3342">
        <ele>28.200000762939</ele>
        <time>2020-12-06T11:18:49.000Z</time>
      </trkpt>
      <trkpt lat="47.26118" lon="-2.33406">
        <ele>28.200000762939</ele>
        <time>2020-12-06T11:18:53.000Z</time>
      </trkpt>
      <trkpt lat="47.2611" lon="-2.33396">
        <ele>28.200000762939</ele>
        <time>2020-12-06T11:18:55.000Z</time>
      </trkpt>
      <trkpt lat="47.26102" lon="-2.33384">
        <ele>28.200000762939</ele>
        <time>2020-12-06T11:18:57.000Z</time>
      </trkpt>
      <trkpt lat="47.26076" lon="-2.33347">
        <ele>28.200000762939</ele>
        <time>2020-12-06T11:19:03.000Z</time>
      </trkpt>
      <trkpt lat="47.26072" lon="-2.33339">
        <ele>28.200000762939</ele>
        <time>2020-12-06T11:19:04.000Z</time>
      </trkpt>
      <trkpt lat="47.26062" lon="-2.33312">
        <ele>28.200000762939</ele>
        <time>2020-12-06T11:19:07.000Z</time>
      </trkpt>
      <trkpt lat="47.26039" lon="-2.33245">
        <ele>28.200000762939</ele>
        <time>2020-12-06T11:19:15.000Z</time>
      </trkpt>
      <trkpt lat="47.26022" lon="-2.33196">
        <ele>28.60000038147</ele>
        <time>2020-12-06T11:19:21.000Z</time>
      </trkpt>
      <trkpt lat="47.26019" lon="-2.33188">
        <ele>29</ele>
        <time>2020-12-06T11:19:22.000Z</time>
      </trkpt>
      <trkpt lat="47.26017" lon="-2.3318">
        <ele>29.39999961853</ele>
        <time>2020-12-06T11:19:23.000Z</time>
      </trkpt>
      <trkpt lat="47.26014" lon="-2.33172">
        <ele>29.799999237061</ele>
        <time>2020-12-06T11:19:24.000Z</time>
      </trkpt>
      <trkpt lat="47.26011" lon="-2.33164">
        <ele>30.200000762939</ele>
        <time>2020-12-06T11:19:25.000Z</time>
      </trkpt>
      <trkpt lat="47.25995" lon="-2.33116">
        <ele>30.200000762939</ele>
        <time>2020-12-06T11:19:31.000Z</time>
      </trkpt>
      <trkpt lat="47.25981" lon="-2.33082">
        <ele>30.200000762939</ele>
        <time>2020-12-06T11:19:36.000Z</time>
      </trkpt>
      <trkpt lat="47.25965" lon="-2.33034">
        <ele>30.200000762939</ele>
        <time>2020-12-06T11:19:42.000Z</time>
      </trkpt>
      <trkpt lat="47.25947" lon="-2.32981">
        <ele>30.200000762939</ele>
        <time>2020-12-06T11:19:49.000Z</time>
      </trkpt>
      <trkpt lat="47.25924" lon="-2.32917">
        <ele>30.200000762939</ele>
        <time>2020-12-06T11:19:57.000Z</time>
      </trkpt>
      <trkpt lat="47.25904" lon="-2.32858">
        <ele>30.200000762939</ele>
        <time>2020-12-06T11:20:04.000Z</time>
      </trkpt>
      <trkpt lat="47.25879" lon="-2.32784">
        <ele>30.200000762939</ele>
        <time>2020-12-06T11:20:13.000Z</time>
      </trkpt>
      <trkpt lat="47.25857" lon="-2.32708">
        <ele>30.200000762939</ele>
        <time>2020-12-06T11:20:22.000Z</time>
      </trkpt>
      <trkpt lat="47.25835" lon="-2.32631">
        <ele>30.200000762939</ele>
        <time>2020-12-06T11:20:31.000Z</time>
      </trkpt>
      <trkpt lat="47.25823" lon="-2.32579">
        <ele>30.200000762939</ele>
        <time>2020-12-06T11:20:37.000Z</time>
      </trkpt>
      <trkpt lat="47.25803" lon="-2.32501">
        <ele>30.200000762939</ele>
        <time>2020-12-06T11:20:46.000Z</time>
      </trkpt>
      <trkpt lat="47.258" lon="-2.32473">
        <ele>30.200000762939</ele>
        <time>2020-12-06T11:20:50.000Z</time>
      </trkpt>
      <trkpt lat="47.25801" lon="-2.32467">
        <ele>30.200000762939</ele>
        <time>2020-12-06T11:20:51.000Z</time>
      </trkpt>
      <trkpt lat="47.25808" lon="-2.32454">
        <ele>30.200000762939</ele>
        <time>2020-12-06T11:20:54.000Z</time>
      </trkpt>
      <trkpt lat="47.25811" lon="-2.32452">
        <ele>30.200000762939</ele>
        <time>2020-12-06T11:20:55.000Z</time>
      </trkpt>
      <trkpt lat="47.25821" lon="-2.32456">
        <ele>30.200000762939</ele>
        <time>2020-12-06T11:20:57.000Z</time>
      </trkpt>
      <trkpt lat="47.25831" lon="-2.32462">
        <ele>30.200000762939</ele>
        <time>2020-12-06T11:20:59.000Z</time>
      </trkpt>
      <trkpt lat="47.25846" lon="-2.32468">
        <ele>30.200000762939</ele>
        <time>2020-12-06T11:21:02.000Z</time>
      </trkpt>
      <trkpt lat="47.25866" lon="-2.32469">
        <ele>30.200000762939</ele>
        <time>2020-12-06T11:21:06.000Z</time>
      </trkpt>
      <trkpt lat="47.25872" lon="-2.32468">
        <ele>30.200000762939</ele>
        <time>2020-12-06T11:21:07.000Z</time>
      </trkpt>
      <trkpt lat="47.25893" lon="-2.32463">
        <ele>30.200000762939</ele>
        <time>2020-12-06T11:21:11.000Z</time>
      </trkpt>
      <trkpt lat="47.25903" lon="-2.32453">
        <ele>30.200000762939</ele>
        <time>2020-12-06T11:21:13.000Z</time>
      </trkpt>
      <trkpt lat="47.25935" lon="-2.32412">
        <ele>30.200000762939</ele>
        <time>2020-12-06T11:21:20.000Z</time>
      </trkpt>
      <trkpt lat="47.25965" lon="-2.32372">
        <ele>29.799999237061</ele>
        <time>2020-12-06T11:21:27.000Z</time>
      </trkpt>
      <trkpt lat="47.25969" lon="-2.32366">
        <ele>29.39999961853</ele>
        <time>2020-12-06T11:21:28.000Z</time>
      </trkpt>
      <trkpt lat="47.25973" lon="-2.32361">
        <ele>29</ele>
        <time>2020-12-06T11:21:29.000Z</time>
      </trkpt>
      <trkpt lat="47.25976" lon="-2.32356">
        <ele>28.60000038147</ele>
        <time>2020-12-06T11:21:30.000Z</time>
      </trkpt>
      <trkpt lat="47.25981" lon="-2.32351">
        <ele>28.200000762939</ele>
        <time>2020-12-06T11:21:31.000Z</time>
      </trkpt>
      <trkpt lat="47.25988" lon="-2.3234">
        <ele>28.200000762939</ele>
        <time>2020-12-06T11:21:33.000Z</time>
      </trkpt>
      <trkpt lat="47.25996" lon="-2.32329">
        <ele>28.200000762939</ele>
        <time>2020-12-06T11:21:35.000Z</time>
      </trkpt>
      <trkpt lat="47.26024" lon="-2.32294">
        <ele>28.200000762939</ele>
        <time>2020-12-06T11:21:42.000Z</time>
      </trkpt>
      <trkpt lat="47.26058" lon="-2.32257">
        <ele>28.200000762939</ele>
        <time>2020-12-06T11:21:50.000Z</time>
      </trkpt>
      <trkpt lat="47.26087" lon="-2.32226">
        <ele>28.200000762939</ele>
        <time>2020-12-06T11:21:57.000Z</time>
      </trkpt>
      <trkpt lat="47.26098" lon="-2.3221">
        <ele>28.200000762939</ele>
        <time>2020-12-06T11:22:00.000Z</time>
      </trkpt>
      <trkpt lat="47.26104" lon="-2.32197">
        <ele>28.200000762939</ele>
        <time>2020-12-06T11:22:02.000Z</time>
      </trkpt>
      <trkpt lat="47.26121" lon="-2.32147">
        <ele>28.200000762939</ele>
        <time>2020-12-06T11:22:09.000Z</time>
      </trkpt>
      <trkpt lat="47.26134" lon="-2.32102">
        <ele>28.200000762939</ele>
        <time>2020-12-06T11:22:15.000Z</time>
      </trkpt>
      <trkpt lat="47.26142" lon="-2.32082">
        <ele>28.200000762939</ele>
        <time>2020-12-06T11:22:18.000Z</time>
      </trkpt>
      <trkpt lat="47.26147" lon="-2.32068">
        <ele>28.200000762939</ele>
        <time>2020-12-06T11:22:20.000Z</time>
      </trkpt>
      <trkpt lat="47.26159" lon="-2.3203">
        <ele>28.200000762939</ele>
        <time>2020-12-06T11:22:26.000Z</time>
      </trkpt>
      <trkpt lat="47.26171" lon="-2.32018">
        <ele>28.200000762939</ele>
        <time>2020-12-06T11:22:30.000Z</time>
      </trkpt>
      <trkpt lat="47.26186" lon="-2.3202">
        <ele>28.200000762939</ele>
        <time>2020-12-06T11:22:34.000Z</time>
      </trkpt>
      <trkpt lat="47.26189" lon="-2.3202">
        <ele>28.200000762939</ele>
        <time>2020-12-06T11:22:35.000Z</time>
      </trkpt>
      <trkpt lat="47.26198" lon="-2.3202">
        <ele>28.200000762939</ele>
        <time>2020-12-06T11:22:39.000Z</time>
      </trkpt>
      <trkpt lat="47.262" lon="-2.32014">
        <ele>28.200000762939</ele>
        <time>2020-12-06T11:22:41.000Z</time>
      </trkpt>
      <trkpt lat="47.262" lon="-2.32007">
        <ele>28.200000762939</ele>
        <time>2020-12-06T11:22:43.000Z</time>
      </trkpt>
      <trkpt lat="47.26203" lon="-2.32002">
        <ele>28.200000762939</ele>
        <time>2020-12-06T11:22:45.000Z</time>
      </trkpt>
      <trkpt lat="47.26204" lon="-2.32">
        <ele>28.200000762939</ele>
        <time>2020-12-06T11:22:46.000Z</time>
      </trkpt>
      <trkpt lat="47.26209" lon="-2.31993">
        <ele>28.200000762939</ele>
        <time>2020-12-06T11:22:49.000Z</time>
      </trkpt>
      <trkpt lat="47.26212" lon="-2.31987">
        <ele>28.200000762939</ele>
        <time>2020-12-06T11:22:51.000Z</time>
      </trkpt>
      <trkpt lat="47.26227" lon="-2.31968">
        <ele>28.200000762939</ele>
        <time>2020-12-06T11:22:57.000Z</time>
      </trkpt>
      <trkpt lat="47.26238" lon="-2.31958">
        <ele>28.200000762939</ele>
        <time>2020-12-06T11:23:02.000Z</time>
      </trkpt>
      <trkpt lat="47.26249" lon="-2.31945">
        <ele>28.200000762939</ele>
        <time>2020-12-06T11:23:07.000Z</time>
      </trkpt>
      <trkpt lat="47.26263" lon="-2.31919">
        <ele>28.200000762939</ele>
        <time>2020-12-06T11:23:14.000Z</time>
      </trkpt>
      <trkpt lat="47.26279" lon="-2.31901">
        <ele>28.200000762939</ele>
        <time>2020-12-06T11:23:19.000Z</time>
      </trkpt>
      <trkpt lat="47.26299" lon="-2.31878">
        <ele>28.200000762939</ele>
        <time>2020-12-06T11:23:25.000Z</time>
      </trkpt>
      <trkpt lat="47.263" lon="-2.31851">
        <ele>28.200000762939</ele>
        <time>2020-12-06T11:23:30.000Z</time>
      </trkpt>
      <trkpt lat="47.263" lon="-2.31822">
        <ele>28.200000762939</ele>
        <time>2020-12-06T11:23:35.000Z</time>
      </trkpt>
      <trkpt lat="47.26301" lon="-2.31785">
        <ele>28.200000762939</ele>
        <time>2020-12-06T11:23:41.000Z</time>
      </trkpt>
      <trkpt lat="47.263" lon="-2.31744">
        <ele>28.200000762939</ele>
        <time>2020-12-06T11:23:48.000Z</time>
      </trkpt>
      <trkpt lat="47.26302" lon="-2.31726">
        <ele>28.200000762939</ele>
        <time>2020-12-06T11:23:51.000Z</time>
      </trkpt>
      <trkpt lat="47.26308" lon="-2.31717">
        <ele>28.200000762939</ele>
        <time>2020-12-06T11:23:53.000Z</time>
      </trkpt>
      <trkpt lat="47.2632" lon="-2.31709">
        <ele>28.200000762939</ele>
        <time>2020-12-06T11:23:56.000Z</time>
      </trkpt>
      <trkpt lat="47.26328" lon="-2.31705">
        <ele>28.200000762939</ele>
        <time>2020-12-06T11:23:58.000Z</time>
      </trkpt>
      <trkpt lat="47.26336" lon="-2.31699">
        <ele>28.200000762939</ele>
        <time>2020-12-06T11:24:00.000Z</time>
      </trkpt>
      <trkpt lat="47.26341" lon="-2.31691">
        <ele>28.60000038147</ele>
        <time>2020-12-06T11:24:02.000Z</time>
      </trkpt>
      <trkpt lat="47.26344" lon="-2.3169">
        <ele>29</ele>
        <time>2020-12-06T11:24:03.000Z</time>
      </trkpt>
      <trkpt lat="47.26346" lon="-2.31688">
        <ele>29.39999961853</ele>
        <time>2020-12-06T11:24:04.000Z</time>
      </trkpt>
      <trkpt lat="47.26349" lon="-2.31686">
        <ele>29.799999237061</ele>
        <time>2020-12-06T11:24:05.000Z</time>
      </trkpt>
      <trkpt lat="47.26352" lon="-2.31684">
        <ele>30.200000762939</ele>
        <time>2020-12-06T11:24:06.000Z</time>
      </trkpt>
      <trkpt lat="47.26364" lon="-2.31676">
        <ele>30.799999237061</ele>
        <time>2020-12-06T11:24:10.000Z</time>
      </trkpt>
      <trkpt lat="47.26368" lon="-2.31674">
        <ele>31.200000762939</ele>
        <time>2020-12-06T11:24:11.000Z</time>
      </trkpt>
      <trkpt lat="47.26372" lon="-2.31673">
        <ele>31.60000038147</ele>
        <time>2020-12-06T11:24:12.000Z</time>
      </trkpt>
      <trkpt lat="47.26375" lon="-2.31672">
        <ele>32.400001525879</ele>
        <time>2020-12-06T11:24:13.000Z</time>
      </trkpt>
      <trkpt lat="47.26387" lon="-2.31664">
        <ele>32.400001525879</ele>
        <time>2020-12-06T11:24:16.000Z</time>
      </trkpt>
      <trkpt lat="47.26406" lon="-2.31655">
        <ele>32.400001525879</ele>
        <time>2020-12-06T11:24:22.000Z</time>
      </trkpt>
      <trkpt lat="47.26414" lon="-2.31645">
        <ele>32.400001525879</ele>
        <time>2020-12-06T11:24:25.000Z</time>
      </trkpt>
      <trkpt lat="47.26413" lon="-2.31641">
        <ele>32.400001525879</ele>
        <time>2020-12-06T11:24:26.000Z</time>
      </trkpt>
      <trkpt lat="47.26412" lon="-2.31612">
        <ele>32.400001525879</ele>
        <time>2020-12-06T11:24:32.000Z</time>
      </trkpt>
      <trkpt lat="47.26411" lon="-2.31579">
        <ele>32.400001525879</ele>
        <time>2020-12-06T11:24:38.000Z</time>
      </trkpt>
      <trkpt lat="47.26411" lon="-2.31557">
        <ele>32.400001525879</ele>
        <time>2020-12-06T11:24:43.000Z</time>
      </trkpt>
      <trkpt lat="47.26415" lon="-2.31551">
        <ele>33</ele>
        <time>2020-12-06T11:24:47.000Z</time>
      </trkpt>
      <trkpt lat="47.26416" lon="-2.31551">
        <ele>33.400001525879</ele>
        <time>2020-12-06T11:24:48.000Z</time>
      </trkpt>
      <trkpt lat="47.26416" lon="-2.31551">
        <ele>33.799999237061</ele>
        <time>2020-12-06T11:24:49.000Z</time>
      </trkpt>
      <trkpt lat="47.26417" lon="-2.31551">
        <ele>34.200000762939</ele>
        <time>2020-12-06T11:24:50.000Z</time>
      </trkpt>
    </trkseg>
  </trk>
</gpx>